<?xml version="1.0" encoding="UTF-8"?>
<gpx version="1.0" creator="http://thydzik.com" xmlns:xsi="http://www.w3.org/2001/XMLSchema-instance" xmlns="http://www.topografix.com/GPX/1/0" xsi:schemaLocation="http://www.topografix.com/GPX/1/0 http://www.topografix.com/GPX/1/0/gpx.xsd">
  <url></url>
  <time>2024-01-11T01:25:41Z</time>
  <trk>
    <name></name>
    <trkseg>
      <trkpt lat="40.8402135385218" lon="-4.14201637402105">
        <time>2024-01-11T01:25:41Z</time>
      </trkpt>
      <trkpt lat="40.840208310918" lon="-4.14200594255715">
        <time>2024-01-11T01:25:41Z</time>
      </trkpt>
      <trkpt lat="40.8401313591842" lon="-4.1419686022436">
        <time>2024-01-11T01:25:41Z</time>
      </trkpt>
      <trkpt lat="40.8400544074362" lon="-4.14193126201815">
        <time>2024-01-11T01:25:41Z</time>
      </trkpt>
      <trkpt lat="40.8399774556739" lon="-4.14189392188093">
        <time>2024-01-11T01:25:41Z</time>
      </trkpt>
      <trkpt lat="40.8399065239792" lon="-4.1418362144787">
        <time>2024-01-11T01:25:41Z</time>
      </trkpt>
      <trkpt lat="40.8398355922532" lon="-4.14177850720069">
        <time>2024-01-11T01:25:41Z</time>
      </trkpt>
      <trkpt lat="40.8397736956731" lon="-4.14177116831212">
        <time>2024-01-11T01:25:41Z</time>
      </trkpt>
      <trkpt lat="40.8397117990916" lon="-4.14176382943851">
        <time>2024-01-11T01:25:41Z</time>
      </trkpt>
      <trkpt lat="40.8396498093335" lon="-4.14176590394141">
        <time>2024-01-11T01:25:41Z</time>
      </trkpt>
      <trkpt lat="40.8395878195747" lon="-4.14176797844175">
        <time>2024-01-11T01:25:41Z</time>
      </trkpt>
      <trkpt lat="40.8395326993648" lon="-4.14179841566102">
        <time>2024-01-11T01:25:41Z</time>
      </trkpt>
      <trkpt lat="40.839477579147" lon="-4.14182885283072">
        <time>2024-01-11T01:25:41Z</time>
      </trkpt>
      <trkpt lat="40.8394126783229" lon="-4.14188422856347">
        <time>2024-01-11T01:25:41Z</time>
      </trkpt>
      <trkpt lat="40.8393477774728" lon="-4.14193960418897">
        <time>2024-01-11T01:25:41Z</time>
      </trkpt>
      <trkpt lat="40.8392828144675" lon="-4.1420012552465">
        <time>2024-01-11T01:25:41Z</time>
      </trkpt>
      <trkpt lat="40.8392178514302" lon="-4.14206290618438">
        <time>2024-01-11T01:25:41Z</time>
      </trkpt>
      <trkpt lat="40.8391508781445" lon="-4.14208686293563">
        <time>2024-01-11T01:25:41Z</time>
      </trkpt>
      <trkpt lat="40.8390839048537" lon="-4.1421108196401">
        <time>2024-01-11T01:25:41Z</time>
      </trkpt>
      <trkpt lat="40.8390172422359" lon="-4.14210339872836">
        <time>2024-01-11T01:25:41Z</time>
      </trkpt>
      <trkpt lat="40.8389505796168" lon="-4.14209597783298">
        <time>2024-01-11T01:25:41Z</time>
      </trkpt>
      <trkpt lat="40.8388745961412" lon="-4.14206705662798">
        <time>2024-01-11T01:25:41Z</time>
      </trkpt>
      <trkpt lat="40.8387986126566" lon="-4.14203813549097">
        <time>2024-01-11T01:25:41Z</time>
      </trkpt>
      <trkpt lat="40.8387226291629" lon="-4.14200921442182">
        <time>2024-01-11T01:25:41Z</time>
      </trkpt>
      <trkpt lat="40.8386466456601" lon="-4.14198029342055">
        <time>2024-01-11T01:25:41Z</time>
      </trkpt>
      <trkpt lat="40.8385706621481" lon="-4.1419513724872">
        <time>2024-01-11T01:25:41Z</time>
      </trkpt>
      <trkpt lat="40.8384880931243" lon="-4.14191355145278">
        <time>2024-01-11T01:25:41Z</time>
      </trkpt>
      <trkpt lat="40.8384055240857" lon="-4.14187573051436">
        <time>2024-01-11T01:25:41Z</time>
      </trkpt>
      <trkpt lat="40.8383229550323" lon="-4.1418379096719">
        <time>2024-01-11T01:25:41Z</time>
      </trkpt>
      <trkpt lat="40.8382403859641" lon="-4.14180008892544">
        <time>2024-01-11T01:25:41Z</time>
      </trkpt>
      <trkpt lat="40.8381578168811" lon="-4.14176226827488">
        <time>2024-01-11T01:25:41Z</time>
      </trkpt>
      <trkpt lat="40.8380830465555" lon="-4.14173117186135">
        <time>2024-01-11T01:25:41Z</time>
      </trkpt>
      <trkpt lat="40.8380082762196" lon="-4.14170007551951">
        <time>2024-01-11T01:25:41Z</time>
      </trkpt>
      <trkpt lat="40.8379335058735" lon="-4.14166897924929">
        <time>2024-01-11T01:25:41Z</time>
      </trkpt>
      <trkpt lat="40.8378587355171" lon="-4.14163788305075">
        <time>2024-01-11T01:25:41Z</time>
      </trkpt>
      <trkpt lat="40.8377922746947" lon="-4.14161006772884">
        <time>2024-01-11T01:25:41Z</time>
      </trkpt>
      <trkpt lat="40.837725813864" lon="-4.14158225246388">
        <time>2024-01-11T01:25:41Z</time>
      </trkpt>
      <trkpt lat="40.8376593530252" lon="-4.14155443725588">
        <time>2024-01-11T01:25:41Z</time>
      </trkpt>
      <trkpt lat="40.8375928921781" lon="-4.14152662210484">
        <time>2024-01-11T01:25:41Z</time>
      </trkpt>
      <trkpt lat="40.8375280044832" lon="-4.14150040310978">
        <time>2024-01-11T01:25:41Z</time>
      </trkpt>
      <trkpt lat="40.8374631167809" lon="-4.14147418416713">
        <time>2024-01-11T01:25:41Z</time>
      </trkpt>
      <trkpt lat="40.8373982290712" lon="-4.141447965277">
        <time>2024-01-11T01:25:41Z</time>
      </trkpt>
      <trkpt lat="40.8373199617184" lon="-4.14140896407565">
        <time>2024-01-11T01:25:41Z</time>
      </trkpt>
      <trkpt lat="40.8372416943502" lon="-4.14136996296788">
        <time>2024-01-11T01:25:41Z</time>
      </trkpt>
      <trkpt lat="40.8371705139608" lon="-4.14133735992448">
        <time>2024-01-11T01:25:41Z</time>
      </trkpt>
      <trkpt lat="40.8370993335603" lon="-4.14130475695243">
        <time>2024-01-11T01:25:41Z</time>
      </trkpt>
      <trkpt lat="40.8370332917222" lon="-4.14123458382784">
        <time>2024-01-11T01:25:41Z</time>
      </trkpt>
      <trkpt lat="40.8369672498389" lon="-4.14116441084303">
        <time>2024-01-11T01:25:41Z</time>
      </trkpt>
      <trkpt lat="40.8369012079102" lon="-4.14109423799812">
        <time>2024-01-11T01:25:41Z</time>
      </trkpt>
      <trkpt lat="40.8368447135695" lon="-4.14102265992517">
        <time>2024-01-11T01:25:41Z</time>
      </trkpt>
      <trkpt lat="40.8367882191821" lon="-4.14095108197381">
        <time>2024-01-11T01:25:41Z</time>
      </trkpt>
      <trkpt lat="40.8367317247481" lon="-4.1408795041441">
        <time>2024-01-11T01:25:41Z</time>
      </trkpt>
      <trkpt lat="40.8366752302676" lon="-4.14080792643603">
        <time>2024-01-11T01:25:41Z</time>
      </trkpt>
      <trkpt lat="40.836604401366" lon="-4.14073976430894">
        <time>2024-01-11T01:25:41Z</time>
      </trkpt>
      <trkpt lat="40.8365335724214" lon="-4.14067160232782">
        <time>2024-01-11T01:25:41Z</time>
      </trkpt>
      <trkpt lat="40.8364627434338" lon="-4.14060344049267">
        <time>2024-01-11T01:25:41Z</time>
      </trkpt>
      <trkpt lat="40.836399686151" lon="-4.14054129981588">
        <time>2024-01-11T01:25:41Z</time>
      </trkpt>
      <trkpt lat="40.8363366288325" lon="-4.1404791592575">
        <time>2024-01-11T01:25:41Z</time>
      </trkpt>
      <trkpt lat="40.8362735714783" lon="-4.14041701881752">
        <time>2024-01-11T01:25:41Z</time>
      </trkpt>
      <trkpt lat="40.8362105140883" lon="-4.14035487849589">
        <time>2024-01-11T01:25:41Z</time>
      </trkpt>
      <trkpt lat="40.8361474566627" lon="-4.14029273829272">
        <time>2024-01-11T01:25:41Z</time>
      </trkpt>
      <trkpt lat="40.8360843992013" lon="-4.1402305982079">
        <time>2024-01-11T01:25:41Z</time>
      </trkpt>
      <trkpt lat="40.8360213417042" lon="-4.14016845824148">
        <time>2024-01-11T01:25:41Z</time>
      </trkpt>
      <trkpt lat="40.8359543211118" lon="-4.14010078115001">
        <time>2024-01-11T01:25:41Z</time>
      </trkpt>
      <trkpt lat="40.8358873004772" lon="-4.14003310419554">
        <time>2024-01-11T01:25:41Z</time>
      </trkpt>
      <trkpt lat="40.8358202798004" lon="-4.13996542737812">
        <time>2024-01-11T01:25:41Z</time>
      </trkpt>
      <trkpt lat="40.8357532590812" lon="-4.13989775069763">
        <time>2024-01-11T01:25:41Z</time>
      </trkpt>
      <trkpt lat="40.8356862383197" lon="-4.13983007415408">
        <time>2024-01-11T01:25:41Z</time>
      </trkpt>
      <trkpt lat="40.8356272903672" lon="-4.13976551724869">
        <time>2024-01-11T01:25:41Z</time>
      </trkpt>
      <trkpt lat="40.8355683423765" lon="-4.13970096045802">
        <time>2024-01-11T01:25:41Z</time>
      </trkpt>
      <trkpt lat="40.8355093943475" lon="-4.13963640378211">
        <time>2024-01-11T01:25:41Z</time>
      </trkpt>
      <trkpt lat="40.8354504462803" lon="-4.13957184722097">
        <time>2024-01-11T01:25:41Z</time>
      </trkpt>
      <trkpt lat="40.8353932273329" lon="-4.1395132043603">
        <time>2024-01-11T01:25:41Z</time>
      </trkpt>
      <trkpt lat="40.8353360083537" lon="-4.13945456160093">
        <time>2024-01-11T01:25:41Z</time>
      </trkpt>
      <trkpt lat="40.8352787893429" lon="-4.13939591894286">
        <time>2024-01-11T01:25:41Z</time>
      </trkpt>
      <trkpt lat="40.8352215703003" lon="-4.13933727638608">
        <time>2024-01-11T01:25:41Z</time>
      </trkpt>
      <trkpt lat="40.8351536827427" lon="-4.13926079941468">
        <time>2024-01-11T01:25:41Z</time>
      </trkpt>
      <trkpt lat="40.8350857951316" lon="-4.13918432259976">
        <time>2024-01-11T01:25:41Z</time>
      </trkpt>
      <trkpt lat="40.8350179074669" lon="-4.13910784594134">
        <time>2024-01-11T01:25:41Z</time>
      </trkpt>
      <trkpt lat="40.8349500197487" lon="-4.13903136943941">
        <time>2024-01-11T01:25:41Z</time>
      </trkpt>
      <trkpt lat="40.8348821319769" lon="-4.13895489309391">
        <time>2024-01-11T01:25:41Z</time>
      </trkpt>
      <trkpt lat="40.834826208761" lon="-4.13888568238696">
        <time>2024-01-11T01:25:41Z</time>
      </trkpt>
      <trkpt lat="40.8347702855015" lon="-4.13881647179648">
        <time>2024-01-11T01:25:41Z</time>
      </trkpt>
      <trkpt lat="40.8347143621984" lon="-4.13874726132247">
        <time>2024-01-11T01:25:41Z</time>
      </trkpt>
      <trkpt lat="40.8346584388517" lon="-4.13867805096493">
        <time>2024-01-11T01:25:41Z</time>
      </trkpt>
      <trkpt lat="40.8346025154613" lon="-4.13860884072381">
        <time>2024-01-11T01:25:41Z</time>
      </trkpt>
      <trkpt lat="40.8345465920274" lon="-4.13853963059921">
        <time>2024-01-11T01:25:41Z</time>
      </trkpt>
      <trkpt lat="40.8344816007089" lon="-4.13845943908848">
        <time>2024-01-11T01:25:41Z</time>
      </trkpt>
      <trkpt lat="40.8344166093318" lon="-4.13837924773458">
        <time>2024-01-11T01:25:41Z</time>
      </trkpt>
      <trkpt lat="40.8343516178962" lon="-4.13829905653751">
        <time>2024-01-11T01:25:41Z</time>
      </trkpt>
      <trkpt lat="40.834286626402" lon="-4.13821886549727">
        <time>2024-01-11T01:25:41Z</time>
      </trkpt>
      <trkpt lat="40.8342216348493" lon="-4.13813867461386">
        <time>2024-01-11T01:25:41Z</time>
      </trkpt>
      <trkpt lat="40.834162959622" lon="-4.13806147500532">
        <time>2024-01-11T01:25:41Z</time>
      </trkpt>
      <trkpt lat="40.8341042843407" lon="-4.13798427553297">
        <time>2024-01-11T01:25:41Z</time>
      </trkpt>
      <trkpt lat="40.8340456090054" lon="-4.13790707619671">
        <time>2024-01-11T01:25:41Z</time>
      </trkpt>
      <trkpt lat="40.833986933616" lon="-4.13782987699665">
        <time>2024-01-11T01:25:41Z</time>
      </trkpt>
      <trkpt lat="40.8339282581725" lon="-4.13775267793273">
        <time>2024-01-11T01:25:41Z</time>
      </trkpt>
      <trkpt lat="40.833869582675" lon="-4.137675479005">
        <time>2024-01-11T01:25:41Z</time>
      </trkpt>
      <trkpt lat="40.8338109071234" lon="-4.13759828021336">
        <time>2024-01-11T01:25:41Z</time>
      </trkpt>
      <trkpt lat="40.8337522315177" lon="-4.13752108155791">
        <time>2024-01-11T01:25:41Z</time>
      </trkpt>
      <trkpt lat="40.8337010850667" lon="-4.13745077813172">
        <time>2024-01-11T01:25:41Z</time>
      </trkpt>
      <trkpt lat="40.8336499385709" lon="-4.13738047481349">
        <time>2024-01-11T01:25:41Z</time>
      </trkpt>
      <trkpt lat="40.8335987920304" lon="-4.13731017160325">
        <time>2024-01-11T01:25:41Z</time>
      </trkpt>
      <trkpt lat="40.8335476454452" lon="-4.13723986850107">
        <time>2024-01-11T01:25:41Z</time>
      </trkpt>
      <trkpt lat="40.8334911857046" lon="-4.13716453231661">
        <time>2024-01-11T01:25:41Z</time>
      </trkpt>
      <trkpt lat="40.8334347259127" lon="-4.13708919626004">
        <time>2024-01-11T01:25:41Z</time>
      </trkpt>
      <trkpt lat="40.8333782660692" lon="-4.1370138603312">
        <time>2024-01-11T01:25:41Z</time>
      </trkpt>
      <trkpt lat="40.8333218061743" lon="-4.13693852453025">
        <time>2024-01-11T01:25:41Z</time>
      </trkpt>
      <trkpt lat="40.833265346228" lon="-4.13686318885709">
        <time>2024-01-11T01:25:41Z</time>
      </trkpt>
      <trkpt lat="40.8332115996083" lon="-4.13678460474484">
        <time>2024-01-11T01:25:41Z</time>
      </trkpt>
      <trkpt lat="40.8331578529329" lon="-4.13670602075928">
        <time>2024-01-11T01:25:41Z</time>
      </trkpt>
      <trkpt lat="40.8331041062018" lon="-4.13662743690043">
        <time>2024-01-11T01:25:41Z</time>
      </trkpt>
      <trkpt lat="40.833050359415" lon="-4.13654885316828">
        <time>2024-01-11T01:25:41Z</time>
      </trkpt>
      <trkpt lat="40.8329927865077" lon="-4.13646549721262">
        <time>2024-01-11T01:25:41Z</time>
      </trkpt>
      <trkpt lat="40.8329352135377" lon="-4.13638214140099">
        <time>2024-01-11T01:25:41Z</time>
      </trkpt>
      <trkpt lat="40.8328776405049" lon="-4.13629878573329">
        <time>2024-01-11T01:25:41Z</time>
      </trkpt>
      <trkpt lat="40.8328200674095" lon="-4.13621543020964">
        <time>2024-01-11T01:25:41Z</time>
      </trkpt>
      <trkpt lat="40.8327624942513" lon="-4.13613207482996">
        <time>2024-01-11T01:25:41Z</time>
      </trkpt>
      <trkpt lat="40.8327049210305" lon="-4.13604871959433">
        <time>2024-01-11T01:25:41Z</time>
      </trkpt>
      <trkpt lat="40.8326473477469" lon="-4.13596536450269">
        <time>2024-01-11T01:25:41Z</time>
      </trkpt>
      <trkpt lat="40.8325897744006" lon="-4.13588200955502">
        <time>2024-01-11T01:25:41Z</time>
      </trkpt>
      <trkpt lat="40.8325322009916" lon="-4.13579865475134">
        <time>2024-01-11T01:25:41Z</time>
      </trkpt>
      <trkpt lat="40.8324863805227" lon="-4.13573197507902">
        <time>2024-01-11T01:25:41Z</time>
      </trkpt>
      <trkpt lat="40.8324405600137" lon="-4.13566529549837">
        <time>2024-01-11T01:25:41Z</time>
      </trkpt>
      <trkpt lat="40.8323947394647" lon="-4.13559861600936">
        <time>2024-01-11T01:25:41Z</time>
      </trkpt>
      <trkpt lat="40.8323489188754" lon="-4.13553193661204">
        <time>2024-01-11T01:25:41Z</time>
      </trkpt>
      <trkpt lat="40.8322953454071" lon="-4.13545382832007">
        <time>2024-01-11T01:25:41Z</time>
      </trkpt>
      <trkpt lat="40.8322417718838" lon="-4.13537572015355">
        <time>2024-01-11T01:25:41Z</time>
      </trkpt>
      <trkpt lat="40.8321881983053" lon="-4.13529761211265">
        <time>2024-01-11T01:25:41Z</time>
      </trkpt>
      <trkpt lat="40.8321346246719" lon="-4.13521950419727">
        <time>2024-01-11T01:25:41Z</time>
      </trkpt>
      <trkpt lat="40.8320810509834" lon="-4.1351413964074">
        <time>2024-01-11T01:25:41Z</time>
      </trkpt>
      <trkpt lat="40.8320307387733" lon="-4.13507699450509">
        <time>2024-01-11T01:25:41Z</time>
      </trkpt>
      <trkpt lat="40.8319804265256" lon="-4.13501259270027">
        <time>2024-01-11T01:25:41Z</time>
      </trkpt>
      <trkpt lat="40.8319301142402" lon="-4.13494819099282">
        <time>2024-01-11T01:25:41Z</time>
      </trkpt>
      <trkpt lat="40.8318798019171" lon="-4.1348837893828">
        <time>2024-01-11T01:25:41Z</time>
      </trkpt>
      <trkpt lat="40.8318224561911" lon="-4.13480750061695">
        <time>2024-01-11T01:25:41Z</time>
      </trkpt>
      <trkpt lat="40.8317651104124" lon="-4.13473121198257">
        <time>2024-01-11T01:25:41Z</time>
      </trkpt>
      <trkpt lat="40.8317077645809" lon="-4.13465492347962">
        <time>2024-01-11T01:25:41Z</time>
      </trkpt>
      <trkpt lat="40.8316504186966" lon="-4.13457863510814">
        <time>2024-01-11T01:25:41Z</time>
      </trkpt>
      <trkpt lat="40.8315880758587" lon="-4.13451967725791">
        <time>2024-01-11T01:25:41Z</time>
      </trkpt>
      <trkpt lat="40.8315257329885" lon="-4.13446071951887">
        <time>2024-01-11T01:25:41Z</time>
      </trkpt>
      <trkpt lat="40.831463390086" lon="-4.1344017618909">
        <time>2024-01-11T01:25:41Z</time>
      </trkpt>
      <trkpt lat="40.8314010471513" lon="-4.13434280437406">
        <time>2024-01-11T01:25:41Z</time>
      </trkpt>
      <trkpt lat="40.8313387041843" lon="-4.13428384696829">
        <time>2024-01-11T01:25:41Z</time>
      </trkpt>
      <trkpt lat="40.8312741395234" lon="-4.13421449665379">
        <time>2024-01-11T01:25:41Z</time>
      </trkpt>
      <trkpt lat="40.8312095748183" lon="-4.13414514647428">
        <time>2024-01-11T01:25:41Z</time>
      </trkpt>
      <trkpt lat="40.831145010069" lon="-4.13407579642984">
        <time>2024-01-11T01:25:41Z</time>
      </trkpt>
      <trkpt lat="40.8310804452755" lon="-4.13400644652046">
        <time>2024-01-11T01:25:41Z</time>
      </trkpt>
      <trkpt lat="40.8310211960104" lon="-4.13394189418597">
        <time>2024-01-11T01:25:41Z</time>
      </trkpt>
      <trkpt lat="40.830961946707" lon="-4.13387734196681">
        <time>2024-01-11T01:25:41Z</time>
      </trkpt>
      <trkpt lat="40.8309026973655" lon="-4.13381278986299">
        <time>2024-01-11T01:25:41Z</time>
      </trkpt>
      <trkpt lat="40.8308434479857" lon="-4.13374823787445">
        <time>2024-01-11T01:25:41Z</time>
      </trkpt>
      <trkpt lat="40.8307857682847" lon="-4.133675968062">
        <time>2024-01-11T01:25:41Z</time>
      </trkpt>
      <trkpt lat="40.8306947668857" lon="-4.13360183890033">
        <time>2024-01-11T01:25:41Z</time>
      </trkpt>
      <trkpt lat="40.8306018295875" lon="-4.13355364273206">
        <time>2024-01-11T01:25:41Z</time>
      </trkpt>
      <trkpt lat="40.8305254136786" lon="-4.13351068692715">
        <time>2024-01-11T01:25:41Z</time>
      </trkpt>
      <trkpt lat="40.8304804854881" lon="-4.13348314400243">
        <time>2024-01-11T01:25:41Z</time>
      </trkpt>
      <trkpt lat="40.8304504846404" lon="-4.13346974008005">
        <time>2024-01-11T01:25:41Z</time>
      </trkpt>
      <trkpt lat="40.8304206350163" lon="-4.13346508861486">
        <time>2024-01-11T01:25:41Z</time>
      </trkpt>
      <trkpt lat="40.8303600214871" lon="-4.13346386891186">
        <time>2024-01-11T01:25:41Z</time>
      </trkpt>
      <trkpt lat="40.8302930498141" lon="-4.13348783137463">
        <time>2024-01-11T01:25:41Z</time>
      </trkpt>
      <trkpt lat="40.8302260781359" lon="-4.13351179379066">
        <time>2024-01-11T01:25:41Z</time>
      </trkpt>
      <trkpt lat="40.8301864188985" lon="-4.13354563496381">
        <time>2024-01-11T01:25:41Z</time>
      </trkpt>
      <trkpt lat="40.8301467596515" lon="-4.13357947609694">
        <time>2024-01-11T01:25:41Z</time>
      </trkpt>
      <trkpt lat="40.8301180937161" lon="-4.13362638623431">
        <time>2024-01-11T01:25:41Z</time>
      </trkpt>
      <trkpt lat="40.8300894277619" lon="-4.1336732963311">
        <time>2024-01-11T01:25:41Z</time>
      </trkpt>
      <trkpt lat="40.8300883789208" lon="-4.13378001526098">
        <time>2024-01-11T01:25:41Z</time>
      </trkpt>
      <trkpt lat="40.8300873299809" lon="-4.13388673418524">
        <time>2024-01-11T01:25:41Z</time>
      </trkpt>
      <trkpt lat="40.8300968130686" lon="-4.13397280768385">
        <time>2024-01-11T01:25:41Z</time>
      </trkpt>
      <trkpt lat="40.8301062960917" lon="-4.13405888120559">
        <time>2024-01-11T01:25:41Z</time>
      </trkpt>
      <trkpt lat="40.8301056175229" lon="-4.13412790280859">
        <time>2024-01-11T01:25:41Z</time>
      </trkpt>
      <trkpt lat="40.8300800404095" lon="-4.13418394861827">
        <time>2024-01-11T01:25:41Z</time>
      </trkpt>
      <trkpt lat="40.8300544632692" lon="-4.13423999438448">
        <time>2024-01-11T01:25:41Z</time>
      </trkpt>
      <trkpt lat="40.8300066328616" lon="-4.13425643751271">
        <time>2024-01-11T01:25:41Z</time>
      </trkpt>
      <trkpt lat="40.8299588024515" lon="-4.13427288061803">
        <time>2024-01-11T01:25:41Z</time>
      </trkpt>
      <trkpt lat="40.8298983293473" lon="-4.13428230953258">
        <time>2024-01-11T01:25:41Z</time>
      </trkpt>
      <trkpt lat="40.8298378562419" lon="-4.13429173843122">
        <time>2024-01-11T01:25:41Z</time>
      </trkpt>
      <trkpt lat="40.8297773831354" lon="-4.134301167314">
        <time>2024-01-11T01:25:41Z</time>
      </trkpt>
      <trkpt lat="40.8297283351747" lon="-4.13431013718156">
        <time>2024-01-11T01:25:41Z</time>
      </trkpt>
      <trkpt lat="40.829679287213" lon="-4.13431910703679">
        <time>2024-01-11T01:25:41Z</time>
      </trkpt>
      <trkpt lat="40.8295996726798" lon="-4.13433605426019">
        <time>2024-01-11T01:25:41Z</time>
      </trkpt>
      <trkpt lat="40.8295200581436" lon="-4.13435300144511">
        <time>2024-01-11T01:25:41Z</time>
      </trkpt>
      <trkpt lat="40.8294404436043" lon="-4.13436994859166">
        <time>2024-01-11T01:25:41Z</time>
      </trkpt>
      <trkpt lat="40.829375620206" lon="-4.13439760725646">
        <time>2024-01-11T01:25:41Z</time>
      </trkpt>
      <trkpt lat="40.8293107968011" lon="-4.13442526586875">
        <time>2024-01-11T01:25:41Z</time>
      </trkpt>
      <trkpt lat="40.8292459733895" lon="-4.13445292442839">
        <time>2024-01-11T01:25:41Z</time>
      </trkpt>
      <trkpt lat="40.8291781791086" lon="-4.13453021456252">
        <time>2024-01-11T01:25:41Z</time>
      </trkpt>
      <trkpt lat="40.8291103847772" lon="-4.13460750453953">
        <time>2024-01-11T01:25:41Z</time>
      </trkpt>
      <trkpt lat="40.8290809332531" lon="-4.13468058610539">
        <time>2024-01-11T01:25:41Z</time>
      </trkpt>
      <trkpt lat="40.8290514816833" lon="-4.13475366760577">
        <time>2024-01-11T01:25:41Z</time>
      </trkpt>
      <trkpt lat="40.8290363519485" lon="-4.13482102799918">
        <time>2024-01-11T01:25:41Z</time>
      </trkpt>
      <trkpt lat="40.8290212221746" lon="-4.13488838836111">
        <time>2024-01-11T01:25:41Z</time>
      </trkpt>
      <trkpt lat="40.8290458088749" lon="-4.13496333084845">
        <time>2024-01-11T01:25:41Z</time>
      </trkpt>
      <trkpt lat="40.8290703955256" lon="-4.13503827339025">
        <time>2024-01-11T01:25:41Z</time>
      </trkpt>
      <trkpt lat="40.8291264910161" lon="-4.13509021967883">
        <time>2024-01-11T01:25:41Z</time>
      </trkpt>
      <trkpt lat="40.829204927451" lon="-4.13514254708753">
        <time>2024-01-11T01:25:41Z</time>
      </trkpt>
      <trkpt lat="40.8292833638595" lon="-4.13519487462111">
        <time>2024-01-11T01:25:41Z</time>
      </trkpt>
      <trkpt lat="40.8293126887053" lon="-4.13524244229416">
        <time>2024-01-11T01:25:41Z</time>
      </trkpt>
      <trkpt lat="40.8293145096364" lon="-4.13536014211576">
        <time>2024-01-11T01:25:41Z</time>
      </trkpt>
      <trkpt lat="40.8292840655041" lon="-4.13542630171475">
        <time>2024-01-11T01:25:41Z</time>
      </trkpt>
      <trkpt lat="40.8292536213344" lon="-4.13549246125263">
        <time>2024-01-11T01:25:41Z</time>
      </trkpt>
      <trkpt lat="40.8291736913852" lon="-4.13554143357681">
        <time>2024-01-11T01:25:41Z</time>
      </trkpt>
      <trkpt lat="40.8290937614157" lon="-4.13559040578508">
        <time>2024-01-11T01:25:41Z</time>
      </trkpt>
      <trkpt lat="40.8290138314259" lon="-4.13563937787746">
        <time>2024-01-11T01:25:41Z</time>
      </trkpt>
      <trkpt lat="40.8289376050754" lon="-4.13568682546543">
        <time>2024-01-11T01:25:41Z</time>
      </trkpt>
      <trkpt lat="40.8288613787058" lon="-4.1357342729462">
        <time>2024-01-11T01:25:41Z</time>
      </trkpt>
      <trkpt lat="40.8287851523172" lon="-4.13578172031987">
        <time>2024-01-11T01:25:41Z</time>
      </trkpt>
      <trkpt lat="40.8287089259095" lon="-4.13582916758645">
        <time>2024-01-11T01:25:41Z</time>
      </trkpt>
      <trkpt lat="40.8286326994827" lon="-4.13587661474583">
        <time>2024-01-11T01:25:41Z</time>
      </trkpt>
      <trkpt lat="40.8285564730369" lon="-4.13592406179811">
        <time>2024-01-11T01:25:41Z</time>
      </trkpt>
      <trkpt lat="40.828480246572" lon="-4.13597150874324">
        <time>2024-01-11T01:25:41Z</time>
      </trkpt>
      <trkpt lat="40.8284325858448" lon="-4.13597069530266">
        <time>2024-01-11T01:25:41Z</time>
      </trkpt>
      <trkpt lat="40.8283849251173" lon="-4.13596988186402">
        <time>2024-01-11T01:25:41Z</time>
      </trkpt>
      <trkpt lat="40.8283108243256" lon="-4.13592597697823">
        <time>2024-01-11T01:25:41Z</time>
      </trkpt>
      <trkpt lat="40.8282367235151" lon="-4.13588207219169">
        <time>2024-01-11T01:25:41Z</time>
      </trkpt>
      <trkpt lat="40.8281626226856" lon="-4.1358381675044">
        <time>2024-01-11T01:25:41Z</time>
      </trkpt>
      <trkpt lat="40.8280885218372" lon="-4.13579426291642">
        <time>2024-01-11T01:25:41Z</time>
      </trkpt>
      <trkpt lat="40.8280116623245" lon="-4.13576249803504">
        <time>2024-01-11T01:25:41Z</time>
      </trkpt>
      <trkpt lat="40.8279348028011" lon="-4.13573073322891">
        <time>2024-01-11T01:25:41Z</time>
      </trkpt>
      <trkpt lat="40.8278579432669" lon="-4.13569896849794">
        <time>2024-01-11T01:25:41Z</time>
      </trkpt>
      <trkpt lat="40.827781083722" lon="-4.13566720384216">
        <time>2024-01-11T01:25:41Z</time>
      </trkpt>
      <trkpt lat="40.8277042241664" lon="-4.13563543926165">
        <time>2024-01-11T01:25:41Z</time>
      </trkpt>
      <trkpt lat="40.8276273646001" lon="-4.13560367475629">
        <time>2024-01-11T01:25:41Z</time>
      </trkpt>
      <trkpt lat="40.827550505023" lon="-4.13557191032612">
        <time>2024-01-11T01:25:41Z</time>
      </trkpt>
      <trkpt lat="40.8274792297723" lon="-4.13554281076057">
        <time>2024-01-11T01:25:41Z</time>
      </trkpt>
      <trkpt lat="40.8274079545126" lon="-4.13551371125891">
        <time>2024-01-11T01:25:41Z</time>
      </trkpt>
      <trkpt lat="40.8273366792439" lon="-4.13548461182114">
        <time>2024-01-11T01:25:41Z</time>
      </trkpt>
      <trkpt lat="40.8272654039662" lon="-4.13545551244727">
        <time>2024-01-11T01:25:41Z</time>
      </trkpt>
      <trkpt lat="40.8271941286794" lon="-4.13542641313734">
        <time>2024-01-11T01:25:41Z</time>
      </trkpt>
      <trkpt lat="40.827121095878" lon="-4.13539673054175">
        <time>2024-01-11T01:25:41Z</time>
      </trkpt>
      <trkpt lat="40.8270480630671" lon="-4.13536704801288">
        <time>2024-01-11T01:25:41Z</time>
      </trkpt>
      <trkpt lat="40.8269750302468" lon="-4.13533736555087">
        <time>2024-01-11T01:25:41Z</time>
      </trkpt>
      <trkpt lat="40.8269019974171" lon="-4.13530768315565">
        <time>2024-01-11T01:25:41Z</time>
      </trkpt>
      <trkpt lat="40.826828964578" lon="-4.13527800082727">
        <time>2024-01-11T01:25:41Z</time>
      </trkpt>
      <trkpt lat="40.8267466100126" lon="-4.13524343012313">
        <time>2024-01-11T01:25:41Z</time>
      </trkpt>
      <trkpt lat="40.8266642554345" lon="-4.13520885950669">
        <time>2024-01-11T01:25:41Z</time>
      </trkpt>
      <trkpt lat="40.8265819008437" lon="-4.13517428897791">
        <time>2024-01-11T01:25:41Z</time>
      </trkpt>
      <trkpt lat="40.8264995462404" lon="-4.13513971853672">
        <time>2024-01-11T01:25:41Z</time>
      </trkpt>
      <trkpt lat="40.8264171916243" lon="-4.13510514818325">
        <time>2024-01-11T01:25:41Z</time>
      </trkpt>
      <trkpt lat="40.8263348369956" lon="-4.13507057791742">
        <time>2024-01-11T01:25:41Z</time>
      </trkpt>
      <trkpt lat="40.8262524823543" lon="-4.13503600773919">
        <time>2024-01-11T01:25:41Z</time>
      </trkpt>
      <trkpt lat="40.8261701277004" lon="-4.13500143764867">
        <time>2024-01-11T01:25:41Z</time>
      </trkpt>
      <trkpt lat="40.8260877730337" lon="-4.13496686764575">
        <time>2024-01-11T01:25:41Z</time>
      </trkpt>
      <trkpt lat="40.8260054183544" lon="-4.13493229773053">
        <time>2024-01-11T01:25:41Z</time>
      </trkpt>
      <trkpt lat="40.8259230636625" lon="-4.13489772790291">
        <time>2024-01-11T01:25:41Z</time>
      </trkpt>
      <trkpt lat="40.8258407089579" lon="-4.13486315816295">
        <time>2024-01-11T01:25:41Z</time>
      </trkpt>
      <trkpt lat="40.8257583542407" lon="-4.13482858851063">
        <time>2024-01-11T01:25:41Z</time>
      </trkpt>
      <trkpt lat="40.8256759995108" lon="-4.13479401894597">
        <time>2024-01-11T01:25:41Z</time>
      </trkpt>
      <trkpt lat="40.8255936447683" lon="-4.13475944946896">
        <time>2024-01-11T01:25:41Z</time>
      </trkpt>
      <trkpt lat="40.8255112900131" lon="-4.13472488007961">
        <time>2024-01-11T01:25:41Z</time>
      </trkpt>
      <trkpt lat="40.8254289352453" lon="-4.13469031077784">
        <time>2024-01-11T01:25:41Z</time>
      </trkpt>
      <trkpt lat="40.8253465804649" lon="-4.13465574156379">
        <time>2024-01-11T01:25:41Z</time>
      </trkpt>
      <trkpt lat="40.8252642256718" lon="-4.13462117243734">
        <time>2024-01-11T01:25:41Z</time>
      </trkpt>
      <trkpt lat="40.825181870866" lon="-4.13458660339853">
        <time>2024-01-11T01:25:41Z</time>
      </trkpt>
      <trkpt lat="40.8251174901775" lon="-4.13455997678824">
        <time>2024-01-11T01:25:41Z</time>
      </trkpt>
      <trkpt lat="40.8250531094815" lon="-4.1345333502307">
        <time>2024-01-11T01:25:41Z</time>
      </trkpt>
      <trkpt lat="40.8250005334849" lon="-4.13451160590023">
        <time>2024-01-11T01:25:41Z</time>
      </trkpt>
      <trkpt lat="40.8249378360935" lon="-4.13447496115527">
        <time>2024-01-11T01:25:41Z</time>
      </trkpt>
      <trkpt lat="40.8248934639682" lon="-4.13445660984843">
        <time>2024-01-11T01:25:41Z</time>
      </trkpt>
      <trkpt lat="40.8248490918393" lon="-4.13443825856672">
        <time>2024-01-11T01:25:41Z</time>
      </trkpt>
      <trkpt lat="40.8247709389795" lon="-4.13440605547334">
        <time>2024-01-11T01:25:41Z</time>
      </trkpt>
      <trkpt lat="40.8246927861087" lon="-4.13437385245749">
        <time>2024-01-11T01:25:41Z</time>
      </trkpt>
      <trkpt lat="40.8246146332269" lon="-4.13434164951912">
        <time>2024-01-11T01:25:41Z</time>
      </trkpt>
      <trkpt lat="40.8245364803341" lon="-4.13430944665828">
        <time>2024-01-11T01:25:41Z</time>
      </trkpt>
      <trkpt lat="40.8244583274302" lon="-4.13427724387498">
        <time>2024-01-11T01:25:41Z</time>
      </trkpt>
      <trkpt lat="40.8243801745153" lon="-4.13424504116921">
        <time>2024-01-11T01:25:41Z</time>
      </trkpt>
      <trkpt lat="40.8243020215894" lon="-4.13421283854092">
        <time>2024-01-11T01:25:41Z</time>
      </trkpt>
      <trkpt lat="40.8242238686524" lon="-4.13418063599017">
        <time>2024-01-11T01:25:41Z</time>
      </trkpt>
      <trkpt lat="40.8241457157044" lon="-4.13414843351694">
        <time>2024-01-11T01:25:41Z</time>
      </trkpt>
      <trkpt lat="40.8240675627454" lon="-4.1341162311212">
        <time>2024-01-11T01:25:41Z</time>
      </trkpt>
      <trkpt lat="40.8240166611494" lon="-4.13411819802275">
        <time>2024-01-11T01:25:41Z</time>
      </trkpt>
      <trkpt lat="40.823965759553" lon="-4.13412016492214">
        <time>2024-01-11T01:25:41Z</time>
      </trkpt>
      <trkpt lat="40.8238998018891" lon="-4.13416218292179">
        <time>2024-01-11T01:25:41Z</time>
      </trkpt>
      <trkpt lat="40.8238698995403" lon="-4.13421169172085">
        <time>2024-01-11T01:25:41Z</time>
      </trkpt>
      <trkpt lat="40.8238399971708" lon="-4.13426120047524">
        <time>2024-01-11T01:25:41Z</time>
      </trkpt>
      <trkpt lat="40.8237953047761" lon="-4.13433690857795">
        <time>2024-01-11T01:25:41Z</time>
      </trkpt>
      <trkpt lat="40.8237506123327" lon="-4.13441261657857">
        <time>2024-01-11T01:25:41Z</time>
      </trkpt>
      <trkpt lat="40.8237059198407" lon="-4.13448832447705">
        <time>2024-01-11T01:25:41Z</time>
      </trkpt>
      <trkpt lat="40.8236410754323" lon="-4.13456860001458">
        <time>2024-01-11T01:25:41Z</time>
      </trkpt>
      <trkpt lat="40.8235762309695" lon="-4.1346488753959">
        <time>2024-01-11T01:25:41Z</time>
      </trkpt>
      <trkpt lat="40.8235113864522" lon="-4.13472915062096">
        <time>2024-01-11T01:25:41Z</time>
      </trkpt>
      <trkpt lat="40.8234465418803" lon="-4.13480942568976">
        <time>2024-01-11T01:25:41Z</time>
      </trkpt>
      <trkpt lat="40.8233923545102" lon="-4.13486635062873">
        <time>2024-01-11T01:25:41Z</time>
      </trkpt>
      <trkpt lat="40.8233381671128" lon="-4.13492327547539">
        <time>2024-01-11T01:25:41Z</time>
      </trkpt>
      <trkpt lat="40.823283979688" lon="-4.13498020022974">
        <time>2024-01-11T01:25:41Z</time>
      </trkpt>
      <trkpt lat="40.8232297922359" lon="-4.13503712489177">
        <time>2024-01-11T01:25:41Z</time>
      </trkpt>
      <trkpt lat="40.8231978396437" lon="-4.13510521389941">
        <time>2024-01-11T01:25:41Z</time>
      </trkpt>
      <trkpt lat="40.823165887012" lon="-4.13517330284111">
        <time>2024-01-11T01:25:41Z</time>
      </trkpt>
      <trkpt lat="40.8231334343499" lon="-4.13525210325423">
        <time>2024-01-11T01:25:41Z</time>
      </trkpt>
      <trkpt lat="40.8231009816347" lon="-4.13533090358971">
        <time>2024-01-11T01:25:41Z</time>
      </trkpt>
      <trkpt lat="40.8230772298175" lon="-4.13544253691345">
        <time>2024-01-11T01:25:41Z</time>
      </trkpt>
      <trkpt lat="40.823059859422" lon="-4.13552355651452">
        <time>2024-01-11T01:25:41Z</time>
      </trkpt>
      <trkpt lat="40.8230406116985" lon="-4.13564222700274">
        <time>2024-01-11T01:25:41Z</time>
      </trkpt>
      <trkpt lat="40.8230293447591" lon="-4.13571541738123">
        <time>2024-01-11T01:25:41Z</time>
      </trkpt>
      <trkpt lat="40.8230207976681" lon="-4.13581840383034">
        <time>2024-01-11T01:25:41Z</time>
      </trkpt>
      <trkpt lat="40.8230106660052" lon="-4.1359292964643">
        <time>2024-01-11T01:25:41Z</time>
      </trkpt>
      <trkpt lat="40.8229988911635" lon="-4.1360540442076">
        <time>2024-01-11T01:25:41Z</time>
      </trkpt>
      <trkpt lat="40.8229886616242" lon="-4.13617485165635">
        <time>2024-01-11T01:25:41Z</time>
      </trkpt>
      <trkpt lat="40.8229798016077" lon="-4.13630956562394">
        <time>2024-01-11T01:25:41Z</time>
      </trkpt>
      <trkpt lat="40.8229745988189" lon="-4.13637889271383">
        <time>2024-01-11T01:25:41Z</time>
      </trkpt>
      <trkpt lat="40.8229660902086" lon="-4.13647791302448">
        <time>2024-01-11T01:25:41Z</time>
      </trkpt>
      <trkpt lat="40.8229578550304" lon="-4.13654917162626">
        <time>2024-01-11T01:25:41Z</time>
      </trkpt>
      <trkpt lat="40.8229493658129" lon="-4.13664620890998">
        <time>2024-01-11T01:25:41Z</time>
      </trkpt>
      <trkpt lat="40.8229422798527" lon="-4.13671550378525">
        <time>2024-01-11T01:25:41Z</time>
      </trkpt>
      <trkpt lat="40.8229374045628" lon="-4.13678979467085">
        <time>2024-01-11T01:25:41Z</time>
      </trkpt>
      <trkpt lat="40.8229283964629" lon="-4.13686302331272">
        <time>2024-01-11T01:25:41Z</time>
      </trkpt>
      <trkpt lat="40.8229205543644" lon="-4.13694182502633">
        <time>2024-01-11T01:25:41Z</time>
      </trkpt>
      <trkpt lat="40.8229095145546" lon="-4.13702086977897">
        <time>2024-01-11T01:25:41Z</time>
      </trkpt>
      <trkpt lat="40.8228943079238" lon="-4.13713616513633">
        <time>2024-01-11T01:25:41Z</time>
      </trkpt>
      <trkpt lat="40.8228703430474" lon="-4.13725014487756">
        <time>2024-01-11T01:25:41Z</time>
      </trkpt>
      <trkpt lat="40.8228463780593" lon="-4.13736412453432">
        <time>2024-01-11T01:25:41Z</time>
      </trkpt>
      <trkpt lat="40.8228231285223" lon="-4.13745589218201">
        <time>2024-01-11T01:25:41Z</time>
      </trkpt>
      <trkpt lat="40.822799878913" lon="-4.1375476597641">
        <time>2024-01-11T01:25:41Z</time>
      </trkpt>
      <trkpt lat="40.8227766292314" lon="-4.13763942728059">
        <time>2024-01-11T01:25:41Z</time>
      </trkpt>
      <trkpt lat="40.8227533794776" lon="-4.13773119473149">
        <time>2024-01-11T01:25:41Z</time>
      </trkpt>
      <trkpt lat="40.8227285693469" lon="-4.13783012560481">
        <time>2024-01-11T01:25:41Z</time>
      </trkpt>
      <trkpt lat="40.8227037591322" lon="-4.13792905640259">
        <time>2024-01-11T01:25:41Z</time>
      </trkpt>
      <trkpt lat="40.8226789488335" lon="-4.13802798712493">
        <time>2024-01-11T01:25:41Z</time>
      </trkpt>
      <trkpt lat="40.8226541384508" lon="-4.13812691777173">
        <time>2024-01-11T01:25:41Z</time>
      </trkpt>
      <trkpt lat="40.8226293279842" lon="-4.1382258483431">
        <time>2024-01-11T01:25:41Z</time>
      </trkpt>
      <trkpt lat="40.8226045174336" lon="-4.13832477883893">
        <time>2024-01-11T01:25:41Z</time>
      </trkpt>
      <trkpt lat="40.8225766503571" lon="-4.13842675666178">
        <time>2024-01-11T01:25:41Z</time>
      </trkpt>
      <trkpt lat="40.8225683492676" lon="-4.13853970398684">
        <time>2024-01-11T01:25:41Z</time>
      </trkpt>
      <trkpt lat="40.822565424109" lon="-4.13864526462695">
        <time>2024-01-11T01:25:41Z</time>
      </trkpt>
      <trkpt lat="40.822563579699" lon="-4.13875580199108">
        <time>2024-01-11T01:25:41Z</time>
      </trkpt>
      <trkpt lat="40.822563351823" lon="-4.13887093138516">
        <time>2024-01-11T01:25:41Z</time>
      </trkpt>
      <trkpt lat="40.8225682078075" lon="-4.13898499707586">
        <time>2024-01-11T01:25:41Z</time>
      </trkpt>
      <trkpt lat="40.8225633615087" lon="-4.13909864906907">
        <time>2024-01-11T01:25:41Z</time>
      </trkpt>
      <trkpt lat="40.8225585150981" lon="-4.13921230104313">
        <time>2024-01-11T01:25:41Z</time>
      </trkpt>
      <trkpt lat="40.8225536685758" lon="-4.1393259529981">
        <time>2024-01-11T01:25:41Z</time>
      </trkpt>
      <trkpt lat="40.8225488219417" lon="-4.13943960493396">
        <time>2024-01-11T01:25:41Z</time>
      </trkpt>
      <trkpt lat="40.8225352228" lon="-4.13953447804573">
        <time>2024-01-11T01:25:41Z</time>
      </trkpt>
      <trkpt lat="40.8225216235808" lon="-4.13962935111698">
        <time>2024-01-11T01:25:41Z</time>
      </trkpt>
      <trkpt lat="40.822508024284" lon="-4.13972422414776">
        <time>2024-01-11T01:25:41Z</time>
      </trkpt>
      <trkpt lat="40.8224944249096" lon="-4.139819097138">
        <time>2024-01-11T01:25:41Z</time>
      </trkpt>
      <trkpt lat="40.8224804197901" lon="-4.13987964661851">
        <time>2024-01-11T01:25:41Z</time>
      </trkpt>
      <trkpt lat="40.822466414639" lon="-4.13994019607293">
        <time>2024-01-11T01:25:41Z</time>
      </trkpt>
      <trkpt lat="40.8224395747856" lon="-4.14004333963857">
        <time>2024-01-11T01:25:41Z</time>
      </trkpt>
      <trkpt lat="40.822412734841" lon="-4.14014648311911">
        <time>2024-01-11T01:25:41Z</time>
      </trkpt>
      <trkpt lat="40.8223858948052" lon="-4.14024962651462">
        <time>2024-01-11T01:25:41Z</time>
      </trkpt>
      <trkpt lat="40.8223590546781" lon="-4.14035276982509">
        <time>2024-01-11T01:25:41Z</time>
      </trkpt>
      <trkpt lat="40.8223322144597" lon="-4.14045591305052">
        <time>2024-01-11T01:25:41Z</time>
      </trkpt>
      <trkpt lat="40.8223053741501" lon="-4.14055905619086">
        <time>2024-01-11T01:25:41Z</time>
      </trkpt>
      <trkpt lat="40.8222639398201" lon="-4.1406516869522">
        <time>2024-01-11T01:25:41Z</time>
      </trkpt>
      <trkpt lat="40.8222225054169" lon="-4.14074431759707">
        <time>2024-01-11T01:25:41Z</time>
      </trkpt>
      <trkpt lat="40.8221810709406" lon="-4.14083694812553">
        <time>2024-01-11T01:25:41Z</time>
      </trkpt>
      <trkpt lat="40.8221396363911" lon="-4.14092957853757">
        <time>2024-01-11T01:25:41Z</time>
      </trkpt>
      <trkpt lat="40.8220982017685" lon="-4.14102220883314">
        <time>2024-01-11T01:25:41Z</time>
      </trkpt>
      <trkpt lat="40.8220579279516" lon="-4.14110289722783">
        <time>2024-01-11T01:25:41Z</time>
      </trkpt>
      <trkpt lat="40.8220176540793" lon="-4.14118358552418">
        <time>2024-01-11T01:25:41Z</time>
      </trkpt>
      <trkpt lat="40.8219773801516" lon="-4.14126427372213">
        <time>2024-01-11T01:25:41Z</time>
      </trkpt>
      <trkpt lat="40.8219371061684" lon="-4.14134496182169">
        <time>2024-01-11T01:25:41Z</time>
      </trkpt>
      <trkpt lat="40.8219154398878" lon="-4.14142694932241">
        <time>2024-01-11T01:25:41Z</time>
      </trkpt>
      <trkpt lat="40.8218775988247" lon="-4.14151767968866">
        <time>2024-01-11T01:25:41Z</time>
      </trkpt>
      <trkpt lat="40.8218397576914" lon="-4.14160840995055">
        <time>2024-01-11T01:25:41Z</time>
      </trkpt>
      <trkpt lat="40.8218019164879" lon="-4.14169914010813">
        <time>2024-01-11T01:25:41Z</time>
      </trkpt>
      <trkpt lat="40.8217640752141" lon="-4.14178987016146">
        <time>2024-01-11T01:25:41Z</time>
      </trkpt>
      <trkpt lat="40.8217262338701" lon="-4.14188060011043">
        <time>2024-01-11T01:25:41Z</time>
      </trkpt>
      <trkpt lat="40.8216924191445" lon="-4.14198590984001">
        <time>2024-01-11T01:25:41Z</time>
      </trkpt>
      <trkpt lat="40.821658604324" lon="-4.14209121946073">
        <time>2024-01-11T01:25:41Z</time>
      </trkpt>
      <trkpt lat="40.8216247894085" lon="-4.14219652897265">
        <time>2024-01-11T01:25:41Z</time>
      </trkpt>
      <trkpt lat="40.8215909743982" lon="-4.14230183837572">
        <time>2024-01-11T01:25:41Z</time>
      </trkpt>
      <trkpt lat="40.8215571592929" lon="-4.14240714767005">
        <time>2024-01-11T01:25:41Z</time>
      </trkpt>
      <trkpt lat="40.8215117881374" lon="-4.14247598160472">
        <time>2024-01-11T01:25:41Z</time>
      </trkpt>
      <trkpt lat="40.8214664169417" lon="-4.14254481544538">
        <time>2024-01-11T01:25:41Z</time>
      </trkpt>
      <trkpt lat="40.8214210457058" lon="-4.14261364919196">
        <time>2024-01-11T01:25:41Z</time>
      </trkpt>
      <trkpt lat="40.8213756744298" lon="-4.14268248284447">
        <time>2024-01-11T01:25:41Z</time>
      </trkpt>
      <trkpt lat="40.8213064242234" lon="-4.14275580879809">
        <time>2024-01-11T01:25:41Z</time>
      </trkpt>
      <trkpt lat="40.8212371739715" lon="-4.14282913459977">
        <time>2024-01-11T01:25:41Z</time>
      </trkpt>
      <trkpt lat="40.8211752203949" lon="-4.14288768263157">
        <time>2024-01-11T01:25:41Z</time>
      </trkpt>
      <trkpt lat="40.8211132667894" lon="-4.14294623055497">
        <time>2024-01-11T01:25:41Z</time>
      </trkpt>
      <trkpt lat="40.8210513131549" lon="-4.14300477837009">
        <time>2024-01-11T01:25:41Z</time>
      </trkpt>
      <trkpt lat="40.8209893594915" lon="-4.14306332607686">
        <time>2024-01-11T01:25:41Z</time>
      </trkpt>
      <trkpt lat="40.8209274057992" lon="-4.14312187367534">
        <time>2024-01-11T01:25:41Z</time>
      </trkpt>
      <trkpt lat="40.8208499313051" lon="-4.14312315795292">
        <time>2024-01-11T01:25:41Z</time>
      </trkpt>
      <trkpt lat="40.8207724568101" lon="-4.14312444222964">
        <time>2024-01-11T01:25:41Z</time>
      </trkpt>
      <trkpt lat="40.8206949823141" lon="-4.14312572650545">
        <time>2024-01-11T01:25:41Z</time>
      </trkpt>
      <trkpt lat="40.8206132474973" lon="-4.14309747059134">
        <time>2024-01-11T01:25:41Z</time>
      </trkpt>
      <trkpt lat="40.820507267549" lon="-4.14299748072027">
        <time>2024-01-11T01:25:41Z</time>
      </trkpt>
      <trkpt lat="40.8204440914548" lon="-4.14291111699388">
        <time>2024-01-11T01:25:41Z</time>
      </trkpt>
      <trkpt lat="40.8203935230293" lon="-4.1428448021859">
        <time>2024-01-11T01:25:41Z</time>
      </trkpt>
      <trkpt lat="40.8203563940674" lon="-4.14279061755959">
        <time>2024-01-11T01:25:41Z</time>
      </trkpt>
      <trkpt lat="40.8203120081963" lon="-4.14270854319739">
        <time>2024-01-11T01:25:41Z</time>
      </trkpt>
      <trkpt lat="40.8202638170511" lon="-4.14263037009736">
        <time>2024-01-11T01:25:41Z</time>
      </trkpt>
      <trkpt lat="40.8202262686592" lon="-4.14254246360959">
        <time>2024-01-11T01:25:41Z</time>
      </trkpt>
      <trkpt lat="40.8201812668788" lon="-4.1424464964131">
        <time>2024-01-11T01:25:41Z</time>
      </trkpt>
      <trkpt lat="40.8201343057658" lon="-4.14236006523697">
        <time>2024-01-11T01:25:41Z</time>
      </trkpt>
      <trkpt lat="40.8200782577063" lon="-4.14227104993052">
        <time>2024-01-11T01:25:41Z</time>
      </trkpt>
      <trkpt lat="40.8200222095756" lon="-4.1421820347735">
        <time>2024-01-11T01:25:41Z</time>
      </trkpt>
      <trkpt lat="40.8199661613736" lon="-4.14209301976581">
        <time>2024-01-11T01:25:41Z</time>
      </trkpt>
      <trkpt lat="40.8199101131004" lon="-4.14200400490756">
        <time>2024-01-11T01:25:41Z</time>
      </trkpt>
      <trkpt lat="40.8198540647561" lon="-4.14191499019865">
        <time>2024-01-11T01:25:41Z</time>
      </trkpt>
      <trkpt lat="40.8197980163405" lon="-4.14182597563917">
        <time>2024-01-11T01:25:41Z</time>
      </trkpt>
      <trkpt lat="40.8197419678536" lon="-4.14173696122908">
        <time>2024-01-11T01:25:41Z</time>
      </trkpt>
      <trkpt lat="40.8196859192955" lon="-4.14164794696836">
        <time>2024-01-11T01:25:41Z</time>
      </trkpt>
      <trkpt lat="40.8196298706663" lon="-4.14155893285704">
        <time>2024-01-11T01:25:41Z</time>
      </trkpt>
      <trkpt lat="40.8195738219658" lon="-4.14146991889516">
        <time>2024-01-11T01:25:41Z</time>
      </trkpt>
      <trkpt lat="40.8195241027687" lon="-4.1413325563045">
        <time>2024-01-11T01:25:41Z</time>
      </trkpt>
      <trkpt lat="40.819480724021" lon="-4.14122471952365">
        <time>2024-01-11T01:25:41Z</time>
      </trkpt>
      <trkpt lat="40.819443790416" lon="-4.14115070784365">
        <time>2024-01-11T01:25:41Z</time>
      </trkpt>
      <trkpt lat="40.8194162088144" lon="-4.14104512524871">
        <time>2024-01-11T01:25:41Z</time>
      </trkpt>
      <trkpt lat="40.8194121015469" lon="-4.14100340755929">
        <time>2024-01-11T01:25:41Z</time>
      </trkpt>
      <trkpt lat="40.81941692465" lon="-4.14097275053985">
        <time>2024-01-11T01:25:41Z</time>
      </trkpt>
      <trkpt lat="40.8194570298821" lon="-4.14095459736632">
        <time>2024-01-11T01:25:41Z</time>
      </trkpt>
      <trkpt lat="40.8194930652047" lon="-4.14096711413785">
        <time>2024-01-11T01:25:41Z</time>
      </trkpt>
      <trkpt lat="40.8195601852553" lon="-4.14103569348323">
        <time>2024-01-11T01:25:41Z</time>
      </trkpt>
      <trkpt lat="40.8196241380258" lon="-4.14110884953323">
        <time>2024-01-11T01:25:41Z</time>
      </trkpt>
      <trkpt lat="40.8196800411137" lon="-4.14118004309218">
        <time>2024-01-11T01:25:41Z</time>
      </trkpt>
      <trkpt lat="40.8197381473044" lon="-4.14124598932097">
        <time>2024-01-11T01:25:41Z</time>
      </trkpt>
      <trkpt lat="40.8198215146504" lon="-4.14130939387571">
        <time>2024-01-11T01:25:41Z</time>
      </trkpt>
      <trkpt lat="40.8199007884751" lon="-4.14136777036697">
        <time>2024-01-11T01:25:41Z</time>
      </trkpt>
      <trkpt lat="40.8199757050029" lon="-4.14140971072016">
        <time>2024-01-11T01:25:41Z</time>
      </trkpt>
      <trkpt lat="40.8200423168357" lon="-4.14145349201263">
        <time>2024-01-11T01:25:41Z</time>
      </trkpt>
      <trkpt lat="40.8201317929411" lon="-4.14150857315269">
        <time>2024-01-11T01:25:41Z</time>
      </trkpt>
      <trkpt lat="40.8202257549216" lon="-4.1415290248543">
        <time>2024-01-11T01:25:41Z</time>
      </trkpt>
      <trkpt lat="40.8203312305368" lon="-4.14152785847956">
        <time>2024-01-11T01:25:41Z</time>
      </trkpt>
      <trkpt lat="40.8204331560466" lon="-4.14150481564929">
        <time>2024-01-11T01:25:41Z</time>
      </trkpt>
      <trkpt lat="40.8204951233987" lon="-4.14148505413108">
        <time>2024-01-11T01:25:41Z</time>
      </trkpt>
      <trkpt lat="40.820562582655" lon="-4.14145277710884">
        <time>2024-01-11T01:25:41Z</time>
      </trkpt>
      <trkpt lat="40.8206279317313" lon="-4.1413861858984">
        <time>2024-01-11T01:25:41Z</time>
      </trkpt>
      <trkpt lat="40.8206738292113" lon="-4.14131557604154">
        <time>2024-01-11T01:25:41Z</time>
      </trkpt>
      <trkpt lat="40.8207121278461" lon="-4.14124356472837">
        <time>2024-01-11T01:25:41Z</time>
      </trkpt>
      <trkpt lat="40.8207619761608" lon="-4.14117382705917">
        <time>2024-01-11T01:25:41Z</time>
      </trkpt>
      <trkpt lat="40.8207986525751" lon="-4.1410803327882">
        <time>2024-01-11T01:25:41Z</time>
      </trkpt>
      <trkpt lat="40.8208353289147" lon="-4.14098683841292">
        <time>2024-01-11T01:25:41Z</time>
      </trkpt>
      <trkpt lat="40.8208720051797" lon="-4.14089334393333">
        <time>2024-01-11T01:25:41Z</time>
      </trkpt>
      <trkpt lat="40.8208959740179" lon="-4.14079084843547">
        <time>2024-01-11T01:25:41Z</time>
      </trkpt>
      <trkpt lat="40.8209012188602" lon="-4.14069660481386">
        <time>2024-01-11T01:25:41Z</time>
      </trkpt>
      <trkpt lat="40.8208937562577" lon="-4.14059336029925">
        <time>2024-01-11T01:25:41Z</time>
      </trkpt>
      <trkpt lat="40.8208862935624" lon="-4.14049011580574">
        <time>2024-01-11T01:25:41Z</time>
      </trkpt>
      <trkpt lat="40.8208788307744" lon="-4.14038687133325">
        <time>2024-01-11T01:25:41Z</time>
      </trkpt>
      <trkpt lat="40.8208713678936" lon="-4.1402836268818">
        <time>2024-01-11T01:25:41Z</time>
      </trkpt>
      <trkpt lat="40.8208639049202" lon="-4.14018038245138">
        <time>2024-01-11T01:25:41Z</time>
      </trkpt>
      <trkpt lat="40.8208343365959" lon="-4.14007315414733">
        <time>2024-01-11T01:25:41Z</time>
      </trkpt>
      <trkpt lat="40.8208047681705" lon="-4.13996592593645">
        <time>2024-01-11T01:25:41Z</time>
      </trkpt>
      <trkpt lat="40.820775199644" lon="-4.13985869781891">
        <time>2024-01-11T01:25:41Z</time>
      </trkpt>
      <trkpt lat="40.8207456310165" lon="-4.13975146979459">
        <time>2024-01-11T01:25:41Z</time>
      </trkpt>
      <trkpt lat="40.8207008602719" lon="-4.13964813193645">
        <time>2024-01-11T01:25:41Z</time>
      </trkpt>
      <trkpt lat="40.8206536844073" lon="-4.13957541432564">
        <time>2024-01-11T01:25:41Z</time>
      </trkpt>
      <trkpt lat="40.8205913064834" lon="-4.1395065869171">
        <time>2024-01-11T01:25:41Z</time>
      </trkpt>
      <trkpt lat="40.820528928516" lon="-4.13943775963799">
        <time>2024-01-11T01:25:41Z</time>
      </trkpt>
      <trkpt lat="40.8204665505052" lon="-4.1393689324882">
        <time>2024-01-11T01:25:41Z</time>
      </trkpt>
      <trkpt lat="40.820404172451" lon="-4.13930010546784">
        <time>2024-01-11T01:25:41Z</time>
      </trkpt>
      <trkpt lat="40.8203417943533" lon="-4.13923127857686">
        <time>2024-01-11T01:25:41Z</time>
      </trkpt>
      <trkpt lat="40.8202794162121" lon="-4.13916245181526">
        <time>2024-01-11T01:25:41Z</time>
      </trkpt>
      <trkpt lat="40.8202169153859" lon="-4.13910604562733">
        <time>2024-01-11T01:25:41Z</time>
      </trkpt>
      <trkpt lat="40.82015441453" lon="-4.13904963954599">
        <time>2024-01-11T01:25:41Z</time>
      </trkpt>
      <trkpt lat="40.8200919136445" lon="-4.13899323357129">
        <time>2024-01-11T01:25:41Z</time>
      </trkpt>
      <trkpt lat="40.8200103512179" lon="-4.13896644236468">
        <time>2024-01-11T01:25:41Z</time>
      </trkpt>
      <trkpt lat="40.819928788783" lon="-4.13893965122589">
        <time>2024-01-11T01:25:41Z</time>
      </trkpt>
      <trkpt lat="40.8198472263399" lon="-4.13891286015491">
        <time>2024-01-11T01:25:41Z</time>
      </trkpt>
      <trkpt lat="40.8197669442387" lon="-4.13886563288262">
        <time>2024-01-11T01:25:41Z</time>
      </trkpt>
      <trkpt lat="40.8197027097557" lon="-4.13882485915429">
        <time>2024-01-11T01:25:41Z</time>
      </trkpt>
      <trkpt lat="40.8196397555881" lon="-4.13876364927319">
        <time>2024-01-11T01:25:41Z</time>
      </trkpt>
      <trkpt lat="40.8195768013858" lon="-4.13870243950851">
        <time>2024-01-11T01:25:41Z</time>
      </trkpt>
      <trkpt lat="40.8195229015991" lon="-4.13863909210045">
        <time>2024-01-11T01:25:41Z</time>
      </trkpt>
      <trkpt lat="40.8194690017758" lon="-4.13857574479517">
        <time>2024-01-11T01:25:41Z</time>
      </trkpt>
      <trkpt lat="40.8194151019159" lon="-4.13851239759271">
        <time>2024-01-11T01:25:41Z</time>
      </trkpt>
      <trkpt lat="40.8193612020192" lon="-4.13844905049297">
        <time>2024-01-11T01:25:41Z</time>
      </trkpt>
      <trkpt lat="40.819307302086" lon="-4.13838570349606">
        <time>2024-01-11T01:25:41Z</time>
      </trkpt>
      <trkpt lat="40.8192381174824" lon="-4.13831640404732">
        <time>2024-01-11T01:25:41Z</time>
      </trkpt>
      <trkpt lat="40.8191689328346" lon="-4.13824710474325">
        <time>2024-01-11T01:25:41Z</time>
      </trkpt>
      <trkpt lat="40.8190997481423" lon="-4.13817780558395">
        <time>2024-01-11T01:25:41Z</time>
      </trkpt>
      <trkpt lat="40.8190305634057" lon="-4.13810850656938">
        <time>2024-01-11T01:25:41Z</time>
      </trkpt>
      <trkpt lat="40.8189613786247" lon="-4.13803920769954">
        <time>2024-01-11T01:25:41Z</time>
      </trkpt>
      <trkpt lat="40.8188921937993" lon="-4.13796990897442">
        <time>2024-01-11T01:25:41Z</time>
      </trkpt>
      <trkpt lat="40.8188230089297" lon="-4.13790061039402">
        <time>2024-01-11T01:25:41Z</time>
      </trkpt>
      <trkpt lat="40.8187538240156" lon="-4.13783131195834">
        <time>2024-01-11T01:25:41Z</time>
      </trkpt>
      <trkpt lat="40.8186846390572" lon="-4.13776201366744">
        <time>2024-01-11T01:25:41Z</time>
      </trkpt>
      <trkpt lat="40.8186161178756" lon="-4.13768923106665">
        <time>2024-01-11T01:25:41Z</time>
      </trkpt>
      <trkpt lat="40.8185475966453" lon="-4.13761644861626">
        <time>2024-01-11T01:25:41Z</time>
      </trkpt>
      <trkpt lat="40.8184790753663" lon="-4.13754366631622">
        <time>2024-01-11T01:25:41Z</time>
      </trkpt>
      <trkpt lat="40.8184105540387" lon="-4.13747088416659">
        <time>2024-01-11T01:25:41Z</time>
      </trkpt>
      <trkpt lat="40.8183420326622" lon="-4.13739810216737">
        <time>2024-01-11T01:25:41Z</time>
      </trkpt>
      <trkpt lat="40.8182864418092" lon="-4.13732600729799">
        <time>2024-01-11T01:25:41Z</time>
      </trkpt>
      <trkpt lat="40.8182308509089" lon="-4.13725391254912">
        <time>2024-01-11T01:25:41Z</time>
      </trkpt>
      <trkpt lat="40.8181752599615" lon="-4.13718181792064">
        <time>2024-01-11T01:25:41Z</time>
      </trkpt>
      <trkpt lat="40.8181196689669" lon="-4.13710972341261">
        <time>2024-01-11T01:25:41Z</time>
      </trkpt>
      <trkpt lat="40.8180490840995" lon="-4.13698694840128">
        <time>2024-01-11T01:25:41Z</time>
      </trkpt>
      <trkpt lat="40.8179989127421" lon="-4.13687999244076">
        <time>2024-01-11T01:25:41Z</time>
      </trkpt>
      <trkpt lat="40.8179753275745" lon="-4.13675068418174">
        <time>2024-01-11T01:25:41Z</time>
      </trkpt>
      <trkpt lat="40.8179716973952" lon="-4.13666038832369">
        <time>2024-01-11T01:25:41Z</time>
      </trkpt>
      <trkpt lat="40.8179673530265" lon="-4.13656611395968">
        <time>2024-01-11T01:25:41Z</time>
      </trkpt>
      <trkpt lat="40.8179711300598" lon="-4.13648787801498">
        <time>2024-01-11T01:25:41Z</time>
      </trkpt>
      <trkpt lat="40.8180071513404" lon="-4.13634963693253">
        <time>2024-01-11T01:25:41Z</time>
      </trkpt>
      <trkpt lat="40.8180375901056" lon="-4.1362420739715">
        <time>2024-01-11T01:25:41Z</time>
      </trkpt>
      <trkpt lat="40.8180649183781" lon="-4.13614437366125">
        <time>2024-01-11T01:25:41Z</time>
      </trkpt>
      <trkpt lat="40.8180896829059" lon="-4.13600101671389">
        <time>2024-01-11T01:25:41Z</time>
      </trkpt>
      <trkpt lat="40.8181050380503" lon="-4.13589517930028">
        <time>2024-01-11T01:25:41Z</time>
      </trkpt>
      <trkpt lat="40.8181144261527" lon="-4.13578329054982">
        <time>2024-01-11T01:25:41Z</time>
      </trkpt>
      <trkpt lat="40.8180839227091" lon="-4.13559139472794">
        <time>2024-01-11T01:25:41Z</time>
      </trkpt>
      <trkpt lat="40.8180630853789" lon="-4.13548890633954">
        <time>2024-01-11T01:25:41Z</time>
      </trkpt>
      <trkpt lat="40.8180346965526" lon="-4.13538827240926">
        <time>2024-01-11T01:25:41Z</time>
      </trkpt>
      <trkpt lat="40.8179910877527" lon="-4.1353032443565">
        <time>2024-01-11T01:25:41Z</time>
      </trkpt>
      <trkpt lat="40.8179540722251" lon="-4.13523716886603">
        <time>2024-01-11T01:25:41Z</time>
      </trkpt>
      <trkpt lat="40.8179238256038" lon="-4.13517220043241">
        <time>2024-01-11T01:25:41Z</time>
      </trkpt>
      <trkpt lat="40.8179015225954" lon="-4.13514207278542">
        <time>2024-01-11T01:25:41Z</time>
      </trkpt>
      <trkpt lat="40.8178694312278" lon="-4.13507782329521">
        <time>2024-01-11T01:25:41Z</time>
      </trkpt>
      <trkpt lat="40.817806026021" lon="-4.13502263040897">
        <time>2024-01-11T01:25:41Z</time>
      </trkpt>
      <trkpt lat="40.8177395127314" lon="-4.13496722175012">
        <time>2024-01-11T01:25:41Z</time>
      </trkpt>
      <trkpt lat="40.8176333809511" lon="-4.13490844731565">
        <time>2024-01-11T01:25:41Z</time>
      </trkpt>
      <trkpt lat="40.8175516441997" lon="-4.13487036585793">
        <time>2024-01-11T01:25:41Z</time>
      </trkpt>
      <trkpt lat="40.8174798744361" lon="-4.13481460603924">
        <time>2024-01-11T01:25:41Z</time>
      </trkpt>
      <trkpt lat="40.8174076635093" lon="-4.13472710849407">
        <time>2024-01-11T01:25:41Z</time>
      </trkpt>
      <trkpt lat="40.8173674301059" lon="-4.13468180208955">
        <time>2024-01-11T01:25:41Z</time>
      </trkpt>
      <trkpt lat="40.8173404323881" lon="-4.134634772141">
        <time>2024-01-11T01:25:41Z</time>
      </trkpt>
      <trkpt lat="40.817286458351" lon="-4.13459116224317">
        <time>2024-01-11T01:25:41Z</time>
      </trkpt>
      <trkpt lat="40.817232484296" lon="-4.13454755241668">
        <time>2024-01-11T01:25:41Z</time>
      </trkpt>
      <trkpt lat="40.8171935447037" lon="-4.13451609015226">
        <time>2024-01-11T01:25:41Z</time>
      </trkpt>
      <trkpt lat="40.8171546051021" lon="-4.13448462792502">
        <time>2024-01-11T01:25:41Z</time>
      </trkpt>
      <trkpt lat="40.8170944069987" lon="-4.13441082066061">
        <time>2024-01-11T01:25:41Z</time>
      </trkpt>
      <trkpt lat="40.817017891736" lon="-4.13437540076735">
        <time>2024-01-11T01:25:41Z</time>
      </trkpt>
      <trkpt lat="40.8169255977813" lon="-4.13426178149291">
        <time>2024-01-11T01:25:41Z</time>
      </trkpt>
      <trkpt lat="40.8168902147169" lon="-4.13418284510961">
        <time>2024-01-11T01:25:41Z</time>
      </trkpt>
      <trkpt lat="40.816853614089" lon="-4.13411559293945">
        <time>2024-01-11T01:25:41Z</time>
      </trkpt>
      <trkpt lat="40.8167934157376" lon="-4.13404178634323">
        <time>2024-01-11T01:25:41Z</time>
      </trkpt>
      <trkpt lat="40.8167332173365" lon="-4.13396797988065">
        <time>2024-01-11T01:25:41Z</time>
      </trkpt>
      <trkpt lat="40.8166730188859" lon="-4.13389417355171">
        <time>2024-01-11T01:25:41Z</time>
      </trkpt>
      <trkpt lat="40.8166120083399" lon="-4.13381176257156">
        <time>2024-01-11T01:25:41Z</time>
      </trkpt>
      <trkpt lat="40.8165509977324" lon="-4.13372935174232">
        <time>2024-01-11T01:25:41Z</time>
      </trkpt>
      <trkpt lat="40.8164899870634" lon="-4.13364694106406">
        <time>2024-01-11T01:25:41Z</time>
      </trkpt>
      <trkpt lat="40.8164289763329" lon="-4.13356453053678">
        <time>2024-01-11T01:25:41Z</time>
      </trkpt>
      <trkpt lat="40.8163692135368" lon="-4.13348380588963">
        <time>2024-01-11T01:25:41Z</time>
      </trkpt>
      <trkpt lat="40.8163094506816" lon="-4.13340308138732">
        <time>2024-01-11T01:25:41Z</time>
      </trkpt>
      <trkpt lat="40.8162654929656" lon="-4.13334971203159">
        <time>2024-01-11T01:25:41Z</time>
      </trkpt>
      <trkpt lat="40.8162215352237" lon="-4.13329634274647">
        <time>2024-01-11T01:25:41Z</time>
      </trkpt>
      <trkpt lat="40.8161898671918" lon="-4.13325356749892">
        <time>2024-01-11T01:25:41Z</time>
      </trkpt>
      <trkpt lat="40.8161581991432" lon="-4.13321079229206">
        <time>2024-01-11T01:25:41Z</time>
      </trkpt>
      <trkpt lat="40.8161228707889" lon="-4.13313904812509">
        <time>2024-01-11T01:25:41Z</time>
      </trkpt>
      <trkpt lat="40.8160875423887" lon="-4.13306730403361">
        <time>2024-01-11T01:25:41Z</time>
      </trkpt>
      <trkpt lat="40.8160522721575" lon="-4.13298963243659">
        <time>2024-01-11T01:25:41Z</time>
      </trkpt>
      <trkpt lat="40.8160170018727" lon="-4.13291196092109">
        <time>2024-01-11T01:25:41Z</time>
      </trkpt>
      <trkpt lat="40.8159817315343" lon="-4.13283428948705">
        <time>2024-01-11T01:25:41Z</time>
      </trkpt>
      <trkpt lat="40.8159464611423" lon="-4.13275661813458">
        <time>2024-01-11T01:25:41Z</time>
      </trkpt>
      <trkpt lat="40.8159013020404" lon="-4.13269284583373">
        <time>2024-01-11T01:25:41Z</time>
      </trkpt>
      <trkpt lat="40.8158401129149" lon="-4.1325705470724">
        <time>2024-01-11T01:25:41Z</time>
      </trkpt>
      <trkpt lat="40.8157791883228" lon="-4.13248423764634">
        <time>2024-01-11T01:25:41Z</time>
      </trkpt>
      <trkpt lat="40.8157139196845" lon="-4.13238000664603">
        <time>2024-01-11T01:25:41Z</time>
      </trkpt>
      <trkpt lat="40.8156297530858" lon="-4.13228239533413">
        <time>2024-01-11T01:25:41Z</time>
      </trkpt>
      <trkpt lat="40.8155961806264" lon="-4.13224910344694">
        <time>2024-01-11T01:25:41Z</time>
      </trkpt>
      <trkpt lat="40.8155716026541" lon="-4.13222042648314">
        <time>2024-01-11T01:25:41Z</time>
      </trkpt>
      <trkpt lat="40.8155555168254" lon="-4.13220454312534">
        <time>2024-01-11T01:25:41Z</time>
      </trkpt>
      <trkpt lat="40.8155466264067" lon="-4.13219253490832">
        <time>2024-01-11T01:25:41Z</time>
      </trkpt>
      <trkpt lat="40.8154811972872" lon="-4.13212818487688">
        <time>2024-01-11T01:25:41Z</time>
      </trkpt>
      <trkpt lat="40.815361058449" lon="-4.13206613212601">
        <time>2024-01-11T01:25:41Z</time>
      </trkpt>
      <trkpt lat="40.8152818234319" lon="-4.13200330951503">
        <time>2024-01-11T01:25:41Z</time>
      </trkpt>
      <trkpt lat="40.8152042503924" lon="-4.13192465066509">
        <time>2024-01-11T01:25:41Z</time>
      </trkpt>
      <trkpt lat="40.8151297873202" lon="-4.13183612947106">
        <time>2024-01-11T01:25:41Z</time>
      </trkpt>
      <trkpt lat="40.8150808159384" lon="-4.13175994018754">
        <time>2024-01-11T01:25:41Z</time>
      </trkpt>
      <trkpt lat="40.8150275198605" lon="-4.13166384676913">
        <time>2024-01-11T01:25:41Z</time>
      </trkpt>
      <trkpt lat="40.8149934760282" lon="-4.1316017929174">
        <time>2024-01-11T01:25:41Z</time>
      </trkpt>
      <trkpt lat="40.8149564971897" lon="-4.13153175696431">
        <time>2024-01-11T01:25:41Z</time>
      </trkpt>
      <trkpt lat="40.814928968233" lon="-4.13147183981357">
        <time>2024-01-11T01:25:41Z</time>
      </trkpt>
      <trkpt lat="40.8148744224022" lon="-4.13140256362692">
        <time>2024-01-11T01:25:41Z</time>
      </trkpt>
      <trkpt lat="40.8148007967389" lon="-4.13127726156564">
        <time>2024-01-11T01:25:41Z</time>
      </trkpt>
      <trkpt lat="40.8147443319533" lon="-4.13119697964663">
        <time>2024-01-11T01:25:41Z</time>
      </trkpt>
      <trkpt lat="40.8146788677039" lon="-4.13111257886964">
        <time>2024-01-11T01:25:41Z</time>
      </trkpt>
      <trkpt lat="40.8146163383975" lon="-4.13103616036024">
        <time>2024-01-11T01:25:41Z</time>
      </trkpt>
      <trkpt lat="40.8145738147424" lon="-4.13099379381117">
        <time>2024-01-11T01:25:41Z</time>
      </trkpt>
      <trkpt lat="40.8145111298593" lon="-4.13093323737128">
        <time>2024-01-11T01:25:41Z</time>
      </trkpt>
      <trkpt lat="40.8144849042472" lon="-4.1309189105638">
        <time>2024-01-11T01:25:41Z</time>
      </trkpt>
      <trkpt lat="40.8144618712743" lon="-4.13089908420949">
        <time>2024-01-11T01:25:41Z</time>
      </trkpt>
      <trkpt lat="40.8144019029831" lon="-4.13083693700276">
        <time>2024-01-11T01:25:41Z</time>
      </trkpt>
      <trkpt lat="40.8143419346564" lon="-4.1307747899084">
        <time>2024-01-11T01:25:41Z</time>
      </trkpt>
      <trkpt lat="40.814281966294" lon="-4.13071264292648">
        <time>2024-01-11T01:25:41Z</time>
      </trkpt>
      <trkpt lat="40.8142333004462" lon="-4.13062289043728">
        <time>2024-01-11T01:25:41Z</time>
      </trkpt>
      <trkpt lat="40.8141846345264" lon="-4.13053313807842">
        <time>2024-01-11T01:25:41Z</time>
      </trkpt>
      <trkpt lat="40.8141433626066" lon="-4.13041040735062">
        <time>2024-01-11T01:25:41Z</time>
      </trkpt>
      <trkpt lat="40.8141090355058" lon="-4.1302234181511">
        <time>2024-01-11T01:25:41Z</time>
      </trkpt>
      <trkpt lat="40.8140800344374" lon="-4.13010790921342">
        <time>2024-01-11T01:25:41Z</time>
      </trkpt>
      <trkpt lat="40.8140356975443" lon="-4.13001990278439">
        <time>2024-01-11T01:25:41Z</time>
      </trkpt>
      <trkpt lat="40.8139865695613" lon="-4.12995957779688">
        <time>2024-01-11T01:25:41Z</time>
      </trkpt>
      <trkpt lat="40.8139332330974" lon="-4.12986745281071">
        <time>2024-01-11T01:25:41Z</time>
      </trkpt>
      <trkpt lat="40.8138970160713" lon="-4.12979644034782">
        <time>2024-01-11T01:25:41Z</time>
      </trkpt>
      <trkpt lat="40.8138324689778" lon="-4.12969520175784">
        <time>2024-01-11T01:25:41Z</time>
      </trkpt>
      <trkpt lat="40.813787889085" lon="-4.12963197978964">
        <time>2024-01-11T01:25:41Z</time>
      </trkpt>
      <trkpt lat="40.8137484941337" lon="-4.12957776952202">
        <time>2024-01-11T01:25:41Z</time>
      </trkpt>
      <trkpt lat="40.813676201402" lon="-4.12949821338442">
        <time>2024-01-11T01:25:41Z</time>
      </trkpt>
      <trkpt lat="40.8136478713168" lon="-4.12946798736153">
        <time>2024-01-11T01:25:41Z</time>
      </trkpt>
      <trkpt lat="40.8136424713421" lon="-4.12946169879305">
        <time>2024-01-11T01:25:41Z</time>
      </trkpt>
      <trkpt lat="40.8136312632529" lon="-4.12945233716665">
        <time>2024-01-11T01:25:41Z</time>
      </trkpt>
      <trkpt lat="40.8135737002247" lon="-4.12938974146272">
        <time>2024-01-11T01:25:41Z</time>
      </trkpt>
      <trkpt lat="40.8135067031712" lon="-4.12932529369238">
        <time>2024-01-11T01:25:41Z</time>
      </trkpt>
      <trkpt lat="40.8134364131772" lon="-4.12927379062075">
        <time>2024-01-11T01:25:41Z</time>
      </trkpt>
      <trkpt lat="40.8133608636003" lon="-4.12923524567214">
        <time>2024-01-11T01:25:41Z</time>
      </trkpt>
      <trkpt lat="40.8132853140084" lon="-4.12919670081266">
        <time>2024-01-11T01:25:41Z</time>
      </trkpt>
      <trkpt lat="40.8132097644015" lon="-4.12915815604231">
        <time>2024-01-11T01:25:41Z</time>
      </trkpt>
      <trkpt lat="40.8131342147796" lon="-4.12911961136109">
        <time>2024-01-11T01:25:41Z</time>
      </trkpt>
      <trkpt lat="40.8130586651426" lon="-4.12908106676901">
        <time>2024-01-11T01:25:41Z</time>
      </trkpt>
      <trkpt lat="40.8129831154907" lon="-4.12904252226599">
        <time>2024-01-11T01:25:41Z</time>
      </trkpt>
      <trkpt lat="40.8129037489645" lon="-4.12902141572164">
        <time>2024-01-11T01:25:41Z</time>
      </trkpt>
      <trkpt lat="40.8128243824327" lon="-4.1290003092297">
        <time>2024-01-11T01:25:41Z</time>
      </trkpt>
      <trkpt lat="40.8127450158953" lon="-4.12897920279011">
        <time>2024-01-11T01:25:41Z</time>
      </trkpt>
      <trkpt lat="40.8126656493523" lon="-4.12895809640293">
        <time>2024-01-11T01:25:41Z</time>
      </trkpt>
      <trkpt lat="40.8125862828037" lon="-4.1289369900681">
        <time>2024-01-11T01:25:41Z</time>
      </trkpt>
      <trkpt lat="40.8125069162495" lon="-4.12891588378568">
        <time>2024-01-11T01:25:41Z</time>
      </trkpt>
      <trkpt lat="40.8124470257144" lon="-4.1288990598685">
        <time>2024-01-11T01:25:41Z</time>
      </trkpt>
      <trkpt lat="40.8123871351759" lon="-4.12888223598282">
        <time>2024-01-11T01:25:41Z</time>
      </trkpt>
      <trkpt lat="40.8123272446338" lon="-4.12886541212851">
        <time>2024-01-11T01:25:41Z</time>
      </trkpt>
      <trkpt lat="40.8122546615417" lon="-4.12884955540807">
        <time>2024-01-11T01:25:41Z</time>
      </trkpt>
      <trkpt lat="40.8121820784461" lon="-4.12883369872395">
        <time>2024-01-11T01:25:41Z</time>
      </trkpt>
      <trkpt lat="40.8121094953469" lon="-4.12881784207611">
        <time>2024-01-11T01:25:41Z</time>
      </trkpt>
      <trkpt lat="40.8120369122442" lon="-4.12880198546464">
        <time>2024-01-11T01:25:41Z</time>
      </trkpt>
      <trkpt lat="40.811990429979" lon="-4.12879183090002">
        <time>2024-01-11T01:25:41Z</time>
      </trkpt>
      <trkpt lat="40.8119439477123" lon="-4.12878167635029">
        <time>2024-01-11T01:25:41Z</time>
      </trkpt>
      <trkpt lat="40.8118559758903" lon="-4.12876245800385">
        <time>2024-01-11T01:25:41Z</time>
      </trkpt>
      <trkpt lat="40.8118209990377" lon="-4.12871637618938">
        <time>2024-01-11T01:25:41Z</time>
      </trkpt>
      <trkpt lat="40.8117767382394" lon="-4.12866834474617">
        <time>2024-01-11T01:25:41Z</time>
      </trkpt>
      <trkpt lat="40.8117501276524" lon="-4.12861633634191">
        <time>2024-01-11T01:25:41Z</time>
      </trkpt>
      <trkpt lat="40.8117537564937" lon="-4.12855453909958">
        <time>2024-01-11T01:25:41Z</time>
      </trkpt>
      <trkpt lat="40.8117906185332" lon="-4.12846979777174">
        <time>2024-01-11T01:25:41Z</time>
      </trkpt>
      <trkpt lat="40.8118274805115" lon="-4.12838505634915">
        <time>2024-01-11T01:25:41Z</time>
      </trkpt>
      <trkpt lat="40.8118643424285" lon="-4.12830031483179">
        <time>2024-01-11T01:25:41Z</time>
      </trkpt>
      <trkpt lat="40.8119055685601" lon="-4.12822987484322">
        <time>2024-01-11T01:25:41Z</time>
      </trkpt>
      <trkpt lat="40.8119467946496" lon="-4.1281594347671">
        <time>2024-01-11T01:25:41Z</time>
      </trkpt>
      <trkpt lat="40.8119966159696" lon="-4.12806542735064">
        <time>2024-01-11T01:25:41Z</time>
      </trkpt>
      <trkpt lat="40.8120464372145" lon="-4.12797141979263">
        <time>2024-01-11T01:25:41Z</time>
      </trkpt>
      <trkpt lat="40.8120962583841" lon="-4.12787741209303">
        <time>2024-01-11T01:25:41Z</time>
      </trkpt>
      <trkpt lat="40.8121460794786" lon="-4.12778340425189">
        <time>2024-01-11T01:25:41Z</time>
      </trkpt>
      <trkpt lat="40.8121959004979" lon="-4.12768939626921">
        <time>2024-01-11T01:25:41Z</time>
      </trkpt>
      <trkpt lat="40.812245721442" lon="-4.12759538814493">
        <time>2024-01-11T01:25:41Z</time>
      </trkpt>
      <trkpt lat="40.8122955423109" lon="-4.12750137987911">
        <time>2024-01-11T01:25:41Z</time>
      </trkpt>
      <trkpt lat="40.8123429848768" lon="-4.12740930729177">
        <time>2024-01-11T01:25:41Z</time>
      </trkpt>
      <trkpt lat="40.8123904273705" lon="-4.12731723457239">
        <time>2024-01-11T01:25:41Z</time>
      </trkpt>
      <trkpt lat="40.812437869792" lon="-4.12722516172085">
        <time>2024-01-11T01:25:41Z</time>
      </trkpt>
      <trkpt lat="40.8124853121414" lon="-4.12713308873725">
        <time>2024-01-11T01:25:41Z</time>
      </trkpt>
      <trkpt lat="40.8125327544186" lon="-4.1270410156215">
        <time>2024-01-11T01:25:41Z</time>
      </trkpt>
      <trkpt lat="40.8125801966237" lon="-4.1269489423737">
        <time>2024-01-11T01:25:41Z</time>
      </trkpt>
      <trkpt lat="40.8126393197252" lon="-4.12689066017345">
        <time>2024-01-11T01:25:41Z</time>
      </trkpt>
      <trkpt lat="40.8126984427979" lon="-4.12683237787013">
        <time>2024-01-11T01:25:41Z</time>
      </trkpt>
      <trkpt lat="40.812757565842" lon="-4.12677409546393">
        <time>2024-01-11T01:25:41Z</time>
      </trkpt>
      <trkpt lat="40.8128166888574" lon="-4.12671581295473">
        <time>2024-01-11T01:25:41Z</time>
      </trkpt>
      <trkpt lat="40.8128715565294" lon="-4.12663205139256">
        <time>2024-01-11T01:25:41Z</time>
      </trkpt>
      <trkpt lat="40.8129264241419" lon="-4.12654828969204">
        <time>2024-01-11T01:25:41Z</time>
      </trkpt>
      <trkpt lat="40.8129812916949" lon="-4.12646452785316">
        <time>2024-01-11T01:25:41Z</time>
      </trkpt>
      <trkpt lat="40.8130361591883" lon="-4.12638076587581">
        <time>2024-01-11T01:25:41Z</time>
      </trkpt>
      <trkpt lat="40.8130910266223" lon="-4.1262970037601">
        <time>2024-01-11T01:25:41Z</time>
      </trkpt>
      <trkpt lat="40.8131458939967" lon="-4.12621324150604">
        <time>2024-01-11T01:25:41Z</time>
      </trkpt>
      <trkpt lat="40.8132007613116" lon="-4.12612947911356">
        <time>2024-01-11T01:25:41Z</time>
      </trkpt>
      <trkpt lat="40.8133057627681" lon="-4.12599139703736">
        <time>2024-01-11T01:25:41Z</time>
      </trkpt>
      <trkpt lat="40.8133705982559" lon="-4.12583186816932">
        <time>2024-01-11T01:25:41Z</time>
      </trkpt>
      <trkpt lat="40.8134211795902" lon="-4.12574348704462">
        <time>2024-01-11T01:25:41Z</time>
      </trkpt>
      <trkpt lat="40.813474792972" lon="-4.12565317400839">
        <time>2024-01-11T01:25:41Z</time>
      </trkpt>
      <trkpt lat="40.8135269192447" lon="-4.12556085266128">
        <time>2024-01-11T01:25:41Z</time>
      </trkpt>
      <trkpt lat="40.813554595126" lon="-4.12550381251642">
        <time>2024-01-11T01:25:41Z</time>
      </trkpt>
      <trkpt lat="40.8135672258971" lon="-4.12548320415283">
        <time>2024-01-11T01:25:41Z</time>
      </trkpt>
      <trkpt lat="40.8135769983448" lon="-4.12546601778117">
        <time>2024-01-11T01:25:41Z</time>
      </trkpt>
      <trkpt lat="40.8136147944795" lon="-4.1253754370128">
        <time>2024-01-11T01:25:41Z</time>
      </trkpt>
      <trkpt lat="40.8136074371672" lon="-4.12531879622962">
        <time>2024-01-11T01:25:41Z</time>
      </trkpt>
      <trkpt lat="40.8135447008653" lon="-4.12526320272581">
        <time>2024-01-11T01:25:41Z</time>
      </trkpt>
      <trkpt lat="40.8134534378477" lon="-4.12535188842418">
        <time>2024-01-11T01:25:41Z</time>
      </trkpt>
      <trkpt lat="40.8133712807661" lon="-4.12543378718037">
        <time>2024-01-11T01:25:41Z</time>
      </trkpt>
      <trkpt lat="40.8133096822606" lon="-4.12549322841797">
        <time>2024-01-11T01:25:41Z</time>
      </trkpt>
      <trkpt lat="40.8132534431174" lon="-4.1255438365262">
        <time>2024-01-11T01:25:41Z</time>
      </trkpt>
      <trkpt lat="40.8131879590273" lon="-4.12557979047392">
        <time>2024-01-11T01:25:41Z</time>
      </trkpt>
      <trkpt lat="40.8131076308575" lon="-4.12566431923084">
        <time>2024-01-11T01:25:41Z</time>
      </trkpt>
      <trkpt lat="40.8130067501664" lon="-4.12573499408822">
        <time>2024-01-11T01:25:41Z</time>
      </trkpt>
      <trkpt lat="40.8129453836828" lon="-4.12577064248779">
        <time>2024-01-11T01:25:41Z</time>
      </trkpt>
      <trkpt lat="40.8128878702151" lon="-4.12579743240557">
        <time>2024-01-11T01:25:41Z</time>
      </trkpt>
      <trkpt lat="40.8128411142611" lon="-4.12580259102379">
        <time>2024-01-11T01:25:41Z</time>
      </trkpt>
      <trkpt lat="40.8127874883583" lon="-4.12580940489068">
        <time>2024-01-11T01:25:41Z</time>
      </trkpt>
      <trkpt lat="40.8127162449613" lon="-4.12582839284415">
        <time>2024-01-11T01:25:41Z</time>
      </trkpt>
      <trkpt lat="40.8126450015608" lon="-4.12584738075867">
        <time>2024-01-11T01:25:41Z</time>
      </trkpt>
      <trkpt lat="40.8125817438803" lon="-4.12590330550263">
        <time>2024-01-11T01:25:41Z</time>
      </trkpt>
      <trkpt lat="40.8125485267858" lon="-4.12599337694377">
        <time>2024-01-11T01:25:41Z</time>
      </trkpt>
      <trkpt lat="40.8125221887547" lon="-4.12613926724937">
        <time>2024-01-11T01:25:41Z</time>
      </trkpt>
      <trkpt lat="40.8125047282232" lon="-4.12623019001099">
        <time>2024-01-11T01:25:41Z</time>
      </trkpt>
      <trkpt lat="40.8124618526587" lon="-4.12630085289604">
        <time>2024-01-11T01:25:41Z</time>
      </trkpt>
      <trkpt lat="40.812420464078" lon="-4.12637352383837">
        <time>2024-01-11T01:25:41Z</time>
      </trkpt>
      <trkpt lat="40.8123412996987" lon="-4.12645745370411">
        <time>2024-01-11T01:25:41Z</time>
      </trkpt>
      <trkpt lat="40.8122806184312" lon="-4.12650005316274">
        <time>2024-01-11T01:25:41Z</time>
      </trkpt>
      <trkpt lat="40.8121895771401" lon="-4.12656593487028">
        <time>2024-01-11T01:25:41Z</time>
      </trkpt>
      <trkpt lat="40.8121183317841" lon="-4.12661033841392">
        <time>2024-01-11T01:25:41Z</time>
      </trkpt>
      <trkpt lat="40.8120491136362" lon="-4.12667857200104">
        <time>2024-01-11T01:25:41Z</time>
      </trkpt>
      <trkpt lat="40.8120141763599" lon="-4.1267077257249">
        <time>2024-01-11T01:25:41Z</time>
      </trkpt>
      <trkpt lat="40.8119738408673" lon="-4.12674967748751">
        <time>2024-01-11T01:25:41Z</time>
      </trkpt>
      <trkpt lat="40.8119271506196" lon="-4.12682523239437">
        <time>2024-01-11T01:25:41Z</time>
      </trkpt>
      <trkpt lat="40.8118875855377" lon="-4.12694255038245">
        <time>2024-01-11T01:25:41Z</time>
      </trkpt>
      <trkpt lat="40.8118551477066" lon="-4.12702429519079">
        <time>2024-01-11T01:25:41Z</time>
      </trkpt>
      <trkpt lat="40.8118118067802" lon="-4.1271425405185">
        <time>2024-01-11T01:25:41Z</time>
      </trkpt>
      <trkpt lat="40.8117497037419" lon="-4.12725352769475">
        <time>2024-01-11T01:25:41Z</time>
      </trkpt>
      <trkpt lat="40.8116719869998" lon="-4.12734342911446">
        <time>2024-01-11T01:25:41Z</time>
      </trkpt>
      <trkpt lat="40.8115886030972" lon="-4.12739654938649">
        <time>2024-01-11T01:25:41Z</time>
      </trkpt>
      <trkpt lat="40.8115082416259" lon="-4.12744872920943">
        <time>2024-01-11T01:25:41Z</time>
      </trkpt>
      <trkpt lat="40.8114279091966" lon="-4.12749793494784">
        <time>2024-01-11T01:25:41Z</time>
      </trkpt>
      <trkpt lat="40.8113452977937" lon="-4.1275490849513">
        <time>2024-01-11T01:25:41Z</time>
      </trkpt>
      <trkpt lat="40.8112853983932" lon="-4.12758872158807">
        <time>2024-01-11T01:25:41Z</time>
      </trkpt>
      <trkpt lat="40.8112270925674" lon="-4.12761946180647">
        <time>2024-01-11T01:25:41Z</time>
      </trkpt>
      <trkpt lat="40.8111680141625" lon="-4.12765217185137">
        <time>2024-01-11T01:25:41Z</time>
      </trkpt>
      <trkpt lat="40.8111096501808" lon="-4.1276888598537">
        <time>2024-01-11T01:25:41Z</time>
      </trkpt>
      <trkpt lat="40.8110528216419" lon="-4.12772259935688">
        <time>2024-01-11T01:25:41Z</time>
      </trkpt>
      <trkpt lat="40.8109948693784" lon="-4.12775542206544">
        <time>2024-01-11T01:25:41Z</time>
      </trkpt>
      <trkpt lat="40.810942729671" lon="-4.12781594224601">
        <time>2024-01-11T01:25:41Z</time>
      </trkpt>
      <trkpt lat="40.8108905899326" lon="-4.12787646233198">
        <time>2024-01-11T01:25:41Z</time>
      </trkpt>
      <trkpt lat="40.8108423822076" lon="-4.12798078552">
        <time>2024-01-11T01:25:41Z</time>
      </trkpt>
      <trkpt lat="40.8107794961125" lon="-4.12809473147396">
        <time>2024-01-11T01:25:41Z</time>
      </trkpt>
      <trkpt lat="40.8107091361549" lon="-4.12820260176584">
        <time>2024-01-11T01:25:41Z</time>
      </trkpt>
      <trkpt lat="40.810639299624" lon="-4.12825694119294">
        <time>2024-01-11T01:25:41Z</time>
      </trkpt>
      <trkpt lat="40.8105558862264" lon="-4.12831303343776">
        <time>2024-01-11T01:25:41Z</time>
      </trkpt>
      <trkpt lat="40.8104830950514" lon="-4.12836137374903">
        <time>2024-01-11T01:25:41Z</time>
      </trkpt>
      <trkpt lat="40.8104345611264" lon="-4.12839426143525">
        <time>2024-01-11T01:25:41Z</time>
      </trkpt>
      <trkpt lat="40.8103811752475" lon="-4.12839480794941">
        <time>2024-01-11T01:25:41Z</time>
      </trkpt>
      <trkpt lat="40.8103154921821" lon="-4.12845244635304">
        <time>2024-01-11T01:25:41Z</time>
      </trkpt>
      <trkpt lat="40.8102880024737" lon="-4.12851372880613">
        <time>2024-01-11T01:25:41Z</time>
      </trkpt>
      <trkpt lat="40.8102404027464" lon="-4.12860512863355">
        <time>2024-01-11T01:25:41Z</time>
      </trkpt>
      <trkpt lat="40.8101875306062" lon="-4.12869643897891">
        <time>2024-01-11T01:25:41Z</time>
      </trkpt>
      <trkpt lat="40.810118156072" lon="-4.12878052923955">
        <time>2024-01-11T01:25:41Z</time>
      </trkpt>
      <trkpt lat="40.8100558220942" lon="-4.12883796914257">
        <time>2024-01-11T01:25:41Z</time>
      </trkpt>
      <trkpt lat="40.8100147520549" lon="-4.12887792302706">
        <time>2024-01-11T01:25:41Z</time>
      </trkpt>
      <trkpt lat="40.809991374433" lon="-4.12890238322388">
        <time>2024-01-11T01:25:41Z</time>
      </trkpt>
      <trkpt lat="40.8099704461278" lon="-4.1289406256474">
        <time>2024-01-11T01:25:41Z</time>
      </trkpt>
      <trkpt lat="40.8099481767429" lon="-4.12898387249696">
        <time>2024-01-11T01:25:41Z</time>
      </trkpt>
      <trkpt lat="40.8099412896394" lon="-4.12907547354075">
        <time>2024-01-11T01:25:41Z</time>
      </trkpt>
      <trkpt lat="40.809945828901" lon="-4.12922376649172">
        <time>2024-01-11T01:25:41Z</time>
      </trkpt>
      <trkpt lat="40.8099405237923" lon="-4.12930398495611">
        <time>2024-01-11T01:25:41Z</time>
      </trkpt>
      <trkpt lat="40.8099023752834" lon="-4.12943024515649">
        <time>2024-01-11T01:25:41Z</time>
      </trkpt>
      <trkpt lat="40.8098652515857" lon="-4.12952876169186">
        <time>2024-01-11T01:25:41Z</time>
      </trkpt>
      <trkpt lat="40.8098342212811" lon="-4.12962044124423">
        <time>2024-01-11T01:25:41Z</time>
      </trkpt>
      <trkpt lat="40.8098114565967" lon="-4.12971424383279">
        <time>2024-01-11T01:25:41Z</time>
      </trkpt>
      <trkpt lat="40.8097887500838" lon="-4.12980209858623">
        <time>2024-01-11T01:25:41Z</time>
      </trkpt>
      <trkpt lat="40.8097644788703" lon="-4.12989587549016">
        <time>2024-01-11T01:25:41Z</time>
      </trkpt>
      <trkpt lat="40.8097402367096" lon="-4.12998667844184">
        <time>2024-01-11T01:25:41Z</time>
      </trkpt>
      <trkpt lat="40.8097193373838" lon="-4.13004382845647">
        <time>2024-01-11T01:25:41Z</time>
      </trkpt>
      <trkpt lat="40.8097000609364" lon="-4.13008910847296">
        <time>2024-01-11T01:25:41Z</time>
      </trkpt>
      <trkpt lat="40.8096822325904" lon="-4.13014036178298">
        <time>2024-01-11T01:25:41Z</time>
      </trkpt>
      <trkpt lat="40.8096529315499" lon="-4.13020926661924">
        <time>2024-01-11T01:25:41Z</time>
      </trkpt>
      <trkpt lat="40.809618474671" lon="-4.13026618641379">
        <time>2024-01-11T01:25:41Z</time>
      </trkpt>
      <trkpt lat="40.8095843091276" lon="-4.13029336739858">
        <time>2024-01-11T01:25:41Z</time>
      </trkpt>
      <trkpt lat="40.809518752343" lon="-4.13029522922604">
        <time>2024-01-11T01:25:41Z</time>
      </trkpt>
      <trkpt lat="40.8094532052697" lon="-4.13029609976156">
        <time>2024-01-11T01:25:41Z</time>
      </trkpt>
      <trkpt lat="40.8094030716489" lon="-4.13026153953488">
        <time>2024-01-11T01:25:41Z</time>
      </trkpt>
      <trkpt lat="40.80933145478" lon="-4.13018993104921">
        <time>2024-01-11T01:25:41Z</time>
      </trkpt>
      <trkpt lat="40.8092701786234" lon="-4.13013931866724">
        <time>2024-01-11T01:25:41Z</time>
      </trkpt>
      <trkpt lat="40.8092066622886" lon="-4.13008668546792">
        <time>2024-01-11T01:25:41Z</time>
      </trkpt>
      <trkpt lat="40.8090995579176" lon="-4.13002339834216">
        <time>2024-01-11T01:25:41Z</time>
      </trkpt>
      <trkpt lat="40.8090187084109" lon="-4.12997146277452">
        <time>2024-01-11T01:25:41Z</time>
      </trkpt>
      <trkpt lat="40.808891019437" lon="-4.12985627160997">
        <time>2024-01-11T01:25:41Z</time>
      </trkpt>
      <trkpt lat="40.8087503513535" lon="-4.12975870673665">
        <time>2024-01-11T01:25:41Z</time>
      </trkpt>
      <trkpt lat="40.8086587085802" lon="-4.12965503368063">
        <time>2024-01-11T01:25:41Z</time>
      </trkpt>
      <trkpt lat="40.8085274668222" lon="-4.12951797181123">
        <time>2024-01-11T01:25:41Z</time>
      </trkpt>
      <trkpt lat="40.8084732213901" lon="-4.12944170245783">
        <time>2024-01-11T01:25:41Z</time>
      </trkpt>
      <trkpt lat="40.8084025900569" lon="-4.12934631804971">
        <time>2024-01-11T01:25:41Z</time>
      </trkpt>
      <trkpt lat="40.8083581262967" lon="-4.12927120626292">
        <time>2024-01-11T01:25:41Z</time>
      </trkpt>
      <trkpt lat="40.8082770180457" lon="-4.12916870452676">
        <time>2024-01-11T01:25:41Z</time>
      </trkpt>
      <trkpt lat="40.8082578134318" lon="-4.12912971291572">
        <time>2024-01-11T01:25:41Z</time>
      </trkpt>
      <trkpt lat="40.8082561648333" lon="-4.12912497564328">
        <time>2024-01-11T01:25:41Z</time>
      </trkpt>
      <trkpt lat="40.8082539489152" lon="-4.12912047661294">
        <time>2024-01-11T01:25:41Z</time>
      </trkpt>
      <trkpt lat="40.8082418623475" lon="-4.12910465659251">
        <time>2024-01-11T01:25:41Z</time>
      </trkpt>
      <trkpt lat="40.8082137519253" lon="-4.12907121481278">
        <time>2024-01-11T01:25:41Z</time>
      </trkpt>
      <trkpt lat="40.8081962907813" lon="-4.12903691351369">
        <time>2024-01-11T01:25:41Z</time>
      </trkpt>
      <trkpt lat="40.8081367433255" lon="-4.12896482085791">
        <time>2024-01-11T01:25:41Z</time>
      </trkpt>
      <trkpt lat="40.8080771958223" lon="-4.12889272833127">
        <time>2024-01-11T01:25:41Z</time>
      </trkpt>
      <trkpt lat="40.8080176482718" lon="-4.12882063593367">
        <time>2024-01-11T01:25:41Z</time>
      </trkpt>
      <trkpt lat="40.8079581006739" lon="-4.12874854366521">
        <time>2024-01-11T01:25:41Z</time>
      </trkpt>
      <trkpt lat="40.8078985530286" lon="-4.12867645152585">
        <time>2024-01-11T01:25:41Z</time>
      </trkpt>
      <trkpt lat="40.8077994323491" lon="-4.12858954444337">
        <time>2024-01-11T01:25:41Z</time>
      </trkpt>
      <trkpt lat="40.8076884381789" lon="-4.12846175236153">
        <time>2024-01-11T01:25:41Z</time>
      </trkpt>
      <trkpt lat="40.8076431721506" lon="-4.12839158552605">
        <time>2024-01-11T01:25:41Z</time>
      </trkpt>
      <trkpt lat="40.8076120325286" lon="-4.12834049520321">
        <time>2024-01-11T01:25:41Z</time>
      </trkpt>
      <trkpt lat="40.8075780061407" lon="-4.1282764674808">
        <time>2024-01-11T01:25:41Z</time>
      </trkpt>
      <trkpt lat="40.8075591383007" lon="-4.12822213484759">
        <time>2024-01-11T01:25:41Z</time>
      </trkpt>
      <trkpt lat="40.807509076854" lon="-4.12814560541677">
        <time>2024-01-11T01:25:41Z</time>
      </trkpt>
      <trkpt lat="40.8074518758691" lon="-4.12800168910845">
        <time>2024-01-11T01:25:41Z</time>
      </trkpt>
      <trkpt lat="40.8073968761998" lon="-4.12792540946452">
        <time>2024-01-11T01:25:41Z</time>
      </trkpt>
      <trkpt lat="40.8073385729887" lon="-4.12787881670572">
        <time>2024-01-11T01:25:41Z</time>
      </trkpt>
      <trkpt lat="40.8072962885465" lon="-4.12785101305724">
        <time>2024-01-11T01:25:41Z</time>
      </trkpt>
      <trkpt lat="40.8072336848564" lon="-4.12778600842444">
        <time>2024-01-11T01:25:41Z</time>
      </trkpt>
      <trkpt lat="40.8071308328308" lon="-4.12770675763401">
        <time>2024-01-11T01:25:41Z</time>
      </trkpt>
      <trkpt lat="40.8070408566886" lon="-4.1276635947233">
        <time>2024-01-11T01:25:41Z</time>
      </trkpt>
      <trkpt lat="40.8069571192115" lon="-4.12759872636018">
        <time>2024-01-11T01:25:41Z</time>
      </trkpt>
      <trkpt lat="40.8068868522109" lon="-4.12755101086858">
        <time>2024-01-11T01:25:41Z</time>
      </trkpt>
      <trkpt lat="40.8068176983443" lon="-4.12749676282467">
        <time>2024-01-11T01:25:41Z</time>
      </trkpt>
      <trkpt lat="40.8067222442951" lon="-4.12742819272118">
        <time>2024-01-11T01:25:41Z</time>
      </trkpt>
      <trkpt lat="40.8065395889321" lon="-4.12731009741501">
        <time>2024-01-11T01:25:41Z</time>
      </trkpt>
      <trkpt lat="40.8064467160739" lon="-4.12725498949958">
        <time>2024-01-11T01:25:41Z</time>
      </trkpt>
      <trkpt lat="40.8063585172966" lon="-4.12718409829845">
        <time>2024-01-11T01:25:41Z</time>
      </trkpt>
      <trkpt lat="40.8063062392985" lon="-4.12713760888876">
        <time>2024-01-11T01:25:41Z</time>
      </trkpt>
      <trkpt lat="40.8062374878802" lon="-4.1270809267451">
        <time>2024-01-11T01:25:41Z</time>
      </trkpt>
      <trkpt lat="40.8061707269677" lon="-4.12697470810571">
        <time>2024-01-11T01:25:41Z</time>
      </trkpt>
      <trkpt lat="40.8061212022487" lon="-4.12687770391334">
        <time>2024-01-11T01:25:41Z</time>
      </trkpt>
      <trkpt lat="40.8061051160963" lon="-4.12682786153544">
        <time>2024-01-11T01:25:41Z</time>
      </trkpt>
      <trkpt lat="40.8060824157648" lon="-4.1267610534204">
        <time>2024-01-11T01:25:41Z</time>
      </trkpt>
      <trkpt lat="40.8060498966988" lon="-4.12661972396678">
        <time>2024-01-11T01:25:41Z</time>
      </trkpt>
      <trkpt lat="40.8060403683241" lon="-4.12651546539699">
        <time>2024-01-11T01:25:41Z</time>
      </trkpt>
      <trkpt lat="40.806039065192" lon="-4.12649462387644">
        <time>2024-01-11T01:25:41Z</time>
      </trkpt>
      <trkpt lat="40.8060382072569" lon="-4.12642818530575">
        <time>2024-01-11T01:25:41Z</time>
      </trkpt>
      <trkpt lat="40.8060361993056" lon="-4.12640237484949">
        <time>2024-01-11T01:25:41Z</time>
      </trkpt>
      <trkpt lat="40.8060392957916" lon="-4.12638015936119">
        <time>2024-01-11T01:25:41Z</time>
      </trkpt>
      <trkpt lat="40.8060161663226" lon="-4.12621664361959">
        <time>2024-01-11T01:25:41Z</time>
      </trkpt>
      <trkpt lat="40.8060083292451" lon="-4.12601624761312">
        <time>2024-01-11T01:25:41Z</time>
      </trkpt>
      <trkpt lat="40.8059925342769" lon="-4.12585933889683">
        <time>2024-01-11T01:25:41Z</time>
      </trkpt>
      <trkpt lat="40.8059347537196" lon="-4.12568189266932">
        <time>2024-01-11T01:25:41Z</time>
      </trkpt>
      <trkpt lat="40.8058846294331" lon="-4.1255690172219">
        <time>2024-01-11T01:25:41Z</time>
      </trkpt>
      <trkpt lat="40.8058036251321" lon="-4.12537829096743">
        <time>2024-01-11T01:25:41Z</time>
      </trkpt>
      <trkpt lat="40.8057390255136" lon="-4.1252820252336">
        <time>2024-01-11T01:25:41Z</time>
      </trkpt>
      <trkpt lat="40.8057026604523" lon="-4.12522589257368">
        <time>2024-01-11T01:25:41Z</time>
      </trkpt>
      <trkpt lat="40.8056896584223" lon="-4.12520733206317">
        <time>2024-01-11T01:25:41Z</time>
      </trkpt>
      <trkpt lat="40.8056716400064" lon="-4.12518174703535">
        <time>2024-01-11T01:25:41Z</time>
      </trkpt>
      <trkpt lat="40.8056579113603" lon="-4.12516044792339">
        <time>2024-01-11T01:25:41Z</time>
      </trkpt>
      <trkpt lat="40.8056531896112" lon="-4.12514252299902">
        <time>2024-01-11T01:25:41Z</time>
      </trkpt>
      <trkpt lat="40.805608819678" lon="-4.12505750475553">
        <time>2024-01-11T01:25:41Z</time>
      </trkpt>
      <trkpt lat="40.8055840516729" lon="-4.1250094993668">
        <time>2024-01-11T01:25:41Z</time>
      </trkpt>
      <trkpt lat="40.8055523171251" lon="-4.12490337965192">
        <time>2024-01-11T01:25:41Z</time>
      </trkpt>
      <trkpt lat="40.8055350906518" lon="-4.12485451031535">
        <time>2024-01-11T01:25:41Z</time>
      </trkpt>
      <trkpt lat="40.805507256931" lon="-4.12477324151944">
        <time>2024-01-11T01:25:41Z</time>
      </trkpt>
      <trkpt lat="40.8054618771761" lon="-4.12475314305873">
        <time>2024-01-11T01:25:41Z</time>
      </trkpt>
      <trkpt lat="40.8054259987484" lon="-4.12476942174009">
        <time>2024-01-11T01:25:41Z</time>
      </trkpt>
      <trkpt lat="40.8053577574236" lon="-4.12480839015069">
        <time>2024-01-11T01:25:41Z</time>
      </trkpt>
      <trkpt lat="40.8052912534945" lon="-4.12490739786375">
        <time>2024-01-11T01:25:41Z</time>
      </trkpt>
      <trkpt lat="40.8052204043038" lon="-4.12498848694205">
        <time>2024-01-11T01:25:41Z</time>
      </trkpt>
      <trkpt lat="40.8051722088536" lon="-4.12506401011422">
        <time>2024-01-11T01:25:41Z</time>
      </trkpt>
      <trkpt lat="40.8051141928419" lon="-4.12514234147331">
        <time>2024-01-11T01:25:41Z</time>
      </trkpt>
      <trkpt lat="40.8050598750716" lon="-4.12522767489239">
        <time>2024-01-11T01:25:41Z</time>
      </trkpt>
      <trkpt lat="40.8050041378675" lon="-4.12530406169713">
        <time>2024-01-11T01:25:41Z</time>
      </trkpt>
      <trkpt lat="40.8049536536288" lon="-4.12538251989448">
        <time>2024-01-11T01:25:41Z</time>
      </trkpt>
      <trkpt lat="40.8048955793882" lon="-4.12546679806">
        <time>2024-01-11T01:25:41Z</time>
      </trkpt>
      <trkpt lat="40.8048379488262" lon="-4.12558280793061">
        <time>2024-01-11T01:25:41Z</time>
      </trkpt>
      <trkpt lat="40.8048046427754" lon="-4.1256764267871">
        <time>2024-01-11T01:25:41Z</time>
      </trkpt>
      <trkpt lat="40.8047612549694" lon="-4.12579961671784">
        <time>2024-01-11T01:25:41Z</time>
      </trkpt>
      <trkpt lat="40.8047363112551" lon="-4.12588544561889">
        <time>2024-01-11T01:25:41Z</time>
      </trkpt>
      <trkpt lat="40.8047031017012" lon="-4.1259691519714">
        <time>2024-01-11T01:25:41Z</time>
      </trkpt>
      <trkpt lat="40.8046599070837" lon="-4.12607251712092">
        <time>2024-01-11T01:25:41Z</time>
      </trkpt>
      <trkpt lat="40.804629971403" lon="-4.12612951129095">
        <time>2024-01-11T01:25:41Z</time>
      </trkpt>
      <trkpt lat="40.8045733062536" lon="-4.1262237260424">
        <time>2024-01-11T01:25:41Z</time>
      </trkpt>
      <trkpt lat="40.8044963048162" lon="-4.12631759679025">
        <time>2024-01-11T01:25:41Z</time>
      </trkpt>
      <trkpt lat="40.8044476069317" lon="-4.12636733380459">
        <time>2024-01-11T01:25:41Z</time>
      </trkpt>
      <trkpt lat="40.8043852160634" lon="-4.12643071851801">
        <time>2024-01-11T01:25:41Z</time>
      </trkpt>
      <trkpt lat="40.8043272572142" lon="-4.12650310046709">
        <time>2024-01-11T01:25:41Z</time>
      </trkpt>
      <trkpt lat="40.8042684289789" lon="-4.12658736411897">
        <time>2024-01-11T01:25:41Z</time>
      </trkpt>
      <trkpt lat="40.8042157423847" lon="-4.12665983497545">
        <time>2024-01-11T01:25:41Z</time>
      </trkpt>
      <trkpt lat="40.8041166656698" lon="-4.12677712434324">
        <time>2024-01-11T01:25:41Z</time>
      </trkpt>
      <trkpt lat="40.8040611114061" lon="-4.12683467576129">
        <time>2024-01-11T01:25:41Z</time>
      </trkpt>
      <trkpt lat="40.8039804887476" lon="-4.12691361323335">
        <time>2024-01-11T01:25:41Z</time>
      </trkpt>
      <trkpt lat="40.803891735833" lon="-4.12697655102046">
        <time>2024-01-11T01:25:41Z</time>
      </trkpt>
      <trkpt lat="40.8037909124317" lon="-4.12704126717094">
        <time>2024-01-11T01:25:41Z</time>
      </trkpt>
      <trkpt lat="40.8036858506535" lon="-4.12707716172182">
        <time>2024-01-11T01:25:41Z</time>
      </trkpt>
      <trkpt lat="40.8035914788168" lon="-4.12709836651769">
        <time>2024-01-11T01:25:41Z</time>
      </trkpt>
      <trkpt lat="40.8034466817795" lon="-4.12711475263556">
        <time>2024-01-11T01:25:41Z</time>
      </trkpt>
      <trkpt lat="40.8032550221488" lon="-4.12714719896524">
        <time>2024-01-11T01:25:41Z</time>
      </trkpt>
      <trkpt lat="40.803178315416" lon="-4.12714965078936">
        <time>2024-01-11T01:25:41Z</time>
      </trkpt>
      <trkpt lat="40.8030910201992" lon="-4.12715580865033">
        <time>2024-01-11T01:25:41Z</time>
      </trkpt>
      <trkpt lat="40.8029550382832" lon="-4.12716393327059">
        <time>2024-01-11T01:25:41Z</time>
      </trkpt>
      <trkpt lat="40.8027896456874" lon="-4.12712941151672">
        <time>2024-01-11T01:25:41Z</time>
      </trkpt>
      <trkpt lat="40.8027218970444" lon="-4.12712429985739">
        <time>2024-01-11T01:25:41Z</time>
      </trkpt>
      <trkpt lat="40.8026906540566" lon="-4.12712228422846">
        <time>2024-01-11T01:25:41Z</time>
      </trkpt>
      <trkpt lat="40.802657909524" lon="-4.12711974752059">
        <time>2024-01-11T01:25:41Z</time>
      </trkpt>
      <trkpt lat="40.8026368491675" lon="-4.12711641714436">
        <time>2024-01-11T01:25:41Z</time>
      </trkpt>
      <trkpt lat="40.8026036893046" lon="-4.12711783882615">
        <time>2024-01-11T01:25:41Z</time>
      </trkpt>
      <trkpt lat="40.8025795871254" lon="-4.12711743104709">
        <time>2024-01-11T01:25:41Z</time>
      </trkpt>
      <trkpt lat="40.8025562478226" lon="-4.12711604482337">
        <time>2024-01-11T01:25:41Z</time>
      </trkpt>
      <trkpt lat="40.8025163770042" lon="-4.12711041350368">
        <time>2024-01-11T01:25:41Z</time>
      </trkpt>
      <trkpt lat="40.8024524136887" lon="-4.12710338323208">
        <time>2024-01-11T01:25:41Z</time>
      </trkpt>
      <trkpt lat="40.8023446005561" lon="-4.12711246404198">
        <time>2024-01-11T01:25:41Z</time>
      </trkpt>
      <trkpt lat="40.8022609864345" lon="-4.12711204076392">
        <time>2024-01-11T01:25:41Z</time>
      </trkpt>
      <trkpt lat="40.8021811866933" lon="-4.12710672529037">
        <time>2024-01-11T01:25:41Z</time>
      </trkpt>
      <trkpt lat="40.8020869891323" lon="-4.12711008835175">
        <time>2024-01-11T01:25:41Z</time>
      </trkpt>
      <trkpt lat="40.8019868338063" lon="-4.12710641120626">
        <time>2024-01-11T01:25:41Z</time>
      </trkpt>
      <trkpt lat="40.8018813286612" lon="-4.12711057430236">
        <time>2024-01-11T01:25:41Z</time>
      </trkpt>
      <trkpt lat="40.8017803039409" lon="-4.12711877855194">
        <time>2024-01-11T01:25:41Z</time>
      </trkpt>
      <trkpt lat="40.8017298690453" lon="-4.12711495126138">
        <time>2024-01-11T01:25:41Z</time>
      </trkpt>
      <trkpt lat="40.8016651815764" lon="-4.1271049348182">
        <time>2024-01-11T01:25:41Z</time>
      </trkpt>
      <trkpt lat="40.8016019908091" lon="-4.12709593505469">
        <time>2024-01-11T01:25:41Z</time>
      </trkpt>
      <trkpt lat="40.8015402676952" lon="-4.12709092548658">
        <time>2024-01-11T01:25:41Z</time>
      </trkpt>
      <trkpt lat="40.8014739866893" lon="-4.12708980416411">
        <time>2024-01-11T01:25:41Z</time>
      </trkpt>
      <trkpt lat="40.8014084298273" lon="-4.12709166910104">
        <time>2024-01-11T01:25:41Z</time>
      </trkpt>
      <trkpt lat="40.8013637863276" lon="-4.12708839724104">
        <time>2024-01-11T01:25:41Z</time>
      </trkpt>
      <trkpt lat="40.8012890156627" lon="-4.12710948174743">
        <time>2024-01-11T01:25:41Z</time>
      </trkpt>
      <trkpt lat="40.8012142449935" lon="-4.12713056620834">
        <time>2024-01-11T01:25:41Z</time>
      </trkpt>
      <trkpt lat="40.8011394743202" lon="-4.12715165062377">
        <time>2024-01-11T01:25:41Z</time>
      </trkpt>
      <trkpt lat="40.801059943077" lon="-4.127178677144">
        <time>2024-01-11T01:25:41Z</time>
      </trkpt>
      <trkpt lat="40.8009804118271" lon="-4.12720570360171">
        <time>2024-01-11T01:25:41Z</time>
      </trkpt>
      <trkpt lat="40.8008642811023" lon="-4.12727180692992">
        <time>2024-01-11T01:25:41Z</time>
      </trkpt>
      <trkpt lat="40.8007370860781" lon="-4.12733706488813">
        <time>2024-01-11T01:25:41Z</time>
      </trkpt>
      <trkpt lat="40.8006372577933" lon="-4.12737701128866">
        <time>2024-01-11T01:25:41Z</time>
      </trkpt>
      <trkpt lat="40.8005693348039" lon="-4.12738974044694">
        <time>2024-01-11T01:25:41Z</time>
      </trkpt>
      <trkpt lat="40.8004608749685" lon="-4.12738790513394">
        <time>2024-01-11T01:25:41Z</time>
      </trkpt>
      <trkpt lat="40.8003805447816" lon="-4.12735978019552">
        <time>2024-01-11T01:25:41Z</time>
      </trkpt>
      <trkpt lat="40.8002823122692" lon="-4.12731350868185">
        <time>2024-01-11T01:25:41Z</time>
      </trkpt>
      <trkpt lat="40.8001810185404" lon="-4.12727214209681">
        <time>2024-01-11T01:25:41Z</time>
      </trkpt>
      <trkpt lat="40.8000755155108" lon="-4.12719898234059">
        <time>2024-01-11T01:25:41Z</time>
      </trkpt>
      <trkpt lat="40.8000457073264" lon="-4.12716576464786">
        <time>2024-01-11T01:25:41Z</time>
      </trkpt>
      <trkpt lat="40.7999681111108" lon="-4.12708911205356">
        <time>2024-01-11T01:25:41Z</time>
      </trkpt>
      <trkpt lat="40.7999224596376" lon="-4.12701119922561">
        <time>2024-01-11T01:25:41Z</time>
      </trkpt>
      <trkpt lat="40.7998712783171" lon="-4.12694809856977">
        <time>2024-01-11T01:25:41Z</time>
      </trkpt>
      <trkpt lat="40.7998400741227" lon="-4.12685497917073">
        <time>2024-01-11T01:25:41Z</time>
      </trkpt>
      <trkpt lat="40.7998041550097" lon="-4.1267532579339">
        <time>2024-01-11T01:25:41Z</time>
      </trkpt>
      <trkpt lat="40.7997449078851" lon="-4.12657183751104">
        <time>2024-01-11T01:25:41Z</time>
      </trkpt>
      <trkpt lat="40.7997007324194" lon="-4.12646700305052">
        <time>2024-01-11T01:25:41Z</time>
      </trkpt>
      <trkpt lat="40.7996845589163" lon="-4.12642608591847">
        <time>2024-01-11T01:25:41Z</time>
      </trkpt>
      <trkpt lat="40.7996741980632" lon="-4.12640707587696">
        <time>2024-01-11T01:25:41Z</time>
      </trkpt>
      <trkpt lat="40.7996665024142" lon="-4.12638513697229">
        <time>2024-01-11T01:25:41Z</time>
      </trkpt>
      <trkpt lat="40.799637150411" lon="-4.1263437492664">
        <time>2024-01-11T01:25:41Z</time>
      </trkpt>
      <trkpt lat="40.7995910422514" lon="-4.12630183051191">
        <time>2024-01-11T01:25:41Z</time>
      </trkpt>
      <trkpt lat="40.799532245515" lon="-4.12626713213072">
        <time>2024-01-11T01:25:41Z</time>
      </trkpt>
      <trkpt lat="40.7994699432929" lon="-4.12624427023031">
        <time>2024-01-11T01:25:41Z</time>
      </trkpt>
      <trkpt lat="40.7994130391883" lon="-4.12623960404409">
        <time>2024-01-11T01:25:41Z</time>
      </trkpt>
      <trkpt lat="40.7993381537381" lon="-4.12624005988742">
        <time>2024-01-11T01:25:41Z</time>
      </trkpt>
      <trkpt lat="40.7992739565666" lon="-4.12625479982774">
        <time>2024-01-11T01:25:41Z</time>
      </trkpt>
      <trkpt lat="40.799193609914" lon="-4.12630597760813">
        <time>2024-01-11T01:25:41Z</time>
      </trkpt>
      <trkpt lat="40.7991379866535" lon="-4.12634140744268">
        <time>2024-01-11T01:25:41Z</time>
      </trkpt>
      <trkpt lat="40.7991000834193" lon="-4.12639662635966">
        <time>2024-01-11T01:25:41Z</time>
      </trkpt>
      <trkpt lat="40.799035934553" lon="-4.12648575014087">
        <time>2024-01-11T01:25:41Z</time>
      </trkpt>
      <trkpt lat="40.7989908670867" lon="-4.12654942261447">
        <time>2024-01-11T01:25:41Z</time>
      </trkpt>
      <trkpt lat="40.7989406820817" lon="-4.12659714769794">
        <time>2024-01-11T01:25:41Z</time>
      </trkpt>
      <trkpt lat="40.7988888551695" lon="-4.12665872311115">
        <time>2024-01-11T01:25:41Z</time>
      </trkpt>
      <trkpt lat="40.798834788699" lon="-4.12671323818359">
        <time>2024-01-11T01:25:41Z</time>
      </trkpt>
      <trkpt lat="40.7987780024627" lon="-4.12679012487991">
        <time>2024-01-11T01:25:41Z</time>
      </trkpt>
      <trkpt lat="40.7987212161764" lon="-4.12686701144509">
        <time>2024-01-11T01:25:41Z</time>
      </trkpt>
      <trkpt lat="40.79866442984" lon="-4.12694389787913">
        <time>2024-01-11T01:25:41Z</time>
      </trkpt>
      <trkpt lat="40.7986076434535" lon="-4.12702078418204">
        <time>2024-01-11T01:25:41Z</time>
      </trkpt>
      <trkpt lat="40.7985590282506" lon="-4.12707923202209">
        <time>2024-01-11T01:25:41Z</time>
      </trkpt>
      <trkpt lat="40.7985104130188" lon="-4.12713767977698">
        <time>2024-01-11T01:25:41Z</time>
      </trkpt>
      <trkpt lat="40.7984617977581" lon="-4.12719612744672">
        <time>2024-01-11T01:25:41Z</time>
      </trkpt>
      <trkpt lat="40.7983961220669" lon="-4.12723354189251">
        <time>2024-01-11T01:25:41Z</time>
      </trkpt>
      <trkpt lat="40.7983304463638" lon="-4.12727095626582">
        <time>2024-01-11T01:25:41Z</time>
      </trkpt>
      <trkpt lat="40.7982647706489" lon="-4.12730837056648">
        <time>2024-01-11T01:25:41Z</time>
      </trkpt>
      <trkpt lat="40.798199094922" lon="-4.12734578479462">
        <time>2024-01-11T01:25:41Z</time>
      </trkpt>
      <trkpt lat="40.7981304687463" lon="-4.12736299635259">
        <time>2024-01-11T01:25:41Z</time>
      </trkpt>
      <trkpt lat="40.7980618425678" lon="-4.12738020787669">
        <time>2024-01-11T01:25:41Z</time>
      </trkpt>
      <trkpt lat="40.7979932163863" lon="-4.12739741936685">
        <time>2024-01-11T01:25:41Z</time>
      </trkpt>
      <trkpt lat="40.7979245902019" lon="-4.12741463082313">
        <time>2024-01-11T01:25:41Z</time>
      </trkpt>
      <trkpt lat="40.7978361512064" lon="-4.12742973176774">
        <time>2024-01-11T01:25:41Z</time>
      </trkpt>
      <trkpt lat="40.7977477122081" lon="-4.12744483267494">
        <time>2024-01-11T01:25:41Z</time>
      </trkpt>
      <trkpt lat="40.7976646179359" lon="-4.12746713440419">
        <time>2024-01-11T01:25:41Z</time>
      </trkpt>
      <trkpt lat="40.7975815236589" lon="-4.12748943608011">
        <time>2024-01-11T01:25:41Z</time>
      </trkpt>
      <trkpt lat="40.7974984293771" lon="-4.12751173770266">
        <time>2024-01-11T01:25:41Z</time>
      </trkpt>
      <trkpt lat="40.7974153350906" lon="-4.12753403927184">
        <time>2024-01-11T01:25:41Z</time>
      </trkpt>
      <trkpt lat="40.7973322407994" lon="-4.12755634078764">
        <time>2024-01-11T01:25:41Z</time>
      </trkpt>
      <trkpt lat="40.797252110556" lon="-4.12759146142145">
        <time>2024-01-11T01:25:41Z</time>
      </trkpt>
      <trkpt lat="40.797171980302" lon="-4.12762658197272">
        <time>2024-01-11T01:25:41Z</time>
      </trkpt>
      <trkpt lat="40.7970918500373" lon="-4.12766170244146">
        <time>2024-01-11T01:25:41Z</time>
      </trkpt>
      <trkpt lat="40.797011719762" lon="-4.12769682282766">
        <time>2024-01-11T01:25:41Z</time>
      </trkpt>
      <trkpt lat="40.7969447943503" lon="-4.12773033620147">
        <time>2024-01-11T01:25:41Z</time>
      </trkpt>
      <trkpt lat="40.796877868929" lon="-4.12776384950923">
        <time>2024-01-11T01:25:41Z</time>
      </trkpt>
      <trkpt lat="40.7968109434981" lon="-4.12779736275093">
        <time>2024-01-11T01:25:41Z</time>
      </trkpt>
      <trkpt lat="40.7967440180576" lon="-4.12783087592663">
        <time>2024-01-11T01:25:41Z</time>
      </trkpt>
      <trkpt lat="40.796680622829" lon="-4.12786536399534">
        <time>2024-01-11T01:25:41Z</time>
      </trkpt>
      <trkpt lat="40.7966172275902" lon="-4.12789985199959">
        <time>2024-01-11T01:25:41Z</time>
      </trkpt>
      <trkpt lat="40.796541552909" lon="-4.12796179065009">
        <time>2024-01-11T01:25:41Z</time>
      </trkpt>
      <trkpt lat="40.7964658781954" lon="-4.12802372916116">
        <time>2024-01-11T01:25:41Z</time>
      </trkpt>
      <trkpt lat="40.7963902034494" lon="-4.12808566753268">
        <time>2024-01-11T01:25:41Z</time>
      </trkpt>
      <trkpt lat="40.7963275418912" lon="-4.12813971627145">
        <time>2024-01-11T01:25:41Z</time>
      </trkpt>
      <trkpt lat="40.7962648803083" lon="-4.12819376490933">
        <time>2024-01-11T01:25:41Z</time>
      </trkpt>
      <trkpt lat="40.7962217200155" lon="-4.12824027976327">
        <time>2024-01-11T01:25:41Z</time>
      </trkpt>
      <trkpt lat="40.7961874289335" lon="-4.12828034069889">
        <time>2024-01-11T01:25:41Z</time>
      </trkpt>
      <trkpt lat="40.796152336182" lon="-4.12832534430229">
        <time>2024-01-11T01:25:41Z</time>
      </trkpt>
      <trkpt lat="40.7960656772999" lon="-4.1284051598483">
        <time>2024-01-11T01:25:41Z</time>
      </trkpt>
      <trkpt lat="40.795982157157" lon="-4.12847214204084">
        <time>2024-01-11T01:25:41Z</time>
      </trkpt>
      <trkpt lat="40.7959092786288" lon="-4.12852939176462">
        <time>2024-01-11T01:25:41Z</time>
      </trkpt>
      <trkpt lat="40.7958369593721" lon="-4.12860647587627">
        <time>2024-01-11T01:25:41Z</time>
      </trkpt>
      <trkpt lat="40.7957768365935" lon="-4.12866889764234">
        <time>2024-01-11T01:25:41Z</time>
      </trkpt>
      <trkpt lat="40.7956806186649" lon="-4.12872476038855">
        <time>2024-01-11T01:25:41Z</time>
      </trkpt>
      <trkpt lat="40.7956289554859" lon="-4.12876948272752">
        <time>2024-01-11T01:25:41Z</time>
      </trkpt>
      <trkpt lat="40.7955476074469" lon="-4.12884542206047">
        <time>2024-01-11T01:25:41Z</time>
      </trkpt>
      <trkpt lat="40.7954890975998" lon="-4.12889696695582">
        <time>2024-01-11T01:25:41Z</time>
      </trkpt>
      <trkpt lat="40.7954213942437" lon="-4.1289642159378">
        <time>2024-01-11T01:25:41Z</time>
      </trkpt>
      <trkpt lat="40.7953658001363" lon="-4.12902572248384">
        <time>2024-01-11T01:25:41Z</time>
      </trkpt>
      <trkpt lat="40.7953223443828" lon="-4.12907851340153">
        <time>2024-01-11T01:25:41Z</time>
      </trkpt>
      <trkpt lat="40.7952933447702" lon="-4.12911668054696">
        <time>2024-01-11T01:25:41Z</time>
      </trkpt>
      <trkpt lat="40.7952385134767" lon="-4.12917720853259">
        <time>2024-01-11T01:25:41Z</time>
      </trkpt>
      <trkpt lat="40.79515383229" lon="-4.12928580142532">
        <time>2024-01-11T01:25:41Z</time>
      </trkpt>
      <trkpt lat="40.7950693450303" lon="-4.12937457252065">
        <time>2024-01-11T01:25:41Z</time>
      </trkpt>
      <trkpt lat="40.7949999603818" lon="-4.12945963441559">
        <time>2024-01-11T01:25:41Z</time>
      </trkpt>
      <trkpt lat="40.7949778946232" lon="-4.12948205891511">
        <time>2024-01-11T01:25:41Z</time>
      </trkpt>
      <trkpt lat="40.7949359838633" lon="-4.12953091046664">
        <time>2024-01-11T01:25:41Z</time>
      </trkpt>
      <trkpt lat="40.7948765749784" lon="-4.1295973076218">
        <time>2024-01-11T01:25:41Z</time>
      </trkpt>
      <trkpt lat="40.7948133127555" lon="-4.12967256046657">
        <time>2024-01-11T01:25:41Z</time>
      </trkpt>
      <trkpt lat="40.7947472906083" lon="-4.12974112638705">
        <time>2024-01-11T01:25:41Z</time>
      </trkpt>
      <trkpt lat="40.7947053462592" lon="-4.1298116307753">
        <time>2024-01-11T01:25:41Z</time>
      </trkpt>
      <trkpt lat="40.7946939610079" lon="-4.12985986303205">
        <time>2024-01-11T01:25:41Z</time>
      </trkpt>
      <trkpt lat="40.7946903367801" lon="-4.12992224937704">
        <time>2024-01-11T01:25:41Z</time>
      </trkpt>
      <trkpt lat="40.7946956851505" lon="-4.1300246363129">
        <time>2024-01-11T01:25:41Z</time>
      </trkpt>
      <trkpt lat="40.7947083247603" lon="-4.13011375074058">
        <time>2024-01-11T01:25:41Z</time>
      </trkpt>
      <trkpt lat="40.794730502276" lon="-4.13020543252433">
        <time>2024-01-11T01:25:41Z</time>
      </trkpt>
      <trkpt lat="40.7947706361759" lon="-4.13029175266343">
        <time>2024-01-11T01:25:41Z</time>
      </trkpt>
      <trkpt lat="40.7948203079804" lon="-4.13038064025801">
        <time>2024-01-11T01:25:41Z</time>
      </trkpt>
      <trkpt lat="40.7948699797142" lon="-4.13046952798448">
        <time>2024-01-11T01:25:41Z</time>
      </trkpt>
      <trkpt lat="40.7949196513774" lon="-4.1305584158427">
        <time>2024-01-11T01:25:41Z</time>
      </trkpt>
      <trkpt lat="40.7949693229699" lon="-4.13064730383275">
        <time>2024-01-11T01:25:41Z</time>
      </trkpt>
      <trkpt lat="40.7950189944918" lon="-4.13073619195461">
        <time>2024-01-11T01:25:41Z</time>
      </trkpt>
      <trkpt lat="40.7950550944126" lon="-4.13082947168609">
        <time>2024-01-11T01:25:41Z</time>
      </trkpt>
      <trkpt lat="40.7950902665488" lon="-4.13093018387072">
        <time>2024-01-11T01:25:41Z</time>
      </trkpt>
      <trkpt lat="40.795126974128" lon="-4.13102794849892">
        <time>2024-01-11T01:25:41Z</time>
      </trkpt>
      <trkpt lat="40.7951724770285" lon="-4.13115064357947">
        <time>2024-01-11T01:25:41Z</time>
      </trkpt>
      <trkpt lat="40.7952136647055" lon="-4.13125244947565">
        <time>2024-01-11T01:25:41Z</time>
      </trkpt>
      <trkpt lat="40.795253384778" lon="-4.1313502656083">
        <time>2024-01-11T01:25:41Z</time>
      </trkpt>
      <trkpt lat="40.7952946305898" lon="-4.1314461252763">
        <time>2024-01-11T01:25:41Z</time>
      </trkpt>
      <trkpt lat="40.7953284415898" lon="-4.13153194637142">
        <time>2024-01-11T01:25:41Z</time>
      </trkpt>
      <trkpt lat="40.7953831183494" lon="-4.13164092053209">
        <time>2024-01-11T01:25:41Z</time>
      </trkpt>
      <trkpt lat="40.7953893527078" lon="-4.13169653613421">
        <time>2024-01-11T01:25:41Z</time>
      </trkpt>
      <trkpt lat="40.7953903827414" lon="-4.13174512464015">
        <time>2024-01-11T01:25:41Z</time>
      </trkpt>
      <trkpt lat="40.7953539183871" lon="-4.1317762251609">
        <time>2024-01-11T01:25:41Z</time>
      </trkpt>
      <trkpt lat="40.7952984737707" lon="-4.13174554615739">
        <time>2024-01-11T01:25:41Z</time>
      </trkpt>
      <trkpt lat="40.7952299091272" lon="-4.13167003845908">
        <time>2024-01-11T01:25:41Z</time>
      </trkpt>
      <trkpt lat="40.795126304011" lon="-4.13155725995209">
        <time>2024-01-11T01:25:41Z</time>
      </trkpt>
      <trkpt lat="40.7950622778335" lon="-4.13147984722759">
        <time>2024-01-11T01:25:41Z</time>
      </trkpt>
      <trkpt lat="40.795016124139" lon="-4.13142355413337">
        <time>2024-01-11T01:25:41Z</time>
      </trkpt>
      <trkpt lat="40.7949564420967" lon="-4.13136405771752">
        <time>2024-01-11T01:25:41Z</time>
      </trkpt>
      <trkpt lat="40.7949173187668" lon="-4.13130855998657">
        <time>2024-01-11T01:25:41Z</time>
      </trkpt>
      <trkpt lat="40.7948428818485" lon="-4.1312440783027">
        <time>2024-01-11T01:25:41Z</time>
      </trkpt>
      <trkpt lat="40.7947684448913" lon="-4.13117959676396">
        <time>2024-01-11T01:25:41Z</time>
      </trkpt>
      <trkpt lat="40.7946940078952" lon="-4.13111511537039">
        <time>2024-01-11T01:25:41Z</time>
      </trkpt>
      <trkpt lat="40.7946164524121" lon="-4.13106243452075">
        <time>2024-01-11T01:25:41Z</time>
      </trkpt>
      <trkpt lat="40.7945388969023" lon="-4.13100975379524">
        <time>2024-01-11T01:25:41Z</time>
      </trkpt>
      <trkpt lat="40.7944613413657" lon="-4.13095707319394">
        <time>2024-01-11T01:25:41Z</time>
      </trkpt>
      <trkpt lat="40.7944116765377" lon="-4.13092884949782">
        <time>2024-01-11T01:25:41Z</time>
      </trkpt>
      <trkpt lat="40.7943620117019" lon="-4.13090062584451">
        <time>2024-01-11T01:25:41Z</time>
      </trkpt>
      <trkpt lat="40.7942425110592" lon="-4.13088110351196">
        <time>2024-01-11T01:25:41Z</time>
      </trkpt>
      <trkpt lat="40.7941061487043" lon="-4.13080543868531">
        <time>2024-01-11T01:25:41Z</time>
      </trkpt>
      <trkpt lat="40.7939936553706" lon="-4.1307539685662">
        <time>2024-01-11T01:25:41Z</time>
      </trkpt>
      <trkpt lat="40.7939067123072" lon="-4.13070887948476">
        <time>2024-01-11T01:25:41Z</time>
      </trkpt>
      <trkpt lat="40.793837826439" lon="-4.13066607933957">
        <time>2024-01-11T01:25:41Z</time>
      </trkpt>
      <trkpt lat="40.7938094576043" lon="-4.13063982624817">
        <time>2024-01-11T01:25:41Z</time>
      </trkpt>
      <trkpt lat="40.7936777113399" lon="-4.13055432854213">
        <time>2024-01-11T01:25:41Z</time>
      </trkpt>
      <trkpt lat="40.7936597415206" lon="-4.13054312027">
        <time>2024-01-11T01:25:41Z</time>
      </trkpt>
      <trkpt lat="40.793644060413" lon="-4.13052897717352">
        <time>2024-01-11T01:25:41Z</time>
      </trkpt>
      <trkpt lat="40.7935654315084" lon="-4.13048105601854">
        <time>2024-01-11T01:25:41Z</time>
      </trkpt>
      <trkpt lat="40.7934964678646" lon="-4.13044618475283">
        <time>2024-01-11T01:25:41Z</time>
      </trkpt>
      <trkpt lat="40.7934477918822" lon="-4.13041661377643">
        <time>2024-01-11T01:25:41Z</time>
      </trkpt>
      <trkpt lat="40.7933848343444" lon="-4.13038382694949">
        <time>2024-01-11T01:25:41Z</time>
      </trkpt>
      <trkpt lat="40.7933136402139" lon="-4.13034594440726">
        <time>2024-01-11T01:25:41Z</time>
      </trkpt>
      <trkpt lat="40.7932514746821" lon="-4.13030920629563">
        <time>2024-01-11T01:25:41Z</time>
      </trkpt>
      <trkpt lat="40.7931727000453" lon="-4.1302761514044">
        <time>2024-01-11T01:25:41Z</time>
      </trkpt>
      <trkpt lat="40.793111384764" lon="-4.1302295157455">
        <time>2024-01-11T01:25:41Z</time>
      </trkpt>
      <trkpt lat="40.7930826509395" lon="-4.13016360850693">
        <time>2024-01-11T01:25:41Z</time>
      </trkpt>
      <trkpt lat="40.7930628680352" lon="-4.13010677400851">
        <time>2024-01-11T01:25:41Z</time>
      </trkpt>
      <trkpt lat="40.7930557499716" lon="-4.13006794629013">
        <time>2024-01-11T01:25:41Z</time>
      </trkpt>
      <trkpt lat="40.7930610658756" lon="-4.12998506506847">
        <time>2024-01-11T01:25:41Z</time>
      </trkpt>
      <trkpt lat="40.7930663817202" lon="-4.12990218383226">
        <time>2024-01-11T01:25:41Z</time>
      </trkpt>
      <trkpt lat="40.7930683305147" lon="-4.12977976711101">
        <time>2024-01-11T01:25:41Z</time>
      </trkpt>
      <trkpt lat="40.7930840288298" lon="-4.12963829008024">
        <time>2024-01-11T01:25:41Z</time>
      </trkpt>
      <trkpt lat="40.7931037028133" lon="-4.1295523881943">
        <time>2024-01-11T01:25:41Z</time>
      </trkpt>
      <trkpt lat="40.7931324725087" lon="-4.12949231738634">
        <time>2024-01-11T01:25:41Z</time>
      </trkpt>
      <trkpt lat="40.7931530161849" lon="-4.12941457592041">
        <time>2024-01-11T01:25:41Z</time>
      </trkpt>
      <trkpt lat="40.7931735598092" lon="-4.12933683440542">
        <time>2024-01-11T01:25:41Z</time>
      </trkpt>
      <trkpt lat="40.7931976226833" lon="-4.12924577497688">
        <time>2024-01-11T01:25:41Z</time>
      </trkpt>
      <trkpt lat="40.7932216854863" lon="-4.1291547154811">
        <time>2024-01-11T01:25:41Z</time>
      </trkpt>
      <trkpt lat="40.79325762714" lon="-4.12906533767302">
        <time>2024-01-11T01:25:41Z</time>
      </trkpt>
      <trkpt lat="40.7932776281893" lon="-4.12900751215233">
        <time>2024-01-11T01:25:41Z</time>
      </trkpt>
      <trkpt lat="40.7933095081337" lon="-4.12895136833248">
        <time>2024-01-11T01:25:41Z</time>
      </trkpt>
      <trkpt lat="40.7933615848723" lon="-4.12885965568899">
        <time>2024-01-11T01:25:41Z</time>
      </trkpt>
      <trkpt lat="40.7934136615394" lon="-4.12876794290145">
        <time>2024-01-11T01:25:41Z</time>
      </trkpt>
      <trkpt lat="40.7934657381351" lon="-4.12867622996981">
        <time>2024-01-11T01:25:41Z</time>
      </trkpt>
      <trkpt lat="40.7935228613815" lon="-4.12860297748176">
        <time>2024-01-11T01:25:41Z</time>
      </trkpt>
      <trkpt lat="40.7935799845825" lon="-4.12852972486815">
        <time>2024-01-11T01:25:41Z</time>
      </trkpt>
      <trkpt lat="40.7936371077381" lon="-4.12845647212908">
        <time>2024-01-11T01:25:41Z</time>
      </trkpt>
      <trkpt lat="40.7936942308483" lon="-4.12838321926438">
        <time>2024-01-11T01:25:41Z</time>
      </trkpt>
      <trkpt lat="40.7937511416858" lon="-4.12831023842875">
        <time>2024-01-11T01:25:41Z</time>
      </trkpt>
      <trkpt lat="40.7938080524783" lon="-4.12823725746847">
        <time>2024-01-11T01:25:41Z</time>
      </trkpt>
      <trkpt lat="40.7938649632256" lon="-4.12816427638359">
        <time>2024-01-11T01:25:41Z</time>
      </trkpt>
      <trkpt lat="40.7939218739279" lon="-4.1280912951741">
        <time>2024-01-11T01:25:41Z</time>
      </trkpt>
      <trkpt lat="40.7939724946148" lon="-4.12801884036327">
        <time>2024-01-11T01:25:41Z</time>
      </trkpt>
      <trkpt lat="40.7940231152573" lon="-4.12794638544216">
        <time>2024-01-11T01:25:41Z</time>
      </trkpt>
      <trkpt lat="40.7940737358552" lon="-4.12787393041083">
        <time>2024-01-11T01:25:41Z</time>
      </trkpt>
      <trkpt lat="40.7941243564087" lon="-4.12780147526923">
        <time>2024-01-11T01:25:41Z</time>
      </trkpt>
      <trkpt lat="40.7941719492401" lon="-4.12773335366387">
        <time>2024-01-11T01:25:41Z</time>
      </trkpt>
      <trkpt lat="40.7942195420322" lon="-4.12766523196103">
        <time>2024-01-11T01:25:41Z</time>
      </trkpt>
      <trkpt lat="40.7942671347849" lon="-4.12759711016071">
        <time>2024-01-11T01:25:41Z</time>
      </trkpt>
      <trkpt lat="40.7943147274983" lon="-4.12752898826295">
        <time>2024-01-11T01:25:41Z</time>
      </trkpt>
      <trkpt lat="40.7943710633637" lon="-4.12743917038421">
        <time>2024-01-11T01:25:41Z</time>
      </trkpt>
      <trkpt lat="40.7944273991607" lon="-4.12734935235301">
        <time>2024-01-11T01:25:41Z</time>
      </trkpt>
      <trkpt lat="40.7944837348892" lon="-4.12725953416947">
        <time>2024-01-11T01:25:41Z</time>
      </trkpt>
      <trkpt lat="40.7945320705466" lon="-4.12718247059354">
        <time>2024-01-11T01:25:41Z</time>
      </trkpt>
      <trkpt lat="40.7945991761761" lon="-4.12711204339677">
        <time>2024-01-11T01:25:41Z</time>
      </trkpt>
      <trkpt lat="40.7946544081704" lon="-4.12701038482144">
        <time>2024-01-11T01:25:41Z</time>
      </trkpt>
      <trkpt lat="40.7946971388403" lon="-4.12695460710079">
        <time>2024-01-11T01:25:41Z</time>
      </trkpt>
      <trkpt lat="40.7947215130251" lon="-4.12688860653229">
        <time>2024-01-11T01:25:41Z</time>
      </trkpt>
      <trkpt lat="40.7947167633646" lon="-4.12683499950214">
        <time>2024-01-11T01:25:41Z</time>
      </trkpt>
      <trkpt lat="40.7946967610543" lon="-4.12680046365676">
        <time>2024-01-11T01:25:41Z</time>
      </trkpt>
      <trkpt lat="40.7946587005486" lon="-4.12680229816812">
        <time>2024-01-11T01:25:41Z</time>
      </trkpt>
      <trkpt lat="40.7946013117027" lon="-4.1268548543833">
        <time>2024-01-11T01:25:41Z</time>
      </trkpt>
      <trkpt lat="40.7945520869694" lon="-4.12691993898212">
        <time>2024-01-11T01:25:41Z</time>
      </trkpt>
      <trkpt lat="40.7944707498001" lon="-4.12699488833555">
        <time>2024-01-11T01:25:41Z</time>
      </trkpt>
      <trkpt lat="40.794386868376" lon="-4.12706037778726">
        <time>2024-01-11T01:25:41Z</time>
      </trkpt>
      <trkpt lat="40.7943009344975" lon="-4.12714317887183">
        <time>2024-01-11T01:25:41Z</time>
      </trkpt>
      <trkpt lat="40.7942235277603" lon="-4.12720134328422">
        <time>2024-01-11T01:25:41Z</time>
      </trkpt>
      <trkpt lat="40.7940991615146" lon="-4.12728547631153">
        <time>2024-01-11T01:25:41Z</time>
      </trkpt>
      <trkpt lat="40.7940342853041" lon="-4.12734330170269">
        <time>2024-01-11T01:25:41Z</time>
      </trkpt>
      <trkpt lat="40.793958326447" lon="-4.127402799137">
        <time>2024-01-11T01:25:41Z</time>
      </trkpt>
      <trkpt lat="40.7938063852496" lon="-4.12748967148839">
        <time>2024-01-11T01:25:41Z</time>
      </trkpt>
      <trkpt lat="40.7937666198035" lon="-4.12751179678186">
        <time>2024-01-11T01:25:41Z</time>
      </trkpt>
      <trkpt lat="40.7937291139357" lon="-4.12753396028083">
        <time>2024-01-11T01:25:41Z</time>
      </trkpt>
      <trkpt lat="40.7936832502876" lon="-4.12756341649131">
        <time>2024-01-11T01:25:41Z</time>
      </trkpt>
      <trkpt lat="40.793610536854" lon="-4.12760381736665">
        <time>2024-01-11T01:25:41Z</time>
      </trkpt>
      <trkpt lat="40.7935673045249" lon="-4.1276338136123">
        <time>2024-01-11T01:25:41Z</time>
      </trkpt>
      <trkpt lat="40.7934990618001" lon="-4.12767924608122">
        <time>2024-01-11T01:25:41Z</time>
      </trkpt>
      <trkpt lat="40.7934421847773" lon="-4.12771793227885">
        <time>2024-01-11T01:25:41Z</time>
      </trkpt>
      <trkpt lat="40.7933793596846" lon="-4.12774858802975">
        <time>2024-01-11T01:25:41Z</time>
      </trkpt>
      <trkpt lat="40.793315713579" lon="-4.12778616833144">
        <time>2024-01-11T01:25:41Z</time>
      </trkpt>
      <trkpt lat="40.793248559974" lon="-4.12781473029486">
        <time>2024-01-11T01:25:41Z</time>
      </trkpt>
      <trkpt lat="40.7931785990981" lon="-4.12785991291651">
        <time>2024-01-11T01:25:41Z</time>
      </trkpt>
      <trkpt lat="40.7931121333957" lon="-4.12791375130036">
        <time>2024-01-11T01:25:41Z</time>
      </trkpt>
      <trkpt lat="40.7930456676687" lon="-4.12796758957774">
        <time>2024-01-11T01:25:41Z</time>
      </trkpt>
      <trkpt lat="40.7929792019174" lon="-4.12802142774865">
        <time>2024-01-11T01:25:41Z</time>
      </trkpt>
      <trkpt lat="40.7929127361416" lon="-4.1280752658131">
        <time>2024-01-11T01:25:41Z</time>
      </trkpt>
      <trkpt lat="40.7928462703412" lon="-4.12812910377108">
        <time>2024-01-11T01:25:41Z</time>
      </trkpt>
      <trkpt lat="40.7927798045165" lon="-4.12818294162259">
        <time>2024-01-11T01:25:41Z</time>
      </trkpt>
      <trkpt lat="40.7927133386673" lon="-4.12823677936769">
        <time>2024-01-11T01:25:41Z</time>
      </trkpt>
      <trkpt lat="40.7926459024329" lon="-4.12829755615502">
        <time>2024-01-11T01:25:41Z</time>
      </trkpt>
      <trkpt lat="40.7925784661673" lon="-4.12835833282015">
        <time>2024-01-11T01:25:41Z</time>
      </trkpt>
      <trkpt lat="40.7925110298706" lon="-4.12841910936311">
        <time>2024-01-11T01:25:41Z</time>
      </trkpt>
      <trkpt lat="40.7924435935426" lon="-4.12847988578386">
        <time>2024-01-11T01:25:41Z</time>
      </trkpt>
      <trkpt lat="40.7923761571835" lon="-4.12854066208246">
        <time>2024-01-11T01:25:41Z</time>
      </trkpt>
      <trkpt lat="40.7923087207933" lon="-4.12860143825884">
        <time>2024-01-11T01:25:41Z</time>
      </trkpt>
      <trkpt lat="40.7922412843718" lon="-4.12866221431307">
        <time>2024-01-11T01:25:41Z</time>
      </trkpt>
      <trkpt lat="40.792171117469" lon="-4.12872477402868">
        <time>2024-01-11T01:25:41Z</time>
      </trkpt>
      <trkpt lat="40.7921009505332" lon="-4.12878733361345">
        <time>2024-01-11T01:25:41Z</time>
      </trkpt>
      <trkpt lat="40.7920307835643" lon="-4.12884989306741">
        <time>2024-01-11T01:25:41Z</time>
      </trkpt>
      <trkpt lat="40.7919606165624" lon="-4.12891245239052">
        <time>2024-01-11T01:25:41Z</time>
      </trkpt>
      <trkpt lat="40.7918995562852" lon="-4.12898830317562">
        <time>2024-01-11T01:25:41Z</time>
      </trkpt>
      <trkpt lat="40.7918384959592" lon="-4.12906415382185">
        <time>2024-01-11T01:25:41Z</time>
      </trkpt>
      <trkpt lat="40.7917774355846" lon="-4.1291400043292">
        <time>2024-01-11T01:25:41Z</time>
      </trkpt>
      <trkpt lat="40.7917163751613" lon="-4.12921585469769">
        <time>2024-01-11T01:25:41Z</time>
      </trkpt>
      <trkpt lat="40.7916553146894" lon="-4.12929170492737">
        <time>2024-01-11T01:25:41Z</time>
      </trkpt>
      <trkpt lat="40.7915942541688" lon="-4.12936755501812">
        <time>2024-01-11T01:25:41Z</time>
      </trkpt>
      <trkpt lat="40.791541924923" lon="-4.12945471749043">
        <time>2024-01-11T01:25:41Z</time>
      </trkpt>
      <trkpt lat="40.7914895956128" lon="-4.12954187982536">
        <time>2024-01-11T01:25:41Z</time>
      </trkpt>
      <trkpt lat="40.791437266238" lon="-4.12962904202277">
        <time>2024-01-11T01:25:41Z</time>
      </trkpt>
      <trkpt lat="40.7913849367988" lon="-4.12971620408274">
        <time>2024-01-11T01:25:41Z</time>
      </trkpt>
      <trkpt lat="40.791332607295" lon="-4.12980336600521">
        <time>2024-01-11T01:25:41Z</time>
      </trkpt>
      <trkpt lat="40.7912802777267" lon="-4.12989052779028">
        <time>2024-01-11T01:25:41Z</time>
      </trkpt>
      <trkpt lat="40.7912279480939" lon="-4.12997768943791">
        <time>2024-01-11T01:25:41Z</time>
      </trkpt>
      <trkpt lat="40.7911887696317" lon="-4.13006888374514">
        <time>2024-01-11T01:25:41Z</time>
      </trkpt>
      <trkpt lat="40.7911495910985" lon="-4.13016007794403">
        <time>2024-01-11T01:25:41Z</time>
      </trkpt>
      <trkpt lat="40.7911104124945" lon="-4.13025127203452">
        <time>2024-01-11T01:25:41Z</time>
      </trkpt>
      <trkpt lat="40.7910712338194" lon="-4.13034246601672">
        <time>2024-01-11T01:25:41Z</time>
      </trkpt>
      <trkpt lat="40.7910372413154" lon="-4.13044066192782">
        <time>2024-01-11T01:25:41Z</time>
      </trkpt>
      <trkpt lat="40.791003248729" lon="-4.13053885773724">
        <time>2024-01-11T01:25:41Z</time>
      </trkpt>
      <trkpt lat="40.7909692560601" lon="-4.13063705344496">
        <time>2024-01-11T01:25:41Z</time>
      </trkpt>
      <trkpt lat="40.7909267361906" lon="-4.13065485151067">
        <time>2024-01-11T01:25:41Z</time>
      </trkpt>
      <trkpt lat="40.7908827541895" lon="-4.1306075199899">
        <time>2024-01-11T01:25:41Z</time>
      </trkpt>
      <trkpt lat="40.7908730251738" lon="-4.13052409599333">
        <time>2024-01-11T01:25:41Z</time>
      </trkpt>
      <trkpt lat="40.7908797831089" lon="-4.13037256037643">
        <time>2024-01-11T01:25:41Z</time>
      </trkpt>
      <trkpt lat="40.7908812741632" lon="-4.13029725612709">
        <time>2024-01-11T01:25:41Z</time>
      </trkpt>
      <trkpt lat="40.7908812918845" lon="-4.13014164145895">
        <time>2024-01-11T01:25:41Z</time>
      </trkpt>
      <trkpt lat="40.7908707258585" lon="-4.1299898120562">
        <time>2024-01-11T01:25:41Z</time>
      </trkpt>
      <trkpt lat="40.7908708752603" lon="-4.12989763503496">
        <time>2024-01-11T01:25:41Z</time>
      </trkpt>
      <trkpt lat="40.7908804122594" lon="-4.12976993473874">
        <time>2024-01-11T01:25:41Z</time>
      </trkpt>
      <trkpt lat="40.7908884330269" lon="-4.12964319988385">
        <time>2024-01-11T01:25:41Z</time>
      </trkpt>
      <trkpt lat="40.7908976010762" lon="-4.12955315804311">
        <time>2024-01-11T01:25:41Z</time>
      </trkpt>
      <trkpt lat="40.7909085598149" lon="-4.12947615541373">
        <time>2024-01-11T01:25:41Z</time>
      </trkpt>
      <trkpt lat="40.7909195556958" lon="-4.12942665925701">
        <time>2024-01-11T01:25:41Z</time>
      </trkpt>
      <trkpt lat="40.7909160582195" lon="-4.1293606866035">
        <time>2024-01-11T01:25:41Z</time>
      </trkpt>
      <trkpt lat="40.7908900989839" lon="-4.12931911281293">
        <time>2024-01-11T01:25:41Z</time>
      </trkpt>
      <trkpt lat="40.790850629045" lon="-4.1293110101705">
        <time>2024-01-11T01:25:41Z</time>
      </trkpt>
      <trkpt lat="40.7907887878248" lon="-4.12935654760443">
        <time>2024-01-11T01:25:41Z</time>
      </trkpt>
      <trkpt lat="40.7907185561058" lon="-4.12948966182514">
        <time>2024-01-11T01:25:41Z</time>
      </trkpt>
      <trkpt lat="40.7906587979809" lon="-4.12959173127694">
        <time>2024-01-11T01:25:41Z</time>
      </trkpt>
      <trkpt lat="40.7906023727421" lon="-4.12966114829684">
        <time>2024-01-11T01:25:41Z</time>
      </trkpt>
      <trkpt lat="40.7905378235974" lon="-4.12979088905017">
        <time>2024-01-11T01:25:41Z</time>
      </trkpt>
      <trkpt lat="40.790476849964" lon="-4.12986320218602">
        <time>2024-01-11T01:25:41Z</time>
      </trkpt>
      <trkpt lat="40.7904125820571" lon="-4.12996420330458">
        <time>2024-01-11T01:25:41Z</time>
      </trkpt>
      <trkpt lat="40.790346642668" lon="-4.13008202578146">
        <time>2024-01-11T01:25:41Z</time>
      </trkpt>
      <trkpt lat="40.7903198634969" lon="-4.13012419201759">
        <time>2024-01-11T01:25:41Z</time>
      </trkpt>
      <trkpt lat="40.7902790705759" lon="-4.13021270553855">
        <time>2024-01-11T01:25:41Z</time>
      </trkpt>
      <trkpt lat="40.7902460522314" lon="-4.13027657158421">
        <time>2024-01-11T01:25:41Z</time>
      </trkpt>
      <trkpt lat="40.79022148403" lon="-4.13032373101734">
        <time>2024-01-11T01:25:41Z</time>
      </trkpt>
      <trkpt lat="40.7901945785569" lon="-4.13037878011863">
        <time>2024-01-11T01:25:41Z</time>
      </trkpt>
      <trkpt lat="40.7901606904139" lon="-4.13045452525754">
        <time>2024-01-11T01:25:41Z</time>
      </trkpt>
      <trkpt lat="40.7901176765036" lon="-4.13053903602447">
        <time>2024-01-11T01:25:41Z</time>
      </trkpt>
      <trkpt lat="40.7900670237725" lon="-4.13063431992464">
        <time>2024-01-11T01:25:41Z</time>
      </trkpt>
      <trkpt lat="40.7900224062266" lon="-4.1307287149046">
        <time>2024-01-11T01:25:41Z</time>
      </trkpt>
      <trkpt lat="40.7899684200424" lon="-4.13085665039651">
        <time>2024-01-11T01:25:41Z</time>
      </trkpt>
      <trkpt lat="40.7899183162558" lon="-4.13097275759712">
        <time>2024-01-11T01:25:41Z</time>
      </trkpt>
      <trkpt lat="40.7898806617607" lon="-4.13104843820524">
        <time>2024-01-11T01:25:41Z</time>
      </trkpt>
      <trkpt lat="40.7898327590715" lon="-4.13117052944078">
        <time>2024-01-11T01:25:41Z</time>
      </trkpt>
      <trkpt lat="40.789791396778" lon="-4.13124019993635">
        <time>2024-01-11T01:25:41Z</time>
      </trkpt>
      <trkpt lat="40.789743902008" lon="-4.13132066902604">
        <time>2024-01-11T01:25:41Z</time>
      </trkpt>
      <trkpt lat="40.7896985695874" lon="-4.13141108631294">
        <time>2024-01-11T01:25:41Z</time>
      </trkpt>
      <trkpt lat="40.7896461301477" lon="-4.13144427894196">
        <time>2024-01-11T01:25:41Z</time>
      </trkpt>
      <trkpt lat="40.7896223390747" lon="-4.13138749118054">
        <time>2024-01-11T01:25:41Z</time>
      </trkpt>
      <trkpt lat="40.7896100329304" lon="-4.13131104753106">
        <time>2024-01-11T01:25:41Z</time>
      </trkpt>
      <trkpt lat="40.7895865503934" lon="-4.13119735795649">
        <time>2024-01-11T01:25:41Z</time>
      </trkpt>
      <trkpt lat="40.7895756825958" lon="-4.13110321013409">
        <time>2024-01-11T01:25:41Z</time>
      </trkpt>
      <trkpt lat="40.7895521998522" lon="-4.13098952068697">
        <time>2024-01-11T01:25:41Z</time>
      </trkpt>
      <trkpt lat="40.7895421344914" lon="-4.13088743116958">
        <time>2024-01-11T01:25:41Z</time>
      </trkpt>
      <trkpt lat="40.7895320690398" lon="-4.13078534168102">
        <time>2024-01-11T01:25:41Z</time>
      </trkpt>
      <trkpt lat="40.7895220034974" lon="-4.13068325222122">
        <time>2024-01-11T01:25:41Z</time>
      </trkpt>
      <trkpt lat="40.7895119378643" lon="-4.1305811627903">
        <time>2024-01-11T01:25:41Z</time>
      </trkpt>
      <trkpt lat="40.7895018721404" lon="-4.13047907338813">
        <time>2024-01-11T01:25:41Z</time>
      </trkpt>
      <trkpt lat="40.7894918063258" lon="-4.13037698401479">
        <time>2024-01-11T01:25:41Z</time>
      </trkpt>
      <trkpt lat="40.7894817404204" lon="-4.13027489467027">
        <time>2024-01-11T01:25:41Z</time>
      </trkpt>
      <trkpt lat="40.789479855773" lon="-4.13016314421583">
        <time>2024-01-11T01:25:41Z</time>
      </trkpt>
      <trkpt lat="40.7894779710174" lon="-4.1300513937652">
        <time>2024-01-11T01:25:41Z</time>
      </trkpt>
      <trkpt lat="40.7894760861533" lon="-4.12993964331844">
        <time>2024-01-11T01:25:41Z</time>
      </trkpt>
      <trkpt lat="40.789474201181" lon="-4.12982789287549">
        <time>2024-01-11T01:25:41Z</time>
      </trkpt>
      <trkpt lat="40.7894971460135" lon="-4.12971590997665">
        <time>2024-01-11T01:25:41Z</time>
      </trkpt>
      <trkpt lat="40.7895200907381" lon="-4.12960392699842">
        <time>2024-01-11T01:25:41Z</time>
      </trkpt>
      <trkpt lat="40.7895430353551" lon="-4.12949194394071">
        <time>2024-01-11T01:25:41Z</time>
      </trkpt>
      <trkpt lat="40.789584598335" lon="-4.12939493190356">
        <time>2024-01-11T01:25:41Z</time>
      </trkpt>
      <trkpt lat="40.7896261612347" lon="-4.12929791974415">
        <time>2024-01-11T01:25:41Z</time>
      </trkpt>
      <trkpt lat="40.789667724054" lon="-4.12920090746241">
        <time>2024-01-11T01:25:41Z</time>
      </trkpt>
      <trkpt lat="40.7897092867932" lon="-4.12910389505845">
        <time>2024-01-11T01:25:41Z</time>
      </trkpt>
      <trkpt lat="40.7897381801711" lon="-4.12899894414255">
        <time>2024-01-11T01:25:41Z</time>
      </trkpt>
      <trkpt lat="40.7897670734546" lon="-4.12889399313372">
        <time>2024-01-11T01:25:41Z</time>
      </trkpt>
      <trkpt lat="40.7897959666437" lon="-4.12878904203206">
        <time>2024-01-11T01:25:41Z</time>
      </trkpt>
      <trkpt lat="40.7898248597384" lon="-4.12868409083745">
        <time>2024-01-11T01:25:41Z</time>
      </trkpt>
      <trkpt lat="40.7898537527386" lon="-4.12857913954997">
        <time>2024-01-11T01:25:41Z</time>
      </trkpt>
      <trkpt lat="40.7898826456444" lon="-4.12847418816961">
        <time>2024-01-11T01:25:41Z</time>
      </trkpt>
      <trkpt lat="40.7899115384559" lon="-4.12836923669636">
        <time>2024-01-11T01:25:41Z</time>
      </trkpt>
      <trkpt lat="40.7899459744534" lon="-4.12826006039768">
        <time>2024-01-11T01:25:41Z</time>
      </trkpt>
      <trkpt lat="40.7899804103489" lon="-4.12815088398429">
        <time>2024-01-11T01:25:41Z</time>
      </trkpt>
      <trkpt lat="40.7900148461424" lon="-4.12804170745608">
        <time>2024-01-11T01:25:41Z</time>
      </trkpt>
      <trkpt lat="40.7900492818339" lon="-4.12793253081316">
        <time>2024-01-11T01:25:41Z</time>
      </trkpt>
      <trkpt lat="40.7900837174233" lon="-4.12782335405541">
        <time>2024-01-11T01:25:41Z</time>
      </trkpt>
      <trkpt lat="40.7901124353778" lon="-4.12773015237883">
        <time>2024-01-11T01:25:41Z</time>
      </trkpt>
      <trkpt lat="40.7901411532579" lon="-4.12763695062051">
        <time>2024-01-11T01:25:41Z</time>
      </trkpt>
      <trkpt lat="40.7901698710636" lon="-4.1275437487804">
        <time>2024-01-11T01:25:41Z</time>
      </trkpt>
      <trkpt lat="40.7901985887949" lon="-4.1274505468586">
        <time>2024-01-11T01:25:41Z</time>
      </trkpt>
      <trkpt lat="40.7902273064519" lon="-4.127357344855">
        <time>2024-01-11T01:25:41Z</time>
      </trkpt>
      <trkpt lat="40.7902560240345" lon="-4.12726414276961">
        <time>2024-01-11T01:25:41Z</time>
      </trkpt>
      <trkpt lat="40.7902929819507" lon="-4.12716117584859">
        <time>2024-01-11T01:25:41Z</time>
      </trkpt>
      <trkpt lat="40.7903299397762" lon="-4.12705820881172">
        <time>2024-01-11T01:25:41Z</time>
      </trkpt>
      <trkpt lat="40.7903668975111" lon="-4.12695524165901">
        <time>2024-01-11T01:25:41Z</time>
      </trkpt>
      <trkpt lat="40.7904038551553" lon="-4.12685227439045">
        <time>2024-01-11T01:25:41Z</time>
      </trkpt>
      <trkpt lat="40.790440812709" lon="-4.1267493070061">
        <time>2024-01-11T01:25:41Z</time>
      </trkpt>
      <trkpt lat="40.790477770172" lon="-4.1266463395059">
        <time>2024-01-11T01:25:41Z</time>
      </trkpt>
      <trkpt lat="40.7905147275444" lon="-4.12654337188985">
        <time>2024-01-11T01:25:41Z</time>
      </trkpt>
      <trkpt lat="40.7905516848261" lon="-4.12644040415802">
        <time>2024-01-11T01:25:41Z</time>
      </trkpt>
      <trkpt lat="40.7905886420172" lon="-4.12633743631034">
        <time>2024-01-11T01:25:41Z</time>
      </trkpt>
      <trkpt lat="40.7906255991177" lon="-4.12623446834681">
        <time>2024-01-11T01:25:41Z</time>
      </trkpt>
      <trkpt lat="40.7906625561276" lon="-4.12613150026744">
        <time>2024-01-11T01:25:41Z</time>
      </trkpt>
      <trkpt lat="40.7906995130468" lon="-4.12602853207221">
        <time>2024-01-11T01:25:41Z</time>
      </trkpt>
      <trkpt lat="40.7907364698754" lon="-4.1259255637612">
        <time>2024-01-11T01:25:41Z</time>
      </trkpt>
      <trkpt lat="40.7907734266133" lon="-4.12582259533434">
        <time>2024-01-11T01:25:41Z</time>
      </trkpt>
      <trkpt lat="40.7908103832606" lon="-4.12571962679169">
        <time>2024-01-11T01:25:41Z</time>
      </trkpt>
      <trkpt lat="40.7908500990252" lon="-4.1256166174137">
        <time>2024-01-11T01:25:41Z</time>
      </trkpt>
      <trkpt lat="40.7908898146991" lon="-4.12551360791133">
        <time>2024-01-11T01:25:41Z</time>
      </trkpt>
      <trkpt lat="40.7909295302825" lon="-4.12541059828465">
        <time>2024-01-11T01:25:41Z</time>
      </trkpt>
      <trkpt lat="40.7909692457751" lon="-4.12530758853365">
        <time>2024-01-11T01:25:41Z</time>
      </trkpt>
      <trkpt lat="40.7910089611772" lon="-4.12520457865833">
        <time>2024-01-11T01:25:41Z</time>
      </trkpt>
      <trkpt lat="40.7910486764886" lon="-4.12510156865864">
        <time>2024-01-11T01:25:41Z</time>
      </trkpt>
      <trkpt lat="40.7910883917094" lon="-4.12499855853463">
        <time>2024-01-11T01:25:41Z</time>
      </trkpt>
      <trkpt lat="40.7911281068395" lon="-4.12489554828625">
        <time>2024-01-11T01:25:41Z</time>
      </trkpt>
      <trkpt lat="40.7911678218791" lon="-4.12479253791361">
        <time>2024-01-11T01:25:41Z</time>
      </trkpt>
      <trkpt lat="40.791207536828" lon="-4.12468952741659">
        <time>2024-01-11T01:25:41Z</time>
      </trkpt>
      <trkpt lat="40.7912472516862" lon="-4.12458651679521">
        <time>2024-01-11T01:25:41Z</time>
      </trkpt>
      <trkpt lat="40.7912869664538" lon="-4.12448350604956">
        <time>2024-01-11T01:25:41Z</time>
      </trkpt>
      <trkpt lat="40.7913266811308" lon="-4.12438049517954">
        <time>2024-01-11T01:25:41Z</time>
      </trkpt>
      <trkpt lat="40.7913753277678" lon="-4.12428656975618">
        <time>2024-01-11T01:25:41Z</time>
      </trkpt>
      <trkpt lat="40.7914239743297" lon="-4.12419264419481">
        <time>2024-01-11T01:25:41Z</time>
      </trkpt>
      <trkpt lat="40.7914726208165" lon="-4.12409871849536">
        <time>2024-01-11T01:25:41Z</time>
      </trkpt>
      <trkpt lat="40.7915212672282" lon="-4.12400479265785">
        <time>2024-01-11T01:25:41Z</time>
      </trkpt>
      <trkpt lat="40.7915699135649" lon="-4.12391086668225">
        <time>2024-01-11T01:25:41Z</time>
      </trkpt>
      <trkpt lat="40.7916185598265" lon="-4.12381694056859">
        <time>2024-01-11T01:25:41Z</time>
      </trkpt>
      <trkpt lat="40.7916672060131" lon="-4.12372301431691">
        <time>2024-01-11T01:25:41Z</time>
      </trkpt>
      <trkpt lat="40.7917158521245" lon="-4.12362908792716">
        <time>2024-01-11T01:25:41Z</time>
      </trkpt>
      <trkpt lat="40.7917644981609" lon="-4.12353516139928">
        <time>2024-01-11T01:25:41Z</time>
      </trkpt>
      <trkpt lat="40.7918131441222" lon="-4.12344123473344">
        <time>2024-01-11T01:25:41Z</time>
      </trkpt>
      <trkpt lat="40.7918617900084" lon="-4.12334730792947">
        <time>2024-01-11T01:25:41Z</time>
      </trkpt>
      <trkpt lat="40.7919104358196" lon="-4.12325338098742">
        <time>2024-01-11T01:25:41Z</time>
      </trkpt>
      <trkpt lat="40.7919590815557" lon="-4.12315945390737">
        <time>2024-01-11T01:25:41Z</time>
      </trkpt>
      <trkpt lat="40.7920077272167" lon="-4.12306552668923">
        <time>2024-01-11T01:25:41Z</time>
      </trkpt>
      <trkpt lat="40.7920563728026" lon="-4.12297159933303">
        <time>2024-01-11T01:25:41Z</time>
      </trkpt>
      <trkpt lat="40.7921050183135" lon="-4.12287767183875">
        <time>2024-01-11T01:25:41Z</time>
      </trkpt>
      <trkpt lat="40.7921536637493" lon="-4.1227837442064">
        <time>2024-01-11T01:25:41Z</time>
      </trkpt>
      <trkpt lat="40.79220230911" lon="-4.12268981643604">
        <time>2024-01-11T01:25:41Z</time>
      </trkpt>
      <trkpt lat="40.7922509543956" lon="-4.12259588852754">
        <time>2024-01-11T01:25:41Z</time>
      </trkpt>
      <trkpt lat="40.7922995996061" lon="-4.12250196048103">
        <time>2024-01-11T01:25:41Z</time>
      </trkpt>
      <trkpt lat="40.7923482447416" lon="-4.12240803229645">
        <time>2024-01-11T01:25:41Z</time>
      </trkpt>
      <trkpt lat="40.792396889802" lon="-4.12231410397379">
        <time>2024-01-11T01:25:41Z</time>
      </trkpt>
      <trkpt lat="40.7924455347873" lon="-4.12222017551307">
        <time>2024-01-11T01:25:41Z</time>
      </trkpt>
      <trkpt lat="40.7924768797051" lon="-4.12213414697402">
        <time>2024-01-11T01:25:41Z</time>
      </trkpt>
      <trkpt lat="40.7925082245597" lon="-4.12204811835289">
        <time>2024-01-11T01:25:41Z</time>
      </trkpt>
      <trkpt lat="40.7925395693511" lon="-4.12196208964974">
        <time>2024-01-11T01:25:41Z</time>
      </trkpt>
      <trkpt lat="40.7925709140791" lon="-4.12187606086457">
        <time>2024-01-11T01:25:41Z</time>
      </trkpt>
      <trkpt lat="40.792602258744" lon="-4.12179003199731">
        <time>2024-01-11T01:25:41Z</time>
      </trkpt>
      <trkpt lat="40.7926413876637" lon="-4.12168782630903">
        <time>2024-01-11T01:25:41Z</time>
      </trkpt>
      <trkpt lat="40.7926805164942" lon="-4.12158562049916">
        <time>2024-01-11T01:25:41Z</time>
      </trkpt>
      <trkpt lat="40.7927196452355" lon="-4.12148341456782">
        <time>2024-01-11T01:25:41Z</time>
      </trkpt>
      <trkpt lat="40.7927587738876" lon="-4.12138120851484">
        <time>2024-01-11T01:25:41Z</time>
      </trkpt>
      <trkpt lat="40.7927979024504" lon="-4.12127900234032">
        <time>2024-01-11T01:25:41Z</time>
      </trkpt>
      <trkpt lat="40.7928469985673" lon="-4.12118305201489">
        <time>2024-01-11T01:25:41Z</time>
      </trkpt>
      <trkpt lat="40.7928960946059" lon="-4.12108710154712">
        <time>2024-01-11T01:25:41Z</time>
      </trkpt>
      <trkpt lat="40.792945190566" lon="-4.1209911509369">
        <time>2024-01-11T01:25:41Z</time>
      </trkpt>
      <trkpt lat="40.7929942864479" lon="-4.12089520018435">
        <time>2024-01-11T01:25:41Z</time>
      </trkpt>
      <trkpt lat="40.7930433822513" lon="-4.12079924928941">
        <time>2024-01-11T01:25:41Z</time>
      </trkpt>
      <trkpt lat="40.7930924779764" lon="-4.12070329825213">
        <time>2024-01-11T01:25:41Z</time>
      </trkpt>
      <trkpt lat="40.7931415736231" lon="-4.12060734707245">
        <time>2024-01-11T01:25:41Z</time>
      </trkpt>
      <trkpt lat="40.7931839196403" lon="-4.12052338907324">
        <time>2024-01-11T01:25:41Z</time>
      </trkpt>
      <trkpt lat="40.7932262655974" lon="-4.1204394309666">
        <time>2024-01-11T01:25:41Z</time>
      </trkpt>
      <trkpt lat="40.7932686114946" lon="-4.12035547275241">
        <time>2024-01-11T01:25:41Z</time>
      </trkpt>
      <trkpt lat="40.7933109573317" lon="-4.12027151443078">
        <time>2024-01-11T01:25:41Z</time>
      </trkpt>
      <trkpt lat="40.7933533031089" lon="-4.12018755600167">
        <time>2024-01-11T01:25:41Z</time>
      </trkpt>
      <trkpt lat="40.7933956488259" lon="-4.12010359746506">
        <time>2024-01-11T01:25:41Z</time>
      </trkpt>
      <trkpt lat="40.7934571174942" lon="-4.1200603721444">
        <time>2024-01-11T01:25:41Z</time>
      </trkpt>
      <trkpt lat="40.7935185861467" lon="-4.12001714674489">
        <time>2024-01-11T01:25:41Z</time>
      </trkpt>
      <trkpt lat="40.7935800547834" lon="-4.11997392126654">
        <time>2024-01-11T01:25:41Z</time>
      </trkpt>
      <trkpt lat="40.7936415234043" lon="-4.11993069570934">
        <time>2024-01-11T01:25:41Z</time>
      </trkpt>
      <trkpt lat="40.7937134072538" lon="-4.11987846761235">
        <time>2024-01-11T01:25:41Z</time>
      </trkpt>
      <trkpt lat="40.7937852910803" lon="-4.11982623940389">
        <time>2024-01-11T01:25:41Z</time>
      </trkpt>
      <trkpt lat="40.7938571748837" lon="-4.11977401108402">
        <time>2024-01-11T01:25:41Z</time>
      </trkpt>
      <trkpt lat="40.7939290586641" lon="-4.11972178265262">
        <time>2024-01-11T01:25:41Z</time>
      </trkpt>
      <trkpt lat="40.7939873169508" lon="-4.11963639973959">
        <time>2024-01-11T01:25:41Z</time>
      </trkpt>
      <trkpt lat="40.7940455751756" lon="-4.11955101667707">
        <time>2024-01-11T01:25:41Z</time>
      </trkpt>
      <trkpt lat="40.7941038333386" lon="-4.11946563346487">
        <time>2024-01-11T01:25:41Z</time>
      </trkpt>
      <trkpt lat="40.7941509668972" lon="-4.11942756234692">
        <time>2024-01-11T01:25:41Z</time>
      </trkpt>
      <trkpt lat="40.7941981004435" lon="-4.11938949117547">
        <time>2024-01-11T01:25:41Z</time>
      </trkpt>
      <trkpt lat="40.7942628056308" lon="-4.1193160907136">
        <time>2024-01-11T01:25:41Z</time>
      </trkpt>
      <trkpt lat="40.7943275107726" lon="-4.1192426901095">
        <time>2024-01-11T01:25:41Z</time>
      </trkpt>
      <trkpt lat="40.7943919331795" lon="-4.11919843190185">
        <time>2024-01-11T01:25:41Z</time>
      </trkpt>
      <trkpt lat="40.7944563555698" lon="-4.11915417360967">
        <time>2024-01-11T01:25:41Z</time>
      </trkpt>
      <trkpt lat="40.7945173920882" lon="-4.11912065368341">
        <time>2024-01-11T01:25:41Z</time>
      </trkpt>
      <trkpt lat="40.7945784285971" lon="-4.11908713369678">
        <time>2024-01-11T01:25:41Z</time>
      </trkpt>
      <trkpt lat="40.7946394650963" lon="-4.11905361364973">
        <time>2024-01-11T01:25:41Z</time>
      </trkpt>
      <trkpt lat="40.7946939392625" lon="-4.11901998334463">
        <time>2024-01-11T01:25:41Z</time>
      </trkpt>
      <trkpt lat="40.794748413419" lon="-4.11898635298531">
        <time>2024-01-11T01:25:41Z</time>
      </trkpt>
      <trkpt lat="40.794802887566" lon="-4.11895272257175">
        <time>2024-01-11T01:25:41Z</time>
      </trkpt>
      <trkpt lat="40.7948493681488" lon="-4.11889736715273">
        <time>2024-01-11T01:25:41Z</time>
      </trkpt>
      <trkpt lat="40.7948958487056" lon="-4.11884201165663">
        <time>2024-01-11T01:25:41Z</time>
      </trkpt>
      <trkpt lat="40.7949423292365" lon="-4.11878665608339">
        <time>2024-01-11T01:25:41Z</time>
      </trkpt>
      <trkpt lat="40.7949725504529" lon="-4.11871591392713">
        <time>2024-01-11T01:25:41Z</time>
      </trkpt>
      <trkpt lat="40.7950027716266" lon="-4.11864517170602">
        <time>2024-01-11T01:25:41Z</time>
      </trkpt>
      <trkpt lat="40.7950329927576" lon="-4.11857442942011">
        <time>2024-01-11T01:25:41Z</time>
      </trkpt>
      <trkpt lat="40.795073025941" lon="-4.11850709038549">
        <time>2024-01-11T01:25:41Z</time>
      </trkpt>
      <trkpt lat="40.7951130590858" lon="-4.11843975126971">
        <time>2024-01-11T01:25:41Z</time>
      </trkpt>
      <trkpt lat="40.7951906476928" lon="-4.11839139458442">
        <time>2024-01-11T01:25:41Z</time>
      </trkpt>
      <trkpt lat="40.7952682362799" lon="-4.11834303778818">
        <time>2024-01-11T01:25:41Z</time>
      </trkpt>
      <trkpt lat="40.7953458248472" lon="-4.11829468088087">
        <time>2024-01-11T01:25:41Z</time>
      </trkpt>
      <trkpt lat="40.7954087737009" lon="-4.11823312364158">
        <time>2024-01-11T01:25:41Z</time>
      </trkpt>
      <trkpt lat="40.7954717225227" lon="-4.11817156628661">
        <time>2024-01-11T01:25:41Z</time>
      </trkpt>
      <trkpt lat="40.7955346713124" lon="-4.11811000881591">
        <time>2024-01-11T01:25:41Z</time>
      </trkpt>
      <trkpt lat="40.7956052768549" lon="-4.11806261383345">
        <time>2024-01-11T01:25:41Z</time>
      </trkpt>
      <trkpt lat="40.7956758823784" lon="-4.1180152187518">
        <time>2024-01-11T01:25:41Z</time>
      </trkpt>
      <trkpt lat="40.7957464878828" lon="-4.11796782357095">
        <time>2024-01-11T01:25:41Z</time>
      </trkpt>
      <trkpt lat="40.7958170933683" lon="-4.11792042829086">
        <time>2024-01-11T01:25:41Z</time>
      </trkpt>
      <trkpt lat="40.7958749134786" lon="-4.11784626141543">
        <time>2024-01-11T01:25:41Z</time>
      </trkpt>
      <trkpt lat="40.7959327335423" lon="-4.11777209441135">
        <time>2024-01-11T01:25:41Z</time>
      </trkpt>
      <trkpt lat="40.7959905535595" lon="-4.11769792727864">
        <time>2024-01-11T01:25:41Z</time>
      </trkpt>
      <trkpt lat="40.7960483735301" lon="-4.11762376001718">
        <time>2024-01-11T01:25:41Z</time>
      </trkpt>
      <trkpt lat="40.7961061934541" lon="-4.11754959262709">
        <time>2024-01-11T01:25:41Z</time>
      </trkpt>
      <trkpt lat="40.79615319804" lon="-4.11747394826478">
        <time>2024-01-11T01:25:41Z</time>
      </trkpt>
      <trkpt lat="40.7962002025773" lon="-4.11739830379531">
        <time>2024-01-11T01:25:41Z</time>
      </trkpt>
      <trkpt lat="40.796247207066" lon="-4.11732265921882">
        <time>2024-01-11T01:25:41Z</time>
      </trkpt>
      <trkpt lat="40.7962942115061" lon="-4.11724701453517">
        <time>2024-01-11T01:25:41Z</time>
      </trkpt>
      <trkpt lat="40.7963412158977" lon="-4.11717136974443">
        <time>2024-01-11T01:25:41Z</time>
      </trkpt>
      <trkpt lat="40.7964010024435" lon="-4.11709741967712">
        <time>2024-01-11T01:25:41Z</time>
      </trkpt>
      <trkpt lat="40.7964607889431" lon="-4.11702346947732">
        <time>2024-01-11T01:25:41Z</time>
      </trkpt>
      <trkpt lat="40.7965205753964" lon="-4.1169495191449">
        <time>2024-01-11T01:25:41Z</time>
      </trkpt>
      <trkpt lat="40.7965803618034" lon="-4.11687556867992">
        <time>2024-01-11T01:25:41Z</time>
      </trkpt>
      <trkpt lat="40.7966401481641" lon="-4.11680161808232">
        <time>2024-01-11T01:25:41Z</time>
      </trkpt>
      <trkpt lat="40.7966999344786" lon="-4.11672766735222">
        <time>2024-01-11T01:25:41Z</time>
      </trkpt>
      <trkpt lat="40.7967597207467" lon="-4.11665371648951">
        <time>2024-01-11T01:25:41Z</time>
      </trkpt>
      <trkpt lat="40.7968301558263" lon="-4.11658148617954">
        <time>2024-01-11T01:25:41Z</time>
      </trkpt>
      <trkpt lat="40.7969005908617" lon="-4.11650925571752">
        <time>2024-01-11T01:25:41Z</time>
      </trkpt>
      <trkpt lat="40.7969710258531" lon="-4.11643702510344">
        <time>2024-01-11T01:25:41Z</time>
      </trkpt>
      <trkpt lat="40.7970414608003" lon="-4.1163647943373">
        <time>2024-01-11T01:25:41Z</time>
      </trkpt>
      <trkpt lat="40.7971118957035" lon="-4.11629256341911">
        <time>2024-01-11T01:25:41Z</time>
      </trkpt>
      <trkpt lat="40.7971823305626" lon="-4.11622033234881">
        <time>2024-01-11T01:25:41Z</time>
      </trkpt>
      <trkpt lat="40.7972431026527" lon="-4.11614621194644">
        <time>2024-01-11T01:25:41Z</time>
      </trkpt>
      <trkpt lat="40.7973038746963" lon="-4.11607209140908">
        <time>2024-01-11T01:25:41Z</time>
      </trkpt>
      <trkpt lat="40.7973646466934" lon="-4.1159979707366">
        <time>2024-01-11T01:25:41Z</time>
      </trkpt>
      <trkpt lat="40.797425418644" lon="-4.11592384992912">
        <time>2024-01-11T01:25:41Z</time>
      </trkpt>
      <trkpt lat="40.7974861905481" lon="-4.11584972898663">
        <time>2024-01-11T01:25:41Z</time>
      </trkpt>
      <trkpt lat="40.7975440594643" lon="-4.115770377312">
        <time>2024-01-11T01:25:41Z</time>
      </trkpt>
      <trkpt lat="40.7976019283271" lon="-4.11569102549948">
        <time>2024-01-11T01:25:41Z</time>
      </trkpt>
      <trkpt lat="40.7976597971365" lon="-4.11561167354904">
        <time>2024-01-11T01:25:41Z</time>
      </trkpt>
      <trkpt lat="40.7977176658926" lon="-4.11553232146059">
        <time>2024-01-11T01:25:41Z</time>
      </trkpt>
      <trkpt lat="40.7977755345953" lon="-4.11545296923424">
        <time>2024-01-11T01:25:41Z</time>
      </trkpt>
      <trkpt lat="40.7978432784935" lon="-4.11540444239927">
        <time>2024-01-11T01:25:41Z</time>
      </trkpt>
      <trkpt lat="40.7979110223718" lon="-4.1153559154667">
        <time>2024-01-11T01:25:41Z</time>
      </trkpt>
      <trkpt lat="40.7979787662302" lon="-4.11530738843652">
        <time>2024-01-11T01:25:41Z</time>
      </trkpt>
      <trkpt lat="40.7980480254417" lon="-4.11527184173616">
        <time>2024-01-11T01:25:41Z</time>
      </trkpt>
      <trkpt lat="40.7981172846423" lon="-4.11523629496327">
        <time>2024-01-11T01:25:41Z</time>
      </trkpt>
      <trkpt lat="40.7981865438322" lon="-4.11520074811784">
        <time>2024-01-11T01:25:41Z</time>
      </trkpt>
      <trkpt lat="40.7982485977549" lon="-4.11514672754606">
        <time>2024-01-11T01:25:41Z</time>
      </trkpt>
      <trkpt lat="40.798310651653" lon="-4.11509270687447">
        <time>2024-01-11T01:25:41Z</time>
      </trkpt>
      <trkpt lat="40.7983727055264" lon="-4.11503868610288">
        <time>2024-01-11T01:25:41Z</time>
      </trkpt>
      <trkpt lat="40.7984347593752" lon="-4.11498466523148">
        <time>2024-01-11T01:25:41Z</time>
      </trkpt>
      <trkpt lat="40.7984895870445" lon="-4.11491432940585">
        <time>2024-01-11T01:25:41Z</time>
      </trkpt>
      <trkpt lat="40.7985444146719" lon="-4.1148439934646">
        <time>2024-01-11T01:25:41Z</time>
      </trkpt>
      <trkpt lat="40.7985992422574" lon="-4.11477365740757">
        <time>2024-01-11T01:25:41Z</time>
      </trkpt>
      <trkpt lat="40.798654069801" lon="-4.11470332123486">
        <time>2024-01-11T01:25:41Z</time>
      </trkpt>
      <trkpt lat="40.7986991998049" lon="-4.11461770832841">
        <time>2024-01-11T01:25:41Z</time>
      </trkpt>
      <trkpt lat="40.7987443297464" lon="-4.11453209530521">
        <time>2024-01-11T01:25:41Z</time>
      </trkpt>
      <trkpt lat="40.7987894596255" lon="-4.11444648216536">
        <time>2024-01-11T01:25:41Z</time>
      </trkpt>
      <trkpt lat="40.7988442556961" lon="-4.11437938380306">
        <time>2024-01-11T01:25:41Z</time>
      </trkpt>
      <trkpt lat="40.7988990517287" lon="-4.11431228533053">
        <time>2024-01-11T01:25:41Z</time>
      </trkpt>
      <trkpt lat="40.7989538477231" lon="-4.11424518674778">
        <time>2024-01-11T01:25:41Z</time>
      </trkpt>
      <trkpt lat="40.7990086436794" lon="-4.11417808805481">
        <time>2024-01-11T01:25:41Z</time>
      </trkpt>
      <trkpt lat="40.7990709889932" lon="-4.11409384180428">
        <time>2024-01-11T01:25:41Z</time>
      </trkpt>
      <trkpt lat="40.7991333342467" lon="-4.114009595396">
        <time>2024-01-11T01:25:41Z</time>
      </trkpt>
      <trkpt lat="40.7991956794402" lon="-4.11392534882998">
        <time>2024-01-11T01:25:41Z</time>
      </trkpt>
      <trkpt lat="40.7992580245735" lon="-4.11384110210617">
        <time>2024-01-11T01:25:41Z</time>
      </trkpt>
      <trkpt lat="40.7993203696466" lon="-4.11375685522467">
        <time>2024-01-11T01:25:41Z</time>
      </trkpt>
      <trkpt lat="40.7993827146597" lon="-4.11367260818537">
        <time>2024-01-11T01:25:41Z</time>
      </trkpt>
      <trkpt lat="40.7994388344969" lon="-4.11359581422176">
        <time>2024-01-11T01:25:41Z</time>
      </trkpt>
      <trkpt lat="40.7994949542841" lon="-4.11351902012871">
        <time>2024-01-11T01:25:41Z</time>
      </trkpt>
      <trkpt lat="40.7995510740213" lon="-4.11344222590617">
        <time>2024-01-11T01:25:41Z</time>
      </trkpt>
      <trkpt lat="40.7996071937086" lon="-4.11336543155415">
        <time>2024-01-11T01:25:41Z</time>
      </trkpt>
      <trkpt lat="40.7996524685608" lon="-4.11326470433949">
        <time>2024-01-11T01:25:41Z</time>
      </trkpt>
      <trkpt lat="40.7996977433266" lon="-4.1131639769867">
        <time>2024-01-11T01:25:41Z</time>
      </trkpt>
      <trkpt lat="40.7997430180058" lon="-4.11306324949567">
        <time>2024-01-11T01:25:41Z</time>
      </trkpt>
      <trkpt lat="40.7997979070088" lon="-4.11298643404672">
        <time>2024-01-11T01:25:41Z</time>
      </trkpt>
      <trkpt lat="40.7998527959619" lon="-4.11290961847112">
        <time>2024-01-11T01:25:41Z</time>
      </trkpt>
      <trkpt lat="40.7999088881467" lon="-4.11287816685979">
        <time>2024-01-11T01:25:41Z</time>
      </trkpt>
      <trkpt lat="40.799964980323" lon="-4.11284671519633">
        <time>2024-01-11T01:25:41Z</time>
      </trkpt>
      <trkpt lat="40.8000210724909" lon="-4.1128152634808">
        <time>2024-01-11T01:25:41Z</time>
      </trkpt>
      <trkpt lat="40.8000753991313" lon="-4.11279673768434">
        <time>2024-01-11T01:25:41Z</time>
      </trkpt>
      <trkpt lat="40.8001297257686" lon="-4.1127782118586">
        <time>2024-01-11T01:25:41Z</time>
      </trkpt>
      <trkpt lat="40.800169786878" lon="-4.11270762583468">
        <time>2024-01-11T01:25:41Z</time>
      </trkpt>
      <trkpt lat="40.8002098479451" lon="-4.11263703972549">
        <time>2024-01-11T01:25:41Z</time>
      </trkpt>
      <trkpt lat="40.8002572603649" lon="-4.11256981516482">
        <time>2024-01-11T01:25:41Z</time>
      </trkpt>
      <trkpt lat="40.8003046727464" lon="-4.11250259050837">
        <time>2024-01-11T01:25:41Z</time>
      </trkpt>
      <trkpt lat="40.8003520850896" lon="-4.11243536575609">
        <time>2024-01-11T01:25:41Z</time>
      </trkpt>
      <trkpt lat="40.8003994973944" lon="-4.11236814090802">
        <time>2024-01-11T01:25:41Z</time>
      </trkpt>
      <trkpt lat="40.800433287313" lon="-4.11226722008894">
        <time>2024-01-11T01:25:41Z</time>
      </trkpt>
      <trkpt lat="40.8004670771444" lon="-4.11216629916589">
        <time>2024-01-11T01:25:41Z</time>
      </trkpt>
      <trkpt lat="40.8005008668887" lon="-4.11206537813888">
        <time>2024-01-11T01:25:41Z</time>
      </trkpt>
      <trkpt lat="40.8005296931814" lon="-4.1119686926852">
        <time>2024-01-11T01:25:41Z</time>
      </trkpt>
      <trkpt lat="40.8005585193939" lon="-4.11187200714625">
        <time>2024-01-11T01:25:41Z</time>
      </trkpt>
      <trkpt lat="40.8005873455264" lon="-4.11177532152209">
        <time>2024-01-11T01:25:41Z</time>
      </trkpt>
      <trkpt lat="40.8006161715788" lon="-4.11167863581273">
        <time>2024-01-11T01:25:41Z</time>
      </trkpt>
      <trkpt lat="40.8006449975511" lon="-4.11158195001809">
        <time>2024-01-11T01:25:41Z</time>
      </trkpt>
      <trkpt lat="40.8006738234433" lon="-4.11148526413831">
        <time>2024-01-11T01:25:41Z</time>
      </trkpt>
      <trkpt lat="40.8007108313758" lon="-4.11139087392718">
        <time>2024-01-11T01:25:41Z</time>
      </trkpt>
      <trkpt lat="40.8007478392322" lon="-4.11129648360986">
        <time>2024-01-11T01:25:41Z</time>
      </trkpt>
      <trkpt lat="40.8007848470125" lon="-4.11120209318642">
        <time>2024-01-11T01:25:41Z</time>
      </trkpt>
      <trkpt lat="40.8008473353186" lon="-4.11113928276365">
        <time>2024-01-11T01:25:41Z</time>
      </trkpt>
      <trkpt lat="40.8009098235914" lon="-4.11107647222355">
        <time>2024-01-11T01:25:41Z</time>
      </trkpt>
      <trkpt lat="40.8009723118309" lon="-4.11101366156623">
        <time>2024-01-11T01:25:41Z</time>
      </trkpt>
      <trkpt lat="40.801034800037" lon="-4.11095085079154">
        <time>2024-01-11T01:25:41Z</time>
      </trkpt>
      <trkpt lat="40.8010972882098" lon="-4.11088803989964">
        <time>2024-01-11T01:25:41Z</time>
      </trkpt>
      <trkpt lat="40.8011597763493" lon="-4.11082522889041">
        <time>2024-01-11T01:25:41Z</time>
      </trkpt>
      <trkpt lat="40.8012222644554" lon="-4.11076241776391">
        <time>2024-01-11T01:25:41Z</time>
      </trkpt>
      <trkpt lat="40.8012975241591" lon="-4.11069997367673">
        <time>2024-01-11T01:25:41Z</time>
      </trkpt>
      <trkpt lat="40.80137278383" lon="-4.11063752944961">
        <time>2024-01-11T01:25:41Z</time>
      </trkpt>
      <trkpt lat="40.8014480434678" lon="-4.11057508508253">
        <time>2024-01-11T01:25:41Z</time>
      </trkpt>
      <trkpt lat="40.8015233030728" lon="-4.11051264057551">
        <time>2024-01-11T01:25:41Z</time>
      </trkpt>
      <trkpt lat="40.8015985626448" lon="-4.11045019592854">
        <time>2024-01-11T01:25:41Z</time>
      </trkpt>
      <trkpt lat="40.8016738221839" lon="-4.11038775114167">
        <time>2024-01-11T01:25:41Z</time>
      </trkpt>
      <trkpt lat="40.8017296905555" lon="-4.11033685917346">
        <time>2024-01-11T01:25:41Z</time>
      </trkpt>
      <trkpt lat="40.8017855589053" lon="-4.11028596712049">
        <time>2024-01-11T01:25:41Z</time>
      </trkpt>
      <trkpt lat="40.8018414272332" lon="-4.11023507498266">
        <time>2024-01-11T01:25:41Z</time>
      </trkpt>
      <trkpt lat="40.8018972955393" lon="-4.11018418276007">
        <time>2024-01-11T01:25:41Z</time>
      </trkpt>
      <trkpt lat="40.8019545812237" lon="-4.11011388033188">
        <time>2024-01-11T01:25:41Z</time>
      </trkpt>
      <trkpt lat="40.8020118668663" lon="-4.11004357778296">
        <time>2024-01-11T01:25:41Z</time>
      </trkpt>
      <trkpt lat="40.802069152467" lon="-4.10997327511331">
        <time>2024-01-11T01:25:41Z</time>
      </trkpt>
      <trkpt lat="40.8021264380259" lon="-4.1099029723228">
        <time>2024-01-11T01:25:41Z</time>
      </trkpt>
      <trkpt lat="40.8021798297638" lon="-4.10981101142801">
        <time>2024-01-11T01:25:41Z</time>
      </trkpt>
      <trkpt lat="40.8022332214298" lon="-4.10971905038514">
        <time>2024-01-11T01:25:41Z</time>
      </trkpt>
      <trkpt lat="40.8022866130239" lon="-4.10962708919414">
        <time>2024-01-11T01:25:41Z</time>
      </trkpt>
      <trkpt lat="40.802347745413" lon="-4.10954065506923">
        <time>2024-01-11T01:25:41Z</time>
      </trkpt>
      <trkpt lat="40.8024088777389" lon="-4.1094542207855">
        <time>2024-01-11T01:25:41Z</time>
      </trkpt>
      <trkpt lat="40.8024700100014" lon="-4.10936778634295">
        <time>2024-01-11T01:25:41Z</time>
      </trkpt>
      <trkpt lat="40.8025311422005" lon="-4.10928135174152">
        <time>2024-01-11T01:25:41Z</time>
      </trkpt>
      <trkpt lat="40.8025827579514" lon="-4.10920339583612">
        <time>2024-01-11T01:25:41Z</time>
      </trkpt>
      <trkpt lat="40.8026343736507" lon="-4.10912543980959">
        <time>2024-01-11T01:25:41Z</time>
      </trkpt>
      <trkpt lat="40.8026859892984" lon="-4.10904748366193">
        <time>2024-01-11T01:25:41Z</time>
      </trkpt>
      <trkpt lat="40.8027376048946" lon="-4.10896952739324">
        <time>2024-01-11T01:25:41Z</time>
      </trkpt>
      <trkpt lat="40.8027892204392" lon="-4.10889157100343">
        <time>2024-01-11T01:25:41Z</time>
      </trkpt>
      <trkpt lat="40.8028408359322" lon="-4.10881361449248">
        <time>2024-01-11T01:25:41Z</time>
      </trkpt>
      <trkpt lat="40.8028849565559" lon="-4.10873013478795">
        <time>2024-01-11T01:25:41Z</time>
      </trkpt>
      <trkpt lat="40.8029290771202" lon="-4.10864665497212">
        <time>2024-01-11T01:25:41Z</time>
      </trkpt>
      <trkpt lat="40.8029731976252" lon="-4.10856317504499">
        <time>2024-01-11T01:25:41Z</time>
      </trkpt>
      <trkpt lat="40.803017318071" lon="-4.10847969500662">
        <time>2024-01-11T01:25:41Z</time>
      </trkpt>
      <trkpt lat="40.8030614384574" lon="-4.1083962148569">
        <time>2024-01-11T01:25:41Z</time>
      </trkpt>
      <trkpt lat="40.8030998563554" lon="-4.10832559577648">
        <time>2024-01-11T01:25:41Z</time>
      </trkpt>
      <trkpt lat="40.8031382742111" lon="-4.10825497661409">
        <time>2024-01-11T01:25:41Z</time>
      </trkpt>
      <trkpt lat="40.8031766920242" lon="-4.10818435736979">
        <time>2024-01-11T01:25:41Z</time>
      </trkpt>
      <trkpt lat="40.8032072179155" lon="-4.10808121659352">
        <time>2024-01-11T01:25:41Z</time>
      </trkpt>
      <trkpt lat="40.8032377437156" lon="-4.10797807572095">
        <time>2024-01-11T01:25:41Z</time>
      </trkpt>
      <trkpt lat="40.8032682694245" lon="-4.10787493475209">
        <time>2024-01-11T01:25:41Z</time>
      </trkpt>
      <trkpt lat="40.8033134110464" lon="-4.10778758404291">
        <time>2024-01-11T01:25:41Z</time>
      </trkpt>
      <trkpt lat="40.8033585526033" lon="-4.10770023321459">
        <time>2024-01-11T01:25:41Z</time>
      </trkpt>
      <trkpt lat="40.8034036940952" lon="-4.10761288226706">
        <time>2024-01-11T01:25:41Z</time>
      </trkpt>
      <trkpt lat="40.8034488355222" lon="-4.10752553120034">
        <time>2024-01-11T01:25:41Z</time>
      </trkpt>
      <trkpt lat="40.8034939768842" lon="-4.10743818001441">
        <time>2024-01-11T01:25:41Z</time>
      </trkpt>
      <trkpt lat="40.8035302341561" lon="-4.10735327226126">
        <time>2024-01-11T01:25:41Z</time>
      </trkpt>
      <trkpt lat="40.8035664913665" lon="-4.10726836441472">
        <time>2024-01-11T01:25:41Z</time>
      </trkpt>
      <trkpt lat="40.8036027485153" lon="-4.10718345647479">
        <time>2024-01-11T01:25:41Z</time>
      </trkpt>
      <trkpt lat="40.8036390056026" lon="-4.10709854844146">
        <time>2024-01-11T01:25:41Z</time>
      </trkpt>
      <trkpt lat="40.8036752626284" lon="-4.10701364031473">
        <time>2024-01-11T01:25:41Z</time>
      </trkpt>
      <trkpt lat="40.8037013849748" lon="-4.10691330420792">
        <time>2024-01-11T01:25:41Z</time>
      </trkpt>
      <trkpt lat="40.8037275072347" lon="-4.10681296802068">
        <time>2024-01-11T01:25:41Z</time>
      </trkpt>
      <trkpt lat="40.8037536294084" lon="-4.106712631753">
        <time>2024-01-11T01:25:41Z</time>
      </trkpt>
      <trkpt lat="40.8037797514957" lon="-4.10661229540495">
        <time>2024-01-11T01:25:41Z</time>
      </trkpt>
      <trkpt lat="40.8038058734966" lon="-4.10651195897646">
        <time>2024-01-11T01:25:41Z</time>
      </trkpt>
      <trkpt lat="40.8038319954111" lon="-4.10641162246753">
        <time>2024-01-11T01:25:41Z</time>
      </trkpt>
      <trkpt lat="40.8038581172393" lon="-4.10631128587824">
        <time>2024-01-11T01:25:41Z</time>
      </trkpt>
      <trkpt lat="40.8038842389811" lon="-4.10621094920845">
        <time>2024-01-11T01:25:41Z</time>
      </trkpt>
      <trkpt lat="40.8039103606365" lon="-4.10611061245828">
        <time>2024-01-11T01:25:41Z</time>
      </trkpt>
      <trkpt lat="40.8039408101858" lon="-4.10601524205384">
        <time>2024-01-11T01:25:41Z</time>
      </trkpt>
      <trkpt lat="40.8039712596573" lon="-4.10591987156079">
        <time>2024-01-11T01:25:41Z</time>
      </trkpt>
      <trkpt lat="40.8040017090509" lon="-4.105824500979">
        <time>2024-01-11T01:25:41Z</time>
      </trkpt>
      <trkpt lat="40.8040321583667" lon="-4.10572913030865">
        <time>2024-01-11T01:25:41Z</time>
      </trkpt>
      <trkpt lat="40.8040626076045" lon="-4.10563375954962">
        <time>2024-01-11T01:25:41Z</time>
      </trkpt>
      <trkpt lat="40.8040930691777" lon="-4.10553709328343">
        <time>2024-01-11T01:25:41Z</time>
      </trkpt>
      <trkpt lat="40.8041235306708" lon="-4.10544042692732">
        <time>2024-01-11T01:25:41Z</time>
      </trkpt>
      <trkpt lat="40.8041408467124" lon="-4.10534570173917">
        <time>2024-01-11T01:25:41Z</time>
      </trkpt>
      <trkpt lat="40.8041581626768" lon="-4.10525097650014">
        <time>2024-01-11T01:25:41Z</time>
      </trkpt>
      <trkpt lat="40.804175478564" lon="-4.10515625121025">
        <time>2024-01-11T01:25:41Z</time>
      </trkpt>
      <trkpt lat="40.8041861906705" lon="-4.1050657350782">
        <time>2024-01-11T01:25:41Z</time>
      </trkpt>
      <trkpt lat="40.8041969027064" lon="-4.10497521891551">
        <time>2024-01-11T01:25:41Z</time>
      </trkpt>
      <trkpt lat="40.8041977918317" lon="-4.10488238042387">
        <time>2024-01-11T01:25:41Z</time>
      </trkpt>
      <trkpt lat="40.8041986808824" lon="-4.10478954192809">
        <time>2024-01-11T01:25:41Z</time>
      </trkpt>
      <trkpt lat="40.8041995698585" lon="-4.1046967034282">
        <time>2024-01-11T01:25:41Z</time>
      </trkpt>
      <trkpt lat="40.8041857503297" lon="-4.1045976827462">
        <time>2024-01-11T01:25:41Z</time>
      </trkpt>
      <trkpt lat="40.8041719307154" lon="-4.10449866210342">
        <time>2024-01-11T01:25:41Z</time>
      </trkpt>
      <trkpt lat="40.8041581110156" lon="-4.10439964149993">
        <time>2024-01-11T01:25:41Z</time>
      </trkpt>
      <trkpt lat="40.8041442912302" lon="-4.1043006209357">
        <time>2024-01-11T01:25:41Z</time>
      </trkpt>
      <trkpt lat="40.8041379965201" lon="-4.10424349446585">
        <time>2024-01-11T01:25:41Z</time>
      </trkpt>
      <trkpt lat="40.8041374975433" lon="-4.10423896610627">
        <time>2024-01-11T01:25:41Z</time>
      </trkpt>
      <trkpt lat="40.8041231718873" lon="-4.10422389714015">
        <time>2024-01-11T01:25:41Z</time>
      </trkpt>
      <trkpt lat="40.8041115349643" lon="-4.1042185771322">
        <time>2024-01-11T01:25:41Z</time>
      </trkpt>
      <trkpt lat="40.8040999961673" lon="-4.104203004524">
        <time>2024-01-11T01:25:41Z</time>
      </trkpt>
      <trkpt lat="40.8041029897021" lon="-4.10418627449593">
        <time>2024-01-11T01:25:41Z</time>
      </trkpt>
      <trkpt lat="40.8041138006533" lon="-4.10416687743242">
        <time>2024-01-11T01:25:41Z</time>
      </trkpt>
      <trkpt lat="40.8041233096414" lon="-4.10416712923991">
        <time>2024-01-11T01:25:41Z</time>
      </trkpt>
      <trkpt lat="40.8041412620784" lon="-4.10417475897722">
        <time>2024-01-11T01:25:41Z</time>
      </trkpt>
      <trkpt lat="40.8041475970078" lon="-4.10419772311346">
        <time>2024-01-11T01:25:41Z</time>
      </trkpt>
      <trkpt lat="40.8041422467607" lon="-4.10420884834384">
        <time>2024-01-11T01:25:41Z</time>
      </trkpt>
      <trkpt lat="40.8041374975433" lon="-4.10423896610627">
        <time>2024-01-11T01:25:41Z</time>
      </trkpt>
      <trkpt lat="40.8041423217957" lon="-4.10428274767079">
        <time>2024-01-11T01:25:41Z</time>
      </trkpt>
      <trkpt lat="40.8041442912302" lon="-4.1043006209357">
        <time>2024-01-11T01:25:41Z</time>
      </trkpt>
      <trkpt lat="40.8041581110156" lon="-4.10439964149993">
        <time>2024-01-11T01:25:41Z</time>
      </trkpt>
      <trkpt lat="40.8041719307154" lon="-4.10449866210342">
        <time>2024-01-11T01:25:41Z</time>
      </trkpt>
      <trkpt lat="40.8041857503297" lon="-4.1045976827462">
        <time>2024-01-11T01:25:41Z</time>
      </trkpt>
      <trkpt lat="40.8041995698585" lon="-4.1046967034282">
        <time>2024-01-11T01:25:41Z</time>
      </trkpt>
      <trkpt lat="40.8041986808824" lon="-4.10478954192809">
        <time>2024-01-11T01:25:41Z</time>
      </trkpt>
      <trkpt lat="40.8041977918317" lon="-4.10488238042387">
        <time>2024-01-11T01:25:41Z</time>
      </trkpt>
      <trkpt lat="40.8041969027064" lon="-4.10497521891551">
        <time>2024-01-11T01:25:41Z</time>
      </trkpt>
      <trkpt lat="40.8041861906705" lon="-4.1050657350782">
        <time>2024-01-11T01:25:41Z</time>
      </trkpt>
      <trkpt lat="40.804175478564" lon="-4.10515625121025">
        <time>2024-01-11T01:25:41Z</time>
      </trkpt>
      <trkpt lat="40.8041581626768" lon="-4.10525097650014">
        <time>2024-01-11T01:25:41Z</time>
      </trkpt>
      <trkpt lat="40.8041408467124" lon="-4.10534570173917">
        <time>2024-01-11T01:25:41Z</time>
      </trkpt>
      <trkpt lat="40.8041235306708" lon="-4.10544042692732">
        <time>2024-01-11T01:25:41Z</time>
      </trkpt>
      <trkpt lat="40.8040930691777" lon="-4.10553709328343">
        <time>2024-01-11T01:25:41Z</time>
      </trkpt>
      <trkpt lat="40.8040626076045" lon="-4.10563375954962">
        <time>2024-01-11T01:25:41Z</time>
      </trkpt>
      <trkpt lat="40.8040321583667" lon="-4.10572913030865">
        <time>2024-01-11T01:25:41Z</time>
      </trkpt>
      <trkpt lat="40.8040017090509" lon="-4.105824500979">
        <time>2024-01-11T01:25:41Z</time>
      </trkpt>
      <trkpt lat="40.8039712596573" lon="-4.10591987156079">
        <time>2024-01-11T01:25:41Z</time>
      </trkpt>
      <trkpt lat="40.8039408101858" lon="-4.10601524205384">
        <time>2024-01-11T01:25:41Z</time>
      </trkpt>
      <trkpt lat="40.8039103606365" lon="-4.10611061245828">
        <time>2024-01-11T01:25:41Z</time>
      </trkpt>
      <trkpt lat="40.8038842389811" lon="-4.10621094920845">
        <time>2024-01-11T01:25:41Z</time>
      </trkpt>
      <trkpt lat="40.8038581172393" lon="-4.10631128587824">
        <time>2024-01-11T01:25:41Z</time>
      </trkpt>
      <trkpt lat="40.8038319954111" lon="-4.10641162246753">
        <time>2024-01-11T01:25:41Z</time>
      </trkpt>
      <trkpt lat="40.8038058734966" lon="-4.10651195897646">
        <time>2024-01-11T01:25:41Z</time>
      </trkpt>
      <trkpt lat="40.8037797514957" lon="-4.10661229540495">
        <time>2024-01-11T01:25:41Z</time>
      </trkpt>
      <trkpt lat="40.8037536294084" lon="-4.106712631753">
        <time>2024-01-11T01:25:41Z</time>
      </trkpt>
      <trkpt lat="40.8037275072347" lon="-4.10681296802068">
        <time>2024-01-11T01:25:41Z</time>
      </trkpt>
      <trkpt lat="40.8037013849748" lon="-4.10691330420792">
        <time>2024-01-11T01:25:41Z</time>
      </trkpt>
      <trkpt lat="40.8036752626284" lon="-4.10701364031473">
        <time>2024-01-11T01:25:41Z</time>
      </trkpt>
      <trkpt lat="40.8036390056026" lon="-4.10709854844146">
        <time>2024-01-11T01:25:41Z</time>
      </trkpt>
      <trkpt lat="40.8036027485153" lon="-4.10718345647479">
        <time>2024-01-11T01:25:41Z</time>
      </trkpt>
      <trkpt lat="40.8035664913665" lon="-4.10726836441472">
        <time>2024-01-11T01:25:41Z</time>
      </trkpt>
      <trkpt lat="40.8035302341561" lon="-4.10735327226126">
        <time>2024-01-11T01:25:41Z</time>
      </trkpt>
      <trkpt lat="40.8034939768842" lon="-4.10743818001441">
        <time>2024-01-11T01:25:41Z</time>
      </trkpt>
      <trkpt lat="40.8034488355222" lon="-4.10752553120034">
        <time>2024-01-11T01:25:41Z</time>
      </trkpt>
      <trkpt lat="40.8034036940952" lon="-4.10761288226706">
        <time>2024-01-11T01:25:41Z</time>
      </trkpt>
      <trkpt lat="40.8033585526033" lon="-4.10770023321459">
        <time>2024-01-11T01:25:41Z</time>
      </trkpt>
      <trkpt lat="40.8033134110464" lon="-4.10778758404291">
        <time>2024-01-11T01:25:41Z</time>
      </trkpt>
      <trkpt lat="40.8032682694245" lon="-4.10787493475209">
        <time>2024-01-11T01:25:41Z</time>
      </trkpt>
      <trkpt lat="40.8032377437156" lon="-4.10797807572095">
        <time>2024-01-11T01:25:41Z</time>
      </trkpt>
      <trkpt lat="40.8032072179155" lon="-4.10808121659352">
        <time>2024-01-11T01:25:41Z</time>
      </trkpt>
      <trkpt lat="40.8031766920242" lon="-4.10818435736979">
        <time>2024-01-11T01:25:41Z</time>
      </trkpt>
      <trkpt lat="40.8031382742111" lon="-4.10825497661409">
        <time>2024-01-11T01:25:41Z</time>
      </trkpt>
      <trkpt lat="40.8030998563554" lon="-4.10832559577648">
        <time>2024-01-11T01:25:41Z</time>
      </trkpt>
      <trkpt lat="40.8030614384574" lon="-4.1083962148569">
        <time>2024-01-11T01:25:41Z</time>
      </trkpt>
      <trkpt lat="40.803017318071" lon="-4.10847969500662">
        <time>2024-01-11T01:25:41Z</time>
      </trkpt>
      <trkpt lat="40.8029731976252" lon="-4.10856317504499">
        <time>2024-01-11T01:25:41Z</time>
      </trkpt>
      <trkpt lat="40.8029290771202" lon="-4.10864665497212">
        <time>2024-01-11T01:25:41Z</time>
      </trkpt>
      <trkpt lat="40.8028849565559" lon="-4.10873013478795">
        <time>2024-01-11T01:25:41Z</time>
      </trkpt>
      <trkpt lat="40.8028408359322" lon="-4.10881361449248">
        <time>2024-01-11T01:25:41Z</time>
      </trkpt>
      <trkpt lat="40.8027892204392" lon="-4.10889157100343">
        <time>2024-01-11T01:25:41Z</time>
      </trkpt>
      <trkpt lat="40.8027376048946" lon="-4.10896952739324">
        <time>2024-01-11T01:25:41Z</time>
      </trkpt>
      <trkpt lat="40.8026859892984" lon="-4.10904748366193">
        <time>2024-01-11T01:25:41Z</time>
      </trkpt>
      <trkpt lat="40.8026343736507" lon="-4.10912543980959">
        <time>2024-01-11T01:25:41Z</time>
      </trkpt>
      <trkpt lat="40.8025827579514" lon="-4.10920339583612">
        <time>2024-01-11T01:25:41Z</time>
      </trkpt>
      <trkpt lat="40.8025311422005" lon="-4.10928135174152">
        <time>2024-01-11T01:25:41Z</time>
      </trkpt>
      <trkpt lat="40.8024700100014" lon="-4.10936778634295">
        <time>2024-01-11T01:25:41Z</time>
      </trkpt>
      <trkpt lat="40.8024088777389" lon="-4.1094542207855">
        <time>2024-01-11T01:25:41Z</time>
      </trkpt>
      <trkpt lat="40.802347745413" lon="-4.10954065506923">
        <time>2024-01-11T01:25:41Z</time>
      </trkpt>
      <trkpt lat="40.8022866130239" lon="-4.10962708919414">
        <time>2024-01-11T01:25:41Z</time>
      </trkpt>
      <trkpt lat="40.8022332214298" lon="-4.10971905038514">
        <time>2024-01-11T01:25:41Z</time>
      </trkpt>
      <trkpt lat="40.8021798297638" lon="-4.10981101142801">
        <time>2024-01-11T01:25:41Z</time>
      </trkpt>
      <trkpt lat="40.8021264380259" lon="-4.1099029723228">
        <time>2024-01-11T01:25:41Z</time>
      </trkpt>
      <trkpt lat="40.802069152467" lon="-4.10997327511331">
        <time>2024-01-11T01:25:41Z</time>
      </trkpt>
      <trkpt lat="40.8020118668663" lon="-4.11004357778296">
        <time>2024-01-11T01:25:41Z</time>
      </trkpt>
      <trkpt lat="40.8019545812237" lon="-4.11011388033188">
        <time>2024-01-11T01:25:41Z</time>
      </trkpt>
      <trkpt lat="40.8018972955393" lon="-4.11018418276007">
        <time>2024-01-11T01:25:41Z</time>
      </trkpt>
      <trkpt lat="40.8018414272332" lon="-4.11023507498266">
        <time>2024-01-11T01:25:41Z</time>
      </trkpt>
      <trkpt lat="40.8017855589053" lon="-4.11028596712049">
        <time>2024-01-11T01:25:41Z</time>
      </trkpt>
      <trkpt lat="40.8017296905555" lon="-4.11033685917346">
        <time>2024-01-11T01:25:41Z</time>
      </trkpt>
      <trkpt lat="40.8016738221839" lon="-4.11038775114167">
        <time>2024-01-11T01:25:41Z</time>
      </trkpt>
      <trkpt lat="40.8015985626448" lon="-4.11045019592854">
        <time>2024-01-11T01:25:41Z</time>
      </trkpt>
      <trkpt lat="40.8015233030728" lon="-4.11051264057551">
        <time>2024-01-11T01:25:41Z</time>
      </trkpt>
      <trkpt lat="40.8014480434678" lon="-4.11057508508253">
        <time>2024-01-11T01:25:41Z</time>
      </trkpt>
      <trkpt lat="40.80137278383" lon="-4.11063752944961">
        <time>2024-01-11T01:25:41Z</time>
      </trkpt>
      <trkpt lat="40.8012975241591" lon="-4.11069997367673">
        <time>2024-01-11T01:25:41Z</time>
      </trkpt>
      <trkpt lat="40.8012222644554" lon="-4.11076241776391">
        <time>2024-01-11T01:25:41Z</time>
      </trkpt>
      <trkpt lat="40.8011597763493" lon="-4.11082522889041">
        <time>2024-01-11T01:25:41Z</time>
      </trkpt>
      <trkpt lat="40.8010972882098" lon="-4.11088803989964">
        <time>2024-01-11T01:25:41Z</time>
      </trkpt>
      <trkpt lat="40.801034800037" lon="-4.11095085079154">
        <time>2024-01-11T01:25:41Z</time>
      </trkpt>
      <trkpt lat="40.8009723118309" lon="-4.11101366156623">
        <time>2024-01-11T01:25:41Z</time>
      </trkpt>
      <trkpt lat="40.8009098235914" lon="-4.11107647222355">
        <time>2024-01-11T01:25:41Z</time>
      </trkpt>
      <trkpt lat="40.8008473353186" lon="-4.11113928276365">
        <time>2024-01-11T01:25:41Z</time>
      </trkpt>
      <trkpt lat="40.8007848470125" lon="-4.11120209318642">
        <time>2024-01-11T01:25:41Z</time>
      </trkpt>
      <trkpt lat="40.8007478392322" lon="-4.11129648360986">
        <time>2024-01-11T01:25:41Z</time>
      </trkpt>
      <trkpt lat="40.8007108313758" lon="-4.11139087392718">
        <time>2024-01-11T01:25:41Z</time>
      </trkpt>
      <trkpt lat="40.8006738234433" lon="-4.11148526413831">
        <time>2024-01-11T01:25:41Z</time>
      </trkpt>
      <trkpt lat="40.8006449975511" lon="-4.11158195001809">
        <time>2024-01-11T01:25:41Z</time>
      </trkpt>
      <trkpt lat="40.8006161715788" lon="-4.11167863581273">
        <time>2024-01-11T01:25:41Z</time>
      </trkpt>
      <trkpt lat="40.8005873455264" lon="-4.11177532152209">
        <time>2024-01-11T01:25:41Z</time>
      </trkpt>
      <trkpt lat="40.8005585193939" lon="-4.11187200714625">
        <time>2024-01-11T01:25:41Z</time>
      </trkpt>
      <trkpt lat="40.8005296931814" lon="-4.1119686926852">
        <time>2024-01-11T01:25:41Z</time>
      </trkpt>
      <trkpt lat="40.8005008668887" lon="-4.11206537813888">
        <time>2024-01-11T01:25:41Z</time>
      </trkpt>
      <trkpt lat="40.8004670771444" lon="-4.11216629916589">
        <time>2024-01-11T01:25:41Z</time>
      </trkpt>
      <trkpt lat="40.800433287313" lon="-4.11226722008894">
        <time>2024-01-11T01:25:41Z</time>
      </trkpt>
      <trkpt lat="40.8003994973944" lon="-4.11236814090802">
        <time>2024-01-11T01:25:41Z</time>
      </trkpt>
      <trkpt lat="40.8003520850896" lon="-4.11243536575609">
        <time>2024-01-11T01:25:41Z</time>
      </trkpt>
      <trkpt lat="40.8003046727464" lon="-4.11250259050837">
        <time>2024-01-11T01:25:41Z</time>
      </trkpt>
      <trkpt lat="40.8002572603649" lon="-4.11256981516482">
        <time>2024-01-11T01:25:41Z</time>
      </trkpt>
      <trkpt lat="40.8002098479451" lon="-4.11263703972549">
        <time>2024-01-11T01:25:41Z</time>
      </trkpt>
      <trkpt lat="40.800169786878" lon="-4.11270762583468">
        <time>2024-01-11T01:25:41Z</time>
      </trkpt>
      <trkpt lat="40.8001297257686" lon="-4.1127782118586">
        <time>2024-01-11T01:25:41Z</time>
      </trkpt>
      <trkpt lat="40.8000753991313" lon="-4.11279673768434">
        <time>2024-01-11T01:25:41Z</time>
      </trkpt>
      <trkpt lat="40.8000210724909" lon="-4.1128152634808">
        <time>2024-01-11T01:25:41Z</time>
      </trkpt>
      <trkpt lat="40.799964980323" lon="-4.11284671519633">
        <time>2024-01-11T01:25:41Z</time>
      </trkpt>
      <trkpt lat="40.7999088881467" lon="-4.11287816685979">
        <time>2024-01-11T01:25:41Z</time>
      </trkpt>
      <trkpt lat="40.7998527959619" lon="-4.11290961847112">
        <time>2024-01-11T01:25:41Z</time>
      </trkpt>
      <trkpt lat="40.7997979070088" lon="-4.11298643404672">
        <time>2024-01-11T01:25:41Z</time>
      </trkpt>
      <trkpt lat="40.7997430180058" lon="-4.11306324949567">
        <time>2024-01-11T01:25:41Z</time>
      </trkpt>
      <trkpt lat="40.7996977433266" lon="-4.1131639769867">
        <time>2024-01-11T01:25:41Z</time>
      </trkpt>
      <trkpt lat="40.7996524685608" lon="-4.11326470433949">
        <time>2024-01-11T01:25:41Z</time>
      </trkpt>
      <trkpt lat="40.7996071937086" lon="-4.11336543155415">
        <time>2024-01-11T01:25:41Z</time>
      </trkpt>
      <trkpt lat="40.7995510740213" lon="-4.11344222590617">
        <time>2024-01-11T01:25:41Z</time>
      </trkpt>
      <trkpt lat="40.7994949542841" lon="-4.11351902012871">
        <time>2024-01-11T01:25:41Z</time>
      </trkpt>
      <trkpt lat="40.7994388344969" lon="-4.11359581422176">
        <time>2024-01-11T01:25:41Z</time>
      </trkpt>
      <trkpt lat="40.7993827146597" lon="-4.11367260818537">
        <time>2024-01-11T01:25:41Z</time>
      </trkpt>
      <trkpt lat="40.7993203696466" lon="-4.11375685522467">
        <time>2024-01-11T01:25:41Z</time>
      </trkpt>
      <trkpt lat="40.7992580245735" lon="-4.11384110210617">
        <time>2024-01-11T01:25:41Z</time>
      </trkpt>
      <trkpt lat="40.7991956794402" lon="-4.11392534882998">
        <time>2024-01-11T01:25:41Z</time>
      </trkpt>
      <trkpt lat="40.7991333342467" lon="-4.114009595396">
        <time>2024-01-11T01:25:41Z</time>
      </trkpt>
      <trkpt lat="40.7990709889932" lon="-4.11409384180428">
        <time>2024-01-11T01:25:41Z</time>
      </trkpt>
      <trkpt lat="40.7990086436794" lon="-4.11417808805481">
        <time>2024-01-11T01:25:41Z</time>
      </trkpt>
      <trkpt lat="40.7989538477231" lon="-4.11424518674778">
        <time>2024-01-11T01:25:41Z</time>
      </trkpt>
      <trkpt lat="40.7988990517287" lon="-4.11431228533053">
        <time>2024-01-11T01:25:41Z</time>
      </trkpt>
      <trkpt lat="40.7988442556961" lon="-4.11437938380306">
        <time>2024-01-11T01:25:41Z</time>
      </trkpt>
      <trkpt lat="40.7987894596255" lon="-4.11444648216536">
        <time>2024-01-11T01:25:41Z</time>
      </trkpt>
      <trkpt lat="40.7987443297464" lon="-4.11453209530521">
        <time>2024-01-11T01:25:41Z</time>
      </trkpt>
      <trkpt lat="40.7986991998049" lon="-4.11461770832841">
        <time>2024-01-11T01:25:41Z</time>
      </trkpt>
      <trkpt lat="40.798654069801" lon="-4.11470332123486">
        <time>2024-01-11T01:25:41Z</time>
      </trkpt>
      <trkpt lat="40.7985992422574" lon="-4.11477365740757">
        <time>2024-01-11T01:25:41Z</time>
      </trkpt>
      <trkpt lat="40.7985444146719" lon="-4.1148439934646">
        <time>2024-01-11T01:25:41Z</time>
      </trkpt>
      <trkpt lat="40.7984895870445" lon="-4.11491432940585">
        <time>2024-01-11T01:25:41Z</time>
      </trkpt>
      <trkpt lat="40.7984347593752" lon="-4.11498466523148">
        <time>2024-01-11T01:25:41Z</time>
      </trkpt>
      <trkpt lat="40.7983727055264" lon="-4.11503868610288">
        <time>2024-01-11T01:25:41Z</time>
      </trkpt>
      <trkpt lat="40.798310651653" lon="-4.11509270687447">
        <time>2024-01-11T01:25:41Z</time>
      </trkpt>
      <trkpt lat="40.7982485977549" lon="-4.11514672754606">
        <time>2024-01-11T01:25:41Z</time>
      </trkpt>
      <trkpt lat="40.7981865438322" lon="-4.11520074811784">
        <time>2024-01-11T01:25:41Z</time>
      </trkpt>
      <trkpt lat="40.7981172846423" lon="-4.11523629496327">
        <time>2024-01-11T01:25:41Z</time>
      </trkpt>
      <trkpt lat="40.7980480254417" lon="-4.11527184173616">
        <time>2024-01-11T01:25:41Z</time>
      </trkpt>
      <trkpt lat="40.7979787662302" lon="-4.11530738843652">
        <time>2024-01-11T01:25:41Z</time>
      </trkpt>
      <trkpt lat="40.7979110223718" lon="-4.1153559154667">
        <time>2024-01-11T01:25:41Z</time>
      </trkpt>
      <trkpt lat="40.7978432784935" lon="-4.11540444239927">
        <time>2024-01-11T01:25:41Z</time>
      </trkpt>
      <trkpt lat="40.7977755345953" lon="-4.11545296923424">
        <time>2024-01-11T01:25:41Z</time>
      </trkpt>
      <trkpt lat="40.7977176658926" lon="-4.11553232146059">
        <time>2024-01-11T01:25:41Z</time>
      </trkpt>
      <trkpt lat="40.7976597971365" lon="-4.11561167354904">
        <time>2024-01-11T01:25:41Z</time>
      </trkpt>
      <trkpt lat="40.7976019283271" lon="-4.11569102549948">
        <time>2024-01-11T01:25:41Z</time>
      </trkpt>
      <trkpt lat="40.7975440594643" lon="-4.115770377312">
        <time>2024-01-11T01:25:41Z</time>
      </trkpt>
      <trkpt lat="40.7974861905481" lon="-4.11584972898663">
        <time>2024-01-11T01:25:41Z</time>
      </trkpt>
      <trkpt lat="40.797425418644" lon="-4.11592384992912">
        <time>2024-01-11T01:25:41Z</time>
      </trkpt>
      <trkpt lat="40.7973646466934" lon="-4.1159979707366">
        <time>2024-01-11T01:25:41Z</time>
      </trkpt>
      <trkpt lat="40.7973038746963" lon="-4.11607209140908">
        <time>2024-01-11T01:25:41Z</time>
      </trkpt>
      <trkpt lat="40.7972431026527" lon="-4.11614621194644">
        <time>2024-01-11T01:25:41Z</time>
      </trkpt>
      <trkpt lat="40.7971823305626" lon="-4.11622033234881">
        <time>2024-01-11T01:25:41Z</time>
      </trkpt>
      <trkpt lat="40.7971118957035" lon="-4.11629256341911">
        <time>2024-01-11T01:25:41Z</time>
      </trkpt>
      <trkpt lat="40.7970414608003" lon="-4.1163647943373">
        <time>2024-01-11T01:25:41Z</time>
      </trkpt>
      <trkpt lat="40.7969710258531" lon="-4.11643702510344">
        <time>2024-01-11T01:25:41Z</time>
      </trkpt>
      <trkpt lat="40.7969005908617" lon="-4.11650925571752">
        <time>2024-01-11T01:25:41Z</time>
      </trkpt>
      <trkpt lat="40.7968301558263" lon="-4.11658148617954">
        <time>2024-01-11T01:25:41Z</time>
      </trkpt>
      <trkpt lat="40.7967597207467" lon="-4.11665371648951">
        <time>2024-01-11T01:25:41Z</time>
      </trkpt>
      <trkpt lat="40.7966999344786" lon="-4.11672766735222">
        <time>2024-01-11T01:25:41Z</time>
      </trkpt>
      <trkpt lat="40.7966401481641" lon="-4.11680161808232">
        <time>2024-01-11T01:25:41Z</time>
      </trkpt>
      <trkpt lat="40.7965803618034" lon="-4.11687556867992">
        <time>2024-01-11T01:25:41Z</time>
      </trkpt>
      <trkpt lat="40.7965205753964" lon="-4.1169495191449">
        <time>2024-01-11T01:25:41Z</time>
      </trkpt>
      <trkpt lat="40.7964607889431" lon="-4.11702346947732">
        <time>2024-01-11T01:25:41Z</time>
      </trkpt>
      <trkpt lat="40.7964010024435" lon="-4.11709741967712">
        <time>2024-01-11T01:25:41Z</time>
      </trkpt>
      <trkpt lat="40.7963412158977" lon="-4.11717136974443">
        <time>2024-01-11T01:25:41Z</time>
      </trkpt>
      <trkpt lat="40.7962942115061" lon="-4.11724701453517">
        <time>2024-01-11T01:25:41Z</time>
      </trkpt>
      <trkpt lat="40.796247207066" lon="-4.11732265921882">
        <time>2024-01-11T01:25:41Z</time>
      </trkpt>
      <trkpt lat="40.7962002025773" lon="-4.11739830379531">
        <time>2024-01-11T01:25:41Z</time>
      </trkpt>
      <trkpt lat="40.79615319804" lon="-4.11747394826478">
        <time>2024-01-11T01:25:41Z</time>
      </trkpt>
      <trkpt lat="40.7961061934541" lon="-4.11754959262709">
        <time>2024-01-11T01:25:41Z</time>
      </trkpt>
      <trkpt lat="40.7960483735301" lon="-4.11762376001718">
        <time>2024-01-11T01:25:41Z</time>
      </trkpt>
      <trkpt lat="40.7959905535595" lon="-4.11769792727864">
        <time>2024-01-11T01:25:41Z</time>
      </trkpt>
      <trkpt lat="40.7959327335423" lon="-4.11777209441135">
        <time>2024-01-11T01:25:41Z</time>
      </trkpt>
      <trkpt lat="40.7958749134786" lon="-4.11784626141543">
        <time>2024-01-11T01:25:41Z</time>
      </trkpt>
      <trkpt lat="40.7958170933683" lon="-4.11792042829086">
        <time>2024-01-11T01:25:41Z</time>
      </trkpt>
      <trkpt lat="40.7957464878828" lon="-4.11796782357095">
        <time>2024-01-11T01:25:41Z</time>
      </trkpt>
      <trkpt lat="40.7956758823784" lon="-4.1180152187518">
        <time>2024-01-11T01:25:41Z</time>
      </trkpt>
      <trkpt lat="40.7956052768549" lon="-4.11806261383345">
        <time>2024-01-11T01:25:41Z</time>
      </trkpt>
      <trkpt lat="40.7955346713124" lon="-4.11811000881591">
        <time>2024-01-11T01:25:41Z</time>
      </trkpt>
      <trkpt lat="40.7954717225227" lon="-4.11817156628661">
        <time>2024-01-11T01:25:41Z</time>
      </trkpt>
      <trkpt lat="40.7954087737009" lon="-4.11823312364158">
        <time>2024-01-11T01:25:41Z</time>
      </trkpt>
      <trkpt lat="40.7953458248472" lon="-4.11829468088087">
        <time>2024-01-11T01:25:41Z</time>
      </trkpt>
      <trkpt lat="40.7952682362799" lon="-4.11834303778818">
        <time>2024-01-11T01:25:41Z</time>
      </trkpt>
      <trkpt lat="40.7951906476928" lon="-4.11839139458442">
        <time>2024-01-11T01:25:41Z</time>
      </trkpt>
      <trkpt lat="40.7951130590858" lon="-4.11843975126971">
        <time>2024-01-11T01:25:41Z</time>
      </trkpt>
      <trkpt lat="40.795073025941" lon="-4.11850709038549">
        <time>2024-01-11T01:25:41Z</time>
      </trkpt>
      <trkpt lat="40.7950329927576" lon="-4.11857442942011">
        <time>2024-01-11T01:25:41Z</time>
      </trkpt>
      <trkpt lat="40.7950027716266" lon="-4.11864517170602">
        <time>2024-01-11T01:25:41Z</time>
      </trkpt>
      <trkpt lat="40.7949725504529" lon="-4.11871591392713">
        <time>2024-01-11T01:25:41Z</time>
      </trkpt>
      <trkpt lat="40.7949423292365" lon="-4.11878665608339">
        <time>2024-01-11T01:25:41Z</time>
      </trkpt>
      <trkpt lat="40.7948958487056" lon="-4.11884201165663">
        <time>2024-01-11T01:25:41Z</time>
      </trkpt>
      <trkpt lat="40.7948493681488" lon="-4.11889736715273">
        <time>2024-01-11T01:25:41Z</time>
      </trkpt>
      <trkpt lat="40.794802887566" lon="-4.11895272257175">
        <time>2024-01-11T01:25:41Z</time>
      </trkpt>
      <trkpt lat="40.794748413419" lon="-4.11898635298531">
        <time>2024-01-11T01:25:41Z</time>
      </trkpt>
      <trkpt lat="40.7946939392625" lon="-4.11901998334463">
        <time>2024-01-11T01:25:41Z</time>
      </trkpt>
      <trkpt lat="40.7946394650963" lon="-4.11905361364973">
        <time>2024-01-11T01:25:41Z</time>
      </trkpt>
      <trkpt lat="40.7945784285971" lon="-4.11908713369678">
        <time>2024-01-11T01:25:41Z</time>
      </trkpt>
      <trkpt lat="40.7945173920882" lon="-4.11912065368341">
        <time>2024-01-11T01:25:41Z</time>
      </trkpt>
      <trkpt lat="40.7944563555698" lon="-4.11915417360967">
        <time>2024-01-11T01:25:41Z</time>
      </trkpt>
      <trkpt lat="40.7943919331795" lon="-4.11919843190185">
        <time>2024-01-11T01:25:41Z</time>
      </trkpt>
      <trkpt lat="40.7943275107726" lon="-4.1192426901095">
        <time>2024-01-11T01:25:41Z</time>
      </trkpt>
      <trkpt lat="40.7942628056308" lon="-4.1193160907136">
        <time>2024-01-11T01:25:41Z</time>
      </trkpt>
      <trkpt lat="40.7941981004435" lon="-4.11938949117547">
        <time>2024-01-11T01:25:41Z</time>
      </trkpt>
      <trkpt lat="40.7941509668972" lon="-4.11942756234692">
        <time>2024-01-11T01:25:41Z</time>
      </trkpt>
      <trkpt lat="40.7941038333386" lon="-4.11946563346487">
        <time>2024-01-11T01:25:41Z</time>
      </trkpt>
      <trkpt lat="40.7940455751756" lon="-4.11955101667707">
        <time>2024-01-11T01:25:41Z</time>
      </trkpt>
      <trkpt lat="40.7939873169508" lon="-4.11963639973959">
        <time>2024-01-11T01:25:41Z</time>
      </trkpt>
      <trkpt lat="40.7939290586641" lon="-4.11972178265262">
        <time>2024-01-11T01:25:41Z</time>
      </trkpt>
      <trkpt lat="40.7938571748837" lon="-4.11977401108402">
        <time>2024-01-11T01:25:41Z</time>
      </trkpt>
      <trkpt lat="40.7937852910803" lon="-4.11982623940389">
        <time>2024-01-11T01:25:41Z</time>
      </trkpt>
      <trkpt lat="40.7937134072538" lon="-4.11987846761235">
        <time>2024-01-11T01:25:41Z</time>
      </trkpt>
      <trkpt lat="40.7936415234043" lon="-4.11993069570934">
        <time>2024-01-11T01:25:41Z</time>
      </trkpt>
      <trkpt lat="40.7935800547834" lon="-4.11997392126654">
        <time>2024-01-11T01:25:41Z</time>
      </trkpt>
      <trkpt lat="40.7935185861467" lon="-4.12001714674489">
        <time>2024-01-11T01:25:41Z</time>
      </trkpt>
      <trkpt lat="40.7934571174942" lon="-4.1200603721444">
        <time>2024-01-11T01:25:41Z</time>
      </trkpt>
      <trkpt lat="40.7933956488259" lon="-4.12010359746506">
        <time>2024-01-11T01:25:41Z</time>
      </trkpt>
      <trkpt lat="40.7933533031089" lon="-4.12018755600167">
        <time>2024-01-11T01:25:41Z</time>
      </trkpt>
      <trkpt lat="40.7933109573317" lon="-4.12027151443078">
        <time>2024-01-11T01:25:41Z</time>
      </trkpt>
      <trkpt lat="40.7932686114946" lon="-4.12035547275241">
        <time>2024-01-11T01:25:41Z</time>
      </trkpt>
      <trkpt lat="40.7932262655974" lon="-4.1204394309666">
        <time>2024-01-11T01:25:41Z</time>
      </trkpt>
      <trkpt lat="40.7931839196403" lon="-4.12052338907324">
        <time>2024-01-11T01:25:41Z</time>
      </trkpt>
      <trkpt lat="40.7931415736231" lon="-4.12060734707245">
        <time>2024-01-11T01:25:41Z</time>
      </trkpt>
      <trkpt lat="40.7930924779764" lon="-4.12070329825213">
        <time>2024-01-11T01:25:41Z</time>
      </trkpt>
      <trkpt lat="40.7930433822513" lon="-4.12079924928941">
        <time>2024-01-11T01:25:41Z</time>
      </trkpt>
      <trkpt lat="40.7929942864479" lon="-4.12089520018435">
        <time>2024-01-11T01:25:41Z</time>
      </trkpt>
      <trkpt lat="40.792945190566" lon="-4.1209911509369">
        <time>2024-01-11T01:25:41Z</time>
      </trkpt>
      <trkpt lat="40.7928960946059" lon="-4.12108710154712">
        <time>2024-01-11T01:25:41Z</time>
      </trkpt>
      <trkpt lat="40.7928469985673" lon="-4.12118305201489">
        <time>2024-01-11T01:25:41Z</time>
      </trkpt>
      <trkpt lat="40.7927979024504" lon="-4.12127900234032">
        <time>2024-01-11T01:25:41Z</time>
      </trkpt>
      <trkpt lat="40.7927587738876" lon="-4.12138120851484">
        <time>2024-01-11T01:25:41Z</time>
      </trkpt>
      <trkpt lat="40.7927196452355" lon="-4.12148341456782">
        <time>2024-01-11T01:25:41Z</time>
      </trkpt>
      <trkpt lat="40.7926805164942" lon="-4.12158562049916">
        <time>2024-01-11T01:25:41Z</time>
      </trkpt>
      <trkpt lat="40.7926413876637" lon="-4.12168782630903">
        <time>2024-01-11T01:25:41Z</time>
      </trkpt>
      <trkpt lat="40.792602258744" lon="-4.12179003199731">
        <time>2024-01-11T01:25:41Z</time>
      </trkpt>
      <trkpt lat="40.7925709140791" lon="-4.12187606086457">
        <time>2024-01-11T01:25:41Z</time>
      </trkpt>
      <trkpt lat="40.7925395693511" lon="-4.12196208964974">
        <time>2024-01-11T01:25:41Z</time>
      </trkpt>
      <trkpt lat="40.7925082245597" lon="-4.12204811835289">
        <time>2024-01-11T01:25:41Z</time>
      </trkpt>
      <trkpt lat="40.7924768797051" lon="-4.12213414697402">
        <time>2024-01-11T01:25:41Z</time>
      </trkpt>
      <trkpt lat="40.7924455347873" lon="-4.12222017551307">
        <time>2024-01-11T01:25:41Z</time>
      </trkpt>
      <trkpt lat="40.792396889802" lon="-4.12231410397379">
        <time>2024-01-11T01:25:41Z</time>
      </trkpt>
      <trkpt lat="40.7923482447416" lon="-4.12240803229645">
        <time>2024-01-11T01:25:41Z</time>
      </trkpt>
      <trkpt lat="40.7922995996061" lon="-4.12250196048103">
        <time>2024-01-11T01:25:41Z</time>
      </trkpt>
      <trkpt lat="40.7922509543956" lon="-4.12259588852754">
        <time>2024-01-11T01:25:41Z</time>
      </trkpt>
      <trkpt lat="40.79220230911" lon="-4.12268981643604">
        <time>2024-01-11T01:25:41Z</time>
      </trkpt>
      <trkpt lat="40.7921536637493" lon="-4.1227837442064">
        <time>2024-01-11T01:25:41Z</time>
      </trkpt>
      <trkpt lat="40.7921050183135" lon="-4.12287767183875">
        <time>2024-01-11T01:25:41Z</time>
      </trkpt>
      <trkpt lat="40.7920563728026" lon="-4.12297159933303">
        <time>2024-01-11T01:25:41Z</time>
      </trkpt>
      <trkpt lat="40.7920077272167" lon="-4.12306552668923">
        <time>2024-01-11T01:25:41Z</time>
      </trkpt>
      <trkpt lat="40.7919590815557" lon="-4.12315945390737">
        <time>2024-01-11T01:25:41Z</time>
      </trkpt>
      <trkpt lat="40.7919104358196" lon="-4.12325338098742">
        <time>2024-01-11T01:25:41Z</time>
      </trkpt>
      <trkpt lat="40.7918617900084" lon="-4.12334730792947">
        <time>2024-01-11T01:25:41Z</time>
      </trkpt>
      <trkpt lat="40.7918131441222" lon="-4.12344123473344">
        <time>2024-01-11T01:25:41Z</time>
      </trkpt>
      <trkpt lat="40.7917644981609" lon="-4.12353516139928">
        <time>2024-01-11T01:25:41Z</time>
      </trkpt>
      <trkpt lat="40.7917158521245" lon="-4.12362908792716">
        <time>2024-01-11T01:25:41Z</time>
      </trkpt>
      <trkpt lat="40.7916672060131" lon="-4.12372301431691">
        <time>2024-01-11T01:25:41Z</time>
      </trkpt>
      <trkpt lat="40.7916185598265" lon="-4.12381694056859">
        <time>2024-01-11T01:25:41Z</time>
      </trkpt>
      <trkpt lat="40.7915699135649" lon="-4.12391086668225">
        <time>2024-01-11T01:25:41Z</time>
      </trkpt>
      <trkpt lat="40.7915212672282" lon="-4.12400479265785">
        <time>2024-01-11T01:25:41Z</time>
      </trkpt>
      <trkpt lat="40.7914726208165" lon="-4.12409871849536">
        <time>2024-01-11T01:25:41Z</time>
      </trkpt>
      <trkpt lat="40.7914239743297" lon="-4.12419264419481">
        <time>2024-01-11T01:25:41Z</time>
      </trkpt>
      <trkpt lat="40.7913753277678" lon="-4.12428656975618">
        <time>2024-01-11T01:25:41Z</time>
      </trkpt>
      <trkpt lat="40.7913266811308" lon="-4.12438049517954">
        <time>2024-01-11T01:25:41Z</time>
      </trkpt>
      <trkpt lat="40.7912869664538" lon="-4.12448350604956">
        <time>2024-01-11T01:25:41Z</time>
      </trkpt>
      <trkpt lat="40.7912472516862" lon="-4.12458651679521">
        <time>2024-01-11T01:25:41Z</time>
      </trkpt>
      <trkpt lat="40.791207536828" lon="-4.12468952741659">
        <time>2024-01-11T01:25:41Z</time>
      </trkpt>
      <trkpt lat="40.7911678218791" lon="-4.12479253791361">
        <time>2024-01-11T01:25:41Z</time>
      </trkpt>
      <trkpt lat="40.7911281068395" lon="-4.12489554828625">
        <time>2024-01-11T01:25:41Z</time>
      </trkpt>
      <trkpt lat="40.7910883917094" lon="-4.12499855853463">
        <time>2024-01-11T01:25:41Z</time>
      </trkpt>
      <trkpt lat="40.7910486764886" lon="-4.12510156865864">
        <time>2024-01-11T01:25:41Z</time>
      </trkpt>
      <trkpt lat="40.7910089611772" lon="-4.12520457865833">
        <time>2024-01-11T01:25:41Z</time>
      </trkpt>
      <trkpt lat="40.7909692457751" lon="-4.12530758853365">
        <time>2024-01-11T01:25:41Z</time>
      </trkpt>
      <trkpt lat="40.7909295302825" lon="-4.12541059828465">
        <time>2024-01-11T01:25:41Z</time>
      </trkpt>
      <trkpt lat="40.7908898146991" lon="-4.12551360791133">
        <time>2024-01-11T01:25:41Z</time>
      </trkpt>
      <trkpt lat="40.7908500990252" lon="-4.1256166174137">
        <time>2024-01-11T01:25:41Z</time>
      </trkpt>
      <trkpt lat="40.7908103832606" lon="-4.12571962679169">
        <time>2024-01-11T01:25:41Z</time>
      </trkpt>
      <trkpt lat="40.7907734266133" lon="-4.12582259533434">
        <time>2024-01-11T01:25:41Z</time>
      </trkpt>
      <trkpt lat="40.7907364698754" lon="-4.1259255637612">
        <time>2024-01-11T01:25:41Z</time>
      </trkpt>
      <trkpt lat="40.7906995130468" lon="-4.12602853207221">
        <time>2024-01-11T01:25:41Z</time>
      </trkpt>
      <trkpt lat="40.7906625561276" lon="-4.12613150026744">
        <time>2024-01-11T01:25:41Z</time>
      </trkpt>
      <trkpt lat="40.7906255991177" lon="-4.12623446834681">
        <time>2024-01-11T01:25:41Z</time>
      </trkpt>
      <trkpt lat="40.7905886420172" lon="-4.12633743631034">
        <time>2024-01-11T01:25:41Z</time>
      </trkpt>
      <trkpt lat="40.7905516848261" lon="-4.12644040415802">
        <time>2024-01-11T01:25:41Z</time>
      </trkpt>
      <trkpt lat="40.7905147275444" lon="-4.12654337188985">
        <time>2024-01-11T01:25:41Z</time>
      </trkpt>
      <trkpt lat="40.790477770172" lon="-4.1266463395059">
        <time>2024-01-11T01:25:41Z</time>
      </trkpt>
      <trkpt lat="40.790440812709" lon="-4.1267493070061">
        <time>2024-01-11T01:25:41Z</time>
      </trkpt>
      <trkpt lat="40.7904038551553" lon="-4.12685227439045">
        <time>2024-01-11T01:25:41Z</time>
      </trkpt>
      <trkpt lat="40.7903668975111" lon="-4.12695524165901">
        <time>2024-01-11T01:25:41Z</time>
      </trkpt>
      <trkpt lat="40.7903299397762" lon="-4.12705820881172">
        <time>2024-01-11T01:25:41Z</time>
      </trkpt>
      <trkpt lat="40.7902929819507" lon="-4.12716117584859">
        <time>2024-01-11T01:25:41Z</time>
      </trkpt>
      <trkpt lat="40.7902560240345" lon="-4.12726414276961">
        <time>2024-01-11T01:25:41Z</time>
      </trkpt>
      <trkpt lat="40.7902273064519" lon="-4.127357344855">
        <time>2024-01-11T01:25:41Z</time>
      </trkpt>
      <trkpt lat="40.7901985887949" lon="-4.1274505468586">
        <time>2024-01-11T01:25:41Z</time>
      </trkpt>
      <trkpt lat="40.7901698710636" lon="-4.1275437487804">
        <time>2024-01-11T01:25:41Z</time>
      </trkpt>
      <trkpt lat="40.7901411532579" lon="-4.12763695062051">
        <time>2024-01-11T01:25:41Z</time>
      </trkpt>
      <trkpt lat="40.7901124353778" lon="-4.12773015237883">
        <time>2024-01-11T01:25:41Z</time>
      </trkpt>
      <trkpt lat="40.7900837174233" lon="-4.12782335405541">
        <time>2024-01-11T01:25:41Z</time>
      </trkpt>
      <trkpt lat="40.7900492818339" lon="-4.12793253081316">
        <time>2024-01-11T01:25:41Z</time>
      </trkpt>
      <trkpt lat="40.7900148461424" lon="-4.12804170745608">
        <time>2024-01-11T01:25:41Z</time>
      </trkpt>
      <trkpt lat="40.7899804103489" lon="-4.12815088398429">
        <time>2024-01-11T01:25:41Z</time>
      </trkpt>
      <trkpt lat="40.7899459744534" lon="-4.12826006039768">
        <time>2024-01-11T01:25:41Z</time>
      </trkpt>
      <trkpt lat="40.7899115384559" lon="-4.12836923669636">
        <time>2024-01-11T01:25:41Z</time>
      </trkpt>
      <trkpt lat="40.7898826456444" lon="-4.12847418816961">
        <time>2024-01-11T01:25:41Z</time>
      </trkpt>
      <trkpt lat="40.7898537527386" lon="-4.12857913954997">
        <time>2024-01-11T01:25:41Z</time>
      </trkpt>
      <trkpt lat="40.7898248597384" lon="-4.12868409083745">
        <time>2024-01-11T01:25:41Z</time>
      </trkpt>
      <trkpt lat="40.7897959666437" lon="-4.12878904203206">
        <time>2024-01-11T01:25:41Z</time>
      </trkpt>
      <trkpt lat="40.7897670734546" lon="-4.12889399313372">
        <time>2024-01-11T01:25:41Z</time>
      </trkpt>
      <trkpt lat="40.7897381801711" lon="-4.12899894414255">
        <time>2024-01-11T01:25:41Z</time>
      </trkpt>
      <trkpt lat="40.7897092867932" lon="-4.12910389505845">
        <time>2024-01-11T01:25:41Z</time>
      </trkpt>
      <trkpt lat="40.789667724054" lon="-4.12920090746241">
        <time>2024-01-11T01:25:41Z</time>
      </trkpt>
      <trkpt lat="40.7896261612347" lon="-4.12929791974415">
        <time>2024-01-11T01:25:41Z</time>
      </trkpt>
      <trkpt lat="40.789584598335" lon="-4.12939493190356">
        <time>2024-01-11T01:25:41Z</time>
      </trkpt>
      <trkpt lat="40.7895430353551" lon="-4.12949194394071">
        <time>2024-01-11T01:25:41Z</time>
      </trkpt>
      <trkpt lat="40.7895200907381" lon="-4.12960392699842">
        <time>2024-01-11T01:25:41Z</time>
      </trkpt>
      <trkpt lat="40.7894971460135" lon="-4.12971590997665">
        <time>2024-01-11T01:25:41Z</time>
      </trkpt>
      <trkpt lat="40.789474201181" lon="-4.12982789287549">
        <time>2024-01-11T01:25:41Z</time>
      </trkpt>
      <trkpt lat="40.7894760861533" lon="-4.12993964331844">
        <time>2024-01-11T01:25:41Z</time>
      </trkpt>
      <trkpt lat="40.7894779710174" lon="-4.1300513937652">
        <time>2024-01-11T01:25:41Z</time>
      </trkpt>
      <trkpt lat="40.789479855773" lon="-4.13016314421583">
        <time>2024-01-11T01:25:41Z</time>
      </trkpt>
      <trkpt lat="40.7894817404204" lon="-4.13027489467027">
        <time>2024-01-11T01:25:41Z</time>
      </trkpt>
      <trkpt lat="40.7894918063258" lon="-4.13037698401479">
        <time>2024-01-11T01:25:41Z</time>
      </trkpt>
      <trkpt lat="40.7895018721404" lon="-4.13047907338813">
        <time>2024-01-11T01:25:41Z</time>
      </trkpt>
      <trkpt lat="40.7895119378643" lon="-4.1305811627903">
        <time>2024-01-11T01:25:41Z</time>
      </trkpt>
      <trkpt lat="40.7895220034974" lon="-4.13068325222122">
        <time>2024-01-11T01:25:41Z</time>
      </trkpt>
      <trkpt lat="40.7895320690398" lon="-4.13078534168102">
        <time>2024-01-11T01:25:41Z</time>
      </trkpt>
      <trkpt lat="40.7895421344914" lon="-4.13088743116958">
        <time>2024-01-11T01:25:41Z</time>
      </trkpt>
      <trkpt lat="40.7895521998522" lon="-4.13098952068697">
        <time>2024-01-11T01:25:41Z</time>
      </trkpt>
      <trkpt lat="40.7895756825958" lon="-4.13110321013409">
        <time>2024-01-11T01:25:41Z</time>
      </trkpt>
      <trkpt lat="40.7895865503934" lon="-4.13119735795649">
        <time>2024-01-11T01:25:41Z</time>
      </trkpt>
      <trkpt lat="40.7896100329304" lon="-4.13131104753106">
        <time>2024-01-11T01:25:41Z</time>
      </trkpt>
      <trkpt lat="40.7896223390747" lon="-4.13138749118054">
        <time>2024-01-11T01:25:41Z</time>
      </trkpt>
      <trkpt lat="40.7896461301477" lon="-4.13144427894196">
        <time>2024-01-11T01:25:41Z</time>
      </trkpt>
      <trkpt lat="40.7896985695874" lon="-4.13141108631294">
        <time>2024-01-11T01:25:41Z</time>
      </trkpt>
      <trkpt lat="40.789743902008" lon="-4.13132066902604">
        <time>2024-01-11T01:25:41Z</time>
      </trkpt>
      <trkpt lat="40.789791396778" lon="-4.13124019993635">
        <time>2024-01-11T01:25:41Z</time>
      </trkpt>
      <trkpt lat="40.7898327590715" lon="-4.13117052944078">
        <time>2024-01-11T01:25:41Z</time>
      </trkpt>
      <trkpt lat="40.7898806617607" lon="-4.13104843820524">
        <time>2024-01-11T01:25:41Z</time>
      </trkpt>
      <trkpt lat="40.7899183162558" lon="-4.13097275759712">
        <time>2024-01-11T01:25:41Z</time>
      </trkpt>
      <trkpt lat="40.7899684200424" lon="-4.13085665039651">
        <time>2024-01-11T01:25:41Z</time>
      </trkpt>
      <trkpt lat="40.7900224062266" lon="-4.1307287149046">
        <time>2024-01-11T01:25:41Z</time>
      </trkpt>
      <trkpt lat="40.7900670237725" lon="-4.13063431992464">
        <time>2024-01-11T01:25:41Z</time>
      </trkpt>
      <trkpt lat="40.7901176765036" lon="-4.13053903602447">
        <time>2024-01-11T01:25:41Z</time>
      </trkpt>
      <trkpt lat="40.7901606904139" lon="-4.13045452525754">
        <time>2024-01-11T01:25:41Z</time>
      </trkpt>
      <trkpt lat="40.7901945785569" lon="-4.13037878011863">
        <time>2024-01-11T01:25:41Z</time>
      </trkpt>
      <trkpt lat="40.79022148403" lon="-4.13032373101734">
        <time>2024-01-11T01:25:41Z</time>
      </trkpt>
      <trkpt lat="40.7902460522314" lon="-4.13027657158421">
        <time>2024-01-11T01:25:41Z</time>
      </trkpt>
      <trkpt lat="40.7902790705759" lon="-4.13021270553855">
        <time>2024-01-11T01:25:41Z</time>
      </trkpt>
      <trkpt lat="40.7903198634969" lon="-4.13012419201759">
        <time>2024-01-11T01:25:41Z</time>
      </trkpt>
      <trkpt lat="40.790346642668" lon="-4.13008202578146">
        <time>2024-01-11T01:25:41Z</time>
      </trkpt>
      <trkpt lat="40.7904125820571" lon="-4.12996420330458">
        <time>2024-01-11T01:25:41Z</time>
      </trkpt>
      <trkpt lat="40.790476849964" lon="-4.12986320218602">
        <time>2024-01-11T01:25:41Z</time>
      </trkpt>
      <trkpt lat="40.7905378235974" lon="-4.12979088905017">
        <time>2024-01-11T01:25:41Z</time>
      </trkpt>
      <trkpt lat="40.7906023727421" lon="-4.12966114829684">
        <time>2024-01-11T01:25:41Z</time>
      </trkpt>
      <trkpt lat="40.7906587979809" lon="-4.12959173127694">
        <time>2024-01-11T01:25:41Z</time>
      </trkpt>
      <trkpt lat="40.7907185561058" lon="-4.12948966182514">
        <time>2024-01-11T01:25:41Z</time>
      </trkpt>
      <trkpt lat="40.7907887878248" lon="-4.12935654760443">
        <time>2024-01-11T01:25:41Z</time>
      </trkpt>
      <trkpt lat="40.790850629045" lon="-4.1293110101705">
        <time>2024-01-11T01:25:41Z</time>
      </trkpt>
      <trkpt lat="40.7908900989839" lon="-4.12931911281293">
        <time>2024-01-11T01:25:41Z</time>
      </trkpt>
      <trkpt lat="40.7909160582195" lon="-4.1293606866035">
        <time>2024-01-11T01:25:41Z</time>
      </trkpt>
      <trkpt lat="40.7909195556958" lon="-4.12942665925701">
        <time>2024-01-11T01:25:41Z</time>
      </trkpt>
      <trkpt lat="40.7909085598149" lon="-4.12947615541373">
        <time>2024-01-11T01:25:41Z</time>
      </trkpt>
      <trkpt lat="40.7908976010762" lon="-4.12955315804311">
        <time>2024-01-11T01:25:41Z</time>
      </trkpt>
      <trkpt lat="40.7908884330269" lon="-4.12964319988385">
        <time>2024-01-11T01:25:41Z</time>
      </trkpt>
      <trkpt lat="40.7908804122594" lon="-4.12976993473874">
        <time>2024-01-11T01:25:41Z</time>
      </trkpt>
      <trkpt lat="40.7908708752603" lon="-4.12989763503496">
        <time>2024-01-11T01:25:41Z</time>
      </trkpt>
      <trkpt lat="40.7908707258585" lon="-4.1299898120562">
        <time>2024-01-11T01:25:41Z</time>
      </trkpt>
      <trkpt lat="40.7908812918845" lon="-4.13014164145895">
        <time>2024-01-11T01:25:41Z</time>
      </trkpt>
      <trkpt lat="40.7908812741632" lon="-4.13029725612709">
        <time>2024-01-11T01:25:41Z</time>
      </trkpt>
      <trkpt lat="40.7908797831089" lon="-4.13037256037643">
        <time>2024-01-11T01:25:41Z</time>
      </trkpt>
      <trkpt lat="40.7908730251738" lon="-4.13052409599333">
        <time>2024-01-11T01:25:41Z</time>
      </trkpt>
      <trkpt lat="40.7908827541895" lon="-4.1306075199899">
        <time>2024-01-11T01:25:41Z</time>
      </trkpt>
      <trkpt lat="40.7909267361906" lon="-4.13065485151067">
        <time>2024-01-11T01:25:41Z</time>
      </trkpt>
      <trkpt lat="40.7909692560601" lon="-4.13063705344496">
        <time>2024-01-11T01:25:41Z</time>
      </trkpt>
      <trkpt lat="40.791003248729" lon="-4.13053885773724">
        <time>2024-01-11T01:25:41Z</time>
      </trkpt>
      <trkpt lat="40.7910372413154" lon="-4.13044066192782">
        <time>2024-01-11T01:25:41Z</time>
      </trkpt>
      <trkpt lat="40.7910712338194" lon="-4.13034246601672">
        <time>2024-01-11T01:25:41Z</time>
      </trkpt>
      <trkpt lat="40.7911104124945" lon="-4.13025127203452">
        <time>2024-01-11T01:25:41Z</time>
      </trkpt>
      <trkpt lat="40.7911495910985" lon="-4.13016007794403">
        <time>2024-01-11T01:25:41Z</time>
      </trkpt>
      <trkpt lat="40.7911887696317" lon="-4.13006888374514">
        <time>2024-01-11T01:25:41Z</time>
      </trkpt>
      <trkpt lat="40.7912279480939" lon="-4.12997768943791">
        <time>2024-01-11T01:25:41Z</time>
      </trkpt>
      <trkpt lat="40.7912802777267" lon="-4.12989052779028">
        <time>2024-01-11T01:25:41Z</time>
      </trkpt>
      <trkpt lat="40.791332607295" lon="-4.12980336600521">
        <time>2024-01-11T01:25:41Z</time>
      </trkpt>
      <trkpt lat="40.7913849367988" lon="-4.12971620408274">
        <time>2024-01-11T01:25:41Z</time>
      </trkpt>
      <trkpt lat="40.791437266238" lon="-4.12962904202277">
        <time>2024-01-11T01:25:41Z</time>
      </trkpt>
      <trkpt lat="40.7914895956128" lon="-4.12954187982536">
        <time>2024-01-11T01:25:41Z</time>
      </trkpt>
      <trkpt lat="40.791541924923" lon="-4.12945471749043">
        <time>2024-01-11T01:25:41Z</time>
      </trkpt>
      <trkpt lat="40.7915942541688" lon="-4.12936755501812">
        <time>2024-01-11T01:25:41Z</time>
      </trkpt>
      <trkpt lat="40.7916553146894" lon="-4.12929170492737">
        <time>2024-01-11T01:25:41Z</time>
      </trkpt>
      <trkpt lat="40.7917163751613" lon="-4.12921585469769">
        <time>2024-01-11T01:25:41Z</time>
      </trkpt>
      <trkpt lat="40.7917774355846" lon="-4.1291400043292">
        <time>2024-01-11T01:25:41Z</time>
      </trkpt>
      <trkpt lat="40.7918384959592" lon="-4.12906415382185">
        <time>2024-01-11T01:25:41Z</time>
      </trkpt>
      <trkpt lat="40.7918995562852" lon="-4.12898830317562">
        <time>2024-01-11T01:25:41Z</time>
      </trkpt>
      <trkpt lat="40.7919606165624" lon="-4.12891245239052">
        <time>2024-01-11T01:25:41Z</time>
      </trkpt>
      <trkpt lat="40.7920307835643" lon="-4.12884989306741">
        <time>2024-01-11T01:25:41Z</time>
      </trkpt>
      <trkpt lat="40.7921009505332" lon="-4.12878733361345">
        <time>2024-01-11T01:25:41Z</time>
      </trkpt>
      <trkpt lat="40.792171117469" lon="-4.12872477402868">
        <time>2024-01-11T01:25:41Z</time>
      </trkpt>
      <trkpt lat="40.7922412843718" lon="-4.12866221431307">
        <time>2024-01-11T01:25:41Z</time>
      </trkpt>
      <trkpt lat="40.7923087207933" lon="-4.12860143825884">
        <time>2024-01-11T01:25:41Z</time>
      </trkpt>
      <trkpt lat="40.7923761571835" lon="-4.12854066208246">
        <time>2024-01-11T01:25:41Z</time>
      </trkpt>
      <trkpt lat="40.7924435935426" lon="-4.12847988578386">
        <time>2024-01-11T01:25:41Z</time>
      </trkpt>
      <trkpt lat="40.7925110298706" lon="-4.12841910936311">
        <time>2024-01-11T01:25:41Z</time>
      </trkpt>
      <trkpt lat="40.7925784661673" lon="-4.12835833282015">
        <time>2024-01-11T01:25:41Z</time>
      </trkpt>
      <trkpt lat="40.7926459024329" lon="-4.12829755615502">
        <time>2024-01-11T01:25:41Z</time>
      </trkpt>
      <trkpt lat="40.7927133386673" lon="-4.12823677936769">
        <time>2024-01-11T01:25:41Z</time>
      </trkpt>
      <trkpt lat="40.7927798045165" lon="-4.12818294162259">
        <time>2024-01-11T01:25:41Z</time>
      </trkpt>
      <trkpt lat="40.7928462703412" lon="-4.12812910377108">
        <time>2024-01-11T01:25:41Z</time>
      </trkpt>
      <trkpt lat="40.7929127361416" lon="-4.1280752658131">
        <time>2024-01-11T01:25:41Z</time>
      </trkpt>
      <trkpt lat="40.7929792019174" lon="-4.12802142774865">
        <time>2024-01-11T01:25:41Z</time>
      </trkpt>
      <trkpt lat="40.7930456676687" lon="-4.12796758957774">
        <time>2024-01-11T01:25:41Z</time>
      </trkpt>
      <trkpt lat="40.7931121333957" lon="-4.12791375130036">
        <time>2024-01-11T01:25:41Z</time>
      </trkpt>
      <trkpt lat="40.7931785990981" lon="-4.12785991291651">
        <time>2024-01-11T01:25:41Z</time>
      </trkpt>
      <trkpt lat="40.793248559974" lon="-4.12781473029486">
        <time>2024-01-11T01:25:41Z</time>
      </trkpt>
      <trkpt lat="40.793315713579" lon="-4.12778616833144">
        <time>2024-01-11T01:25:41Z</time>
      </trkpt>
      <trkpt lat="40.7933793596846" lon="-4.12774858802975">
        <time>2024-01-11T01:25:41Z</time>
      </trkpt>
      <trkpt lat="40.7934421847773" lon="-4.12771793227885">
        <time>2024-01-11T01:25:41Z</time>
      </trkpt>
      <trkpt lat="40.7934990618001" lon="-4.12767924608122">
        <time>2024-01-11T01:25:41Z</time>
      </trkpt>
      <trkpt lat="40.7935673045249" lon="-4.1276338136123">
        <time>2024-01-11T01:25:41Z</time>
      </trkpt>
      <trkpt lat="40.793610536854" lon="-4.12760381736665">
        <time>2024-01-11T01:25:41Z</time>
      </trkpt>
      <trkpt lat="40.7936832502876" lon="-4.12756341649131">
        <time>2024-01-11T01:25:41Z</time>
      </trkpt>
      <trkpt lat="40.7937291139357" lon="-4.12753396028083">
        <time>2024-01-11T01:25:41Z</time>
      </trkpt>
      <trkpt lat="40.7937666198035" lon="-4.12751179678186">
        <time>2024-01-11T01:25:41Z</time>
      </trkpt>
      <trkpt lat="40.7938063852496" lon="-4.12748967148839">
        <time>2024-01-11T01:25:41Z</time>
      </trkpt>
      <trkpt lat="40.793958326447" lon="-4.127402799137">
        <time>2024-01-11T01:25:41Z</time>
      </trkpt>
      <trkpt lat="40.7940342853041" lon="-4.12734330170269">
        <time>2024-01-11T01:25:41Z</time>
      </trkpt>
      <trkpt lat="40.7940991615146" lon="-4.12728547631153">
        <time>2024-01-11T01:25:41Z</time>
      </trkpt>
      <trkpt lat="40.7942235277603" lon="-4.12720134328422">
        <time>2024-01-11T01:25:41Z</time>
      </trkpt>
      <trkpt lat="40.7943009344975" lon="-4.12714317887183">
        <time>2024-01-11T01:25:41Z</time>
      </trkpt>
      <trkpt lat="40.794386868376" lon="-4.12706037778726">
        <time>2024-01-11T01:25:41Z</time>
      </trkpt>
      <trkpt lat="40.7944707498001" lon="-4.12699488833555">
        <time>2024-01-11T01:25:41Z</time>
      </trkpt>
      <trkpt lat="40.7945520869694" lon="-4.12691993898212">
        <time>2024-01-11T01:25:41Z</time>
      </trkpt>
      <trkpt lat="40.7946013117027" lon="-4.1268548543833">
        <time>2024-01-11T01:25:41Z</time>
      </trkpt>
      <trkpt lat="40.7946587005486" lon="-4.12680229816812">
        <time>2024-01-11T01:25:41Z</time>
      </trkpt>
      <trkpt lat="40.7946967610543" lon="-4.12680046365676">
        <time>2024-01-11T01:25:41Z</time>
      </trkpt>
      <trkpt lat="40.7947167633646" lon="-4.12683499950214">
        <time>2024-01-11T01:25:41Z</time>
      </trkpt>
      <trkpt lat="40.7947215130251" lon="-4.12688860653229">
        <time>2024-01-11T01:25:41Z</time>
      </trkpt>
      <trkpt lat="40.7946971388403" lon="-4.12695460710079">
        <time>2024-01-11T01:25:41Z</time>
      </trkpt>
      <trkpt lat="40.7946544081704" lon="-4.12701038482144">
        <time>2024-01-11T01:25:41Z</time>
      </trkpt>
      <trkpt lat="40.7945991761761" lon="-4.12711204339677">
        <time>2024-01-11T01:25:41Z</time>
      </trkpt>
      <trkpt lat="40.7945320705466" lon="-4.12718247059354">
        <time>2024-01-11T01:25:41Z</time>
      </trkpt>
      <trkpt lat="40.7944837348892" lon="-4.12725953416947">
        <time>2024-01-11T01:25:41Z</time>
      </trkpt>
      <trkpt lat="40.7944273991607" lon="-4.12734935235301">
        <time>2024-01-11T01:25:41Z</time>
      </trkpt>
      <trkpt lat="40.7943710633637" lon="-4.12743917038421">
        <time>2024-01-11T01:25:41Z</time>
      </trkpt>
      <trkpt lat="40.7943147274983" lon="-4.12752898826295">
        <time>2024-01-11T01:25:41Z</time>
      </trkpt>
      <trkpt lat="40.7942671347849" lon="-4.12759711016071">
        <time>2024-01-11T01:25:41Z</time>
      </trkpt>
      <trkpt lat="40.7942195420322" lon="-4.12766523196103">
        <time>2024-01-11T01:25:41Z</time>
      </trkpt>
      <trkpt lat="40.7941719492401" lon="-4.12773335366387">
        <time>2024-01-11T01:25:41Z</time>
      </trkpt>
      <trkpt lat="40.7941243564087" lon="-4.12780147526923">
        <time>2024-01-11T01:25:41Z</time>
      </trkpt>
      <trkpt lat="40.7940737358552" lon="-4.12787393041083">
        <time>2024-01-11T01:25:41Z</time>
      </trkpt>
      <trkpt lat="40.7940231152573" lon="-4.12794638544216">
        <time>2024-01-11T01:25:41Z</time>
      </trkpt>
      <trkpt lat="40.7939724946148" lon="-4.12801884036327">
        <time>2024-01-11T01:25:41Z</time>
      </trkpt>
      <trkpt lat="40.7939218739279" lon="-4.1280912951741">
        <time>2024-01-11T01:25:41Z</time>
      </trkpt>
      <trkpt lat="40.7938649632256" lon="-4.12816427638359">
        <time>2024-01-11T01:25:41Z</time>
      </trkpt>
      <trkpt lat="40.7938080524783" lon="-4.12823725746847">
        <time>2024-01-11T01:25:41Z</time>
      </trkpt>
      <trkpt lat="40.7937511416858" lon="-4.12831023842875">
        <time>2024-01-11T01:25:41Z</time>
      </trkpt>
      <trkpt lat="40.7936942308483" lon="-4.12838321926438">
        <time>2024-01-11T01:25:41Z</time>
      </trkpt>
      <trkpt lat="40.7936371077381" lon="-4.12845647212908">
        <time>2024-01-11T01:25:41Z</time>
      </trkpt>
      <trkpt lat="40.7935799845825" lon="-4.12852972486815">
        <time>2024-01-11T01:25:41Z</time>
      </trkpt>
      <trkpt lat="40.7935228613815" lon="-4.12860297748176">
        <time>2024-01-11T01:25:41Z</time>
      </trkpt>
      <trkpt lat="40.7934657381351" lon="-4.12867622996981">
        <time>2024-01-11T01:25:41Z</time>
      </trkpt>
      <trkpt lat="40.7934136615394" lon="-4.12876794290145">
        <time>2024-01-11T01:25:41Z</time>
      </trkpt>
      <trkpt lat="40.7933615848723" lon="-4.12885965568899">
        <time>2024-01-11T01:25:41Z</time>
      </trkpt>
      <trkpt lat="40.7933095081337" lon="-4.12895136833248">
        <time>2024-01-11T01:25:41Z</time>
      </trkpt>
      <trkpt lat="40.7932776281893" lon="-4.12900751215233">
        <time>2024-01-11T01:25:41Z</time>
      </trkpt>
      <trkpt lat="40.79325762714" lon="-4.12906533767302">
        <time>2024-01-11T01:25:41Z</time>
      </trkpt>
      <trkpt lat="40.7932216854863" lon="-4.1291547154811">
        <time>2024-01-11T01:25:41Z</time>
      </trkpt>
      <trkpt lat="40.7931976226833" lon="-4.12924577497688">
        <time>2024-01-11T01:25:41Z</time>
      </trkpt>
      <trkpt lat="40.7931735598092" lon="-4.12933683440542">
        <time>2024-01-11T01:25:41Z</time>
      </trkpt>
      <trkpt lat="40.7931530161849" lon="-4.12941457592041">
        <time>2024-01-11T01:25:41Z</time>
      </trkpt>
      <trkpt lat="40.7931324725087" lon="-4.12949231738634">
        <time>2024-01-11T01:25:41Z</time>
      </trkpt>
      <trkpt lat="40.7931037028133" lon="-4.1295523881943">
        <time>2024-01-11T01:25:41Z</time>
      </trkpt>
      <trkpt lat="40.7930840288298" lon="-4.12963829008024">
        <time>2024-01-11T01:25:41Z</time>
      </trkpt>
      <trkpt lat="40.7930683305147" lon="-4.12977976711101">
        <time>2024-01-11T01:25:41Z</time>
      </trkpt>
      <trkpt lat="40.7930663817202" lon="-4.12990218383226">
        <time>2024-01-11T01:25:41Z</time>
      </trkpt>
      <trkpt lat="40.7930610658756" lon="-4.12998506506847">
        <time>2024-01-11T01:25:41Z</time>
      </trkpt>
      <trkpt lat="40.7930557499716" lon="-4.13006794629013">
        <time>2024-01-11T01:25:41Z</time>
      </trkpt>
      <trkpt lat="40.7930628680352" lon="-4.13010677400851">
        <time>2024-01-11T01:25:41Z</time>
      </trkpt>
      <trkpt lat="40.7930826509395" lon="-4.13016360850693">
        <time>2024-01-11T01:25:41Z</time>
      </trkpt>
      <trkpt lat="40.793111384764" lon="-4.1302295157455">
        <time>2024-01-11T01:25:41Z</time>
      </trkpt>
      <trkpt lat="40.7931727000453" lon="-4.1302761514044">
        <time>2024-01-11T01:25:41Z</time>
      </trkpt>
      <trkpt lat="40.7932514746821" lon="-4.13030920629563">
        <time>2024-01-11T01:25:41Z</time>
      </trkpt>
      <trkpt lat="40.7933136402139" lon="-4.13034594440726">
        <time>2024-01-11T01:25:41Z</time>
      </trkpt>
      <trkpt lat="40.7933848343444" lon="-4.13038382694949">
        <time>2024-01-11T01:25:41Z</time>
      </trkpt>
      <trkpt lat="40.7934477918822" lon="-4.13041661377643">
        <time>2024-01-11T01:25:41Z</time>
      </trkpt>
      <trkpt lat="40.7934964678646" lon="-4.13044618475283">
        <time>2024-01-11T01:25:41Z</time>
      </trkpt>
      <trkpt lat="40.7935654315084" lon="-4.13048105601854">
        <time>2024-01-11T01:25:41Z</time>
      </trkpt>
      <trkpt lat="40.793644060413" lon="-4.13052897717352">
        <time>2024-01-11T01:25:41Z</time>
      </trkpt>
      <trkpt lat="40.7936597415206" lon="-4.13054312027">
        <time>2024-01-11T01:25:41Z</time>
      </trkpt>
      <trkpt lat="40.7936777113399" lon="-4.13055432854213">
        <time>2024-01-11T01:25:41Z</time>
      </trkpt>
      <trkpt lat="40.7938094576043" lon="-4.13063982624817">
        <time>2024-01-11T01:25:41Z</time>
      </trkpt>
      <trkpt lat="40.793837826439" lon="-4.13066607933957">
        <time>2024-01-11T01:25:41Z</time>
      </trkpt>
      <trkpt lat="40.7939067123072" lon="-4.13070887948476">
        <time>2024-01-11T01:25:41Z</time>
      </trkpt>
      <trkpt lat="40.7939936553706" lon="-4.1307539685662">
        <time>2024-01-11T01:25:41Z</time>
      </trkpt>
      <trkpt lat="40.7941061487043" lon="-4.13080543868531">
        <time>2024-01-11T01:25:41Z</time>
      </trkpt>
      <trkpt lat="40.7942425110592" lon="-4.13088110351196">
        <time>2024-01-11T01:25:41Z</time>
      </trkpt>
      <trkpt lat="40.7943620117019" lon="-4.13090062584451">
        <time>2024-01-11T01:25:41Z</time>
      </trkpt>
      <trkpt lat="40.7944116765377" lon="-4.13092884949782">
        <time>2024-01-11T01:25:41Z</time>
      </trkpt>
      <trkpt lat="40.7944613413657" lon="-4.13095707319394">
        <time>2024-01-11T01:25:41Z</time>
      </trkpt>
      <trkpt lat="40.7945388969023" lon="-4.13100975379524">
        <time>2024-01-11T01:25:41Z</time>
      </trkpt>
      <trkpt lat="40.7946164524121" lon="-4.13106243452075">
        <time>2024-01-11T01:25:41Z</time>
      </trkpt>
      <trkpt lat="40.7946940078952" lon="-4.13111511537039">
        <time>2024-01-11T01:25:41Z</time>
      </trkpt>
      <trkpt lat="40.7947684448913" lon="-4.13117959676396">
        <time>2024-01-11T01:25:41Z</time>
      </trkpt>
      <trkpt lat="40.7948428818485" lon="-4.1312440783027">
        <time>2024-01-11T01:25:41Z</time>
      </trkpt>
      <trkpt lat="40.7949173187668" lon="-4.13130855998657">
        <time>2024-01-11T01:25:41Z</time>
      </trkpt>
      <trkpt lat="40.7949564420967" lon="-4.13136405771752">
        <time>2024-01-11T01:25:41Z</time>
      </trkpt>
      <trkpt lat="40.795016124139" lon="-4.13142355413337">
        <time>2024-01-11T01:25:41Z</time>
      </trkpt>
      <trkpt lat="40.7950622778335" lon="-4.13147984722759">
        <time>2024-01-11T01:25:41Z</time>
      </trkpt>
      <trkpt lat="40.795126304011" lon="-4.13155725995209">
        <time>2024-01-11T01:25:41Z</time>
      </trkpt>
      <trkpt lat="40.7952299091272" lon="-4.13167003845908">
        <time>2024-01-11T01:25:41Z</time>
      </trkpt>
      <trkpt lat="40.7952984737707" lon="-4.13174554615739">
        <time>2024-01-11T01:25:41Z</time>
      </trkpt>
      <trkpt lat="40.7953539183871" lon="-4.1317762251609">
        <time>2024-01-11T01:25:41Z</time>
      </trkpt>
      <trkpt lat="40.7953903827414" lon="-4.13174512464015">
        <time>2024-01-11T01:25:41Z</time>
      </trkpt>
      <trkpt lat="40.7953893527078" lon="-4.13169653613421">
        <time>2024-01-11T01:25:41Z</time>
      </trkpt>
      <trkpt lat="40.7953831183494" lon="-4.13164092053209">
        <time>2024-01-11T01:25:41Z</time>
      </trkpt>
      <trkpt lat="40.7953284415898" lon="-4.13153194637142">
        <time>2024-01-11T01:25:41Z</time>
      </trkpt>
      <trkpt lat="40.7952946305898" lon="-4.1314461252763">
        <time>2024-01-11T01:25:41Z</time>
      </trkpt>
      <trkpt lat="40.795253384778" lon="-4.1313502656083">
        <time>2024-01-11T01:25:41Z</time>
      </trkpt>
      <trkpt lat="40.7952136647055" lon="-4.13125244947565">
        <time>2024-01-11T01:25:41Z</time>
      </trkpt>
      <trkpt lat="40.7951724770285" lon="-4.13115064357947">
        <time>2024-01-11T01:25:41Z</time>
      </trkpt>
      <trkpt lat="40.795126974128" lon="-4.13102794849892">
        <time>2024-01-11T01:25:41Z</time>
      </trkpt>
      <trkpt lat="40.7950902665488" lon="-4.13093018387072">
        <time>2024-01-11T01:25:41Z</time>
      </trkpt>
      <trkpt lat="40.7950550944126" lon="-4.13082947168609">
        <time>2024-01-11T01:25:41Z</time>
      </trkpt>
      <trkpt lat="40.7950189944918" lon="-4.13073619195461">
        <time>2024-01-11T01:25:41Z</time>
      </trkpt>
      <trkpt lat="40.7949693229699" lon="-4.13064730383275">
        <time>2024-01-11T01:25:41Z</time>
      </trkpt>
      <trkpt lat="40.7949196513774" lon="-4.1305584158427">
        <time>2024-01-11T01:25:41Z</time>
      </trkpt>
      <trkpt lat="40.7948699797142" lon="-4.13046952798448">
        <time>2024-01-11T01:25:41Z</time>
      </trkpt>
      <trkpt lat="40.7948203079804" lon="-4.13038064025801">
        <time>2024-01-11T01:25:41Z</time>
      </trkpt>
      <trkpt lat="40.7947706361759" lon="-4.13029175266343">
        <time>2024-01-11T01:25:41Z</time>
      </trkpt>
      <trkpt lat="40.794730502276" lon="-4.13020543252433">
        <time>2024-01-11T01:25:41Z</time>
      </trkpt>
      <trkpt lat="40.7947083247603" lon="-4.13011375074058">
        <time>2024-01-11T01:25:41Z</time>
      </trkpt>
      <trkpt lat="40.7946956851505" lon="-4.1300246363129">
        <time>2024-01-11T01:25:41Z</time>
      </trkpt>
      <trkpt lat="40.7946903367801" lon="-4.12992224937704">
        <time>2024-01-11T01:25:41Z</time>
      </trkpt>
      <trkpt lat="40.7946939610079" lon="-4.12985986303205">
        <time>2024-01-11T01:25:41Z</time>
      </trkpt>
      <trkpt lat="40.7947053462592" lon="-4.1298116307753">
        <time>2024-01-11T01:25:41Z</time>
      </trkpt>
      <trkpt lat="40.7947472906083" lon="-4.12974112638705">
        <time>2024-01-11T01:25:41Z</time>
      </trkpt>
      <trkpt lat="40.7948133127555" lon="-4.12967256046657">
        <time>2024-01-11T01:25:41Z</time>
      </trkpt>
      <trkpt lat="40.7948765749784" lon="-4.1295973076218">
        <time>2024-01-11T01:25:41Z</time>
      </trkpt>
      <trkpt lat="40.7949359838633" lon="-4.12953091046664">
        <time>2024-01-11T01:25:41Z</time>
      </trkpt>
      <trkpt lat="40.7949778946232" lon="-4.12948205891511">
        <time>2024-01-11T01:25:41Z</time>
      </trkpt>
      <trkpt lat="40.7949999603818" lon="-4.12945963441559">
        <time>2024-01-11T01:25:41Z</time>
      </trkpt>
      <trkpt lat="40.7950693450303" lon="-4.12937457252065">
        <time>2024-01-11T01:25:41Z</time>
      </trkpt>
      <trkpt lat="40.79515383229" lon="-4.12928580142532">
        <time>2024-01-11T01:25:41Z</time>
      </trkpt>
      <trkpt lat="40.7952385134767" lon="-4.12917720853259">
        <time>2024-01-11T01:25:41Z</time>
      </trkpt>
      <trkpt lat="40.7952933447702" lon="-4.12911668054696">
        <time>2024-01-11T01:25:41Z</time>
      </trkpt>
      <trkpt lat="40.7953223443828" lon="-4.12907851340153">
        <time>2024-01-11T01:25:41Z</time>
      </trkpt>
      <trkpt lat="40.7953658001363" lon="-4.12902572248384">
        <time>2024-01-11T01:25:41Z</time>
      </trkpt>
      <trkpt lat="40.7954213942437" lon="-4.1289642159378">
        <time>2024-01-11T01:25:41Z</time>
      </trkpt>
      <trkpt lat="40.7954890975998" lon="-4.12889696695582">
        <time>2024-01-11T01:25:41Z</time>
      </trkpt>
      <trkpt lat="40.7955476074469" lon="-4.12884542206047">
        <time>2024-01-11T01:25:41Z</time>
      </trkpt>
      <trkpt lat="40.7956289554859" lon="-4.12876948272752">
        <time>2024-01-11T01:25:41Z</time>
      </trkpt>
      <trkpt lat="40.7956806186649" lon="-4.12872476038855">
        <time>2024-01-11T01:25:41Z</time>
      </trkpt>
      <trkpt lat="40.7957768365935" lon="-4.12866889764234">
        <time>2024-01-11T01:25:41Z</time>
      </trkpt>
      <trkpt lat="40.7958369593721" lon="-4.12860647587627">
        <time>2024-01-11T01:25:41Z</time>
      </trkpt>
      <trkpt lat="40.7959092786288" lon="-4.12852939176462">
        <time>2024-01-11T01:25:41Z</time>
      </trkpt>
      <trkpt lat="40.795982157157" lon="-4.12847214204084">
        <time>2024-01-11T01:25:41Z</time>
      </trkpt>
      <trkpt lat="40.7960656772999" lon="-4.1284051598483">
        <time>2024-01-11T01:25:41Z</time>
      </trkpt>
      <trkpt lat="40.796152336182" lon="-4.12832534430229">
        <time>2024-01-11T01:25:41Z</time>
      </trkpt>
      <trkpt lat="40.7961874289335" lon="-4.12828034069889">
        <time>2024-01-11T01:25:41Z</time>
      </trkpt>
      <trkpt lat="40.7962217200155" lon="-4.12824027976327">
        <time>2024-01-11T01:25:41Z</time>
      </trkpt>
      <trkpt lat="40.7962648803083" lon="-4.12819376490933">
        <time>2024-01-11T01:25:41Z</time>
      </trkpt>
      <trkpt lat="40.7963275418912" lon="-4.12813971627145">
        <time>2024-01-11T01:25:41Z</time>
      </trkpt>
      <trkpt lat="40.7963902034494" lon="-4.12808566753268">
        <time>2024-01-11T01:25:41Z</time>
      </trkpt>
      <trkpt lat="40.7964658781954" lon="-4.12802372916116">
        <time>2024-01-11T01:25:41Z</time>
      </trkpt>
      <trkpt lat="40.796541552909" lon="-4.12796179065009">
        <time>2024-01-11T01:25:41Z</time>
      </trkpt>
      <trkpt lat="40.7966172275902" lon="-4.12789985199959">
        <time>2024-01-11T01:25:41Z</time>
      </trkpt>
      <trkpt lat="40.796680622829" lon="-4.12786536399534">
        <time>2024-01-11T01:25:41Z</time>
      </trkpt>
      <trkpt lat="40.7967440180576" lon="-4.12783087592663">
        <time>2024-01-11T01:25:41Z</time>
      </trkpt>
      <trkpt lat="40.7968109434981" lon="-4.12779736275093">
        <time>2024-01-11T01:25:41Z</time>
      </trkpt>
      <trkpt lat="40.796877868929" lon="-4.12776384950923">
        <time>2024-01-11T01:25:41Z</time>
      </trkpt>
      <trkpt lat="40.7969447943503" lon="-4.12773033620147">
        <time>2024-01-11T01:25:41Z</time>
      </trkpt>
      <trkpt lat="40.797011719762" lon="-4.12769682282766">
        <time>2024-01-11T01:25:41Z</time>
      </trkpt>
      <trkpt lat="40.7970918500373" lon="-4.12766170244146">
        <time>2024-01-11T01:25:41Z</time>
      </trkpt>
      <trkpt lat="40.797171980302" lon="-4.12762658197272">
        <time>2024-01-11T01:25:41Z</time>
      </trkpt>
      <trkpt lat="40.797252110556" lon="-4.12759146142145">
        <time>2024-01-11T01:25:41Z</time>
      </trkpt>
      <trkpt lat="40.7973322407994" lon="-4.12755634078764">
        <time>2024-01-11T01:25:41Z</time>
      </trkpt>
      <trkpt lat="40.7974153350906" lon="-4.12753403927184">
        <time>2024-01-11T01:25:41Z</time>
      </trkpt>
      <trkpt lat="40.7974984293771" lon="-4.12751173770266">
        <time>2024-01-11T01:25:41Z</time>
      </trkpt>
      <trkpt lat="40.7975815236589" lon="-4.12748943608011">
        <time>2024-01-11T01:25:41Z</time>
      </trkpt>
      <trkpt lat="40.7976646179359" lon="-4.12746713440419">
        <time>2024-01-11T01:25:41Z</time>
      </trkpt>
      <trkpt lat="40.7977477122081" lon="-4.12744483267494">
        <time>2024-01-11T01:25:41Z</time>
      </trkpt>
      <trkpt lat="40.7978361512064" lon="-4.12742973176774">
        <time>2024-01-11T01:25:41Z</time>
      </trkpt>
      <trkpt lat="40.7979245902019" lon="-4.12741463082313">
        <time>2024-01-11T01:25:41Z</time>
      </trkpt>
      <trkpt lat="40.7979932163863" lon="-4.12739741936685">
        <time>2024-01-11T01:25:41Z</time>
      </trkpt>
      <trkpt lat="40.7980618425678" lon="-4.12738020787669">
        <time>2024-01-11T01:25:41Z</time>
      </trkpt>
      <trkpt lat="40.7981304687463" lon="-4.12736299635259">
        <time>2024-01-11T01:25:41Z</time>
      </trkpt>
      <trkpt lat="40.798199094922" lon="-4.12734578479462">
        <time>2024-01-11T01:25:41Z</time>
      </trkpt>
      <trkpt lat="40.7982647706489" lon="-4.12730837056648">
        <time>2024-01-11T01:25:41Z</time>
      </trkpt>
      <trkpt lat="40.7983304463638" lon="-4.12727095626582">
        <time>2024-01-11T01:25:41Z</time>
      </trkpt>
      <trkpt lat="40.7983961220669" lon="-4.12723354189251">
        <time>2024-01-11T01:25:41Z</time>
      </trkpt>
      <trkpt lat="40.7984617977581" lon="-4.12719612744672">
        <time>2024-01-11T01:25:41Z</time>
      </trkpt>
      <trkpt lat="40.7985104130188" lon="-4.12713767977698">
        <time>2024-01-11T01:25:41Z</time>
      </trkpt>
      <trkpt lat="40.7985590282506" lon="-4.12707923202209">
        <time>2024-01-11T01:25:41Z</time>
      </trkpt>
      <trkpt lat="40.7986076434535" lon="-4.12702078418204">
        <time>2024-01-11T01:25:41Z</time>
      </trkpt>
      <trkpt lat="40.79866442984" lon="-4.12694389787913">
        <time>2024-01-11T01:25:41Z</time>
      </trkpt>
      <trkpt lat="40.7987212161764" lon="-4.12686701144509">
        <time>2024-01-11T01:25:41Z</time>
      </trkpt>
      <trkpt lat="40.7987780024627" lon="-4.12679012487991">
        <time>2024-01-11T01:25:41Z</time>
      </trkpt>
      <trkpt lat="40.798834788699" lon="-4.12671323818359">
        <time>2024-01-11T01:25:41Z</time>
      </trkpt>
      <trkpt lat="40.7988888551695" lon="-4.12665872311115">
        <time>2024-01-11T01:25:41Z</time>
      </trkpt>
      <trkpt lat="40.7989406820817" lon="-4.12659714769794">
        <time>2024-01-11T01:25:41Z</time>
      </trkpt>
      <trkpt lat="40.7989908670867" lon="-4.12654942261447">
        <time>2024-01-11T01:25:41Z</time>
      </trkpt>
      <trkpt lat="40.799035934553" lon="-4.12648575014087">
        <time>2024-01-11T01:25:41Z</time>
      </trkpt>
      <trkpt lat="40.7991000834193" lon="-4.12639662635966">
        <time>2024-01-11T01:25:41Z</time>
      </trkpt>
      <trkpt lat="40.7991379866535" lon="-4.12634140744268">
        <time>2024-01-11T01:25:41Z</time>
      </trkpt>
      <trkpt lat="40.799193609914" lon="-4.12630597760813">
        <time>2024-01-11T01:25:41Z</time>
      </trkpt>
      <trkpt lat="40.7992739565666" lon="-4.12625479982774">
        <time>2024-01-11T01:25:41Z</time>
      </trkpt>
      <trkpt lat="40.7993381537381" lon="-4.12624005988742">
        <time>2024-01-11T01:25:41Z</time>
      </trkpt>
      <trkpt lat="40.7994130391883" lon="-4.12623960404409">
        <time>2024-01-11T01:25:41Z</time>
      </trkpt>
      <trkpt lat="40.7994699432929" lon="-4.12624427023031">
        <time>2024-01-11T01:25:41Z</time>
      </trkpt>
      <trkpt lat="40.799532245515" lon="-4.12626713213072">
        <time>2024-01-11T01:25:41Z</time>
      </trkpt>
      <trkpt lat="40.7995910422514" lon="-4.12630183051191">
        <time>2024-01-11T01:25:41Z</time>
      </trkpt>
      <trkpt lat="40.799637150411" lon="-4.1263437492664">
        <time>2024-01-11T01:25:41Z</time>
      </trkpt>
      <trkpt lat="40.7996665024142" lon="-4.12638513697229">
        <time>2024-01-11T01:25:41Z</time>
      </trkpt>
      <trkpt lat="40.7996741980632" lon="-4.12640707587696">
        <time>2024-01-11T01:25:41Z</time>
      </trkpt>
      <trkpt lat="40.7996845589163" lon="-4.12642608591847">
        <time>2024-01-11T01:25:41Z</time>
      </trkpt>
      <trkpt lat="40.7997007324194" lon="-4.12646700305052">
        <time>2024-01-11T01:25:41Z</time>
      </trkpt>
      <trkpt lat="40.7997449078851" lon="-4.12657183751104">
        <time>2024-01-11T01:25:41Z</time>
      </trkpt>
      <trkpt lat="40.7998041550097" lon="-4.1267532579339">
        <time>2024-01-11T01:25:41Z</time>
      </trkpt>
      <trkpt lat="40.7998400741227" lon="-4.12685497917073">
        <time>2024-01-11T01:25:41Z</time>
      </trkpt>
      <trkpt lat="40.7998712783171" lon="-4.12694809856977">
        <time>2024-01-11T01:25:41Z</time>
      </trkpt>
      <trkpt lat="40.7999224596376" lon="-4.12701119922561">
        <time>2024-01-11T01:25:41Z</time>
      </trkpt>
      <trkpt lat="40.7999681111108" lon="-4.12708911205356">
        <time>2024-01-11T01:25:41Z</time>
      </trkpt>
      <trkpt lat="40.8000457073264" lon="-4.12716576464786">
        <time>2024-01-11T01:25:41Z</time>
      </trkpt>
      <trkpt lat="40.8000755155108" lon="-4.12719898234059">
        <time>2024-01-11T01:25:41Z</time>
      </trkpt>
      <trkpt lat="40.8001810185404" lon="-4.12727214209681">
        <time>2024-01-11T01:25:41Z</time>
      </trkpt>
      <trkpt lat="40.8002823122692" lon="-4.12731350868185">
        <time>2024-01-11T01:25:41Z</time>
      </trkpt>
      <trkpt lat="40.8003805447816" lon="-4.12735978019552">
        <time>2024-01-11T01:25:41Z</time>
      </trkpt>
      <trkpt lat="40.8004608749685" lon="-4.12738790513394">
        <time>2024-01-11T01:25:41Z</time>
      </trkpt>
      <trkpt lat="40.8005693348039" lon="-4.12738974044694">
        <time>2024-01-11T01:25:41Z</time>
      </trkpt>
      <trkpt lat="40.8006372577933" lon="-4.12737701128866">
        <time>2024-01-11T01:25:41Z</time>
      </trkpt>
      <trkpt lat="40.8007370860781" lon="-4.12733706488813">
        <time>2024-01-11T01:25:41Z</time>
      </trkpt>
      <trkpt lat="40.8008642811023" lon="-4.12727180692992">
        <time>2024-01-11T01:25:41Z</time>
      </trkpt>
      <trkpt lat="40.8009804118271" lon="-4.12720570360171">
        <time>2024-01-11T01:25:41Z</time>
      </trkpt>
      <trkpt lat="40.801059943077" lon="-4.127178677144">
        <time>2024-01-11T01:25:41Z</time>
      </trkpt>
      <trkpt lat="40.8011394743202" lon="-4.12715165062377">
        <time>2024-01-11T01:25:41Z</time>
      </trkpt>
      <trkpt lat="40.8012142449935" lon="-4.12713056620834">
        <time>2024-01-11T01:25:41Z</time>
      </trkpt>
      <trkpt lat="40.8012890156627" lon="-4.12710948174743">
        <time>2024-01-11T01:25:41Z</time>
      </trkpt>
      <trkpt lat="40.8013637863276" lon="-4.12708839724104">
        <time>2024-01-11T01:25:41Z</time>
      </trkpt>
      <trkpt lat="40.8014084298273" lon="-4.12709166910104">
        <time>2024-01-11T01:25:41Z</time>
      </trkpt>
      <trkpt lat="40.8014739866893" lon="-4.12708980416411">
        <time>2024-01-11T01:25:41Z</time>
      </trkpt>
      <trkpt lat="40.8015402676952" lon="-4.12709092548658">
        <time>2024-01-11T01:25:41Z</time>
      </trkpt>
      <trkpt lat="40.8016019908091" lon="-4.12709593505469">
        <time>2024-01-11T01:25:41Z</time>
      </trkpt>
      <trkpt lat="40.8016651815764" lon="-4.1271049348182">
        <time>2024-01-11T01:25:41Z</time>
      </trkpt>
      <trkpt lat="40.8017298690453" lon="-4.12711495126138">
        <time>2024-01-11T01:25:41Z</time>
      </trkpt>
      <trkpt lat="40.8017803039409" lon="-4.12711877855194">
        <time>2024-01-11T01:25:41Z</time>
      </trkpt>
      <trkpt lat="40.8018813286612" lon="-4.12711057430236">
        <time>2024-01-11T01:25:41Z</time>
      </trkpt>
      <trkpt lat="40.8019868338063" lon="-4.12710641120626">
        <time>2024-01-11T01:25:41Z</time>
      </trkpt>
      <trkpt lat="40.8020869891323" lon="-4.12711008835175">
        <time>2024-01-11T01:25:41Z</time>
      </trkpt>
      <trkpt lat="40.8021811866933" lon="-4.12710672529037">
        <time>2024-01-11T01:25:41Z</time>
      </trkpt>
      <trkpt lat="40.8022609864345" lon="-4.12711204076392">
        <time>2024-01-11T01:25:41Z</time>
      </trkpt>
      <trkpt lat="40.8023446005561" lon="-4.12711246404198">
        <time>2024-01-11T01:25:41Z</time>
      </trkpt>
      <trkpt lat="40.8024524136887" lon="-4.12710338323208">
        <time>2024-01-11T01:25:41Z</time>
      </trkpt>
      <trkpt lat="40.8025163770042" lon="-4.12711041350368">
        <time>2024-01-11T01:25:41Z</time>
      </trkpt>
      <trkpt lat="40.8025562478226" lon="-4.12711604482337">
        <time>2024-01-11T01:25:41Z</time>
      </trkpt>
      <trkpt lat="40.8025795871254" lon="-4.12711743104709">
        <time>2024-01-11T01:25:41Z</time>
      </trkpt>
      <trkpt lat="40.8026036893046" lon="-4.12711783882615">
        <time>2024-01-11T01:25:41Z</time>
      </trkpt>
      <trkpt lat="40.8026368491675" lon="-4.12711641714436">
        <time>2024-01-11T01:25:41Z</time>
      </trkpt>
      <trkpt lat="40.802657909524" lon="-4.12711974752059">
        <time>2024-01-11T01:25:41Z</time>
      </trkpt>
      <trkpt lat="40.8026906540566" lon="-4.12712228422846">
        <time>2024-01-11T01:25:41Z</time>
      </trkpt>
      <trkpt lat="40.8027218970444" lon="-4.12712429985739">
        <time>2024-01-11T01:25:41Z</time>
      </trkpt>
      <trkpt lat="40.8027896456874" lon="-4.12712941151672">
        <time>2024-01-11T01:25:41Z</time>
      </trkpt>
      <trkpt lat="40.8029550382832" lon="-4.12716393327059">
        <time>2024-01-11T01:25:41Z</time>
      </trkpt>
      <trkpt lat="40.8030910201992" lon="-4.12715580865033">
        <time>2024-01-11T01:25:41Z</time>
      </trkpt>
      <trkpt lat="40.803178315416" lon="-4.12714965078936">
        <time>2024-01-11T01:25:41Z</time>
      </trkpt>
      <trkpt lat="40.8032550221488" lon="-4.12714719896524">
        <time>2024-01-11T01:25:41Z</time>
      </trkpt>
      <trkpt lat="40.8034466817795" lon="-4.12711475263556">
        <time>2024-01-11T01:25:41Z</time>
      </trkpt>
      <trkpt lat="40.8035914788168" lon="-4.12709836651769">
        <time>2024-01-11T01:25:41Z</time>
      </trkpt>
      <trkpt lat="40.8036858506535" lon="-4.12707716172182">
        <time>2024-01-11T01:25:41Z</time>
      </trkpt>
      <trkpt lat="40.8037909124317" lon="-4.12704126717094">
        <time>2024-01-11T01:25:41Z</time>
      </trkpt>
      <trkpt lat="40.803891735833" lon="-4.12697655102046">
        <time>2024-01-11T01:25:41Z</time>
      </trkpt>
      <trkpt lat="40.8039804887476" lon="-4.12691361323335">
        <time>2024-01-11T01:25:41Z</time>
      </trkpt>
      <trkpt lat="40.8040611114061" lon="-4.12683467576129">
        <time>2024-01-11T01:25:41Z</time>
      </trkpt>
      <trkpt lat="40.8041166656698" lon="-4.12677712434324">
        <time>2024-01-11T01:25:41Z</time>
      </trkpt>
      <trkpt lat="40.8042157423847" lon="-4.12665983497545">
        <time>2024-01-11T01:25:41Z</time>
      </trkpt>
      <trkpt lat="40.8042684289789" lon="-4.12658736411897">
        <time>2024-01-11T01:25:41Z</time>
      </trkpt>
      <trkpt lat="40.8043272572142" lon="-4.12650310046709">
        <time>2024-01-11T01:25:41Z</time>
      </trkpt>
      <trkpt lat="40.8043852160634" lon="-4.12643071851801">
        <time>2024-01-11T01:25:41Z</time>
      </trkpt>
      <trkpt lat="40.8044476069317" lon="-4.12636733380459">
        <time>2024-01-11T01:25:41Z</time>
      </trkpt>
      <trkpt lat="40.8044963048162" lon="-4.12631759679025">
        <time>2024-01-11T01:25:41Z</time>
      </trkpt>
      <trkpt lat="40.8045733062536" lon="-4.1262237260424">
        <time>2024-01-11T01:25:41Z</time>
      </trkpt>
      <trkpt lat="40.804629971403" lon="-4.12612951129095">
        <time>2024-01-11T01:25:41Z</time>
      </trkpt>
      <trkpt lat="40.8046599070837" lon="-4.12607251712092">
        <time>2024-01-11T01:25:41Z</time>
      </trkpt>
      <trkpt lat="40.8047031017012" lon="-4.1259691519714">
        <time>2024-01-11T01:25:41Z</time>
      </trkpt>
      <trkpt lat="40.8047363112551" lon="-4.12588544561889">
        <time>2024-01-11T01:25:41Z</time>
      </trkpt>
      <trkpt lat="40.8047612549694" lon="-4.12579961671784">
        <time>2024-01-11T01:25:41Z</time>
      </trkpt>
      <trkpt lat="40.8048046427754" lon="-4.1256764267871">
        <time>2024-01-11T01:25:41Z</time>
      </trkpt>
      <trkpt lat="40.8048379488262" lon="-4.12558280793061">
        <time>2024-01-11T01:25:41Z</time>
      </trkpt>
      <trkpt lat="40.8048955793882" lon="-4.12546679806">
        <time>2024-01-11T01:25:41Z</time>
      </trkpt>
      <trkpt lat="40.8049536536288" lon="-4.12538251989448">
        <time>2024-01-11T01:25:41Z</time>
      </trkpt>
      <trkpt lat="40.8050041378675" lon="-4.12530406169713">
        <time>2024-01-11T01:25:41Z</time>
      </trkpt>
      <trkpt lat="40.8050598750716" lon="-4.12522767489239">
        <time>2024-01-11T01:25:41Z</time>
      </trkpt>
      <trkpt lat="40.8051141928419" lon="-4.12514234147331">
        <time>2024-01-11T01:25:41Z</time>
      </trkpt>
      <trkpt lat="40.8051722088536" lon="-4.12506401011422">
        <time>2024-01-11T01:25:41Z</time>
      </trkpt>
      <trkpt lat="40.8052204043038" lon="-4.12498848694205">
        <time>2024-01-11T01:25:41Z</time>
      </trkpt>
      <trkpt lat="40.8052912534945" lon="-4.12490739786375">
        <time>2024-01-11T01:25:41Z</time>
      </trkpt>
      <trkpt lat="40.8053577574236" lon="-4.12480839015069">
        <time>2024-01-11T01:25:41Z</time>
      </trkpt>
      <trkpt lat="40.8054259987484" lon="-4.12476942174009">
        <time>2024-01-11T01:25:41Z</time>
      </trkpt>
      <trkpt lat="40.8054618771761" lon="-4.12475314305873">
        <time>2024-01-11T01:25:41Z</time>
      </trkpt>
      <trkpt lat="40.805507256931" lon="-4.12477324151944">
        <time>2024-01-11T01:25:41Z</time>
      </trkpt>
      <trkpt lat="40.8055350906518" lon="-4.12485451031535">
        <time>2024-01-11T01:25:41Z</time>
      </trkpt>
      <trkpt lat="40.8055523171251" lon="-4.12490337965192">
        <time>2024-01-11T01:25:41Z</time>
      </trkpt>
      <trkpt lat="40.8055840516729" lon="-4.1250094993668">
        <time>2024-01-11T01:25:41Z</time>
      </trkpt>
      <trkpt lat="40.805608819678" lon="-4.12505750475553">
        <time>2024-01-11T01:25:41Z</time>
      </trkpt>
      <trkpt lat="40.8056531896112" lon="-4.12514252299902">
        <time>2024-01-11T01:25:41Z</time>
      </trkpt>
      <trkpt lat="40.8056579113603" lon="-4.12516044792339">
        <time>2024-01-11T01:25:41Z</time>
      </trkpt>
      <trkpt lat="40.8056716400064" lon="-4.12518174703535">
        <time>2024-01-11T01:25:41Z</time>
      </trkpt>
      <trkpt lat="40.8056896584223" lon="-4.12520733206317">
        <time>2024-01-11T01:25:41Z</time>
      </trkpt>
      <trkpt lat="40.8057026604523" lon="-4.12522589257368">
        <time>2024-01-11T01:25:41Z</time>
      </trkpt>
      <trkpt lat="40.8057390255136" lon="-4.1252820252336">
        <time>2024-01-11T01:25:41Z</time>
      </trkpt>
      <trkpt lat="40.8058036251321" lon="-4.12537829096743">
        <time>2024-01-11T01:25:41Z</time>
      </trkpt>
      <trkpt lat="40.8058846294331" lon="-4.1255690172219">
        <time>2024-01-11T01:25:41Z</time>
      </trkpt>
      <trkpt lat="40.8059347537196" lon="-4.12568189266932">
        <time>2024-01-11T01:25:41Z</time>
      </trkpt>
      <trkpt lat="40.8059925342769" lon="-4.12585933889683">
        <time>2024-01-11T01:25:41Z</time>
      </trkpt>
      <trkpt lat="40.8060083292451" lon="-4.12601624761312">
        <time>2024-01-11T01:25:41Z</time>
      </trkpt>
      <trkpt lat="40.8060161663226" lon="-4.12621664361959">
        <time>2024-01-11T01:25:41Z</time>
      </trkpt>
      <trkpt lat="40.8060392957916" lon="-4.12638015936119">
        <time>2024-01-11T01:25:41Z</time>
      </trkpt>
      <trkpt lat="40.8060361993056" lon="-4.12640237484949">
        <time>2024-01-11T01:25:41Z</time>
      </trkpt>
      <trkpt lat="40.8060382072569" lon="-4.12642818530575">
        <time>2024-01-11T01:25:41Z</time>
      </trkpt>
      <trkpt lat="40.806039065192" lon="-4.12649462387644">
        <time>2024-01-11T01:25:41Z</time>
      </trkpt>
      <trkpt lat="40.8060403683241" lon="-4.12651546539699">
        <time>2024-01-11T01:25:41Z</time>
      </trkpt>
      <trkpt lat="40.8060498966988" lon="-4.12661972396678">
        <time>2024-01-11T01:25:41Z</time>
      </trkpt>
      <trkpt lat="40.8060824157648" lon="-4.1267610534204">
        <time>2024-01-11T01:25:41Z</time>
      </trkpt>
      <trkpt lat="40.8061051160963" lon="-4.12682786153544">
        <time>2024-01-11T01:25:41Z</time>
      </trkpt>
      <trkpt lat="40.8061212022487" lon="-4.12687770391334">
        <time>2024-01-11T01:25:41Z</time>
      </trkpt>
      <trkpt lat="40.8061707269677" lon="-4.12697470810571">
        <time>2024-01-11T01:25:41Z</time>
      </trkpt>
      <trkpt lat="40.8062374878802" lon="-4.1270809267451">
        <time>2024-01-11T01:25:41Z</time>
      </trkpt>
      <trkpt lat="40.8063062392985" lon="-4.12713760888876">
        <time>2024-01-11T01:25:41Z</time>
      </trkpt>
      <trkpt lat="40.8063585172966" lon="-4.12718409829845">
        <time>2024-01-11T01:25:41Z</time>
      </trkpt>
      <trkpt lat="40.8064467160739" lon="-4.12725498949958">
        <time>2024-01-11T01:25:41Z</time>
      </trkpt>
      <trkpt lat="40.8065395889321" lon="-4.12731009741501">
        <time>2024-01-11T01:25:41Z</time>
      </trkpt>
      <trkpt lat="40.8067222442951" lon="-4.12742819272118">
        <time>2024-01-11T01:25:41Z</time>
      </trkpt>
      <trkpt lat="40.8068176983443" lon="-4.12749676282467">
        <time>2024-01-11T01:25:41Z</time>
      </trkpt>
      <trkpt lat="40.8068868522109" lon="-4.12755101086858">
        <time>2024-01-11T01:25:41Z</time>
      </trkpt>
      <trkpt lat="40.8069571192115" lon="-4.12759872636018">
        <time>2024-01-11T01:25:41Z</time>
      </trkpt>
      <trkpt lat="40.8070408566886" lon="-4.1276635947233">
        <time>2024-01-11T01:25:41Z</time>
      </trkpt>
      <trkpt lat="40.8071308328308" lon="-4.12770675763401">
        <time>2024-01-11T01:25:41Z</time>
      </trkpt>
      <trkpt lat="40.8072336848564" lon="-4.12778600842444">
        <time>2024-01-11T01:25:41Z</time>
      </trkpt>
      <trkpt lat="40.8072962885465" lon="-4.12785101305724">
        <time>2024-01-11T01:25:41Z</time>
      </trkpt>
      <trkpt lat="40.8073385729887" lon="-4.12787881670572">
        <time>2024-01-11T01:25:41Z</time>
      </trkpt>
      <trkpt lat="40.8073968761998" lon="-4.12792540946452">
        <time>2024-01-11T01:25:41Z</time>
      </trkpt>
      <trkpt lat="40.8074518758691" lon="-4.12800168910845">
        <time>2024-01-11T01:25:41Z</time>
      </trkpt>
      <trkpt lat="40.807509076854" lon="-4.12814560541677">
        <time>2024-01-11T01:25:41Z</time>
      </trkpt>
      <trkpt lat="40.8075591383007" lon="-4.12822213484759">
        <time>2024-01-11T01:25:41Z</time>
      </trkpt>
      <trkpt lat="40.8075780061407" lon="-4.1282764674808">
        <time>2024-01-11T01:25:41Z</time>
      </trkpt>
      <trkpt lat="40.8076120325286" lon="-4.12834049520321">
        <time>2024-01-11T01:25:41Z</time>
      </trkpt>
      <trkpt lat="40.8076431721506" lon="-4.12839158552605">
        <time>2024-01-11T01:25:41Z</time>
      </trkpt>
      <trkpt lat="40.8076884381789" lon="-4.12846175236153">
        <time>2024-01-11T01:25:41Z</time>
      </trkpt>
      <trkpt lat="40.8077994323491" lon="-4.12858954444337">
        <time>2024-01-11T01:25:41Z</time>
      </trkpt>
      <trkpt lat="40.8078985530286" lon="-4.12867645152585">
        <time>2024-01-11T01:25:41Z</time>
      </trkpt>
      <trkpt lat="40.8079581006739" lon="-4.12874854366521">
        <time>2024-01-11T01:25:41Z</time>
      </trkpt>
      <trkpt lat="40.8080176482718" lon="-4.12882063593367">
        <time>2024-01-11T01:25:41Z</time>
      </trkpt>
      <trkpt lat="40.8080771958223" lon="-4.12889272833127">
        <time>2024-01-11T01:25:41Z</time>
      </trkpt>
      <trkpt lat="40.8081367433255" lon="-4.12896482085791">
        <time>2024-01-11T01:25:41Z</time>
      </trkpt>
      <trkpt lat="40.8081962907813" lon="-4.12903691351369">
        <time>2024-01-11T01:25:41Z</time>
      </trkpt>
      <trkpt lat="40.8082137519253" lon="-4.12907121481278">
        <time>2024-01-11T01:25:41Z</time>
      </trkpt>
      <trkpt lat="40.8082418623475" lon="-4.12910465659251">
        <time>2024-01-11T01:25:41Z</time>
      </trkpt>
      <trkpt lat="40.8082539489152" lon="-4.12912047661294">
        <time>2024-01-11T01:25:41Z</time>
      </trkpt>
      <trkpt lat="40.8082561648333" lon="-4.12912497564328">
        <time>2024-01-11T01:25:41Z</time>
      </trkpt>
      <trkpt lat="40.8082578134318" lon="-4.12912971291572">
        <time>2024-01-11T01:25:41Z</time>
      </trkpt>
      <trkpt lat="40.8082770180457" lon="-4.12916870452676">
        <time>2024-01-11T01:25:41Z</time>
      </trkpt>
      <trkpt lat="40.8083581262967" lon="-4.12927120626292">
        <time>2024-01-11T01:25:41Z</time>
      </trkpt>
      <trkpt lat="40.8084025900569" lon="-4.12934631804971">
        <time>2024-01-11T01:25:41Z</time>
      </trkpt>
      <trkpt lat="40.8084732213901" lon="-4.12944170245783">
        <time>2024-01-11T01:25:41Z</time>
      </trkpt>
      <trkpt lat="40.8085274668222" lon="-4.12951797181123">
        <time>2024-01-11T01:25:41Z</time>
      </trkpt>
      <trkpt lat="40.8086587085802" lon="-4.12965503368063">
        <time>2024-01-11T01:25:41Z</time>
      </trkpt>
      <trkpt lat="40.8087503513535" lon="-4.12975870673665">
        <time>2024-01-11T01:25:41Z</time>
      </trkpt>
      <trkpt lat="40.808891019437" lon="-4.12985627160997">
        <time>2024-01-11T01:25:41Z</time>
      </trkpt>
      <trkpt lat="40.8090187084109" lon="-4.12997146277452">
        <time>2024-01-11T01:25:41Z</time>
      </trkpt>
      <trkpt lat="40.8090995579176" lon="-4.13002339834216">
        <time>2024-01-11T01:25:41Z</time>
      </trkpt>
      <trkpt lat="40.8092066622886" lon="-4.13008668546792">
        <time>2024-01-11T01:25:41Z</time>
      </trkpt>
      <trkpt lat="40.8092701786234" lon="-4.13013931866724">
        <time>2024-01-11T01:25:41Z</time>
      </trkpt>
      <trkpt lat="40.80933145478" lon="-4.13018993104921">
        <time>2024-01-11T01:25:41Z</time>
      </trkpt>
      <trkpt lat="40.8094030716489" lon="-4.13026153953488">
        <time>2024-01-11T01:25:41Z</time>
      </trkpt>
      <trkpt lat="40.8094532052697" lon="-4.13029609976156">
        <time>2024-01-11T01:25:41Z</time>
      </trkpt>
      <trkpt lat="40.809518752343" lon="-4.13029522922604">
        <time>2024-01-11T01:25:41Z</time>
      </trkpt>
      <trkpt lat="40.8095843091276" lon="-4.13029336739858">
        <time>2024-01-11T01:25:41Z</time>
      </trkpt>
      <trkpt lat="40.809618474671" lon="-4.13026618641379">
        <time>2024-01-11T01:25:41Z</time>
      </trkpt>
      <trkpt lat="40.8096529315499" lon="-4.13020926661924">
        <time>2024-01-11T01:25:41Z</time>
      </trkpt>
      <trkpt lat="40.8096822325904" lon="-4.13014036178298">
        <time>2024-01-11T01:25:41Z</time>
      </trkpt>
      <trkpt lat="40.8097000609364" lon="-4.13008910847296">
        <time>2024-01-11T01:25:41Z</time>
      </trkpt>
      <trkpt lat="40.8097193373838" lon="-4.13004382845647">
        <time>2024-01-11T01:25:41Z</time>
      </trkpt>
      <trkpt lat="40.8097402367096" lon="-4.12998667844184">
        <time>2024-01-11T01:25:41Z</time>
      </trkpt>
      <trkpt lat="40.8097644788703" lon="-4.12989587549016">
        <time>2024-01-11T01:25:41Z</time>
      </trkpt>
      <trkpt lat="40.8097887500838" lon="-4.12980209858623">
        <time>2024-01-11T01:25:41Z</time>
      </trkpt>
      <trkpt lat="40.8098114565967" lon="-4.12971424383279">
        <time>2024-01-11T01:25:41Z</time>
      </trkpt>
      <trkpt lat="40.8098342212811" lon="-4.12962044124423">
        <time>2024-01-11T01:25:41Z</time>
      </trkpt>
      <trkpt lat="40.8098652515857" lon="-4.12952876169186">
        <time>2024-01-11T01:25:41Z</time>
      </trkpt>
      <trkpt lat="40.8099023752834" lon="-4.12943024515649">
        <time>2024-01-11T01:25:41Z</time>
      </trkpt>
      <trkpt lat="40.8099405237923" lon="-4.12930398495611">
        <time>2024-01-11T01:25:41Z</time>
      </trkpt>
      <trkpt lat="40.809945828901" lon="-4.12922376649172">
        <time>2024-01-11T01:25:41Z</time>
      </trkpt>
      <trkpt lat="40.8099412896394" lon="-4.12907547354075">
        <time>2024-01-11T01:25:41Z</time>
      </trkpt>
      <trkpt lat="40.8099481767429" lon="-4.12898387249696">
        <time>2024-01-11T01:25:41Z</time>
      </trkpt>
      <trkpt lat="40.8099704461278" lon="-4.1289406256474">
        <time>2024-01-11T01:25:41Z</time>
      </trkpt>
      <trkpt lat="40.809991374433" lon="-4.12890238322388">
        <time>2024-01-11T01:25:41Z</time>
      </trkpt>
      <trkpt lat="40.8100147520549" lon="-4.12887792302706">
        <time>2024-01-11T01:25:41Z</time>
      </trkpt>
      <trkpt lat="40.8100558220942" lon="-4.12883796914257">
        <time>2024-01-11T01:25:41Z</time>
      </trkpt>
      <trkpt lat="40.810118156072" lon="-4.12878052923955">
        <time>2024-01-11T01:25:41Z</time>
      </trkpt>
      <trkpt lat="40.8101875306062" lon="-4.12869643897891">
        <time>2024-01-11T01:25:41Z</time>
      </trkpt>
      <trkpt lat="40.8102404027464" lon="-4.12860512863355">
        <time>2024-01-11T01:25:41Z</time>
      </trkpt>
      <trkpt lat="40.8102880024737" lon="-4.12851372880613">
        <time>2024-01-11T01:25:41Z</time>
      </trkpt>
      <trkpt lat="40.8103154921821" lon="-4.12845244635304">
        <time>2024-01-11T01:25:41Z</time>
      </trkpt>
      <trkpt lat="40.8103811752475" lon="-4.12839480794941">
        <time>2024-01-11T01:25:41Z</time>
      </trkpt>
      <trkpt lat="40.8104345611264" lon="-4.12839426143525">
        <time>2024-01-11T01:25:41Z</time>
      </trkpt>
      <trkpt lat="40.8104830950514" lon="-4.12836137374903">
        <time>2024-01-11T01:25:41Z</time>
      </trkpt>
      <trkpt lat="40.8105558862264" lon="-4.12831303343776">
        <time>2024-01-11T01:25:41Z</time>
      </trkpt>
      <trkpt lat="40.810639299624" lon="-4.12825694119294">
        <time>2024-01-11T01:25:41Z</time>
      </trkpt>
      <trkpt lat="40.8107091361549" lon="-4.12820260176584">
        <time>2024-01-11T01:25:41Z</time>
      </trkpt>
      <trkpt lat="40.8107794961125" lon="-4.12809473147396">
        <time>2024-01-11T01:25:41Z</time>
      </trkpt>
      <trkpt lat="40.8108423822076" lon="-4.12798078552">
        <time>2024-01-11T01:25:41Z</time>
      </trkpt>
      <trkpt lat="40.8108905899326" lon="-4.12787646233198">
        <time>2024-01-11T01:25:41Z</time>
      </trkpt>
      <trkpt lat="40.810942729671" lon="-4.12781594224601">
        <time>2024-01-11T01:25:41Z</time>
      </trkpt>
      <trkpt lat="40.8109948693784" lon="-4.12775542206544">
        <time>2024-01-11T01:25:41Z</time>
      </trkpt>
      <trkpt lat="40.8110528216419" lon="-4.12772259935688">
        <time>2024-01-11T01:25:41Z</time>
      </trkpt>
      <trkpt lat="40.8111096501808" lon="-4.1276888598537">
        <time>2024-01-11T01:25:41Z</time>
      </trkpt>
      <trkpt lat="40.8111680141625" lon="-4.12765217185137">
        <time>2024-01-11T01:25:41Z</time>
      </trkpt>
      <trkpt lat="40.8112270925674" lon="-4.12761946180647">
        <time>2024-01-11T01:25:41Z</time>
      </trkpt>
      <trkpt lat="40.8112853983932" lon="-4.12758872158807">
        <time>2024-01-11T01:25:41Z</time>
      </trkpt>
      <trkpt lat="40.8113452977937" lon="-4.1275490849513">
        <time>2024-01-11T01:25:41Z</time>
      </trkpt>
      <trkpt lat="40.8114279091966" lon="-4.12749793494784">
        <time>2024-01-11T01:25:41Z</time>
      </trkpt>
      <trkpt lat="40.8115082416259" lon="-4.12744872920943">
        <time>2024-01-11T01:25:41Z</time>
      </trkpt>
      <trkpt lat="40.8115886030972" lon="-4.12739654938649">
        <time>2024-01-11T01:25:41Z</time>
      </trkpt>
      <trkpt lat="40.8116719869998" lon="-4.12734342911446">
        <time>2024-01-11T01:25:41Z</time>
      </trkpt>
      <trkpt lat="40.8117497037419" lon="-4.12725352769475">
        <time>2024-01-11T01:25:41Z</time>
      </trkpt>
      <trkpt lat="40.8118118067802" lon="-4.1271425405185">
        <time>2024-01-11T01:25:41Z</time>
      </trkpt>
      <trkpt lat="40.8118551477066" lon="-4.12702429519079">
        <time>2024-01-11T01:25:41Z</time>
      </trkpt>
      <trkpt lat="40.8118875855377" lon="-4.12694255038245">
        <time>2024-01-11T01:25:41Z</time>
      </trkpt>
      <trkpt lat="40.8119271506196" lon="-4.12682523239437">
        <time>2024-01-11T01:25:41Z</time>
      </trkpt>
      <trkpt lat="40.8119738408673" lon="-4.12674967748751">
        <time>2024-01-11T01:25:41Z</time>
      </trkpt>
      <trkpt lat="40.8120141763599" lon="-4.1267077257249">
        <time>2024-01-11T01:25:41Z</time>
      </trkpt>
      <trkpt lat="40.8120491136362" lon="-4.12667857200104">
        <time>2024-01-11T01:25:41Z</time>
      </trkpt>
      <trkpt lat="40.8121183317841" lon="-4.12661033841392">
        <time>2024-01-11T01:25:41Z</time>
      </trkpt>
      <trkpt lat="40.8121895771401" lon="-4.12656593487028">
        <time>2024-01-11T01:25:41Z</time>
      </trkpt>
      <trkpt lat="40.8122806184312" lon="-4.12650005316274">
        <time>2024-01-11T01:25:41Z</time>
      </trkpt>
      <trkpt lat="40.8123412996987" lon="-4.12645745370411">
        <time>2024-01-11T01:25:41Z</time>
      </trkpt>
      <trkpt lat="40.812420464078" lon="-4.12637352383837">
        <time>2024-01-11T01:25:41Z</time>
      </trkpt>
      <trkpt lat="40.8124618526587" lon="-4.12630085289604">
        <time>2024-01-11T01:25:41Z</time>
      </trkpt>
      <trkpt lat="40.8125047282232" lon="-4.12623019001099">
        <time>2024-01-11T01:25:41Z</time>
      </trkpt>
      <trkpt lat="40.8125221887547" lon="-4.12613926724937">
        <time>2024-01-11T01:25:41Z</time>
      </trkpt>
      <trkpt lat="40.8125485267858" lon="-4.12599337694377">
        <time>2024-01-11T01:25:41Z</time>
      </trkpt>
      <trkpt lat="40.8125817438803" lon="-4.12590330550263">
        <time>2024-01-11T01:25:41Z</time>
      </trkpt>
      <trkpt lat="40.8126450015608" lon="-4.12584738075867">
        <time>2024-01-11T01:25:41Z</time>
      </trkpt>
      <trkpt lat="40.8127162449613" lon="-4.12582839284415">
        <time>2024-01-11T01:25:41Z</time>
      </trkpt>
      <trkpt lat="40.8127874883583" lon="-4.12580940489068">
        <time>2024-01-11T01:25:41Z</time>
      </trkpt>
      <trkpt lat="40.8128411142611" lon="-4.12580259102379">
        <time>2024-01-11T01:25:41Z</time>
      </trkpt>
      <trkpt lat="40.8128878702151" lon="-4.12579743240557">
        <time>2024-01-11T01:25:41Z</time>
      </trkpt>
      <trkpt lat="40.8129453836828" lon="-4.12577064248779">
        <time>2024-01-11T01:25:41Z</time>
      </trkpt>
      <trkpt lat="40.8130067501664" lon="-4.12573499408822">
        <time>2024-01-11T01:25:41Z</time>
      </trkpt>
      <trkpt lat="40.8131076308575" lon="-4.12566431923084">
        <time>2024-01-11T01:25:41Z</time>
      </trkpt>
      <trkpt lat="40.8131879590273" lon="-4.12557979047392">
        <time>2024-01-11T01:25:41Z</time>
      </trkpt>
      <trkpt lat="40.8132534431174" lon="-4.1255438365262">
        <time>2024-01-11T01:25:41Z</time>
      </trkpt>
      <trkpt lat="40.8133096822606" lon="-4.12549322841797">
        <time>2024-01-11T01:25:41Z</time>
      </trkpt>
      <trkpt lat="40.8133712807661" lon="-4.12543378718037">
        <time>2024-01-11T01:25:41Z</time>
      </trkpt>
      <trkpt lat="40.8134534378477" lon="-4.12535188842418">
        <time>2024-01-11T01:25:41Z</time>
      </trkpt>
      <trkpt lat="40.8135447008653" lon="-4.12526320272581">
        <time>2024-01-11T01:25:41Z</time>
      </trkpt>
      <trkpt lat="40.8136074371672" lon="-4.12531879622962">
        <time>2024-01-11T01:25:41Z</time>
      </trkpt>
      <trkpt lat="40.8136147944795" lon="-4.1253754370128">
        <time>2024-01-11T01:25:41Z</time>
      </trkpt>
      <trkpt lat="40.8135769983448" lon="-4.12546601778117">
        <time>2024-01-11T01:25:41Z</time>
      </trkpt>
      <trkpt lat="40.8135672258971" lon="-4.12548320415283">
        <time>2024-01-11T01:25:41Z</time>
      </trkpt>
      <trkpt lat="40.813554595126" lon="-4.12550381251642">
        <time>2024-01-11T01:25:41Z</time>
      </trkpt>
      <trkpt lat="40.8135269192447" lon="-4.12556085266128">
        <time>2024-01-11T01:25:41Z</time>
      </trkpt>
      <trkpt lat="40.813474792972" lon="-4.12565317400839">
        <time>2024-01-11T01:25:41Z</time>
      </trkpt>
      <trkpt lat="40.8134211795902" lon="-4.12574348704462">
        <time>2024-01-11T01:25:41Z</time>
      </trkpt>
      <trkpt lat="40.8133705982559" lon="-4.12583186816932">
        <time>2024-01-11T01:25:41Z</time>
      </trkpt>
      <trkpt lat="40.8133057627681" lon="-4.12599139703736">
        <time>2024-01-11T01:25:41Z</time>
      </trkpt>
      <trkpt lat="40.8132007613116" lon="-4.12612947911356">
        <time>2024-01-11T01:25:41Z</time>
      </trkpt>
      <trkpt lat="40.8131458939967" lon="-4.12621324150604">
        <time>2024-01-11T01:25:41Z</time>
      </trkpt>
      <trkpt lat="40.8130910266223" lon="-4.1262970037601">
        <time>2024-01-11T01:25:41Z</time>
      </trkpt>
      <trkpt lat="40.8130361591883" lon="-4.12638076587581">
        <time>2024-01-11T01:25:41Z</time>
      </trkpt>
      <trkpt lat="40.8129812916949" lon="-4.12646452785316">
        <time>2024-01-11T01:25:41Z</time>
      </trkpt>
      <trkpt lat="40.8129264241419" lon="-4.12654828969204">
        <time>2024-01-11T01:25:41Z</time>
      </trkpt>
      <trkpt lat="40.8128715565294" lon="-4.12663205139256">
        <time>2024-01-11T01:25:41Z</time>
      </trkpt>
      <trkpt lat="40.8128166888574" lon="-4.12671581295473">
        <time>2024-01-11T01:25:41Z</time>
      </trkpt>
      <trkpt lat="40.812757565842" lon="-4.12677409546393">
        <time>2024-01-11T01:25:41Z</time>
      </trkpt>
      <trkpt lat="40.8126984427979" lon="-4.12683237787013">
        <time>2024-01-11T01:25:41Z</time>
      </trkpt>
      <trkpt lat="40.8126393197252" lon="-4.12689066017345">
        <time>2024-01-11T01:25:41Z</time>
      </trkpt>
      <trkpt lat="40.8125801966237" lon="-4.1269489423737">
        <time>2024-01-11T01:25:41Z</time>
      </trkpt>
      <trkpt lat="40.8125327544186" lon="-4.1270410156215">
        <time>2024-01-11T01:25:41Z</time>
      </trkpt>
      <trkpt lat="40.8124853121414" lon="-4.12713308873725">
        <time>2024-01-11T01:25:41Z</time>
      </trkpt>
      <trkpt lat="40.812437869792" lon="-4.12722516172085">
        <time>2024-01-11T01:25:41Z</time>
      </trkpt>
      <trkpt lat="40.8123904273705" lon="-4.12731723457239">
        <time>2024-01-11T01:25:41Z</time>
      </trkpt>
      <trkpt lat="40.8123429848768" lon="-4.12740930729177">
        <time>2024-01-11T01:25:41Z</time>
      </trkpt>
      <trkpt lat="40.8122955423109" lon="-4.12750137987911">
        <time>2024-01-11T01:25:41Z</time>
      </trkpt>
      <trkpt lat="40.812245721442" lon="-4.12759538814493">
        <time>2024-01-11T01:25:41Z</time>
      </trkpt>
      <trkpt lat="40.8121959004979" lon="-4.12768939626921">
        <time>2024-01-11T01:25:41Z</time>
      </trkpt>
      <trkpt lat="40.8121460794786" lon="-4.12778340425189">
        <time>2024-01-11T01:25:41Z</time>
      </trkpt>
      <trkpt lat="40.8120962583841" lon="-4.12787741209303">
        <time>2024-01-11T01:25:41Z</time>
      </trkpt>
      <trkpt lat="40.8120464372145" lon="-4.12797141979263">
        <time>2024-01-11T01:25:41Z</time>
      </trkpt>
      <trkpt lat="40.8119966159696" lon="-4.12806542735064">
        <time>2024-01-11T01:25:41Z</time>
      </trkpt>
      <trkpt lat="40.8119467946496" lon="-4.1281594347671">
        <time>2024-01-11T01:25:41Z</time>
      </trkpt>
      <trkpt lat="40.8119055685601" lon="-4.12822987484322">
        <time>2024-01-11T01:25:41Z</time>
      </trkpt>
      <trkpt lat="40.8118643424285" lon="-4.12830031483179">
        <time>2024-01-11T01:25:41Z</time>
      </trkpt>
      <trkpt lat="40.8118274805115" lon="-4.12838505634915">
        <time>2024-01-11T01:25:41Z</time>
      </trkpt>
      <trkpt lat="40.8117906185332" lon="-4.12846979777174">
        <time>2024-01-11T01:25:41Z</time>
      </trkpt>
      <trkpt lat="40.8117537564937" lon="-4.12855453909958">
        <time>2024-01-11T01:25:41Z</time>
      </trkpt>
      <trkpt lat="40.8117501276524" lon="-4.12861633634191">
        <time>2024-01-11T01:25:41Z</time>
      </trkpt>
      <trkpt lat="40.8117767382394" lon="-4.12866834474617">
        <time>2024-01-11T01:25:41Z</time>
      </trkpt>
      <trkpt lat="40.8118209990377" lon="-4.12871637618938">
        <time>2024-01-11T01:25:41Z</time>
      </trkpt>
      <trkpt lat="40.8118559758903" lon="-4.12876245800385">
        <time>2024-01-11T01:25:41Z</time>
      </trkpt>
      <trkpt lat="40.8119439477123" lon="-4.12878167635029">
        <time>2024-01-11T01:25:41Z</time>
      </trkpt>
      <trkpt lat="40.811990429979" lon="-4.12879183090002">
        <time>2024-01-11T01:25:41Z</time>
      </trkpt>
      <trkpt lat="40.8120369122442" lon="-4.12880198546464">
        <time>2024-01-11T01:25:41Z</time>
      </trkpt>
      <trkpt lat="40.8121094953469" lon="-4.12881784207611">
        <time>2024-01-11T01:25:41Z</time>
      </trkpt>
      <trkpt lat="40.8121820784461" lon="-4.12883369872395">
        <time>2024-01-11T01:25:41Z</time>
      </trkpt>
      <trkpt lat="40.8122546615417" lon="-4.12884955540807">
        <time>2024-01-11T01:25:41Z</time>
      </trkpt>
      <trkpt lat="40.8123272446338" lon="-4.12886541212851">
        <time>2024-01-11T01:25:41Z</time>
      </trkpt>
      <trkpt lat="40.8123871351759" lon="-4.12888223598282">
        <time>2024-01-11T01:25:41Z</time>
      </trkpt>
      <trkpt lat="40.8124470257144" lon="-4.1288990598685">
        <time>2024-01-11T01:25:41Z</time>
      </trkpt>
      <trkpt lat="40.8125069162495" lon="-4.12891588378568">
        <time>2024-01-11T01:25:41Z</time>
      </trkpt>
      <trkpt lat="40.8125862828037" lon="-4.1289369900681">
        <time>2024-01-11T01:25:41Z</time>
      </trkpt>
      <trkpt lat="40.8126656493523" lon="-4.12895809640293">
        <time>2024-01-11T01:25:41Z</time>
      </trkpt>
      <trkpt lat="40.8127450158953" lon="-4.12897920279011">
        <time>2024-01-11T01:25:41Z</time>
      </trkpt>
      <trkpt lat="40.8128243824327" lon="-4.1290003092297">
        <time>2024-01-11T01:25:41Z</time>
      </trkpt>
      <trkpt lat="40.8129037489645" lon="-4.12902141572164">
        <time>2024-01-11T01:25:41Z</time>
      </trkpt>
      <trkpt lat="40.8129831154907" lon="-4.12904252226599">
        <time>2024-01-11T01:25:41Z</time>
      </trkpt>
      <trkpt lat="40.8130586651426" lon="-4.12908106676901">
        <time>2024-01-11T01:25:41Z</time>
      </trkpt>
      <trkpt lat="40.8131342147796" lon="-4.12911961136109">
        <time>2024-01-11T01:25:41Z</time>
      </trkpt>
      <trkpt lat="40.8132097644015" lon="-4.12915815604231">
        <time>2024-01-11T01:25:41Z</time>
      </trkpt>
      <trkpt lat="40.8132853140084" lon="-4.12919670081266">
        <time>2024-01-11T01:25:41Z</time>
      </trkpt>
      <trkpt lat="40.8133608636003" lon="-4.12923524567214">
        <time>2024-01-11T01:25:41Z</time>
      </trkpt>
      <trkpt lat="40.8134364131772" lon="-4.12927379062075">
        <time>2024-01-11T01:25:41Z</time>
      </trkpt>
      <trkpt lat="40.8135067031712" lon="-4.12932529369238">
        <time>2024-01-11T01:25:41Z</time>
      </trkpt>
      <trkpt lat="40.8135737002247" lon="-4.12938974146272">
        <time>2024-01-11T01:25:41Z</time>
      </trkpt>
      <trkpt lat="40.8136312632529" lon="-4.12945233716665">
        <time>2024-01-11T01:25:41Z</time>
      </trkpt>
      <trkpt lat="40.8136424713421" lon="-4.12946169879305">
        <time>2024-01-11T01:25:41Z</time>
      </trkpt>
      <trkpt lat="40.8136478713168" lon="-4.12946798736153">
        <time>2024-01-11T01:25:41Z</time>
      </trkpt>
      <trkpt lat="40.813676201402" lon="-4.12949821338442">
        <time>2024-01-11T01:25:41Z</time>
      </trkpt>
      <trkpt lat="40.8137484941337" lon="-4.12957776952202">
        <time>2024-01-11T01:25:41Z</time>
      </trkpt>
      <trkpt lat="40.813787889085" lon="-4.12963197978964">
        <time>2024-01-11T01:25:41Z</time>
      </trkpt>
      <trkpt lat="40.8138324689778" lon="-4.12969520175784">
        <time>2024-01-11T01:25:41Z</time>
      </trkpt>
      <trkpt lat="40.8138970160713" lon="-4.12979644034782">
        <time>2024-01-11T01:25:41Z</time>
      </trkpt>
      <trkpt lat="40.8139332330974" lon="-4.12986745281071">
        <time>2024-01-11T01:25:41Z</time>
      </trkpt>
      <trkpt lat="40.8139865695613" lon="-4.12995957779688">
        <time>2024-01-11T01:25:41Z</time>
      </trkpt>
      <trkpt lat="40.8140356975443" lon="-4.13001990278439">
        <time>2024-01-11T01:25:41Z</time>
      </trkpt>
      <trkpt lat="40.8140800344374" lon="-4.13010790921342">
        <time>2024-01-11T01:25:41Z</time>
      </trkpt>
      <trkpt lat="40.8141090355058" lon="-4.1302234181511">
        <time>2024-01-11T01:25:41Z</time>
      </trkpt>
      <trkpt lat="40.8141433626066" lon="-4.13041040735062">
        <time>2024-01-11T01:25:41Z</time>
      </trkpt>
      <trkpt lat="40.8141846345264" lon="-4.13053313807842">
        <time>2024-01-11T01:25:41Z</time>
      </trkpt>
      <trkpt lat="40.8142333004462" lon="-4.13062289043728">
        <time>2024-01-11T01:25:41Z</time>
      </trkpt>
      <trkpt lat="40.814281966294" lon="-4.13071264292648">
        <time>2024-01-11T01:25:41Z</time>
      </trkpt>
      <trkpt lat="40.8143419346564" lon="-4.1307747899084">
        <time>2024-01-11T01:25:41Z</time>
      </trkpt>
      <trkpt lat="40.8144019029831" lon="-4.13083693700276">
        <time>2024-01-11T01:25:41Z</time>
      </trkpt>
      <trkpt lat="40.8144618712743" lon="-4.13089908420949">
        <time>2024-01-11T01:25:41Z</time>
      </trkpt>
      <trkpt lat="40.8144849042472" lon="-4.1309189105638">
        <time>2024-01-11T01:25:41Z</time>
      </trkpt>
      <trkpt lat="40.8145111298593" lon="-4.13093323737128">
        <time>2024-01-11T01:25:41Z</time>
      </trkpt>
      <trkpt lat="40.8145738147424" lon="-4.13099379381117">
        <time>2024-01-11T01:25:41Z</time>
      </trkpt>
      <trkpt lat="40.8146163383975" lon="-4.13103616036024">
        <time>2024-01-11T01:25:41Z</time>
      </trkpt>
      <trkpt lat="40.8146788677039" lon="-4.13111257886964">
        <time>2024-01-11T01:25:41Z</time>
      </trkpt>
      <trkpt lat="40.8147443319533" lon="-4.13119697964663">
        <time>2024-01-11T01:25:41Z</time>
      </trkpt>
      <trkpt lat="40.8148007967389" lon="-4.13127726156564">
        <time>2024-01-11T01:25:41Z</time>
      </trkpt>
      <trkpt lat="40.8148744224022" lon="-4.13140256362692">
        <time>2024-01-11T01:25:41Z</time>
      </trkpt>
      <trkpt lat="40.814928968233" lon="-4.13147183981357">
        <time>2024-01-11T01:25:41Z</time>
      </trkpt>
      <trkpt lat="40.8149564971897" lon="-4.13153175696431">
        <time>2024-01-11T01:25:41Z</time>
      </trkpt>
      <trkpt lat="40.8149934760282" lon="-4.1316017929174">
        <time>2024-01-11T01:25:41Z</time>
      </trkpt>
      <trkpt lat="40.8150275198605" lon="-4.13166384676913">
        <time>2024-01-11T01:25:41Z</time>
      </trkpt>
      <trkpt lat="40.8150808159384" lon="-4.13175994018754">
        <time>2024-01-11T01:25:41Z</time>
      </trkpt>
      <trkpt lat="40.8151297873202" lon="-4.13183612947106">
        <time>2024-01-11T01:25:41Z</time>
      </trkpt>
      <trkpt lat="40.8152042503924" lon="-4.13192465066509">
        <time>2024-01-11T01:25:41Z</time>
      </trkpt>
      <trkpt lat="40.8152818234319" lon="-4.13200330951503">
        <time>2024-01-11T01:25:41Z</time>
      </trkpt>
      <trkpt lat="40.815361058449" lon="-4.13206613212601">
        <time>2024-01-11T01:25:41Z</time>
      </trkpt>
      <trkpt lat="40.8154811972872" lon="-4.13212818487688">
        <time>2024-01-11T01:25:41Z</time>
      </trkpt>
      <trkpt lat="40.8155466264067" lon="-4.13219253490832">
        <time>2024-01-11T01:25:41Z</time>
      </trkpt>
      <trkpt lat="40.8155555168254" lon="-4.13220454312534">
        <time>2024-01-11T01:25:41Z</time>
      </trkpt>
      <trkpt lat="40.8155716026541" lon="-4.13222042648314">
        <time>2024-01-11T01:25:41Z</time>
      </trkpt>
      <trkpt lat="40.8155961806264" lon="-4.13224910344694">
        <time>2024-01-11T01:25:41Z</time>
      </trkpt>
      <trkpt lat="40.8156297530858" lon="-4.13228239533413">
        <time>2024-01-11T01:25:41Z</time>
      </trkpt>
      <trkpt lat="40.8157139196845" lon="-4.13238000664603">
        <time>2024-01-11T01:25:41Z</time>
      </trkpt>
      <trkpt lat="40.8157791883228" lon="-4.13248423764634">
        <time>2024-01-11T01:25:41Z</time>
      </trkpt>
      <trkpt lat="40.8158401129149" lon="-4.1325705470724">
        <time>2024-01-11T01:25:41Z</time>
      </trkpt>
      <trkpt lat="40.8159013020404" lon="-4.13269284583373">
        <time>2024-01-11T01:25:41Z</time>
      </trkpt>
      <trkpt lat="40.8159464611423" lon="-4.13275661813458">
        <time>2024-01-11T01:25:41Z</time>
      </trkpt>
      <trkpt lat="40.8159817315343" lon="-4.13283428948705">
        <time>2024-01-11T01:25:41Z</time>
      </trkpt>
      <trkpt lat="40.8160170018727" lon="-4.13291196092109">
        <time>2024-01-11T01:25:41Z</time>
      </trkpt>
      <trkpt lat="40.8160522721575" lon="-4.13298963243659">
        <time>2024-01-11T01:25:41Z</time>
      </trkpt>
      <trkpt lat="40.8160875423887" lon="-4.13306730403361">
        <time>2024-01-11T01:25:41Z</time>
      </trkpt>
      <trkpt lat="40.8161228707889" lon="-4.13313904812509">
        <time>2024-01-11T01:25:41Z</time>
      </trkpt>
      <trkpt lat="40.8161581991432" lon="-4.13321079229206">
        <time>2024-01-11T01:25:41Z</time>
      </trkpt>
      <trkpt lat="40.8161898671918" lon="-4.13325356749892">
        <time>2024-01-11T01:25:41Z</time>
      </trkpt>
      <trkpt lat="40.8162215352237" lon="-4.13329634274647">
        <time>2024-01-11T01:25:41Z</time>
      </trkpt>
      <trkpt lat="40.8162654929656" lon="-4.13334971203159">
        <time>2024-01-11T01:25:41Z</time>
      </trkpt>
      <trkpt lat="40.8163094506816" lon="-4.13340308138732">
        <time>2024-01-11T01:25:41Z</time>
      </trkpt>
      <trkpt lat="40.8163692135368" lon="-4.13348380588963">
        <time>2024-01-11T01:25:41Z</time>
      </trkpt>
      <trkpt lat="40.8164289763329" lon="-4.13356453053678">
        <time>2024-01-11T01:25:41Z</time>
      </trkpt>
      <trkpt lat="40.8164899870634" lon="-4.13364694106406">
        <time>2024-01-11T01:25:41Z</time>
      </trkpt>
      <trkpt lat="40.8165509977324" lon="-4.13372935174232">
        <time>2024-01-11T01:25:41Z</time>
      </trkpt>
      <trkpt lat="40.8166120083399" lon="-4.13381176257156">
        <time>2024-01-11T01:25:41Z</time>
      </trkpt>
      <trkpt lat="40.8166730188859" lon="-4.13389417355171">
        <time>2024-01-11T01:25:41Z</time>
      </trkpt>
      <trkpt lat="40.8167332173365" lon="-4.13396797988065">
        <time>2024-01-11T01:25:41Z</time>
      </trkpt>
      <trkpt lat="40.8167934157376" lon="-4.13404178634323">
        <time>2024-01-11T01:25:41Z</time>
      </trkpt>
      <trkpt lat="40.816853614089" lon="-4.13411559293945">
        <time>2024-01-11T01:25:41Z</time>
      </trkpt>
      <trkpt lat="40.8168902147169" lon="-4.13418284510961">
        <time>2024-01-11T01:25:41Z</time>
      </trkpt>
      <trkpt lat="40.8169255977813" lon="-4.13426178149291">
        <time>2024-01-11T01:25:41Z</time>
      </trkpt>
      <trkpt lat="40.817017891736" lon="-4.13437540076735">
        <time>2024-01-11T01:25:41Z</time>
      </trkpt>
      <trkpt lat="40.8170944069987" lon="-4.13441082066061">
        <time>2024-01-11T01:25:41Z</time>
      </trkpt>
      <trkpt lat="40.8171546051021" lon="-4.13448462792502">
        <time>2024-01-11T01:25:41Z</time>
      </trkpt>
      <trkpt lat="40.8171935447037" lon="-4.13451609015226">
        <time>2024-01-11T01:25:41Z</time>
      </trkpt>
      <trkpt lat="40.817232484296" lon="-4.13454755241668">
        <time>2024-01-11T01:25:41Z</time>
      </trkpt>
      <trkpt lat="40.817286458351" lon="-4.13459116224317">
        <time>2024-01-11T01:25:41Z</time>
      </trkpt>
      <trkpt lat="40.8173404323881" lon="-4.134634772141">
        <time>2024-01-11T01:25:41Z</time>
      </trkpt>
      <trkpt lat="40.8173674301059" lon="-4.13468180208955">
        <time>2024-01-11T01:25:41Z</time>
      </trkpt>
      <trkpt lat="40.8174076635093" lon="-4.13472710849407">
        <time>2024-01-11T01:25:41Z</time>
      </trkpt>
      <trkpt lat="40.8174798744361" lon="-4.13481460603924">
        <time>2024-01-11T01:25:41Z</time>
      </trkpt>
      <trkpt lat="40.8175516441997" lon="-4.13487036585793">
        <time>2024-01-11T01:25:41Z</time>
      </trkpt>
      <trkpt lat="40.8176333809511" lon="-4.13490844731565">
        <time>2024-01-11T01:25:41Z</time>
      </trkpt>
      <trkpt lat="40.8177395127314" lon="-4.13496722175012">
        <time>2024-01-11T01:25:41Z</time>
      </trkpt>
      <trkpt lat="40.817806026021" lon="-4.13502263040897">
        <time>2024-01-11T01:25:41Z</time>
      </trkpt>
      <trkpt lat="40.8178694312278" lon="-4.13507782329521">
        <time>2024-01-11T01:25:41Z</time>
      </trkpt>
      <trkpt lat="40.8179015225954" lon="-4.13514207278542">
        <time>2024-01-11T01:25:41Z</time>
      </trkpt>
      <trkpt lat="40.8179238256038" lon="-4.13517220043241">
        <time>2024-01-11T01:25:41Z</time>
      </trkpt>
      <trkpt lat="40.8179540722251" lon="-4.13523716886603">
        <time>2024-01-11T01:25:41Z</time>
      </trkpt>
      <trkpt lat="40.8179910877527" lon="-4.1353032443565">
        <time>2024-01-11T01:25:41Z</time>
      </trkpt>
      <trkpt lat="40.8180346965526" lon="-4.13538827240926">
        <time>2024-01-11T01:25:41Z</time>
      </trkpt>
      <trkpt lat="40.8180630853789" lon="-4.13548890633954">
        <time>2024-01-11T01:25:41Z</time>
      </trkpt>
      <trkpt lat="40.8180839227091" lon="-4.13559139472794">
        <time>2024-01-11T01:25:41Z</time>
      </trkpt>
      <trkpt lat="40.8181144261527" lon="-4.13578329054982">
        <time>2024-01-11T01:25:41Z</time>
      </trkpt>
      <trkpt lat="40.8181050380503" lon="-4.13589517930028">
        <time>2024-01-11T01:25:41Z</time>
      </trkpt>
      <trkpt lat="40.8180896829059" lon="-4.13600101671389">
        <time>2024-01-11T01:25:41Z</time>
      </trkpt>
      <trkpt lat="40.8180649183781" lon="-4.13614437366125">
        <time>2024-01-11T01:25:41Z</time>
      </trkpt>
      <trkpt lat="40.8180375901056" lon="-4.1362420739715">
        <time>2024-01-11T01:25:41Z</time>
      </trkpt>
      <trkpt lat="40.8180071513404" lon="-4.13634963693253">
        <time>2024-01-11T01:25:41Z</time>
      </trkpt>
      <trkpt lat="40.8179711300598" lon="-4.13648787801498">
        <time>2024-01-11T01:25:41Z</time>
      </trkpt>
      <trkpt lat="40.8179673530265" lon="-4.13656611395968">
        <time>2024-01-11T01:25:41Z</time>
      </trkpt>
      <trkpt lat="40.8179716973952" lon="-4.13666038832369">
        <time>2024-01-11T01:25:41Z</time>
      </trkpt>
      <trkpt lat="40.8179753275745" lon="-4.13675068418174">
        <time>2024-01-11T01:25:41Z</time>
      </trkpt>
      <trkpt lat="40.8179989127421" lon="-4.13687999244076">
        <time>2024-01-11T01:25:41Z</time>
      </trkpt>
      <trkpt lat="40.8180490840995" lon="-4.13698694840128">
        <time>2024-01-11T01:25:41Z</time>
      </trkpt>
      <trkpt lat="40.8181196689669" lon="-4.13710972341261">
        <time>2024-01-11T01:25:41Z</time>
      </trkpt>
      <trkpt lat="40.8181752599615" lon="-4.13718181792064">
        <time>2024-01-11T01:25:41Z</time>
      </trkpt>
      <trkpt lat="40.8182308509089" lon="-4.13725391254912">
        <time>2024-01-11T01:25:41Z</time>
      </trkpt>
      <trkpt lat="40.8182864418092" lon="-4.13732600729799">
        <time>2024-01-11T01:25:41Z</time>
      </trkpt>
      <trkpt lat="40.8183420326622" lon="-4.13739810216737">
        <time>2024-01-11T01:25:41Z</time>
      </trkpt>
      <trkpt lat="40.8184105540387" lon="-4.13747088416659">
        <time>2024-01-11T01:25:41Z</time>
      </trkpt>
      <trkpt lat="40.8184790753663" lon="-4.13754366631622">
        <time>2024-01-11T01:25:41Z</time>
      </trkpt>
      <trkpt lat="40.8185475966453" lon="-4.13761644861626">
        <time>2024-01-11T01:25:41Z</time>
      </trkpt>
      <trkpt lat="40.8186161178756" lon="-4.13768923106665">
        <time>2024-01-11T01:25:41Z</time>
      </trkpt>
      <trkpt lat="40.8186846390572" lon="-4.13776201366744">
        <time>2024-01-11T01:25:41Z</time>
      </trkpt>
      <trkpt lat="40.8187538240156" lon="-4.13783131195834">
        <time>2024-01-11T01:25:41Z</time>
      </trkpt>
      <trkpt lat="40.8188230089297" lon="-4.13790061039402">
        <time>2024-01-11T01:25:41Z</time>
      </trkpt>
      <trkpt lat="40.8188921937993" lon="-4.13796990897442">
        <time>2024-01-11T01:25:41Z</time>
      </trkpt>
      <trkpt lat="40.8189613786247" lon="-4.13803920769954">
        <time>2024-01-11T01:25:41Z</time>
      </trkpt>
      <trkpt lat="40.8190305634057" lon="-4.13810850656938">
        <time>2024-01-11T01:25:41Z</time>
      </trkpt>
      <trkpt lat="40.8190997481423" lon="-4.13817780558395">
        <time>2024-01-11T01:25:41Z</time>
      </trkpt>
      <trkpt lat="40.8191689328346" lon="-4.13824710474325">
        <time>2024-01-11T01:25:41Z</time>
      </trkpt>
      <trkpt lat="40.8192381174824" lon="-4.13831640404732">
        <time>2024-01-11T01:25:41Z</time>
      </trkpt>
      <trkpt lat="40.819307302086" lon="-4.13838570349606">
        <time>2024-01-11T01:25:41Z</time>
      </trkpt>
      <trkpt lat="40.8193612020192" lon="-4.13844905049297">
        <time>2024-01-11T01:25:41Z</time>
      </trkpt>
      <trkpt lat="40.8194151019159" lon="-4.13851239759271">
        <time>2024-01-11T01:25:41Z</time>
      </trkpt>
      <trkpt lat="40.8194690017758" lon="-4.13857574479517">
        <time>2024-01-11T01:25:41Z</time>
      </trkpt>
      <trkpt lat="40.8195229015991" lon="-4.13863909210045">
        <time>2024-01-11T01:25:41Z</time>
      </trkpt>
      <trkpt lat="40.8195768013858" lon="-4.13870243950851">
        <time>2024-01-11T01:25:41Z</time>
      </trkpt>
      <trkpt lat="40.8196397555881" lon="-4.13876364927319">
        <time>2024-01-11T01:25:41Z</time>
      </trkpt>
      <trkpt lat="40.8197027097557" lon="-4.13882485915429">
        <time>2024-01-11T01:25:41Z</time>
      </trkpt>
      <trkpt lat="40.8197669442387" lon="-4.13886563288262">
        <time>2024-01-11T01:25:41Z</time>
      </trkpt>
      <trkpt lat="40.8198472263399" lon="-4.13891286015491">
        <time>2024-01-11T01:25:41Z</time>
      </trkpt>
      <trkpt lat="40.819928788783" lon="-4.13893965122589">
        <time>2024-01-11T01:25:41Z</time>
      </trkpt>
      <trkpt lat="40.8200103512179" lon="-4.13896644236468">
        <time>2024-01-11T01:25:41Z</time>
      </trkpt>
      <trkpt lat="40.8200919136445" lon="-4.13899323357129">
        <time>2024-01-11T01:25:41Z</time>
      </trkpt>
      <trkpt lat="40.82015441453" lon="-4.13904963954599">
        <time>2024-01-11T01:25:41Z</time>
      </trkpt>
      <trkpt lat="40.8202169153859" lon="-4.13910604562733">
        <time>2024-01-11T01:25:41Z</time>
      </trkpt>
      <trkpt lat="40.8202794162121" lon="-4.13916245181526">
        <time>2024-01-11T01:25:41Z</time>
      </trkpt>
      <trkpt lat="40.8203417943533" lon="-4.13923127857686">
        <time>2024-01-11T01:25:41Z</time>
      </trkpt>
      <trkpt lat="40.820404172451" lon="-4.13930010546784">
        <time>2024-01-11T01:25:41Z</time>
      </trkpt>
      <trkpt lat="40.8204665505052" lon="-4.1393689324882">
        <time>2024-01-11T01:25:41Z</time>
      </trkpt>
      <trkpt lat="40.820528928516" lon="-4.13943775963799">
        <time>2024-01-11T01:25:41Z</time>
      </trkpt>
      <trkpt lat="40.8205913064834" lon="-4.1395065869171">
        <time>2024-01-11T01:25:41Z</time>
      </trkpt>
      <trkpt lat="40.8206536844073" lon="-4.13957541432564">
        <time>2024-01-11T01:25:41Z</time>
      </trkpt>
      <trkpt lat="40.8207008602719" lon="-4.13964813193645">
        <time>2024-01-11T01:25:41Z</time>
      </trkpt>
      <trkpt lat="40.8207456310165" lon="-4.13975146979459">
        <time>2024-01-11T01:25:41Z</time>
      </trkpt>
      <trkpt lat="40.820775199644" lon="-4.13985869781891">
        <time>2024-01-11T01:25:41Z</time>
      </trkpt>
      <trkpt lat="40.8208047681705" lon="-4.13996592593645">
        <time>2024-01-11T01:25:41Z</time>
      </trkpt>
      <trkpt lat="40.8208343365959" lon="-4.14007315414733">
        <time>2024-01-11T01:25:41Z</time>
      </trkpt>
      <trkpt lat="40.8208639049202" lon="-4.14018038245138">
        <time>2024-01-11T01:25:41Z</time>
      </trkpt>
      <trkpt lat="40.8208713678936" lon="-4.1402836268818">
        <time>2024-01-11T01:25:41Z</time>
      </trkpt>
      <trkpt lat="40.8208788307744" lon="-4.14038687133325">
        <time>2024-01-11T01:25:41Z</time>
      </trkpt>
      <trkpt lat="40.8208862935624" lon="-4.14049011580574">
        <time>2024-01-11T01:25:41Z</time>
      </trkpt>
      <trkpt lat="40.8208937562577" lon="-4.14059336029925">
        <time>2024-01-11T01:25:41Z</time>
      </trkpt>
      <trkpt lat="40.8209012188602" lon="-4.14069660481386">
        <time>2024-01-11T01:25:41Z</time>
      </trkpt>
      <trkpt lat="40.8208959740179" lon="-4.14079084843547">
        <time>2024-01-11T01:25:41Z</time>
      </trkpt>
      <trkpt lat="40.8208720051797" lon="-4.14089334393333">
        <time>2024-01-11T01:25:41Z</time>
      </trkpt>
      <trkpt lat="40.8208353289147" lon="-4.14098683841292">
        <time>2024-01-11T01:25:41Z</time>
      </trkpt>
      <trkpt lat="40.8207986525751" lon="-4.1410803327882">
        <time>2024-01-11T01:25:41Z</time>
      </trkpt>
      <trkpt lat="40.8207619761608" lon="-4.14117382705917">
        <time>2024-01-11T01:25:41Z</time>
      </trkpt>
      <trkpt lat="40.8207121278461" lon="-4.14124356472837">
        <time>2024-01-11T01:25:41Z</time>
      </trkpt>
      <trkpt lat="40.8206738292113" lon="-4.14131557604154">
        <time>2024-01-11T01:25:41Z</time>
      </trkpt>
      <trkpt lat="40.8206279317313" lon="-4.1413861858984">
        <time>2024-01-11T01:25:41Z</time>
      </trkpt>
      <trkpt lat="40.820562582655" lon="-4.14145277710884">
        <time>2024-01-11T01:25:41Z</time>
      </trkpt>
      <trkpt lat="40.8204951233987" lon="-4.14148505413108">
        <time>2024-01-11T01:25:41Z</time>
      </trkpt>
      <trkpt lat="40.8204331560466" lon="-4.14150481564929">
        <time>2024-01-11T01:25:41Z</time>
      </trkpt>
      <trkpt lat="40.8203312305368" lon="-4.14152785847956">
        <time>2024-01-11T01:25:41Z</time>
      </trkpt>
      <trkpt lat="40.8202257549216" lon="-4.1415290248543">
        <time>2024-01-11T01:25:41Z</time>
      </trkpt>
      <trkpt lat="40.8201317929411" lon="-4.14150857315269">
        <time>2024-01-11T01:25:41Z</time>
      </trkpt>
      <trkpt lat="40.8200423168357" lon="-4.14145349201263">
        <time>2024-01-11T01:25:41Z</time>
      </trkpt>
      <trkpt lat="40.8199757050029" lon="-4.14140971072016">
        <time>2024-01-11T01:25:41Z</time>
      </trkpt>
      <trkpt lat="40.8199007884751" lon="-4.14136777036697">
        <time>2024-01-11T01:25:41Z</time>
      </trkpt>
      <trkpt lat="40.8198215146504" lon="-4.14130939387571">
        <time>2024-01-11T01:25:41Z</time>
      </trkpt>
      <trkpt lat="40.8197381473044" lon="-4.14124598932097">
        <time>2024-01-11T01:25:41Z</time>
      </trkpt>
      <trkpt lat="40.8196800411137" lon="-4.14118004309218">
        <time>2024-01-11T01:25:41Z</time>
      </trkpt>
      <trkpt lat="40.8196241380258" lon="-4.14110884953323">
        <time>2024-01-11T01:25:41Z</time>
      </trkpt>
      <trkpt lat="40.8195601852553" lon="-4.14103569348323">
        <time>2024-01-11T01:25:41Z</time>
      </trkpt>
      <trkpt lat="40.8194930652047" lon="-4.14096711413785">
        <time>2024-01-11T01:25:41Z</time>
      </trkpt>
      <trkpt lat="40.8194570298821" lon="-4.14095459736632">
        <time>2024-01-11T01:25:41Z</time>
      </trkpt>
      <trkpt lat="40.81941692465" lon="-4.14097275053985">
        <time>2024-01-11T01:25:41Z</time>
      </trkpt>
      <trkpt lat="40.8194121015469" lon="-4.14100340755929">
        <time>2024-01-11T01:25:41Z</time>
      </trkpt>
      <trkpt lat="40.8194162088144" lon="-4.14104512524871">
        <time>2024-01-11T01:25:41Z</time>
      </trkpt>
      <trkpt lat="40.819443790416" lon="-4.14115070784365">
        <time>2024-01-11T01:25:41Z</time>
      </trkpt>
      <trkpt lat="40.819480724021" lon="-4.14122471952365">
        <time>2024-01-11T01:25:41Z</time>
      </trkpt>
      <trkpt lat="40.8195241027687" lon="-4.1413325563045">
        <time>2024-01-11T01:25:41Z</time>
      </trkpt>
      <trkpt lat="40.8195738219658" lon="-4.14146991889516">
        <time>2024-01-11T01:25:41Z</time>
      </trkpt>
      <trkpt lat="40.8196298706663" lon="-4.14155893285704">
        <time>2024-01-11T01:25:41Z</time>
      </trkpt>
      <trkpt lat="40.8196859192955" lon="-4.14164794696836">
        <time>2024-01-11T01:25:41Z</time>
      </trkpt>
      <trkpt lat="40.8197419678536" lon="-4.14173696122908">
        <time>2024-01-11T01:25:41Z</time>
      </trkpt>
      <trkpt lat="40.8197980163405" lon="-4.14182597563917">
        <time>2024-01-11T01:25:41Z</time>
      </trkpt>
      <trkpt lat="40.8198540647561" lon="-4.14191499019865">
        <time>2024-01-11T01:25:41Z</time>
      </trkpt>
      <trkpt lat="40.8199101131004" lon="-4.14200400490756">
        <time>2024-01-11T01:25:41Z</time>
      </trkpt>
      <trkpt lat="40.8199661613736" lon="-4.14209301976581">
        <time>2024-01-11T01:25:41Z</time>
      </trkpt>
      <trkpt lat="40.8200222095756" lon="-4.1421820347735">
        <time>2024-01-11T01:25:41Z</time>
      </trkpt>
      <trkpt lat="40.8200782577063" lon="-4.14227104993052">
        <time>2024-01-11T01:25:41Z</time>
      </trkpt>
      <trkpt lat="40.8201343057658" lon="-4.14236006523697">
        <time>2024-01-11T01:25:41Z</time>
      </trkpt>
      <trkpt lat="40.8201812668788" lon="-4.1424464964131">
        <time>2024-01-11T01:25:41Z</time>
      </trkpt>
      <trkpt lat="40.8202262686592" lon="-4.14254246360959">
        <time>2024-01-11T01:25:41Z</time>
      </trkpt>
      <trkpt lat="40.8202638170511" lon="-4.14263037009736">
        <time>2024-01-11T01:25:41Z</time>
      </trkpt>
      <trkpt lat="40.8203120081963" lon="-4.14270854319739">
        <time>2024-01-11T01:25:41Z</time>
      </trkpt>
      <trkpt lat="40.8203563940674" lon="-4.14279061755959">
        <time>2024-01-11T01:25:41Z</time>
      </trkpt>
      <trkpt lat="40.8203935230293" lon="-4.1428448021859">
        <time>2024-01-11T01:25:41Z</time>
      </trkpt>
      <trkpt lat="40.8204440914548" lon="-4.14291111699388">
        <time>2024-01-11T01:25:41Z</time>
      </trkpt>
      <trkpt lat="40.820507267549" lon="-4.14299748072027">
        <time>2024-01-11T01:25:41Z</time>
      </trkpt>
      <trkpt lat="40.8206132474973" lon="-4.14309747059134">
        <time>2024-01-11T01:25:41Z</time>
      </trkpt>
      <trkpt lat="40.8206949823141" lon="-4.14312572650545">
        <time>2024-01-11T01:25:41Z</time>
      </trkpt>
      <trkpt lat="40.8207724568101" lon="-4.14312444222964">
        <time>2024-01-11T01:25:41Z</time>
      </trkpt>
      <trkpt lat="40.8208499313051" lon="-4.14312315795292">
        <time>2024-01-11T01:25:41Z</time>
      </trkpt>
      <trkpt lat="40.8209274057992" lon="-4.14312187367534">
        <time>2024-01-11T01:25:41Z</time>
      </trkpt>
      <trkpt lat="40.8209893594915" lon="-4.14306332607686">
        <time>2024-01-11T01:25:41Z</time>
      </trkpt>
      <trkpt lat="40.8210513131549" lon="-4.14300477837009">
        <time>2024-01-11T01:25:41Z</time>
      </trkpt>
      <trkpt lat="40.8211132667894" lon="-4.14294623055497">
        <time>2024-01-11T01:25:41Z</time>
      </trkpt>
      <trkpt lat="40.8211752203949" lon="-4.14288768263157">
        <time>2024-01-11T01:25:41Z</time>
      </trkpt>
      <trkpt lat="40.8212371739715" lon="-4.14282913459977">
        <time>2024-01-11T01:25:41Z</time>
      </trkpt>
      <trkpt lat="40.8213064242234" lon="-4.14275580879809">
        <time>2024-01-11T01:25:41Z</time>
      </trkpt>
      <trkpt lat="40.8213756744298" lon="-4.14268248284447">
        <time>2024-01-11T01:25:41Z</time>
      </trkpt>
      <trkpt lat="40.8214210457058" lon="-4.14261364919196">
        <time>2024-01-11T01:25:41Z</time>
      </trkpt>
      <trkpt lat="40.8214664169417" lon="-4.14254481544538">
        <time>2024-01-11T01:25:41Z</time>
      </trkpt>
      <trkpt lat="40.8215117881374" lon="-4.14247598160472">
        <time>2024-01-11T01:25:41Z</time>
      </trkpt>
      <trkpt lat="40.8215571592929" lon="-4.14240714767005">
        <time>2024-01-11T01:25:41Z</time>
      </trkpt>
      <trkpt lat="40.8215909743982" lon="-4.14230183837572">
        <time>2024-01-11T01:25:41Z</time>
      </trkpt>
      <trkpt lat="40.8216247894085" lon="-4.14219652897265">
        <time>2024-01-11T01:25:41Z</time>
      </trkpt>
      <trkpt lat="40.821658604324" lon="-4.14209121946073">
        <time>2024-01-11T01:25:41Z</time>
      </trkpt>
      <trkpt lat="40.8216924191445" lon="-4.14198590984001">
        <time>2024-01-11T01:25:41Z</time>
      </trkpt>
      <trkpt lat="40.8217262338701" lon="-4.14188060011043">
        <time>2024-01-11T01:25:41Z</time>
      </trkpt>
      <trkpt lat="40.8217640752141" lon="-4.14178987016146">
        <time>2024-01-11T01:25:41Z</time>
      </trkpt>
      <trkpt lat="40.8218019164879" lon="-4.14169914010813">
        <time>2024-01-11T01:25:41Z</time>
      </trkpt>
      <trkpt lat="40.8218397576914" lon="-4.14160840995055">
        <time>2024-01-11T01:25:41Z</time>
      </trkpt>
      <trkpt lat="40.8218775988247" lon="-4.14151767968866">
        <time>2024-01-11T01:25:41Z</time>
      </trkpt>
      <trkpt lat="40.8219154398878" lon="-4.14142694932241">
        <time>2024-01-11T01:25:41Z</time>
      </trkpt>
      <trkpt lat="40.8219371061684" lon="-4.14134496182169">
        <time>2024-01-11T01:25:41Z</time>
      </trkpt>
      <trkpt lat="40.8219773801516" lon="-4.14126427372213">
        <time>2024-01-11T01:25:41Z</time>
      </trkpt>
      <trkpt lat="40.8220176540793" lon="-4.14118358552418">
        <time>2024-01-11T01:25:41Z</time>
      </trkpt>
      <trkpt lat="40.8220579279516" lon="-4.14110289722783">
        <time>2024-01-11T01:25:41Z</time>
      </trkpt>
      <trkpt lat="40.8220982017685" lon="-4.14102220883314">
        <time>2024-01-11T01:25:41Z</time>
      </trkpt>
      <trkpt lat="40.8221396363911" lon="-4.14092957853757">
        <time>2024-01-11T01:25:41Z</time>
      </trkpt>
      <trkpt lat="40.8221810709406" lon="-4.14083694812553">
        <time>2024-01-11T01:25:41Z</time>
      </trkpt>
      <trkpt lat="40.8222225054169" lon="-4.14074431759707">
        <time>2024-01-11T01:25:41Z</time>
      </trkpt>
      <trkpt lat="40.8222639398201" lon="-4.1406516869522">
        <time>2024-01-11T01:25:41Z</time>
      </trkpt>
      <trkpt lat="40.8223053741501" lon="-4.14055905619086">
        <time>2024-01-11T01:25:41Z</time>
      </trkpt>
      <trkpt lat="40.8223322144597" lon="-4.14045591305052">
        <time>2024-01-11T01:25:41Z</time>
      </trkpt>
      <trkpt lat="40.8223590546781" lon="-4.14035276982509">
        <time>2024-01-11T01:25:41Z</time>
      </trkpt>
      <trkpt lat="40.8223858948052" lon="-4.14024962651462">
        <time>2024-01-11T01:25:41Z</time>
      </trkpt>
      <trkpt lat="40.822412734841" lon="-4.14014648311911">
        <time>2024-01-11T01:25:41Z</time>
      </trkpt>
      <trkpt lat="40.8224395747856" lon="-4.14004333963857">
        <time>2024-01-11T01:25:41Z</time>
      </trkpt>
      <trkpt lat="40.822466414639" lon="-4.13994019607293">
        <time>2024-01-11T01:25:41Z</time>
      </trkpt>
      <trkpt lat="40.8224804197901" lon="-4.13987964661851">
        <time>2024-01-11T01:25:41Z</time>
      </trkpt>
      <trkpt lat="40.8224944249096" lon="-4.139819097138">
        <time>2024-01-11T01:25:41Z</time>
      </trkpt>
      <trkpt lat="40.822508024284" lon="-4.13972422414776">
        <time>2024-01-11T01:25:41Z</time>
      </trkpt>
      <trkpt lat="40.8225216235808" lon="-4.13962935111698">
        <time>2024-01-11T01:25:41Z</time>
      </trkpt>
      <trkpt lat="40.8225352228" lon="-4.13953447804573">
        <time>2024-01-11T01:25:41Z</time>
      </trkpt>
      <trkpt lat="40.8225488219417" lon="-4.13943960493396">
        <time>2024-01-11T01:25:41Z</time>
      </trkpt>
      <trkpt lat="40.8225536685758" lon="-4.1393259529981">
        <time>2024-01-11T01:25:41Z</time>
      </trkpt>
      <trkpt lat="40.8225585150981" lon="-4.13921230104313">
        <time>2024-01-11T01:25:41Z</time>
      </trkpt>
      <trkpt lat="40.8225633615087" lon="-4.13909864906907">
        <time>2024-01-11T01:25:41Z</time>
      </trkpt>
      <trkpt lat="40.8225682078075" lon="-4.13898499707586">
        <time>2024-01-11T01:25:41Z</time>
      </trkpt>
      <trkpt lat="40.822563351823" lon="-4.13887093138516">
        <time>2024-01-11T01:25:41Z</time>
      </trkpt>
      <trkpt lat="40.822563579699" lon="-4.13875580199108">
        <time>2024-01-11T01:25:41Z</time>
      </trkpt>
      <trkpt lat="40.822565424109" lon="-4.13864526462695">
        <time>2024-01-11T01:25:41Z</time>
      </trkpt>
      <trkpt lat="40.8225683492676" lon="-4.13853970398684">
        <time>2024-01-11T01:25:41Z</time>
      </trkpt>
      <trkpt lat="40.8225766503571" lon="-4.13842675666178">
        <time>2024-01-11T01:25:41Z</time>
      </trkpt>
      <trkpt lat="40.8226045174336" lon="-4.13832477883893">
        <time>2024-01-11T01:25:41Z</time>
      </trkpt>
      <trkpt lat="40.8226293279842" lon="-4.1382258483431">
        <time>2024-01-11T01:25:41Z</time>
      </trkpt>
      <trkpt lat="40.8226541384508" lon="-4.13812691777173">
        <time>2024-01-11T01:25:41Z</time>
      </trkpt>
      <trkpt lat="40.8226789488335" lon="-4.13802798712493">
        <time>2024-01-11T01:25:41Z</time>
      </trkpt>
      <trkpt lat="40.8227037591322" lon="-4.13792905640259">
        <time>2024-01-11T01:25:41Z</time>
      </trkpt>
      <trkpt lat="40.8227285693469" lon="-4.13783012560481">
        <time>2024-01-11T01:25:41Z</time>
      </trkpt>
      <trkpt lat="40.8227533794776" lon="-4.13773119473149">
        <time>2024-01-11T01:25:41Z</time>
      </trkpt>
      <trkpt lat="40.8227766292314" lon="-4.13763942728059">
        <time>2024-01-11T01:25:41Z</time>
      </trkpt>
      <trkpt lat="40.822799878913" lon="-4.1375476597641">
        <time>2024-01-11T01:25:41Z</time>
      </trkpt>
      <trkpt lat="40.8228231285223" lon="-4.13745589218201">
        <time>2024-01-11T01:25:41Z</time>
      </trkpt>
      <trkpt lat="40.8228463780593" lon="-4.13736412453432">
        <time>2024-01-11T01:25:41Z</time>
      </trkpt>
      <trkpt lat="40.8228703430474" lon="-4.13725014487756">
        <time>2024-01-11T01:25:41Z</time>
      </trkpt>
      <trkpt lat="40.8228943079238" lon="-4.13713616513633">
        <time>2024-01-11T01:25:41Z</time>
      </trkpt>
      <trkpt lat="40.8229095145546" lon="-4.13702086977897">
        <time>2024-01-11T01:25:41Z</time>
      </trkpt>
      <trkpt lat="40.8229205543644" lon="-4.13694182502633">
        <time>2024-01-11T01:25:41Z</time>
      </trkpt>
      <trkpt lat="40.8229283964629" lon="-4.13686302331272">
        <time>2024-01-11T01:25:41Z</time>
      </trkpt>
      <trkpt lat="40.8229374045628" lon="-4.13678979467085">
        <time>2024-01-11T01:25:41Z</time>
      </trkpt>
      <trkpt lat="40.8229422798527" lon="-4.13671550378525">
        <time>2024-01-11T01:25:41Z</time>
      </trkpt>
      <trkpt lat="40.8229493658129" lon="-4.13664620890998">
        <time>2024-01-11T01:25:41Z</time>
      </trkpt>
      <trkpt lat="40.8229578550304" lon="-4.13654917162626">
        <time>2024-01-11T01:25:41Z</time>
      </trkpt>
      <trkpt lat="40.8229660902086" lon="-4.13647791302448">
        <time>2024-01-11T01:25:41Z</time>
      </trkpt>
      <trkpt lat="40.8229745988189" lon="-4.13637889271383">
        <time>2024-01-11T01:25:41Z</time>
      </trkpt>
      <trkpt lat="40.8229798016077" lon="-4.13630956562394">
        <time>2024-01-11T01:25:41Z</time>
      </trkpt>
      <trkpt lat="40.8229886616242" lon="-4.13617485165635">
        <time>2024-01-11T01:25:41Z</time>
      </trkpt>
      <trkpt lat="40.8229988911635" lon="-4.1360540442076">
        <time>2024-01-11T01:25:41Z</time>
      </trkpt>
      <trkpt lat="40.8230106660052" lon="-4.1359292964643">
        <time>2024-01-11T01:25:41Z</time>
      </trkpt>
      <trkpt lat="40.8230207976681" lon="-4.13581840383034">
        <time>2024-01-11T01:25:41Z</time>
      </trkpt>
      <trkpt lat="40.8230293447591" lon="-4.13571541738123">
        <time>2024-01-11T01:25:41Z</time>
      </trkpt>
      <trkpt lat="40.8230406116985" lon="-4.13564222700274">
        <time>2024-01-11T01:25:41Z</time>
      </trkpt>
      <trkpt lat="40.823059859422" lon="-4.13552355651452">
        <time>2024-01-11T01:25:41Z</time>
      </trkpt>
      <trkpt lat="40.8230772298175" lon="-4.13544253691345">
        <time>2024-01-11T01:25:41Z</time>
      </trkpt>
      <trkpt lat="40.8231009816347" lon="-4.13533090358971">
        <time>2024-01-11T01:25:41Z</time>
      </trkpt>
      <trkpt lat="40.8231334343499" lon="-4.13525210325423">
        <time>2024-01-11T01:25:41Z</time>
      </trkpt>
      <trkpt lat="40.823165887012" lon="-4.13517330284111">
        <time>2024-01-11T01:25:41Z</time>
      </trkpt>
      <trkpt lat="40.8231978396437" lon="-4.13510521389941">
        <time>2024-01-11T01:25:41Z</time>
      </trkpt>
      <trkpt lat="40.8232297922359" lon="-4.13503712489177">
        <time>2024-01-11T01:25:41Z</time>
      </trkpt>
      <trkpt lat="40.823283979688" lon="-4.13498020022974">
        <time>2024-01-11T01:25:41Z</time>
      </trkpt>
      <trkpt lat="40.8233381671128" lon="-4.13492327547539">
        <time>2024-01-11T01:25:41Z</time>
      </trkpt>
      <trkpt lat="40.8233923545102" lon="-4.13486635062873">
        <time>2024-01-11T01:25:41Z</time>
      </trkpt>
      <trkpt lat="40.8234465418803" lon="-4.13480942568976">
        <time>2024-01-11T01:25:41Z</time>
      </trkpt>
      <trkpt lat="40.8235113864522" lon="-4.13472915062096">
        <time>2024-01-11T01:25:41Z</time>
      </trkpt>
      <trkpt lat="40.8235762309695" lon="-4.1346488753959">
        <time>2024-01-11T01:25:41Z</time>
      </trkpt>
      <trkpt lat="40.8236410754323" lon="-4.13456860001458">
        <time>2024-01-11T01:25:41Z</time>
      </trkpt>
      <trkpt lat="40.8237059198407" lon="-4.13448832447705">
        <time>2024-01-11T01:25:41Z</time>
      </trkpt>
      <trkpt lat="40.8237506123327" lon="-4.13441261657857">
        <time>2024-01-11T01:25:41Z</time>
      </trkpt>
      <trkpt lat="40.8237953047761" lon="-4.13433690857795">
        <time>2024-01-11T01:25:41Z</time>
      </trkpt>
      <trkpt lat="40.8238399971708" lon="-4.13426120047524">
        <time>2024-01-11T01:25:41Z</time>
      </trkpt>
      <trkpt lat="40.8238698995403" lon="-4.13421169172085">
        <time>2024-01-11T01:25:41Z</time>
      </trkpt>
      <trkpt lat="40.8238998018891" lon="-4.13416218292179">
        <time>2024-01-11T01:25:41Z</time>
      </trkpt>
      <trkpt lat="40.823965759553" lon="-4.13412016492214">
        <time>2024-01-11T01:25:41Z</time>
      </trkpt>
      <trkpt lat="40.8240166611494" lon="-4.13411819802275">
        <time>2024-01-11T01:25:41Z</time>
      </trkpt>
      <trkpt lat="40.8240675627454" lon="-4.1341162311212">
        <time>2024-01-11T01:25:41Z</time>
      </trkpt>
      <trkpt lat="40.8241457157044" lon="-4.13414843351694">
        <time>2024-01-11T01:25:41Z</time>
      </trkpt>
      <trkpt lat="40.8242238686524" lon="-4.13418063599017">
        <time>2024-01-11T01:25:41Z</time>
      </trkpt>
      <trkpt lat="40.8243020215894" lon="-4.13421283854092">
        <time>2024-01-11T01:25:41Z</time>
      </trkpt>
      <trkpt lat="40.8243801745153" lon="-4.13424504116921">
        <time>2024-01-11T01:25:41Z</time>
      </trkpt>
      <trkpt lat="40.8244583274302" lon="-4.13427724387498">
        <time>2024-01-11T01:25:41Z</time>
      </trkpt>
      <trkpt lat="40.8245364803341" lon="-4.13430944665828">
        <time>2024-01-11T01:25:41Z</time>
      </trkpt>
      <trkpt lat="40.8246146332269" lon="-4.13434164951912">
        <time>2024-01-11T01:25:41Z</time>
      </trkpt>
      <trkpt lat="40.8246927861087" lon="-4.13437385245749">
        <time>2024-01-11T01:25:41Z</time>
      </trkpt>
      <trkpt lat="40.8247709389795" lon="-4.13440605547334">
        <time>2024-01-11T01:25:41Z</time>
      </trkpt>
      <trkpt lat="40.8248490918393" lon="-4.13443825856672">
        <time>2024-01-11T01:25:41Z</time>
      </trkpt>
      <trkpt lat="40.8248934639682" lon="-4.13445660984843">
        <time>2024-01-11T01:25:41Z</time>
      </trkpt>
      <trkpt lat="40.8249378360935" lon="-4.13447496115527">
        <time>2024-01-11T01:25:41Z</time>
      </trkpt>
      <trkpt lat="40.8250005334849" lon="-4.13451160590023">
        <time>2024-01-11T01:25:41Z</time>
      </trkpt>
      <trkpt lat="40.8250531094815" lon="-4.1345333502307">
        <time>2024-01-11T01:25:41Z</time>
      </trkpt>
      <trkpt lat="40.8251174901775" lon="-4.13455997678824">
        <time>2024-01-11T01:25:41Z</time>
      </trkpt>
      <trkpt lat="40.825181870866" lon="-4.13458660339853">
        <time>2024-01-11T01:25:41Z</time>
      </trkpt>
      <trkpt lat="40.8252642256718" lon="-4.13462117243734">
        <time>2024-01-11T01:25:41Z</time>
      </trkpt>
      <trkpt lat="40.8253465804649" lon="-4.13465574156379">
        <time>2024-01-11T01:25:41Z</time>
      </trkpt>
      <trkpt lat="40.8254289352453" lon="-4.13469031077784">
        <time>2024-01-11T01:25:41Z</time>
      </trkpt>
      <trkpt lat="40.8255112900131" lon="-4.13472488007961">
        <time>2024-01-11T01:25:41Z</time>
      </trkpt>
      <trkpt lat="40.8255936447683" lon="-4.13475944946896">
        <time>2024-01-11T01:25:41Z</time>
      </trkpt>
      <trkpt lat="40.8256759995108" lon="-4.13479401894597">
        <time>2024-01-11T01:25:41Z</time>
      </trkpt>
      <trkpt lat="40.8257583542407" lon="-4.13482858851063">
        <time>2024-01-11T01:25:41Z</time>
      </trkpt>
      <trkpt lat="40.8258407089579" lon="-4.13486315816295">
        <time>2024-01-11T01:25:41Z</time>
      </trkpt>
      <trkpt lat="40.8259230636625" lon="-4.13489772790291">
        <time>2024-01-11T01:25:41Z</time>
      </trkpt>
      <trkpt lat="40.8260054183544" lon="-4.13493229773053">
        <time>2024-01-11T01:25:41Z</time>
      </trkpt>
      <trkpt lat="40.8260877730337" lon="-4.13496686764575">
        <time>2024-01-11T01:25:41Z</time>
      </trkpt>
      <trkpt lat="40.8261701277004" lon="-4.13500143764867">
        <time>2024-01-11T01:25:41Z</time>
      </trkpt>
      <trkpt lat="40.8262524823543" lon="-4.13503600773919">
        <time>2024-01-11T01:25:41Z</time>
      </trkpt>
      <trkpt lat="40.8263348369956" lon="-4.13507057791742">
        <time>2024-01-11T01:25:41Z</time>
      </trkpt>
      <trkpt lat="40.8264171916243" lon="-4.13510514818325">
        <time>2024-01-11T01:25:41Z</time>
      </trkpt>
      <trkpt lat="40.8264995462404" lon="-4.13513971853672">
        <time>2024-01-11T01:25:41Z</time>
      </trkpt>
      <trkpt lat="40.8265819008437" lon="-4.13517428897791">
        <time>2024-01-11T01:25:41Z</time>
      </trkpt>
      <trkpt lat="40.8266642554345" lon="-4.13520885950669">
        <time>2024-01-11T01:25:41Z</time>
      </trkpt>
      <trkpt lat="40.8267466100126" lon="-4.13524343012313">
        <time>2024-01-11T01:25:41Z</time>
      </trkpt>
      <trkpt lat="40.826828964578" lon="-4.13527800082727">
        <time>2024-01-11T01:25:41Z</time>
      </trkpt>
      <trkpt lat="40.8269019974171" lon="-4.13530768315565">
        <time>2024-01-11T01:25:41Z</time>
      </trkpt>
      <trkpt lat="40.8269750302468" lon="-4.13533736555087">
        <time>2024-01-11T01:25:41Z</time>
      </trkpt>
      <trkpt lat="40.8270480630671" lon="-4.13536704801288">
        <time>2024-01-11T01:25:41Z</time>
      </trkpt>
      <trkpt lat="40.827121095878" lon="-4.13539673054175">
        <time>2024-01-11T01:25:41Z</time>
      </trkpt>
      <trkpt lat="40.8271941286794" lon="-4.13542641313734">
        <time>2024-01-11T01:25:41Z</time>
      </trkpt>
      <trkpt lat="40.8272654039662" lon="-4.13545551244727">
        <time>2024-01-11T01:25:41Z</time>
      </trkpt>
      <trkpt lat="40.8273366792439" lon="-4.13548461182114">
        <time>2024-01-11T01:25:41Z</time>
      </trkpt>
      <trkpt lat="40.8274079545126" lon="-4.13551371125891">
        <time>2024-01-11T01:25:41Z</time>
      </trkpt>
      <trkpt lat="40.8274792297723" lon="-4.13554281076057">
        <time>2024-01-11T01:25:41Z</time>
      </trkpt>
      <trkpt lat="40.827550505023" lon="-4.13557191032612">
        <time>2024-01-11T01:25:41Z</time>
      </trkpt>
      <trkpt lat="40.8276273646001" lon="-4.13560367475629">
        <time>2024-01-11T01:25:41Z</time>
      </trkpt>
      <trkpt lat="40.8277042241664" lon="-4.13563543926165">
        <time>2024-01-11T01:25:41Z</time>
      </trkpt>
      <trkpt lat="40.827781083722" lon="-4.13566720384216">
        <time>2024-01-11T01:25:41Z</time>
      </trkpt>
      <trkpt lat="40.8278579432669" lon="-4.13569896849794">
        <time>2024-01-11T01:25:41Z</time>
      </trkpt>
      <trkpt lat="40.8279348028011" lon="-4.13573073322891">
        <time>2024-01-11T01:25:41Z</time>
      </trkpt>
      <trkpt lat="40.8280116623245" lon="-4.13576249803504">
        <time>2024-01-11T01:25:41Z</time>
      </trkpt>
      <trkpt lat="40.8280885218372" lon="-4.13579426291642">
        <time>2024-01-11T01:25:41Z</time>
      </trkpt>
      <trkpt lat="40.8281626226856" lon="-4.1358381675044">
        <time>2024-01-11T01:25:41Z</time>
      </trkpt>
      <trkpt lat="40.8282367235151" lon="-4.13588207219169">
        <time>2024-01-11T01:25:41Z</time>
      </trkpt>
      <trkpt lat="40.8283108243256" lon="-4.13592597697823">
        <time>2024-01-11T01:25:41Z</time>
      </trkpt>
      <trkpt lat="40.8283849251173" lon="-4.13596988186402">
        <time>2024-01-11T01:25:41Z</time>
      </trkpt>
      <trkpt lat="40.8284325858448" lon="-4.13597069530266">
        <time>2024-01-11T01:25:41Z</time>
      </trkpt>
      <trkpt lat="40.828480246572" lon="-4.13597150874324">
        <time>2024-01-11T01:25:41Z</time>
      </trkpt>
      <trkpt lat="40.8285564730369" lon="-4.13592406179811">
        <time>2024-01-11T01:25:41Z</time>
      </trkpt>
      <trkpt lat="40.8286326994827" lon="-4.13587661474583">
        <time>2024-01-11T01:25:41Z</time>
      </trkpt>
      <trkpt lat="40.8287089259095" lon="-4.13582916758645">
        <time>2024-01-11T01:25:41Z</time>
      </trkpt>
      <trkpt lat="40.8287851523172" lon="-4.13578172031987">
        <time>2024-01-11T01:25:41Z</time>
      </trkpt>
      <trkpt lat="40.8288613787058" lon="-4.1357342729462">
        <time>2024-01-11T01:25:41Z</time>
      </trkpt>
      <trkpt lat="40.8289376050754" lon="-4.13568682546543">
        <time>2024-01-11T01:25:41Z</time>
      </trkpt>
      <trkpt lat="40.8290138314259" lon="-4.13563937787746">
        <time>2024-01-11T01:25:41Z</time>
      </trkpt>
      <trkpt lat="40.8290937614157" lon="-4.13559040578508">
        <time>2024-01-11T01:25:41Z</time>
      </trkpt>
      <trkpt lat="40.8291736913852" lon="-4.13554143357681">
        <time>2024-01-11T01:25:41Z</time>
      </trkpt>
      <trkpt lat="40.8292536213344" lon="-4.13549246125263">
        <time>2024-01-11T01:25:41Z</time>
      </trkpt>
      <trkpt lat="40.8292840655041" lon="-4.13542630171475">
        <time>2024-01-11T01:25:41Z</time>
      </trkpt>
      <trkpt lat="40.8293145096364" lon="-4.13536014211576">
        <time>2024-01-11T01:25:41Z</time>
      </trkpt>
      <trkpt lat="40.8293126887053" lon="-4.13524244229416">
        <time>2024-01-11T01:25:41Z</time>
      </trkpt>
      <trkpt lat="40.8292833638595" lon="-4.13519487462111">
        <time>2024-01-11T01:25:41Z</time>
      </trkpt>
      <trkpt lat="40.829204927451" lon="-4.13514254708753">
        <time>2024-01-11T01:25:41Z</time>
      </trkpt>
      <trkpt lat="40.8291264910161" lon="-4.13509021967883">
        <time>2024-01-11T01:25:41Z</time>
      </trkpt>
      <trkpt lat="40.8290703955256" lon="-4.13503827339025">
        <time>2024-01-11T01:25:41Z</time>
      </trkpt>
      <trkpt lat="40.8290458088749" lon="-4.13496333084845">
        <time>2024-01-11T01:25:41Z</time>
      </trkpt>
      <trkpt lat="40.8290212221746" lon="-4.13488838836111">
        <time>2024-01-11T01:25:41Z</time>
      </trkpt>
      <trkpt lat="40.8290363519485" lon="-4.13482102799918">
        <time>2024-01-11T01:25:41Z</time>
      </trkpt>
      <trkpt lat="40.8290514816833" lon="-4.13475366760577">
        <time>2024-01-11T01:25:41Z</time>
      </trkpt>
      <trkpt lat="40.8290809332531" lon="-4.13468058610539">
        <time>2024-01-11T01:25:41Z</time>
      </trkpt>
      <trkpt lat="40.8291103847772" lon="-4.13460750453953">
        <time>2024-01-11T01:25:41Z</time>
      </trkpt>
      <trkpt lat="40.8291781791086" lon="-4.13453021456252">
        <time>2024-01-11T01:25:41Z</time>
      </trkpt>
      <trkpt lat="40.8292459733895" lon="-4.13445292442839">
        <time>2024-01-11T01:25:41Z</time>
      </trkpt>
      <trkpt lat="40.8293107968011" lon="-4.13442526586875">
        <time>2024-01-11T01:25:41Z</time>
      </trkpt>
      <trkpt lat="40.829375620206" lon="-4.13439760725646">
        <time>2024-01-11T01:25:41Z</time>
      </trkpt>
      <trkpt lat="40.8294404436043" lon="-4.13436994859166">
        <time>2024-01-11T01:25:41Z</time>
      </trkpt>
      <trkpt lat="40.8295200581436" lon="-4.13435300144511">
        <time>2024-01-11T01:25:41Z</time>
      </trkpt>
      <trkpt lat="40.8295996726798" lon="-4.13433605426019">
        <time>2024-01-11T01:25:41Z</time>
      </trkpt>
      <trkpt lat="40.829679287213" lon="-4.13431910703679">
        <time>2024-01-11T01:25:41Z</time>
      </trkpt>
      <trkpt lat="40.8297283351747" lon="-4.13431013718156">
        <time>2024-01-11T01:25:41Z</time>
      </trkpt>
      <trkpt lat="40.8297773831354" lon="-4.134301167314">
        <time>2024-01-11T01:25:41Z</time>
      </trkpt>
      <trkpt lat="40.8298378562419" lon="-4.13429173843122">
        <time>2024-01-11T01:25:41Z</time>
      </trkpt>
      <trkpt lat="40.8298983293473" lon="-4.13428230953258">
        <time>2024-01-11T01:25:41Z</time>
      </trkpt>
      <trkpt lat="40.8299588024515" lon="-4.13427288061803">
        <time>2024-01-11T01:25:41Z</time>
      </trkpt>
      <trkpt lat="40.8300066328616" lon="-4.13425643751271">
        <time>2024-01-11T01:25:41Z</time>
      </trkpt>
      <trkpt lat="40.8300544632692" lon="-4.13423999438448">
        <time>2024-01-11T01:25:41Z</time>
      </trkpt>
      <trkpt lat="40.8300800404095" lon="-4.13418394861827">
        <time>2024-01-11T01:25:41Z</time>
      </trkpt>
      <trkpt lat="40.8301056175229" lon="-4.13412790280859">
        <time>2024-01-11T01:25:41Z</time>
      </trkpt>
      <trkpt lat="40.8301062960917" lon="-4.13405888120559">
        <time>2024-01-11T01:25:41Z</time>
      </trkpt>
      <trkpt lat="40.8300968130686" lon="-4.13397280768385">
        <time>2024-01-11T01:25:41Z</time>
      </trkpt>
      <trkpt lat="40.8300873299809" lon="-4.13388673418524">
        <time>2024-01-11T01:25:41Z</time>
      </trkpt>
      <trkpt lat="40.8300883789208" lon="-4.13378001526098">
        <time>2024-01-11T01:25:41Z</time>
      </trkpt>
      <trkpt lat="40.8300894277619" lon="-4.1336732963311">
        <time>2024-01-11T01:25:41Z</time>
      </trkpt>
      <trkpt lat="40.8301180937161" lon="-4.13362638623431">
        <time>2024-01-11T01:25:41Z</time>
      </trkpt>
      <trkpt lat="40.8301467596515" lon="-4.13357947609694">
        <time>2024-01-11T01:25:41Z</time>
      </trkpt>
      <trkpt lat="40.8301864188985" lon="-4.13354563496381">
        <time>2024-01-11T01:25:41Z</time>
      </trkpt>
      <trkpt lat="40.8302260781359" lon="-4.13351179379066">
        <time>2024-01-11T01:25:41Z</time>
      </trkpt>
      <trkpt lat="40.8302930498141" lon="-4.13348783137463">
        <time>2024-01-11T01:25:41Z</time>
      </trkpt>
      <trkpt lat="40.8303600214871" lon="-4.13346386891186">
        <time>2024-01-11T01:25:41Z</time>
      </trkpt>
      <trkpt lat="40.8304206350163" lon="-4.13346508861486">
        <time>2024-01-11T01:25:41Z</time>
      </trkpt>
      <trkpt lat="40.8304504846404" lon="-4.13346974008005">
        <time>2024-01-11T01:25:41Z</time>
      </trkpt>
      <trkpt lat="40.8304804854881" lon="-4.13348314400243">
        <time>2024-01-11T01:25:41Z</time>
      </trkpt>
      <trkpt lat="40.8305254136786" lon="-4.13351068692715">
        <time>2024-01-11T01:25:41Z</time>
      </trkpt>
      <trkpt lat="40.8306018295875" lon="-4.13355364273206">
        <time>2024-01-11T01:25:41Z</time>
      </trkpt>
      <trkpt lat="40.8306947668857" lon="-4.13360183890033">
        <time>2024-01-11T01:25:41Z</time>
      </trkpt>
      <trkpt lat="40.8307857682847" lon="-4.133675968062">
        <time>2024-01-11T01:25:41Z</time>
      </trkpt>
      <trkpt lat="40.8308434479857" lon="-4.13374823787445">
        <time>2024-01-11T01:25:41Z</time>
      </trkpt>
      <trkpt lat="40.8309026973655" lon="-4.13381278986299">
        <time>2024-01-11T01:25:41Z</time>
      </trkpt>
      <trkpt lat="40.830961946707" lon="-4.13387734196681">
        <time>2024-01-11T01:25:41Z</time>
      </trkpt>
      <trkpt lat="40.8310211960104" lon="-4.13394189418597">
        <time>2024-01-11T01:25:41Z</time>
      </trkpt>
      <trkpt lat="40.8310804452755" lon="-4.13400644652046">
        <time>2024-01-11T01:25:41Z</time>
      </trkpt>
      <trkpt lat="40.831145010069" lon="-4.13407579642984">
        <time>2024-01-11T01:25:41Z</time>
      </trkpt>
      <trkpt lat="40.8312095748183" lon="-4.13414514647428">
        <time>2024-01-11T01:25:41Z</time>
      </trkpt>
      <trkpt lat="40.8312741395234" lon="-4.13421449665379">
        <time>2024-01-11T01:25:41Z</time>
      </trkpt>
      <trkpt lat="40.8313387041843" lon="-4.13428384696829">
        <time>2024-01-11T01:25:41Z</time>
      </trkpt>
      <trkpt lat="40.8314010471513" lon="-4.13434280437406">
        <time>2024-01-11T01:25:41Z</time>
      </trkpt>
      <trkpt lat="40.831463390086" lon="-4.1344017618909">
        <time>2024-01-11T01:25:41Z</time>
      </trkpt>
      <trkpt lat="40.8315257329885" lon="-4.13446071951887">
        <time>2024-01-11T01:25:41Z</time>
      </trkpt>
      <trkpt lat="40.8315880758587" lon="-4.13451967725791">
        <time>2024-01-11T01:25:41Z</time>
      </trkpt>
      <trkpt lat="40.8316504186966" lon="-4.13457863510814">
        <time>2024-01-11T01:25:41Z</time>
      </trkpt>
      <trkpt lat="40.8317077645809" lon="-4.13465492347962">
        <time>2024-01-11T01:25:41Z</time>
      </trkpt>
      <trkpt lat="40.8317651104124" lon="-4.13473121198257">
        <time>2024-01-11T01:25:41Z</time>
      </trkpt>
      <trkpt lat="40.8318224561911" lon="-4.13480750061695">
        <time>2024-01-11T01:25:41Z</time>
      </trkpt>
      <trkpt lat="40.8318798019171" lon="-4.1348837893828">
        <time>2024-01-11T01:25:41Z</time>
      </trkpt>
      <trkpt lat="40.8319301142402" lon="-4.13494819099282">
        <time>2024-01-11T01:25:41Z</time>
      </trkpt>
      <trkpt lat="40.8319804265256" lon="-4.13501259270027">
        <time>2024-01-11T01:25:41Z</time>
      </trkpt>
      <trkpt lat="40.8320307387733" lon="-4.13507699450509">
        <time>2024-01-11T01:25:41Z</time>
      </trkpt>
      <trkpt lat="40.8320810509834" lon="-4.1351413964074">
        <time>2024-01-11T01:25:41Z</time>
      </trkpt>
      <trkpt lat="40.8321346246719" lon="-4.13521950419727">
        <time>2024-01-11T01:25:41Z</time>
      </trkpt>
      <trkpt lat="40.8321881983053" lon="-4.13529761211265">
        <time>2024-01-11T01:25:41Z</time>
      </trkpt>
      <trkpt lat="40.8322417718838" lon="-4.13537572015355">
        <time>2024-01-11T01:25:41Z</time>
      </trkpt>
      <trkpt lat="40.8322953454071" lon="-4.13545382832007">
        <time>2024-01-11T01:25:41Z</time>
      </trkpt>
      <trkpt lat="40.8323489188754" lon="-4.13553193661204">
        <time>2024-01-11T01:25:41Z</time>
      </trkpt>
      <trkpt lat="40.8323947394647" lon="-4.13559861600936">
        <time>2024-01-11T01:25:41Z</time>
      </trkpt>
      <trkpt lat="40.8324405600137" lon="-4.13566529549837">
        <time>2024-01-11T01:25:41Z</time>
      </trkpt>
      <trkpt lat="40.8324863805227" lon="-4.13573197507902">
        <time>2024-01-11T01:25:41Z</time>
      </trkpt>
      <trkpt lat="40.8325322009916" lon="-4.13579865475134">
        <time>2024-01-11T01:25:41Z</time>
      </trkpt>
      <trkpt lat="40.8325897744006" lon="-4.13588200955502">
        <time>2024-01-11T01:25:41Z</time>
      </trkpt>
      <trkpt lat="40.8326473477469" lon="-4.13596536450269">
        <time>2024-01-11T01:25:41Z</time>
      </trkpt>
      <trkpt lat="40.8327049210305" lon="-4.13604871959433">
        <time>2024-01-11T01:25:41Z</time>
      </trkpt>
      <trkpt lat="40.8327624942513" lon="-4.13613207482996">
        <time>2024-01-11T01:25:41Z</time>
      </trkpt>
      <trkpt lat="40.8328200674095" lon="-4.13621543020964">
        <time>2024-01-11T01:25:41Z</time>
      </trkpt>
      <trkpt lat="40.8328776405049" lon="-4.13629878573329">
        <time>2024-01-11T01:25:41Z</time>
      </trkpt>
      <trkpt lat="40.8329352135377" lon="-4.13638214140099">
        <time>2024-01-11T01:25:41Z</time>
      </trkpt>
      <trkpt lat="40.8329927865077" lon="-4.13646549721262">
        <time>2024-01-11T01:25:41Z</time>
      </trkpt>
      <trkpt lat="40.833050359415" lon="-4.13654885316828">
        <time>2024-01-11T01:25:41Z</time>
      </trkpt>
      <trkpt lat="40.8331041062018" lon="-4.13662743690043">
        <time>2024-01-11T01:25:41Z</time>
      </trkpt>
      <trkpt lat="40.8331578529329" lon="-4.13670602075928">
        <time>2024-01-11T01:25:41Z</time>
      </trkpt>
      <trkpt lat="40.8332115996083" lon="-4.13678460474484">
        <time>2024-01-11T01:25:41Z</time>
      </trkpt>
      <trkpt lat="40.833265346228" lon="-4.13686318885709">
        <time>2024-01-11T01:25:41Z</time>
      </trkpt>
      <trkpt lat="40.8333218061743" lon="-4.13693852453025">
        <time>2024-01-11T01:25:41Z</time>
      </trkpt>
      <trkpt lat="40.8333782660692" lon="-4.1370138603312">
        <time>2024-01-11T01:25:41Z</time>
      </trkpt>
      <trkpt lat="40.8334347259127" lon="-4.13708919626004">
        <time>2024-01-11T01:25:41Z</time>
      </trkpt>
      <trkpt lat="40.8334911857046" lon="-4.13716453231661">
        <time>2024-01-11T01:25:41Z</time>
      </trkpt>
      <trkpt lat="40.8335476454452" lon="-4.13723986850107">
        <time>2024-01-11T01:25:41Z</time>
      </trkpt>
      <trkpt lat="40.8335987920304" lon="-4.13731017160325">
        <time>2024-01-11T01:25:41Z</time>
      </trkpt>
      <trkpt lat="40.8336499385709" lon="-4.13738047481349">
        <time>2024-01-11T01:25:41Z</time>
      </trkpt>
      <trkpt lat="40.8337010850667" lon="-4.13745077813172">
        <time>2024-01-11T01:25:41Z</time>
      </trkpt>
      <trkpt lat="40.8337522315177" lon="-4.13752108155791">
        <time>2024-01-11T01:25:41Z</time>
      </trkpt>
      <trkpt lat="40.8338109071234" lon="-4.13759828021336">
        <time>2024-01-11T01:25:41Z</time>
      </trkpt>
      <trkpt lat="40.833869582675" lon="-4.137675479005">
        <time>2024-01-11T01:25:41Z</time>
      </trkpt>
      <trkpt lat="40.8339282581725" lon="-4.13775267793273">
        <time>2024-01-11T01:25:41Z</time>
      </trkpt>
      <trkpt lat="40.833986933616" lon="-4.13782987699665">
        <time>2024-01-11T01:25:41Z</time>
      </trkpt>
      <trkpt lat="40.8340456090054" lon="-4.13790707619671">
        <time>2024-01-11T01:25:41Z</time>
      </trkpt>
      <trkpt lat="40.8341042843407" lon="-4.13798427553297">
        <time>2024-01-11T01:25:41Z</time>
      </trkpt>
      <trkpt lat="40.834162959622" lon="-4.13806147500532">
        <time>2024-01-11T01:25:41Z</time>
      </trkpt>
      <trkpt lat="40.8342216348493" lon="-4.13813867461386">
        <time>2024-01-11T01:25:41Z</time>
      </trkpt>
      <trkpt lat="40.834286626402" lon="-4.13821886549727">
        <time>2024-01-11T01:25:41Z</time>
      </trkpt>
      <trkpt lat="40.8343516178962" lon="-4.13829905653751">
        <time>2024-01-11T01:25:41Z</time>
      </trkpt>
      <trkpt lat="40.8344166093318" lon="-4.13837924773458">
        <time>2024-01-11T01:25:41Z</time>
      </trkpt>
      <trkpt lat="40.8344816007089" lon="-4.13845943908848">
        <time>2024-01-11T01:25:41Z</time>
      </trkpt>
      <trkpt lat="40.8345465920274" lon="-4.13853963059921">
        <time>2024-01-11T01:25:41Z</time>
      </trkpt>
      <trkpt lat="40.8346025154613" lon="-4.13860884072381">
        <time>2024-01-11T01:25:41Z</time>
      </trkpt>
      <trkpt lat="40.8346584388517" lon="-4.13867805096493">
        <time>2024-01-11T01:25:41Z</time>
      </trkpt>
      <trkpt lat="40.8347143621984" lon="-4.13874726132247">
        <time>2024-01-11T01:25:41Z</time>
      </trkpt>
      <trkpt lat="40.8347702855015" lon="-4.13881647179648">
        <time>2024-01-11T01:25:41Z</time>
      </trkpt>
      <trkpt lat="40.834826208761" lon="-4.13888568238696">
        <time>2024-01-11T01:25:41Z</time>
      </trkpt>
      <trkpt lat="40.8348821319769" lon="-4.13895489309391">
        <time>2024-01-11T01:25:41Z</time>
      </trkpt>
      <trkpt lat="40.8349500197487" lon="-4.13903136943941">
        <time>2024-01-11T01:25:41Z</time>
      </trkpt>
      <trkpt lat="40.8350179074669" lon="-4.13910784594134">
        <time>2024-01-11T01:25:41Z</time>
      </trkpt>
      <trkpt lat="40.8350857951316" lon="-4.13918432259976">
        <time>2024-01-11T01:25:41Z</time>
      </trkpt>
      <trkpt lat="40.8351536827427" lon="-4.13926079941468">
        <time>2024-01-11T01:25:41Z</time>
      </trkpt>
      <trkpt lat="40.8352215703003" lon="-4.13933727638608">
        <time>2024-01-11T01:25:41Z</time>
      </trkpt>
      <trkpt lat="40.8352787893429" lon="-4.13939591894286">
        <time>2024-01-11T01:25:41Z</time>
      </trkpt>
      <trkpt lat="40.8353360083537" lon="-4.13945456160093">
        <time>2024-01-11T01:25:41Z</time>
      </trkpt>
      <trkpt lat="40.8353932273329" lon="-4.1395132043603">
        <time>2024-01-11T01:25:41Z</time>
      </trkpt>
      <trkpt lat="40.8354504462803" lon="-4.13957184722097">
        <time>2024-01-11T01:25:41Z</time>
      </trkpt>
      <trkpt lat="40.8355093943475" lon="-4.13963640378211">
        <time>2024-01-11T01:25:41Z</time>
      </trkpt>
      <trkpt lat="40.8355683423765" lon="-4.13970096045802">
        <time>2024-01-11T01:25:41Z</time>
      </trkpt>
      <trkpt lat="40.8356272903672" lon="-4.13976551724869">
        <time>2024-01-11T01:25:41Z</time>
      </trkpt>
      <trkpt lat="40.8356862383197" lon="-4.13983007415408">
        <time>2024-01-11T01:25:41Z</time>
      </trkpt>
      <trkpt lat="40.8357532590812" lon="-4.13989775069763">
        <time>2024-01-11T01:25:41Z</time>
      </trkpt>
      <trkpt lat="40.8358202798004" lon="-4.13996542737812">
        <time>2024-01-11T01:25:41Z</time>
      </trkpt>
      <trkpt lat="40.8358873004772" lon="-4.14003310419554">
        <time>2024-01-11T01:25:41Z</time>
      </trkpt>
      <trkpt lat="40.8359543211118" lon="-4.14010078115001">
        <time>2024-01-11T01:25:41Z</time>
      </trkpt>
      <trkpt lat="40.8360213417042" lon="-4.14016845824148">
        <time>2024-01-11T01:25:41Z</time>
      </trkpt>
      <trkpt lat="40.8360843992013" lon="-4.1402305982079">
        <time>2024-01-11T01:25:41Z</time>
      </trkpt>
      <trkpt lat="40.8361474566627" lon="-4.14029273829272">
        <time>2024-01-11T01:25:41Z</time>
      </trkpt>
      <trkpt lat="40.8362105140883" lon="-4.14035487849589">
        <time>2024-01-11T01:25:41Z</time>
      </trkpt>
      <trkpt lat="40.8362735714783" lon="-4.14041701881752">
        <time>2024-01-11T01:25:41Z</time>
      </trkpt>
      <trkpt lat="40.8363366288325" lon="-4.1404791592575">
        <time>2024-01-11T01:25:41Z</time>
      </trkpt>
      <trkpt lat="40.836399686151" lon="-4.14054129981588">
        <time>2024-01-11T01:25:41Z</time>
      </trkpt>
      <trkpt lat="40.8364627434338" lon="-4.14060344049267">
        <time>2024-01-11T01:25:41Z</time>
      </trkpt>
      <trkpt lat="40.8365335724214" lon="-4.14067160232782">
        <time>2024-01-11T01:25:41Z</time>
      </trkpt>
      <trkpt lat="40.836604401366" lon="-4.14073976430894">
        <time>2024-01-11T01:25:41Z</time>
      </trkpt>
      <trkpt lat="40.8366752302676" lon="-4.14080792643603">
        <time>2024-01-11T01:25:41Z</time>
      </trkpt>
      <trkpt lat="40.8367317247481" lon="-4.1408795041441">
        <time>2024-01-11T01:25:41Z</time>
      </trkpt>
      <trkpt lat="40.8367882191821" lon="-4.14095108197381">
        <time>2024-01-11T01:25:41Z</time>
      </trkpt>
      <trkpt lat="40.8368447135695" lon="-4.14102265992517">
        <time>2024-01-11T01:25:41Z</time>
      </trkpt>
      <trkpt lat="40.8369012079102" lon="-4.14109423799812">
        <time>2024-01-11T01:25:41Z</time>
      </trkpt>
      <trkpt lat="40.8369672498389" lon="-4.14116441084303">
        <time>2024-01-11T01:25:41Z</time>
      </trkpt>
      <trkpt lat="40.8370332917222" lon="-4.14123458382784">
        <time>2024-01-11T01:25:41Z</time>
      </trkpt>
      <trkpt lat="40.8370993335603" lon="-4.14130475695243">
        <time>2024-01-11T01:25:41Z</time>
      </trkpt>
      <trkpt lat="40.8371705139608" lon="-4.14133735992448">
        <time>2024-01-11T01:25:41Z</time>
      </trkpt>
      <trkpt lat="40.8372416943502" lon="-4.14136996296788">
        <time>2024-01-11T01:25:41Z</time>
      </trkpt>
      <trkpt lat="40.8373199617184" lon="-4.14140896407565">
        <time>2024-01-11T01:25:41Z</time>
      </trkpt>
      <trkpt lat="40.8373982290712" lon="-4.141447965277">
        <time>2024-01-11T01:25:41Z</time>
      </trkpt>
      <trkpt lat="40.8374631167809" lon="-4.14147418416713">
        <time>2024-01-11T01:25:41Z</time>
      </trkpt>
      <trkpt lat="40.8375280044832" lon="-4.14150040310978">
        <time>2024-01-11T01:25:41Z</time>
      </trkpt>
      <trkpt lat="40.8375928921781" lon="-4.14152662210484">
        <time>2024-01-11T01:25:41Z</time>
      </trkpt>
      <trkpt lat="40.8376593530252" lon="-4.14155443725588">
        <time>2024-01-11T01:25:41Z</time>
      </trkpt>
      <trkpt lat="40.837725813864" lon="-4.14158225246388">
        <time>2024-01-11T01:25:41Z</time>
      </trkpt>
      <trkpt lat="40.8377922746947" lon="-4.14161006772884">
        <time>2024-01-11T01:25:41Z</time>
      </trkpt>
      <trkpt lat="40.8378587355171" lon="-4.14163788305075">
        <time>2024-01-11T01:25:41Z</time>
      </trkpt>
      <trkpt lat="40.8379335058735" lon="-4.14166897924929">
        <time>2024-01-11T01:25:41Z</time>
      </trkpt>
      <trkpt lat="40.8380082762196" lon="-4.14170007551951">
        <time>2024-01-11T01:25:41Z</time>
      </trkpt>
      <trkpt lat="40.8380830465555" lon="-4.14173117186135">
        <time>2024-01-11T01:25:41Z</time>
      </trkpt>
      <trkpt lat="40.8381578168811" lon="-4.14176226827488">
        <time>2024-01-11T01:25:41Z</time>
      </trkpt>
      <trkpt lat="40.8382403859641" lon="-4.14180008892544">
        <time>2024-01-11T01:25:41Z</time>
      </trkpt>
      <trkpt lat="40.8383229550323" lon="-4.1418379096719">
        <time>2024-01-11T01:25:41Z</time>
      </trkpt>
      <trkpt lat="40.8384055240857" lon="-4.14187573051436">
        <time>2024-01-11T01:25:41Z</time>
      </trkpt>
      <trkpt lat="40.8384880931243" lon="-4.14191355145278">
        <time>2024-01-11T01:25:41Z</time>
      </trkpt>
      <trkpt lat="40.8385706621481" lon="-4.1419513724872">
        <time>2024-01-11T01:25:41Z</time>
      </trkpt>
      <trkpt lat="40.8386466456601" lon="-4.14198029342055">
        <time>2024-01-11T01:25:41Z</time>
      </trkpt>
      <trkpt lat="40.8387226291629" lon="-4.14200921442182">
        <time>2024-01-11T01:25:41Z</time>
      </trkpt>
      <trkpt lat="40.8387986126566" lon="-4.14203813549097">
        <time>2024-01-11T01:25:41Z</time>
      </trkpt>
      <trkpt lat="40.8388745961412" lon="-4.14206705662798">
        <time>2024-01-11T01:25:41Z</time>
      </trkpt>
      <trkpt lat="40.8389505796168" lon="-4.14209597783298">
        <time>2024-01-11T01:25:41Z</time>
      </trkpt>
      <trkpt lat="40.8390172422359" lon="-4.14210339872836">
        <time>2024-01-11T01:25:41Z</time>
      </trkpt>
      <trkpt lat="40.8390839048537" lon="-4.1421108196401">
        <time>2024-01-11T01:25:41Z</time>
      </trkpt>
      <trkpt lat="40.8391508781445" lon="-4.14208686293563">
        <time>2024-01-11T01:25:41Z</time>
      </trkpt>
      <trkpt lat="40.8392178514302" lon="-4.14206290618438">
        <time>2024-01-11T01:25:41Z</time>
      </trkpt>
      <trkpt lat="40.8392828144675" lon="-4.1420012552465">
        <time>2024-01-11T01:25:41Z</time>
      </trkpt>
      <trkpt lat="40.8393477774728" lon="-4.14193960418897">
        <time>2024-01-11T01:25:41Z</time>
      </trkpt>
      <trkpt lat="40.8394126783229" lon="-4.14188422856347">
        <time>2024-01-11T01:25:41Z</time>
      </trkpt>
      <trkpt lat="40.839477579147" lon="-4.14182885283072">
        <time>2024-01-11T01:25:41Z</time>
      </trkpt>
      <trkpt lat="40.8395326993648" lon="-4.14179841566102">
        <time>2024-01-11T01:25:41Z</time>
      </trkpt>
      <trkpt lat="40.8395878195747" lon="-4.14176797844175">
        <time>2024-01-11T01:25:41Z</time>
      </trkpt>
      <trkpt lat="40.8396498093335" lon="-4.14176590394141">
        <time>2024-01-11T01:25:41Z</time>
      </trkpt>
      <trkpt lat="40.8397117990916" lon="-4.14176382943851">
        <time>2024-01-11T01:25:41Z</time>
      </trkpt>
      <trkpt lat="40.8397736956731" lon="-4.14177116831212">
        <time>2024-01-11T01:25:41Z</time>
      </trkpt>
      <trkpt lat="40.8398355922532" lon="-4.14177850720069">
        <time>2024-01-11T01:25:41Z</time>
      </trkpt>
      <trkpt lat="40.8399065239792" lon="-4.1418362144787">
        <time>2024-01-11T01:25:41Z</time>
      </trkpt>
      <trkpt lat="40.8399774556739" lon="-4.14189392188093">
        <time>2024-01-11T01:25:41Z</time>
      </trkpt>
      <trkpt lat="40.8400544074362" lon="-4.14193126201815">
        <time>2024-01-11T01:25:41Z</time>
      </trkpt>
      <trkpt lat="40.8401313591842" lon="-4.1419686022436">
        <time>2024-01-11T01:25:41Z</time>
      </trkpt>
      <trkpt lat="40.840208310918" lon="-4.14200594255715">
        <time>2024-01-11T01:25:41Z</time>
      </trkpt>
      <trkpt lat="40.8402174102105" lon="-4.14200093422814">
        <time>2024-01-11T01:25:41Z</time>
      </trkpt>
    </trkseg>
  </trk>
</gpx>
